<?xml version="1.0" encoding="UTF-8" standalone="no" ?>
<gpx xmlns="http://www.topografix.com/GPX/1/1" xmlns:xsi="http://www.w3.org/2001/XMLSchema-instance" xsi:schemaLocation="http://www.topografix.com/GPX/1/1 http://www.topografix.com/GPX/1/1/gpx.xsd" version="1.1" creator="VisuGPX - https://www.visugpx.com">
  <metadata>
    <name>23èmes randonnées du plateau de PLASNE</name>
    <desc><![CDATA[Belle randonnée VTT de 57 kms organisée par le club cyclo des monts de PLASNE.
]]></desc>
  </metadata>
  <trk>
    <name><![CDATA[2019-05-19_randonnée Plasne]]></name>
    <trkseg>
      <trkpt lat="46.80487" lon="5.68413">
        <ele>622.4</ele>
        <time>2019-05-19T06:10:00Z</time>
      </trkpt>
      <trkpt lat="46.80489" lon="5.68411">
        <ele>606.5</ele>
        <time>2019-05-19T06:10:01Z</time>
      </trkpt>
      <trkpt lat="46.80496" lon="5.68402">
        <ele>371</ele>
        <time>2019-05-19T06:11:12Z</time>
      </trkpt>
      <trkpt lat="46.80488" lon="5.68392">
        <ele>370.3</ele>
        <time>2019-05-19T06:11:16Z</time>
      </trkpt>
      <trkpt lat="46.80477" lon="5.68391">
        <ele>369.8</ele>
        <time>2019-05-19T06:11:20Z</time>
      </trkpt>
      <trkpt lat="46.80467" lon="5.68389">
        <ele>369.5</ele>
        <time>2019-05-19T06:11:24Z</time>
      </trkpt>
      <trkpt lat="46.80456" lon="5.68387">
        <ele>369</ele>
        <time>2019-05-19T06:11:28Z</time>
      </trkpt>
      <trkpt lat="46.80445" lon="5.68383">
        <ele>369</ele>
        <time>2019-05-19T06:11:33Z</time>
      </trkpt>
      <trkpt lat="46.80435" lon="5.68381">
        <ele>369</ele>
        <time>2019-05-19T06:11:37Z</time>
      </trkpt>
      <trkpt lat="46.80425" lon="5.68381">
        <ele>369.1</ele>
        <time>2019-05-19T06:11:41Z</time>
      </trkpt>
      <trkpt lat="46.80416" lon="5.68382">
        <ele>369.4</ele>
        <time>2019-05-19T06:11:45Z</time>
      </trkpt>
      <trkpt lat="46.80407" lon="5.68385">
        <ele>369.6</ele>
        <time>2019-05-19T06:11:49Z</time>
      </trkpt>
      <trkpt lat="46.80397" lon="5.68392">
        <ele>370</ele>
        <time>2019-05-19T06:11:53Z</time>
      </trkpt>
      <trkpt lat="46.80389" lon="5.68399">
        <ele>370.5</ele>
        <time>2019-05-19T06:11:57Z</time>
      </trkpt>
      <trkpt lat="46.8038" lon="5.68406">
        <ele>371</ele>
        <time>2019-05-19T06:12:01Z</time>
      </trkpt>
      <trkpt lat="46.80369" lon="5.68413">
        <ele>371.5</ele>
        <time>2019-05-19T06:12:05Z</time>
      </trkpt>
      <trkpt lat="46.80359" lon="5.68419">
        <ele>372.1</ele>
        <time>2019-05-19T06:12:09Z</time>
      </trkpt>
      <trkpt lat="46.80349" lon="5.68427">
        <ele>372.6</ele>
        <time>2019-05-19T06:12:13Z</time>
      </trkpt>
      <trkpt lat="46.80346" lon="5.6844">
        <ele>373.1</ele>
        <time>2019-05-19T06:12:18Z</time>
      </trkpt>
      <trkpt lat="46.80355" lon="5.6844">
        <ele>373.8</ele>
        <time>2019-05-19T06:12:24Z</time>
      </trkpt>
      <trkpt lat="46.80358" lon="5.68454">
        <ele>375.3</ele>
        <time>2019-05-19T06:12:50Z</time>
      </trkpt>
      <trkpt lat="46.8035" lon="5.68451">
        <ele>375.5</ele>
        <time>2019-05-19T06:17:35Z</time>
      </trkpt>
      <trkpt lat="46.8035" lon="5.68436">
        <ele>375.2</ele>
        <time>2019-05-19T06:19:29Z</time>
      </trkpt>
      <trkpt lat="46.8034" lon="5.68431">
        <ele>375.2</ele>
        <time>2019-05-19T06:19:34Z</time>
      </trkpt>
      <trkpt lat="46.80331" lon="5.68435">
        <ele>375.3</ele>
        <time>2019-05-19T06:19:39Z</time>
      </trkpt>
      <trkpt lat="46.80321" lon="5.68438">
        <ele>375.4</ele>
        <time>2019-05-19T06:19:45Z</time>
      </trkpt>
      <trkpt lat="46.80311" lon="5.68441">
        <ele>375.6</ele>
        <time>2019-05-19T06:19:51Z</time>
      </trkpt>
      <trkpt lat="46.80302" lon="5.68442">
        <ele>376</ele>
        <time>2019-05-19T06:19:56Z</time>
      </trkpt>
      <trkpt lat="46.80293" lon="5.68445">
        <ele>376.5</ele>
        <time>2019-05-19T06:20:01Z</time>
      </trkpt>
      <trkpt lat="46.80282" lon="5.68448">
        <ele>377.2</ele>
        <time>2019-05-19T06:20:07Z</time>
      </trkpt>
      <trkpt lat="46.80273" lon="5.68451">
        <ele>377.9</ele>
        <time>2019-05-19T06:20:12Z</time>
      </trkpt>
      <trkpt lat="46.80261" lon="5.68455">
        <ele>378.4</ele>
        <time>2019-05-19T06:20:16Z</time>
      </trkpt>
      <trkpt lat="46.80252" lon="5.68458">
        <ele>378.7</ele>
        <time>2019-05-19T06:20:19Z</time>
      </trkpt>
      <trkpt lat="46.8024" lon="5.6846">
        <ele>378.9</ele>
        <time>2019-05-19T06:20:22Z</time>
      </trkpt>
      <trkpt lat="46.80226" lon="5.68461">
        <ele>379.1</ele>
        <time>2019-05-19T06:20:25Z</time>
      </trkpt>
      <trkpt lat="46.80216" lon="5.68459">
        <ele>379.2</ele>
        <time>2019-05-19T06:20:27Z</time>
      </trkpt>
      <trkpt lat="46.80204" lon="5.68456">
        <ele>379.1</ele>
        <time>2019-05-19T06:20:29Z</time>
      </trkpt>
      <trkpt lat="46.80192" lon="5.68452">
        <ele>379</ele>
        <time>2019-05-19T06:20:31Z</time>
      </trkpt>
      <trkpt lat="46.8018" lon="5.68448">
        <ele>379</ele>
        <time>2019-05-19T06:20:33Z</time>
      </trkpt>
      <trkpt lat="46.80169" lon="5.68443">
        <ele>378.9</ele>
        <time>2019-05-19T06:20:35Z</time>
      </trkpt>
      <trkpt lat="46.80159" lon="5.68438">
        <ele>378.8</ele>
        <time>2019-05-19T06:20:37Z</time>
      </trkpt>
      <trkpt lat="46.80148" lon="5.68433">
        <ele>378.7</ele>
        <time>2019-05-19T06:20:40Z</time>
      </trkpt>
      <trkpt lat="46.80139" lon="5.68428">
        <ele>378.6</ele>
        <time>2019-05-19T06:20:44Z</time>
      </trkpt>
      <trkpt lat="46.8013" lon="5.68423">
        <ele>378.7</ele>
        <time>2019-05-19T06:20:48Z</time>
      </trkpt>
      <trkpt lat="46.80121" lon="5.68418">
        <ele>378.9</ele>
        <time>2019-05-19T06:20:52Z</time>
      </trkpt>
      <trkpt lat="46.80111" lon="5.68414">
        <ele>379.2</ele>
        <time>2019-05-19T06:20:56Z</time>
      </trkpt>
      <trkpt lat="46.80101" lon="5.6841">
        <ele>379.5</ele>
        <time>2019-05-19T06:21:00Z</time>
      </trkpt>
      <trkpt lat="46.80092" lon="5.68407">
        <ele>379.7</ele>
        <time>2019-05-19T06:21:03Z</time>
      </trkpt>
      <trkpt lat="46.80083" lon="5.68404">
        <ele>379.8</ele>
        <time>2019-05-19T06:21:06Z</time>
      </trkpt>
      <trkpt lat="46.80072" lon="5.68396">
        <ele>380</ele>
        <time>2019-05-19T06:21:10Z</time>
      </trkpt>
      <trkpt lat="46.80066" lon="5.68385">
        <ele>380.1</ele>
        <time>2019-05-19T06:21:13Z</time>
      </trkpt>
      <trkpt lat="46.80062" lon="5.68373">
        <ele>380.2</ele>
        <time>2019-05-19T06:21:16Z</time>
      </trkpt>
      <trkpt lat="46.80058" lon="5.68361">
        <ele>380.5</ele>
        <time>2019-05-19T06:21:19Z</time>
      </trkpt>
      <trkpt lat="46.80051" lon="5.68347">
        <ele>381</ele>
        <time>2019-05-19T06:21:23Z</time>
      </trkpt>
      <trkpt lat="46.80043" lon="5.68333">
        <ele>381.8</ele>
        <time>2019-05-19T06:21:27Z</time>
      </trkpt>
      <trkpt lat="46.80034" lon="5.68322">
        <ele>382.8</ele>
        <time>2019-05-19T06:21:31Z</time>
      </trkpt>
      <trkpt lat="46.80026" lon="5.68315">
        <ele>383.4</ele>
        <time>2019-05-19T06:21:34Z</time>
      </trkpt>
      <trkpt lat="46.80019" lon="5.68306">
        <ele>384.1</ele>
        <time>2019-05-19T06:21:37Z</time>
      </trkpt>
      <trkpt lat="46.80009" lon="5.68297">
        <ele>385</ele>
        <time>2019-05-19T06:21:41Z</time>
      </trkpt>
      <trkpt lat="46.79998" lon="5.68289">
        <ele>385.9</ele>
        <time>2019-05-19T06:21:45Z</time>
      </trkpt>
      <trkpt lat="46.79989" lon="5.6828">
        <ele>386.9</ele>
        <time>2019-05-19T06:21:49Z</time>
      </trkpt>
      <trkpt lat="46.7998" lon="5.68273">
        <ele>387.7</ele>
        <time>2019-05-19T06:21:53Z</time>
      </trkpt>
      <trkpt lat="46.7997" lon="5.68264">
        <ele>388.5</ele>
        <time>2019-05-19T06:21:57Z</time>
      </trkpt>
      <trkpt lat="46.79959" lon="5.68256">
        <ele>389.4</ele>
        <time>2019-05-19T06:22:01Z</time>
      </trkpt>
      <trkpt lat="46.79949" lon="5.68249">
        <ele>390.1</ele>
        <time>2019-05-19T06:22:05Z</time>
      </trkpt>
      <trkpt lat="46.7994" lon="5.6824">
        <ele>390.5</ele>
        <time>2019-05-19T06:22:08Z</time>
      </trkpt>
      <trkpt lat="46.79931" lon="5.68233">
        <ele>390.8</ele>
        <time>2019-05-19T06:22:11Z</time>
      </trkpt>
      <trkpt lat="46.79922" lon="5.68225">
        <ele>391.1</ele>
        <time>2019-05-19T06:22:14Z</time>
      </trkpt>
      <trkpt lat="46.79912" lon="5.68218">
        <ele>391.3</ele>
        <time>2019-05-19T06:22:17Z</time>
      </trkpt>
      <trkpt lat="46.79903" lon="5.6821">
        <ele>391.5</ele>
        <time>2019-05-19T06:22:20Z</time>
      </trkpt>
      <trkpt lat="46.79893" lon="5.68204">
        <ele>391.6</ele>
        <time>2019-05-19T06:22:23Z</time>
      </trkpt>
      <trkpt lat="46.79884" lon="5.68197">
        <ele>391.9</ele>
        <time>2019-05-19T06:22:26Z</time>
      </trkpt>
      <trkpt lat="46.79875" lon="5.68192">
        <ele>392.2</ele>
        <time>2019-05-19T06:22:29Z</time>
      </trkpt>
      <trkpt lat="46.79867" lon="5.68187">
        <ele>392.4</ele>
        <time>2019-05-19T06:22:32Z</time>
      </trkpt>
      <trkpt lat="46.79858" lon="5.68181">
        <ele>392.7</ele>
        <time>2019-05-19T06:22:35Z</time>
      </trkpt>
      <trkpt lat="46.79847" lon="5.68175">
        <ele>393.3</ele>
        <time>2019-05-19T06:22:39Z</time>
      </trkpt>
      <trkpt lat="46.79838" lon="5.6817">
        <ele>393.8</ele>
        <time>2019-05-19T06:22:42Z</time>
      </trkpt>
      <trkpt lat="46.7983" lon="5.68165">
        <ele>394.2</ele>
        <time>2019-05-19T06:22:45Z</time>
      </trkpt>
      <trkpt lat="46.79821" lon="5.68159">
        <ele>394.8</ele>
        <time>2019-05-19T06:22:49Z</time>
      </trkpt>
      <trkpt lat="46.79812" lon="5.68155">
        <ele>395.5</ele>
        <time>2019-05-19T06:22:54Z</time>
      </trkpt>
      <trkpt lat="46.79803" lon="5.6816">
        <ele>396</ele>
        <time>2019-05-19T06:22:58Z</time>
      </trkpt>
      <trkpt lat="46.79798" lon="5.68173">
        <ele>396.2</ele>
        <time>2019-05-19T06:23:01Z</time>
      </trkpt>
      <trkpt lat="46.79793" lon="5.68188">
        <ele>396.4</ele>
        <time>2019-05-19T06:23:04Z</time>
      </trkpt>
      <trkpt lat="46.79783" lon="5.68197">
        <ele>396.6</ele>
        <time>2019-05-19T06:23:07Z</time>
      </trkpt>
      <trkpt lat="46.79773" lon="5.68208">
        <ele>396.8</ele>
        <time>2019-05-19T06:23:10Z</time>
      </trkpt>
      <trkpt lat="46.79763" lon="5.68218">
        <ele>396.9</ele>
        <time>2019-05-19T06:23:13Z</time>
      </trkpt>
      <trkpt lat="46.79754" lon="5.68228">
        <ele>396.9</ele>
        <time>2019-05-19T06:23:16Z</time>
      </trkpt>
      <trkpt lat="46.79746" lon="5.68237">
        <ele>396.9</ele>
        <time>2019-05-19T06:23:19Z</time>
      </trkpt>
      <trkpt lat="46.79739" lon="5.68246">
        <ele>396.9</ele>
        <time>2019-05-19T06:23:22Z</time>
      </trkpt>
      <trkpt lat="46.79735" lon="5.68262">
        <ele>396.8</ele>
        <time>2019-05-19T06:23:25Z</time>
      </trkpt>
      <trkpt lat="46.79731" lon="5.68276">
        <ele>396.5</ele>
        <time>2019-05-19T06:23:27Z</time>
      </trkpt>
      <trkpt lat="46.79725" lon="5.68292">
        <ele>396.1</ele>
        <time>2019-05-19T06:23:29Z</time>
      </trkpt>
      <trkpt lat="46.79717" lon="5.68309">
        <ele>395.6</ele>
        <time>2019-05-19T06:23:31Z</time>
      </trkpt>
      <trkpt lat="46.79709" lon="5.68326">
        <ele>395.1</ele>
        <time>2019-05-19T06:23:33Z</time>
      </trkpt>
      <trkpt lat="46.79701" lon="5.68345">
        <ele>394.5</ele>
        <time>2019-05-19T06:23:35Z</time>
      </trkpt>
      <trkpt lat="46.79692" lon="5.68363">
        <ele>393.9</ele>
        <time>2019-05-19T06:23:37Z</time>
      </trkpt>
      <trkpt lat="46.79683" lon="5.6838">
        <ele>393.2</ele>
        <time>2019-05-19T06:23:39Z</time>
      </trkpt>
      <trkpt lat="46.79675" lon="5.68394">
        <ele>392.3</ele>
        <time>2019-05-19T06:23:41Z</time>
      </trkpt>
      <trkpt lat="46.79666" lon="5.68405">
        <ele>391.4</ele>
        <time>2019-05-19T06:23:43Z</time>
      </trkpt>
      <trkpt lat="46.79659" lon="5.68417">
        <ele>390.7</ele>
        <time>2019-05-19T06:23:45Z</time>
      </trkpt>
      <trkpt lat="46.79651" lon="5.68427">
        <ele>389.8</ele>
        <time>2019-05-19T06:23:47Z</time>
      </trkpt>
      <trkpt lat="46.79643" lon="5.6844">
        <ele>388.9</ele>
        <time>2019-05-19T06:23:49Z</time>
      </trkpt>
      <trkpt lat="46.79633" lon="5.68453">
        <ele>387.9</ele>
        <time>2019-05-19T06:23:51Z</time>
      </trkpt>
      <trkpt lat="46.79624" lon="5.68466">
        <ele>386.9</ele>
        <time>2019-05-19T06:23:53Z</time>
      </trkpt>
      <trkpt lat="46.79615" lon="5.68477">
        <ele>385.8</ele>
        <time>2019-05-19T06:23:55Z</time>
      </trkpt>
      <trkpt lat="46.79606" lon="5.6849">
        <ele>384.8</ele>
        <time>2019-05-19T06:23:57Z</time>
      </trkpt>
      <trkpt lat="46.79597" lon="5.68504">
        <ele>383.8</ele>
        <time>2019-05-19T06:23:59Z</time>
      </trkpt>
      <trkpt lat="46.79588" lon="5.68518">
        <ele>382.9</ele>
        <time>2019-05-19T06:24:01Z</time>
      </trkpt>
      <trkpt lat="46.7958" lon="5.68534">
        <ele>381.9</ele>
        <time>2019-05-19T06:24:03Z</time>
      </trkpt>
      <trkpt lat="46.7957" lon="5.68551">
        <ele>381</ele>
        <time>2019-05-19T06:24:05Z</time>
      </trkpt>
      <trkpt lat="46.7956" lon="5.68569">
        <ele>380.1</ele>
        <time>2019-05-19T06:24:07Z</time>
      </trkpt>
      <trkpt lat="46.7955" lon="5.68586">
        <ele>379.2</ele>
        <time>2019-05-19T06:24:09Z</time>
      </trkpt>
      <trkpt lat="46.79541" lon="5.68605">
        <ele>378.3</ele>
        <time>2019-05-19T06:24:11Z</time>
      </trkpt>
      <trkpt lat="46.79532" lon="5.68623">
        <ele>377.4</ele>
        <time>2019-05-19T06:24:13Z</time>
      </trkpt>
      <trkpt lat="46.79523" lon="5.6864">
        <ele>376.6</ele>
        <time>2019-05-19T06:24:15Z</time>
      </trkpt>
      <trkpt lat="46.79514" lon="5.68659">
        <ele>375.8</ele>
        <time>2019-05-19T06:24:17Z</time>
      </trkpt>
      <trkpt lat="46.79506" lon="5.68677">
        <ele>375</ele>
        <time>2019-05-19T06:24:19Z</time>
      </trkpt>
      <trkpt lat="46.79497" lon="5.68695">
        <ele>374.4</ele>
        <time>2019-05-19T06:24:21Z</time>
      </trkpt>
      <trkpt lat="46.79489" lon="5.68714">
        <ele>373.6</ele>
        <time>2019-05-19T06:24:23Z</time>
      </trkpt>
      <trkpt lat="46.79482" lon="5.68732">
        <ele>372.8</ele>
        <time>2019-05-19T06:24:25Z</time>
      </trkpt>
      <trkpt lat="46.79476" lon="5.68748">
        <ele>371.8</ele>
        <time>2019-05-19T06:24:27Z</time>
      </trkpt>
      <trkpt lat="46.79471" lon="5.68761">
        <ele>370.8</ele>
        <time>2019-05-19T06:24:29Z</time>
      </trkpt>
      <trkpt lat="46.79471" lon="5.68776">
        <ele>369.5</ele>
        <time>2019-05-19T06:24:32Z</time>
      </trkpt>
      <trkpt lat="46.7948" lon="5.6879">
        <ele>368.3</ele>
        <time>2019-05-19T06:24:35Z</time>
      </trkpt>
      <trkpt lat="46.7948" lon="5.68804">
        <ele>367.2</ele>
        <time>2019-05-19T06:24:38Z</time>
      </trkpt>
      <trkpt lat="46.79468" lon="5.6881">
        <ele>366.2</ele>
        <time>2019-05-19T06:24:41Z</time>
      </trkpt>
      <trkpt lat="46.7946" lon="5.68816">
        <ele>365.6</ele>
        <time>2019-05-19T06:24:43Z</time>
      </trkpt>
      <trkpt lat="46.79452" lon="5.68825">
        <ele>365</ele>
        <time>2019-05-19T06:24:45Z</time>
      </trkpt>
      <trkpt lat="46.79442" lon="5.68834">
        <ele>364.6</ele>
        <time>2019-05-19T06:24:47Z</time>
      </trkpt>
      <trkpt lat="46.79432" lon="5.68844">
        <ele>364.1</ele>
        <time>2019-05-19T06:24:49Z</time>
      </trkpt>
      <trkpt lat="46.79422" lon="5.68855">
        <ele>363.7</ele>
        <time>2019-05-19T06:24:51Z</time>
      </trkpt>
      <trkpt lat="46.79412" lon="5.68867">
        <ele>363.3</ele>
        <time>2019-05-19T06:24:53Z</time>
      </trkpt>
      <trkpt lat="46.79403" lon="5.68879">
        <ele>363</ele>
        <time>2019-05-19T06:24:55Z</time>
      </trkpt>
      <trkpt lat="46.79394" lon="5.68892">
        <ele>362.7</ele>
        <time>2019-05-19T06:24:57Z</time>
      </trkpt>
      <trkpt lat="46.79384" lon="5.68906">
        <ele>362.4</ele>
        <time>2019-05-19T06:24:59Z</time>
      </trkpt>
      <trkpt lat="46.79374" lon="5.6892">
        <ele>362.1</ele>
        <time>2019-05-19T06:25:01Z</time>
      </trkpt>
      <trkpt lat="46.79364" lon="5.68934">
        <ele>361.7</ele>
        <time>2019-05-19T06:25:03Z</time>
      </trkpt>
      <trkpt lat="46.79353" lon="5.68948">
        <ele>361.3</ele>
        <time>2019-05-19T06:25:05Z</time>
      </trkpt>
      <trkpt lat="46.79342" lon="5.68962">
        <ele>360.9</ele>
        <time>2019-05-19T06:25:07Z</time>
      </trkpt>
      <trkpt lat="46.79331" lon="5.68975">
        <ele>360.5</ele>
        <time>2019-05-19T06:25:09Z</time>
      </trkpt>
      <trkpt lat="46.7932" lon="5.68989">
        <ele>360.1</ele>
        <time>2019-05-19T06:25:11Z</time>
      </trkpt>
      <trkpt lat="46.79309" lon="5.69003">
        <ele>359.8</ele>
        <time>2019-05-19T06:25:13Z</time>
      </trkpt>
      <trkpt lat="46.79298" lon="5.69015">
        <ele>359.4</ele>
        <time>2019-05-19T06:25:15Z</time>
      </trkpt>
      <trkpt lat="46.79286" lon="5.69027">
        <ele>359.1</ele>
        <time>2019-05-19T06:25:17Z</time>
      </trkpt>
      <trkpt lat="46.79274" lon="5.69038">
        <ele>358.7</ele>
        <time>2019-05-19T06:25:19Z</time>
      </trkpt>
      <trkpt lat="46.79261" lon="5.6905">
        <ele>358.4</ele>
        <time>2019-05-19T06:25:21Z</time>
      </trkpt>
      <trkpt lat="46.79249" lon="5.69062">
        <ele>358.1</ele>
        <time>2019-05-19T06:25:23Z</time>
      </trkpt>
      <trkpt lat="46.79236" lon="5.69074">
        <ele>357.9</ele>
        <time>2019-05-19T06:25:25Z</time>
      </trkpt>
      <trkpt lat="46.79224" lon="5.69086">
        <ele>357.6</ele>
        <time>2019-05-19T06:25:27Z</time>
      </trkpt>
      <trkpt lat="46.79212" lon="5.69098">
        <ele>357.3</ele>
        <time>2019-05-19T06:25:29Z</time>
      </trkpt>
      <trkpt lat="46.79201" lon="5.6911">
        <ele>357</ele>
        <time>2019-05-19T06:25:31Z</time>
      </trkpt>
      <trkpt lat="46.79189" lon="5.69123">
        <ele>356.7</ele>
        <time>2019-05-19T06:25:33Z</time>
      </trkpt>
      <trkpt lat="46.79178" lon="5.69136">
        <ele>356.4</ele>
        <time>2019-05-19T06:25:35Z</time>
      </trkpt>
      <trkpt lat="46.79168" lon="5.6915">
        <ele>356.1</ele>
        <time>2019-05-19T06:25:37Z</time>
      </trkpt>
      <trkpt lat="46.79157" lon="5.69164">
        <ele>355.7</ele>
        <time>2019-05-19T06:25:39Z</time>
      </trkpt>
      <trkpt lat="46.79148" lon="5.6918">
        <ele>355.4</ele>
        <time>2019-05-19T06:25:41Z</time>
      </trkpt>
      <trkpt lat="46.79141" lon="5.69197">
        <ele>355.1</ele>
        <time>2019-05-19T06:25:43Z</time>
      </trkpt>
      <trkpt lat="46.79135" lon="5.69215">
        <ele>354.8</ele>
        <time>2019-05-19T06:25:45Z</time>
      </trkpt>
      <trkpt lat="46.79129" lon="5.69233">
        <ele>354.5</ele>
        <time>2019-05-19T06:25:47Z</time>
      </trkpt>
      <trkpt lat="46.79124" lon="5.69253">
        <ele>354.2</ele>
        <time>2019-05-19T06:25:49Z</time>
      </trkpt>
      <trkpt lat="46.79118" lon="5.69271">
        <ele>353.9</ele>
        <time>2019-05-19T06:25:51Z</time>
      </trkpt>
      <trkpt lat="46.79111" lon="5.69289">
        <ele>353.6</ele>
        <time>2019-05-19T06:25:53Z</time>
      </trkpt>
      <trkpt lat="46.79102" lon="5.69306">
        <ele>353.3</ele>
        <time>2019-05-19T06:25:55Z</time>
      </trkpt>
      <trkpt lat="46.79092" lon="5.69322">
        <ele>353</ele>
        <time>2019-05-19T06:25:57Z</time>
      </trkpt>
      <trkpt lat="46.79082" lon="5.69339">
        <ele>352.7</ele>
        <time>2019-05-19T06:25:59Z</time>
      </trkpt>
      <trkpt lat="46.79071" lon="5.69355">
        <ele>352.3</ele>
        <time>2019-05-19T06:26:01Z</time>
      </trkpt>
      <trkpt lat="46.79061" lon="5.6937">
        <ele>352</ele>
        <time>2019-05-19T06:26:03Z</time>
      </trkpt>
      <trkpt lat="46.7905" lon="5.69385">
        <ele>351.6</ele>
        <time>2019-05-19T06:26:05Z</time>
      </trkpt>
      <trkpt lat="46.7904" lon="5.694">
        <ele>351.2</ele>
        <time>2019-05-19T06:26:07Z</time>
      </trkpt>
      <trkpt lat="46.79029" lon="5.69414">
        <ele>350.9</ele>
        <time>2019-05-19T06:26:09Z</time>
      </trkpt>
      <trkpt lat="46.79019" lon="5.69427">
        <ele>350.6</ele>
        <time>2019-05-19T06:26:11Z</time>
      </trkpt>
      <trkpt lat="46.7901" lon="5.6944">
        <ele>350.3</ele>
        <time>2019-05-19T06:26:13Z</time>
      </trkpt>
      <trkpt lat="46.79001" lon="5.69453">
        <ele>350.1</ele>
        <time>2019-05-19T06:26:15Z</time>
      </trkpt>
      <trkpt lat="46.78992" lon="5.69465">
        <ele>349.9</ele>
        <time>2019-05-19T06:26:17Z</time>
      </trkpt>
      <trkpt lat="46.78984" lon="5.69476">
        <ele>349.7</ele>
        <time>2019-05-19T06:26:19Z</time>
      </trkpt>
      <trkpt lat="46.78977" lon="5.69487">
        <ele>349.5</ele>
        <time>2019-05-19T06:26:21Z</time>
      </trkpt>
      <trkpt lat="46.78969" lon="5.69499">
        <ele>349.4</ele>
        <time>2019-05-19T06:26:23Z</time>
      </trkpt>
      <trkpt lat="46.78961" lon="5.6951">
        <ele>349.3</ele>
        <time>2019-05-19T06:26:25Z</time>
      </trkpt>
      <trkpt lat="46.78952" lon="5.69522">
        <ele>349.2</ele>
        <time>2019-05-19T06:26:27Z</time>
      </trkpt>
      <trkpt lat="46.78943" lon="5.69534">
        <ele>349.2</ele>
        <time>2019-05-19T06:26:29Z</time>
      </trkpt>
      <trkpt lat="46.78935" lon="5.69545">
        <ele>349.1</ele>
        <time>2019-05-19T06:26:31Z</time>
      </trkpt>
      <trkpt lat="46.78926" lon="5.69557">
        <ele>349</ele>
        <time>2019-05-19T06:26:33Z</time>
      </trkpt>
      <trkpt lat="46.78916" lon="5.69568">
        <ele>349</ele>
        <time>2019-05-19T06:26:35Z</time>
      </trkpt>
      <trkpt lat="46.78907" lon="5.69581">
        <ele>348.9</ele>
        <time>2019-05-19T06:26:37Z</time>
      </trkpt>
      <trkpt lat="46.78897" lon="5.69593">
        <ele>348.8</ele>
        <time>2019-05-19T06:26:39Z</time>
      </trkpt>
      <trkpt lat="46.78888" lon="5.69604">
        <ele>348.8</ele>
        <time>2019-05-19T06:26:41Z</time>
      </trkpt>
      <trkpt lat="46.78879" lon="5.69614">
        <ele>348.7</ele>
        <time>2019-05-19T06:26:43Z</time>
      </trkpt>
      <trkpt lat="46.78871" lon="5.69625">
        <ele>348.7</ele>
        <time>2019-05-19T06:26:45Z</time>
      </trkpt>
      <trkpt lat="46.78863" lon="5.69637">
        <ele>348.6</ele>
        <time>2019-05-19T06:26:47Z</time>
      </trkpt>
      <trkpt lat="46.78855" lon="5.69649">
        <ele>348.6</ele>
        <time>2019-05-19T06:26:49Z</time>
      </trkpt>
      <trkpt lat="46.78847" lon="5.6966">
        <ele>348.6</ele>
        <time>2019-05-19T06:26:51Z</time>
      </trkpt>
      <trkpt lat="46.78839" lon="5.69672">
        <ele>348.5</ele>
        <time>2019-05-19T06:26:53Z</time>
      </trkpt>
      <trkpt lat="46.78833" lon="5.69684">
        <ele>348.5</ele>
        <time>2019-05-19T06:26:55Z</time>
      </trkpt>
      <trkpt lat="46.78826" lon="5.69697">
        <ele>348.5</ele>
        <time>2019-05-19T06:26:57Z</time>
      </trkpt>
      <trkpt lat="46.7882" lon="5.69709">
        <ele>348.4</ele>
        <time>2019-05-19T06:26:59Z</time>
      </trkpt>
      <trkpt lat="46.78815" lon="5.69721">
        <ele>348.4</ele>
        <time>2019-05-19T06:27:01Z</time>
      </trkpt>
      <trkpt lat="46.7881" lon="5.69732">
        <ele>348.4</ele>
        <time>2019-05-19T06:27:03Z</time>
      </trkpt>
      <trkpt lat="46.78805" lon="5.69743">
        <ele>348.3</ele>
        <time>2019-05-19T06:27:05Z</time>
      </trkpt>
      <trkpt lat="46.78799" lon="5.69754">
        <ele>348.4</ele>
        <time>2019-05-19T06:27:07Z</time>
      </trkpt>
      <trkpt lat="46.78794" lon="5.69764">
        <ele>348.5</ele>
        <time>2019-05-19T06:27:09Z</time>
      </trkpt>
      <trkpt lat="46.78787" lon="5.69777">
        <ele>348.6</ele>
        <time>2019-05-19T06:27:12Z</time>
      </trkpt>
      <trkpt lat="46.78779" lon="5.6979">
        <ele>348.7</ele>
        <time>2019-05-19T06:27:15Z</time>
      </trkpt>
      <trkpt lat="46.78772" lon="5.69804">
        <ele>348.8</ele>
        <time>2019-05-19T06:27:18Z</time>
      </trkpt>
      <trkpt lat="46.78765" lon="5.69817">
        <ele>349</ele>
        <time>2019-05-19T06:27:21Z</time>
      </trkpt>
      <trkpt lat="46.78758" lon="5.6983">
        <ele>349.3</ele>
        <time>2019-05-19T06:27:24Z</time>
      </trkpt>
      <trkpt lat="46.78751" lon="5.69842">
        <ele>349.6</ele>
        <time>2019-05-19T06:27:27Z</time>
      </trkpt>
      <trkpt lat="46.78745" lon="5.69855">
        <ele>349.8</ele>
        <time>2019-05-19T06:27:30Z</time>
      </trkpt>
      <trkpt lat="46.78738" lon="5.69867">
        <ele>350.2</ele>
        <time>2019-05-19T06:27:33Z</time>
      </trkpt>
      <trkpt lat="46.78732" lon="5.69879">
        <ele>350.5</ele>
        <time>2019-05-19T06:27:36Z</time>
      </trkpt>
      <trkpt lat="46.78724" lon="5.69892">
        <ele>350.8</ele>
        <time>2019-05-19T06:27:39Z</time>
      </trkpt>
      <trkpt lat="46.78718" lon="5.69905">
        <ele>351.1</ele>
        <time>2019-05-19T06:27:42Z</time>
      </trkpt>
      <trkpt lat="46.7871" lon="5.69918">
        <ele>351.4</ele>
        <time>2019-05-19T06:27:45Z</time>
      </trkpt>
      <trkpt lat="46.78703" lon="5.69931">
        <ele>351.6</ele>
        <time>2019-05-19T06:27:48Z</time>
      </trkpt>
      <trkpt lat="46.78695" lon="5.69944">
        <ele>351.9</ele>
        <time>2019-05-19T06:27:51Z</time>
      </trkpt>
      <trkpt lat="46.78685" lon="5.69957">
        <ele>352</ele>
        <time>2019-05-19T06:27:54Z</time>
      </trkpt>
      <trkpt lat="46.78678" lon="5.69965">
        <ele>352.1</ele>
        <time>2019-05-19T06:27:56Z</time>
      </trkpt>
      <trkpt lat="46.78671" lon="5.69974">
        <ele>352.2</ele>
        <time>2019-05-19T06:27:58Z</time>
      </trkpt>
      <trkpt lat="46.78664" lon="5.69984">
        <ele>352.2</ele>
        <time>2019-05-19T06:28:00Z</time>
      </trkpt>
      <trkpt lat="46.78657" lon="5.69994">
        <ele>352.3</ele>
        <time>2019-05-19T06:28:02Z</time>
      </trkpt>
      <trkpt lat="46.7865" lon="5.70003">
        <ele>352.2</ele>
        <time>2019-05-19T06:28:04Z</time>
      </trkpt>
      <trkpt lat="46.78643" lon="5.70012">
        <ele>352.2</ele>
        <time>2019-05-19T06:28:06Z</time>
      </trkpt>
      <trkpt lat="46.78635" lon="5.70021">
        <ele>352.2</ele>
        <time>2019-05-19T06:28:08Z</time>
      </trkpt>
      <trkpt lat="46.78627" lon="5.7003">
        <ele>352.1</ele>
        <time>2019-05-19T06:28:10Z</time>
      </trkpt>
      <trkpt lat="46.78617" lon="5.70038">
        <ele>351.9</ele>
        <time>2019-05-19T06:28:12Z</time>
      </trkpt>
      <trkpt lat="46.78607" lon="5.70045">
        <ele>351.6</ele>
        <time>2019-05-19T06:28:14Z</time>
      </trkpt>
      <trkpt lat="46.78596" lon="5.70052">
        <ele>351.2</ele>
        <time>2019-05-19T06:28:17Z</time>
      </trkpt>
      <trkpt lat="46.78586" lon="5.70059">
        <ele>350.7</ele>
        <time>2019-05-19T06:28:22Z</time>
      </trkpt>
      <trkpt lat="46.7858" lon="5.70069">
        <ele>350.3</ele>
        <time>2019-05-19T06:28:27Z</time>
      </trkpt>
      <trkpt lat="46.78571" lon="5.70077">
        <ele>350.1</ele>
        <time>2019-05-19T06:28:32Z</time>
      </trkpt>
      <trkpt lat="46.78566" lon="5.70093">
        <ele>349.9</ele>
        <time>2019-05-19T06:28:37Z</time>
      </trkpt>
      <trkpt lat="46.78561" lon="5.70106">
        <ele>350</ele>
        <time>2019-05-19T06:28:41Z</time>
      </trkpt>
      <trkpt lat="46.78555" lon="5.70116">
        <ele>350.1</ele>
        <time>2019-05-19T06:28:44Z</time>
      </trkpt>
      <trkpt lat="46.78548" lon="5.70129">
        <ele>350.2</ele>
        <time>2019-05-19T06:28:48Z</time>
      </trkpt>
      <trkpt lat="46.78544" lon="5.70145">
        <ele>350.3</ele>
        <time>2019-05-19T06:28:52Z</time>
      </trkpt>
      <trkpt lat="46.78541" lon="5.70157">
        <ele>350.5</ele>
        <time>2019-05-19T06:28:55Z</time>
      </trkpt>
      <trkpt lat="46.78536" lon="5.70169">
        <ele>350.8</ele>
        <time>2019-05-19T06:28:59Z</time>
      </trkpt>
      <trkpt lat="46.78531" lon="5.70183">
        <ele>351.1</ele>
        <time>2019-05-19T06:29:03Z</time>
      </trkpt>
      <trkpt lat="46.78528" lon="5.70197">
        <ele>351.4</ele>
        <time>2019-05-19T06:29:08Z</time>
      </trkpt>
      <trkpt lat="46.78524" lon="5.70211">
        <ele>351.7</ele>
        <time>2019-05-19T06:29:13Z</time>
      </trkpt>
      <trkpt lat="46.78519" lon="5.70226">
        <ele>351.9</ele>
        <time>2019-05-19T06:29:17Z</time>
      </trkpt>
      <trkpt lat="46.78515" lon="5.70241">
        <ele>352</ele>
        <time>2019-05-19T06:29:21Z</time>
      </trkpt>
      <trkpt lat="46.7851" lon="5.70257">
        <ele>352.1</ele>
        <time>2019-05-19T06:29:25Z</time>
      </trkpt>
      <trkpt lat="46.78507" lon="5.70271">
        <ele>352.2</ele>
        <time>2019-05-19T06:29:29Z</time>
      </trkpt>
      <trkpt lat="46.78501" lon="5.70283">
        <ele>352.3</ele>
        <time>2019-05-19T06:29:32Z</time>
      </trkpt>
      <trkpt lat="46.78497" lon="5.70299">
        <ele>352.2</ele>
        <time>2019-05-19T06:29:36Z</time>
      </trkpt>
      <trkpt lat="46.78493" lon="5.70312">
        <ele>352.2</ele>
        <time>2019-05-19T06:29:39Z</time>
      </trkpt>
      <trkpt lat="46.78489" lon="5.70325">
        <ele>352.2</ele>
        <time>2019-05-19T06:29:42Z</time>
      </trkpt>
      <trkpt lat="46.78485" lon="5.70339">
        <ele>352</ele>
        <time>2019-05-19T06:29:45Z</time>
      </trkpt>
      <trkpt lat="46.7848" lon="5.70351">
        <ele>351.8</ele>
        <time>2019-05-19T06:29:47Z</time>
      </trkpt>
      <trkpt lat="46.78475" lon="5.70366">
        <ele>351.6</ele>
        <time>2019-05-19T06:29:50Z</time>
      </trkpt>
      <trkpt lat="46.78469" lon="5.70378">
        <ele>351.4</ele>
        <time>2019-05-19T06:29:54Z</time>
      </trkpt>
      <trkpt lat="46.78466" lon="5.70392">
        <ele>351.3</ele>
        <time>2019-05-19T06:29:59Z</time>
      </trkpt>
      <trkpt lat="46.78463" lon="5.70409">
        <ele>351.2</ele>
        <time>2019-05-19T06:30:03Z</time>
      </trkpt>
      <trkpt lat="46.78459" lon="5.70424">
        <ele>351.2</ele>
        <time>2019-05-19T06:30:06Z</time>
      </trkpt>
      <trkpt lat="46.78455" lon="5.7044">
        <ele>351.2</ele>
        <time>2019-05-19T06:30:09Z</time>
      </trkpt>
      <trkpt lat="46.78451" lon="5.70453">
        <ele>350.9</ele>
        <time>2019-05-19T06:30:12Z</time>
      </trkpt>
      <trkpt lat="46.78447" lon="5.70465">
        <ele>350.8</ele>
        <time>2019-05-19T06:30:16Z</time>
      </trkpt>
      <trkpt lat="46.78441" lon="5.70478">
        <ele>350.9</ele>
        <time>2019-05-19T06:30:20Z</time>
      </trkpt>
      <trkpt lat="46.78436" lon="5.7049">
        <ele>350.9</ele>
        <time>2019-05-19T06:30:27Z</time>
      </trkpt>
      <trkpt lat="46.78437" lon="5.70503">
        <ele>351.2</ele>
        <time>2019-05-19T06:30:46Z</time>
      </trkpt>
      <trkpt lat="46.78427" lon="5.70504">
        <ele>351.3</ele>
        <time>2019-05-19T06:31:25Z</time>
      </trkpt>
      <trkpt lat="46.78423" lon="5.70516">
        <ele>351.2</ele>
        <time>2019-05-19T06:31:29Z</time>
      </trkpt>
      <trkpt lat="46.78421" lon="5.7053">
        <ele>351.3</ele>
        <time>2019-05-19T06:31:32Z</time>
      </trkpt>
      <trkpt lat="46.78416" lon="5.70543">
        <ele>351.4</ele>
        <time>2019-05-19T06:31:35Z</time>
      </trkpt>
      <trkpt lat="46.78411" lon="5.70555">
        <ele>351.4</ele>
        <time>2019-05-19T06:31:38Z</time>
      </trkpt>
      <trkpt lat="46.78407" lon="5.7057">
        <ele>351.5</ele>
        <time>2019-05-19T06:31:41Z</time>
      </trkpt>
      <trkpt lat="46.78399" lon="5.70577">
        <ele>351.3</ele>
        <time>2019-05-19T06:31:45Z</time>
      </trkpt>
      <trkpt lat="46.78389" lon="5.7057">
        <ele>351.1</ele>
        <time>2019-05-19T06:31:48Z</time>
      </trkpt>
      <trkpt lat="46.78379" lon="5.70562">
        <ele>351</ele>
        <time>2019-05-19T06:31:51Z</time>
      </trkpt>
      <trkpt lat="46.78368" lon="5.70556">
        <ele>350.9</ele>
        <time>2019-05-19T06:31:54Z</time>
      </trkpt>
      <trkpt lat="46.78358" lon="5.7055">
        <ele>350.8</ele>
        <time>2019-05-19T06:31:57Z</time>
      </trkpt>
      <trkpt lat="46.7835" lon="5.70545">
        <ele>350.8</ele>
        <time>2019-05-19T06:32:00Z</time>
      </trkpt>
      <trkpt lat="46.78338" lon="5.70537">
        <ele>350.7</ele>
        <time>2019-05-19T06:32:03Z</time>
      </trkpt>
      <trkpt lat="46.78329" lon="5.7053">
        <ele>350.7</ele>
        <time>2019-05-19T06:32:05Z</time>
      </trkpt>
      <trkpt lat="46.7832" lon="5.70523">
        <ele>350.6</ele>
        <time>2019-05-19T06:32:07Z</time>
      </trkpt>
      <trkpt lat="46.78311" lon="5.70516">
        <ele>350.4</ele>
        <time>2019-05-19T06:32:09Z</time>
      </trkpt>
      <trkpt lat="46.78298" lon="5.70509">
        <ele>350</ele>
        <time>2019-05-19T06:32:12Z</time>
      </trkpt>
      <trkpt lat="46.78289" lon="5.70503">
        <ele>349.8</ele>
        <time>2019-05-19T06:32:14Z</time>
      </trkpt>
      <trkpt lat="46.78279" lon="5.70496">
        <ele>349.6</ele>
        <time>2019-05-19T06:32:16Z</time>
      </trkpt>
      <trkpt lat="46.78269" lon="5.70489">
        <ele>349.3</ele>
        <time>2019-05-19T06:32:18Z</time>
      </trkpt>
      <trkpt lat="46.78259" lon="5.70481">
        <ele>349.1</ele>
        <time>2019-05-19T06:32:20Z</time>
      </trkpt>
      <trkpt lat="46.78249" lon="5.70474">
        <ele>349</ele>
        <time>2019-05-19T06:32:22Z</time>
      </trkpt>
      <trkpt lat="46.78241" lon="5.70469">
        <ele>348.8</ele>
        <time>2019-05-19T06:32:24Z</time>
      </trkpt>
      <trkpt lat="46.78233" lon="5.70463">
        <ele>348.7</ele>
        <time>2019-05-19T06:32:26Z</time>
      </trkpt>
      <trkpt lat="46.78222" lon="5.70457">
        <ele>348.5</ele>
        <time>2019-05-19T06:32:29Z</time>
      </trkpt>
      <trkpt lat="46.78212" lon="5.70452">
        <ele>348.4</ele>
        <time>2019-05-19T06:32:32Z</time>
      </trkpt>
      <trkpt lat="46.78202" lon="5.70445">
        <ele>348.3</ele>
        <time>2019-05-19T06:32:35Z</time>
      </trkpt>
      <trkpt lat="46.78192" lon="5.70437">
        <ele>348.2</ele>
        <time>2019-05-19T06:32:38Z</time>
      </trkpt>
      <trkpt lat="46.7818" lon="5.70429">
        <ele>348.2</ele>
        <time>2019-05-19T06:32:41Z</time>
      </trkpt>
      <trkpt lat="46.7817" lon="5.70424">
        <ele>348.2</ele>
        <time>2019-05-19T06:32:44Z</time>
      </trkpt>
      <trkpt lat="46.7816" lon="5.70417">
        <ele>348.2</ele>
        <time>2019-05-19T06:32:48Z</time>
      </trkpt>
      <trkpt lat="46.7815" lon="5.70415">
        <ele>348.5</ele>
        <time>2019-05-19T06:32:59Z</time>
      </trkpt>
      <trkpt lat="46.7814" lon="5.70408">
        <ele>348.7</ele>
        <time>2019-05-19T06:33:03Z</time>
      </trkpt>
      <trkpt lat="46.78132" lon="5.70401">
        <ele>348.9</ele>
        <time>2019-05-19T06:33:06Z</time>
      </trkpt>
      <trkpt lat="46.78122" lon="5.70395">
        <ele>349.2</ele>
        <time>2019-05-19T06:33:10Z</time>
      </trkpt>
      <trkpt lat="46.78114" lon="5.70388">
        <ele>349.7</ele>
        <time>2019-05-19T06:33:14Z</time>
      </trkpt>
      <trkpt lat="46.78104" lon="5.7038">
        <ele>350.2</ele>
        <time>2019-05-19T06:33:19Z</time>
      </trkpt>
      <trkpt lat="46.78095" lon="5.70374">
        <ele>350.6</ele>
        <time>2019-05-19T06:33:23Z</time>
      </trkpt>
      <trkpt lat="46.78086" lon="5.70367">
        <ele>350.8</ele>
        <time>2019-05-19T06:33:27Z</time>
      </trkpt>
      <trkpt lat="46.78077" lon="5.7036">
        <ele>351</ele>
        <time>2019-05-19T06:33:30Z</time>
      </trkpt>
      <trkpt lat="46.78068" lon="5.70351">
        <ele>351.3</ele>
        <time>2019-05-19T06:33:33Z</time>
      </trkpt>
      <trkpt lat="46.78059" lon="5.70345">
        <ele>351.5</ele>
        <time>2019-05-19T06:33:36Z</time>
      </trkpt>
      <trkpt lat="46.78049" lon="5.7034">
        <ele>351.6</ele>
        <time>2019-05-19T06:33:39Z</time>
      </trkpt>
      <trkpt lat="46.78038" lon="5.70335">
        <ele>351.8</ele>
        <time>2019-05-19T06:33:42Z</time>
      </trkpt>
      <trkpt lat="46.78027" lon="5.70327">
        <ele>351.9</ele>
        <time>2019-05-19T06:33:45Z</time>
      </trkpt>
      <trkpt lat="46.78017" lon="5.7032">
        <ele>352</ele>
        <time>2019-05-19T06:33:48Z</time>
      </trkpt>
      <trkpt lat="46.78007" lon="5.70313">
        <ele>351.9</ele>
        <time>2019-05-19T06:33:51Z</time>
      </trkpt>
      <trkpt lat="46.77996" lon="5.70305">
        <ele>351.9</ele>
        <time>2019-05-19T06:33:54Z</time>
      </trkpt>
      <trkpt lat="46.77985" lon="5.70297">
        <ele>351.8</ele>
        <time>2019-05-19T06:33:57Z</time>
      </trkpt>
      <trkpt lat="46.77975" lon="5.70289">
        <ele>351.7</ele>
        <time>2019-05-19T06:34:00Z</time>
      </trkpt>
      <trkpt lat="46.77962" lon="5.7028">
        <ele>351.6</ele>
        <time>2019-05-19T06:34:03Z</time>
      </trkpt>
      <trkpt lat="46.77953" lon="5.70278">
        <ele>351.4</ele>
        <time>2019-05-19T06:34:05Z</time>
      </trkpt>
      <trkpt lat="46.77944" lon="5.70272">
        <ele>351.2</ele>
        <time>2019-05-19T06:34:08Z</time>
      </trkpt>
      <trkpt lat="46.77935" lon="5.70265">
        <ele>351</ele>
        <time>2019-05-19T06:34:11Z</time>
      </trkpt>
      <trkpt lat="46.77926" lon="5.70259">
        <ele>350.9</ele>
        <time>2019-05-19T06:34:14Z</time>
      </trkpt>
      <trkpt lat="46.77916" lon="5.70251">
        <ele>350.6</ele>
        <time>2019-05-19T06:34:17Z</time>
      </trkpt>
      <trkpt lat="46.77906" lon="5.70242">
        <ele>350.2</ele>
        <time>2019-05-19T06:34:20Z</time>
      </trkpt>
      <trkpt lat="46.77897" lon="5.70243">
        <ele>349.7</ele>
        <time>2019-05-19T06:34:23Z</time>
      </trkpt>
      <trkpt lat="46.77891" lon="5.70255">
        <ele>349.3</ele>
        <time>2019-05-19T06:34:26Z</time>
      </trkpt>
      <trkpt lat="46.77887" lon="5.70267">
        <ele>348.9</ele>
        <time>2019-05-19T06:34:29Z</time>
      </trkpt>
      <trkpt lat="46.77882" lon="5.70281">
        <ele>348.6</ele>
        <time>2019-05-19T06:34:33Z</time>
      </trkpt>
      <trkpt lat="46.77871" lon="5.70289">
        <ele>348.6</ele>
        <time>2019-05-19T06:34:36Z</time>
      </trkpt>
      <trkpt lat="46.77862" lon="5.70285">
        <ele>348.7</ele>
        <time>2019-05-19T06:34:40Z</time>
      </trkpt>
      <trkpt lat="46.77852" lon="5.70279">
        <ele>348.7</ele>
        <time>2019-05-19T06:34:43Z</time>
      </trkpt>
      <trkpt lat="46.77843" lon="5.70275">
        <ele>348.7</ele>
        <time>2019-05-19T06:34:46Z</time>
      </trkpt>
      <trkpt lat="46.77832" lon="5.70272">
        <ele>348.8</ele>
        <time>2019-05-19T06:34:49Z</time>
      </trkpt>
      <trkpt lat="46.77821" lon="5.70268">
        <ele>348.9</ele>
        <time>2019-05-19T06:34:52Z</time>
      </trkpt>
      <trkpt lat="46.7781" lon="5.70263">
        <ele>349</ele>
        <time>2019-05-19T06:34:55Z</time>
      </trkpt>
      <trkpt lat="46.77801" lon="5.70257">
        <ele>349.1</ele>
        <time>2019-05-19T06:34:58Z</time>
      </trkpt>
      <trkpt lat="46.77791" lon="5.7025">
        <ele>349.2</ele>
        <time>2019-05-19T06:35:01Z</time>
      </trkpt>
      <trkpt lat="46.7778" lon="5.70244">
        <ele>349.5</ele>
        <time>2019-05-19T06:35:04Z</time>
      </trkpt>
      <trkpt lat="46.7777" lon="5.70237">
        <ele>349.8</ele>
        <time>2019-05-19T06:35:07Z</time>
      </trkpt>
      <trkpt lat="46.77761" lon="5.7023">
        <ele>350.4</ele>
        <time>2019-05-19T06:35:10Z</time>
      </trkpt>
      <trkpt lat="46.77751" lon="5.70225">
        <ele>351.3</ele>
        <time>2019-05-19T06:35:14Z</time>
      </trkpt>
      <trkpt lat="46.77739" lon="5.70223">
        <ele>352.1</ele>
        <time>2019-05-19T06:35:18Z</time>
      </trkpt>
      <trkpt lat="46.77731" lon="5.70219">
        <ele>352.8</ele>
        <time>2019-05-19T06:35:21Z</time>
      </trkpt>
      <trkpt lat="46.77722" lon="5.70215">
        <ele>353.5</ele>
        <time>2019-05-19T06:35:24Z</time>
      </trkpt>
      <trkpt lat="46.77711" lon="5.7021">
        <ele>354</ele>
        <time>2019-05-19T06:35:27Z</time>
      </trkpt>
      <trkpt lat="46.77703" lon="5.70205">
        <ele>354.6</ele>
        <time>2019-05-19T06:35:30Z</time>
      </trkpt>
      <trkpt lat="46.77694" lon="5.70194">
        <ele>355.2</ele>
        <time>2019-05-19T06:35:34Z</time>
      </trkpt>
      <trkpt lat="46.77685" lon="5.70184">
        <ele>355.7</ele>
        <time>2019-05-19T06:35:38Z</time>
      </trkpt>
      <trkpt lat="46.7768" lon="5.70173">
        <ele>356.2</ele>
        <time>2019-05-19T06:35:42Z</time>
      </trkpt>
      <trkpt lat="46.77679" lon="5.70159">
        <ele>356.7</ele>
        <time>2019-05-19T06:35:46Z</time>
      </trkpt>
      <trkpt lat="46.77681" lon="5.70146">
        <ele>357.3</ele>
        <time>2019-05-19T06:35:51Z</time>
      </trkpt>
      <trkpt lat="46.77682" lon="5.70131">
        <ele>357.8</ele>
        <time>2019-05-19T06:35:55Z</time>
      </trkpt>
      <trkpt lat="46.77688" lon="5.70118">
        <ele>358.3</ele>
        <time>2019-05-19T06:35:59Z</time>
      </trkpt>
      <trkpt lat="46.77692" lon="5.70104">
        <ele>358.7</ele>
        <time>2019-05-19T06:36:02Z</time>
      </trkpt>
      <trkpt lat="46.77697" lon="5.70092">
        <ele>359</ele>
        <time>2019-05-19T06:36:05Z</time>
      </trkpt>
      <trkpt lat="46.77699" lon="5.70075">
        <ele>359.3</ele>
        <time>2019-05-19T06:36:08Z</time>
      </trkpt>
      <trkpt lat="46.77698" lon="5.70062">
        <ele>359.5</ele>
        <time>2019-05-19T06:36:11Z</time>
      </trkpt>
      <trkpt lat="46.777" lon="5.70047">
        <ele>359.7</ele>
        <time>2019-05-19T06:36:14Z</time>
      </trkpt>
      <trkpt lat="46.77705" lon="5.70034">
        <ele>359.9</ele>
        <time>2019-05-19T06:36:17Z</time>
      </trkpt>
      <trkpt lat="46.77709" lon="5.7002">
        <ele>360</ele>
        <time>2019-05-19T06:36:20Z</time>
      </trkpt>
      <trkpt lat="46.77714" lon="5.70005">
        <ele>360</ele>
        <time>2019-05-19T06:36:23Z</time>
      </trkpt>
      <trkpt lat="46.7772" lon="5.69994">
        <ele>359.8</ele>
        <time>2019-05-19T06:36:25Z</time>
      </trkpt>
      <trkpt lat="46.77725" lon="5.69983">
        <ele>359.6</ele>
        <time>2019-05-19T06:36:27Z</time>
      </trkpt>
      <trkpt lat="46.7773" lon="5.69969">
        <ele>359.2</ele>
        <time>2019-05-19T06:36:30Z</time>
      </trkpt>
      <trkpt lat="46.77728" lon="5.69951">
        <ele>358.7</ele>
        <time>2019-05-19T06:36:33Z</time>
      </trkpt>
      <trkpt lat="46.77735" lon="5.69937">
        <ele>358.2</ele>
        <time>2019-05-19T06:36:36Z</time>
      </trkpt>
      <trkpt lat="46.77736" lon="5.69921">
        <ele>357.7</ele>
        <time>2019-05-19T06:36:39Z</time>
      </trkpt>
      <trkpt lat="46.77735" lon="5.69905">
        <ele>357.2</ele>
        <time>2019-05-19T06:36:42Z</time>
      </trkpt>
      <trkpt lat="46.77736" lon="5.69891">
        <ele>356.9</ele>
        <time>2019-05-19T06:36:45Z</time>
      </trkpt>
      <trkpt lat="46.77744" lon="5.69877">
        <ele>356.6</ele>
        <time>2019-05-19T06:36:48Z</time>
      </trkpt>
      <trkpt lat="46.77751" lon="5.69863">
        <ele>356.3</ele>
        <time>2019-05-19T06:36:51Z</time>
      </trkpt>
      <trkpt lat="46.77757" lon="5.69847">
        <ele>356</ele>
        <time>2019-05-19T06:36:54Z</time>
      </trkpt>
      <trkpt lat="46.77752" lon="5.6983">
        <ele>355.7</ele>
        <time>2019-05-19T06:36:57Z</time>
      </trkpt>
      <trkpt lat="46.77752" lon="5.69814">
        <ele>355.5</ele>
        <time>2019-05-19T06:37:00Z</time>
      </trkpt>
      <trkpt lat="46.77752" lon="5.69799">
        <ele>355.3</ele>
        <time>2019-05-19T06:37:03Z</time>
      </trkpt>
      <trkpt lat="46.77751" lon="5.69786">
        <ele>355.1</ele>
        <time>2019-05-19T06:37:06Z</time>
      </trkpt>
      <trkpt lat="46.77746" lon="5.69767">
        <ele>354.9</ele>
        <time>2019-05-19T06:37:09Z</time>
      </trkpt>
      <trkpt lat="46.77745" lon="5.69749">
        <ele>354.7</ele>
        <time>2019-05-19T06:37:12Z</time>
      </trkpt>
      <trkpt lat="46.77745" lon="5.69732">
        <ele>354.5</ele>
        <time>2019-05-19T06:37:15Z</time>
      </trkpt>
      <trkpt lat="46.77742" lon="5.69717">
        <ele>354.3</ele>
        <time>2019-05-19T06:37:18Z</time>
      </trkpt>
      <trkpt lat="46.77737" lon="5.69704">
        <ele>354.1</ele>
        <time>2019-05-19T06:37:21Z</time>
      </trkpt>
      <trkpt lat="46.77728" lon="5.69698">
        <ele>353.9</ele>
        <time>2019-05-19T06:37:25Z</time>
      </trkpt>
      <trkpt lat="46.77719" lon="5.69694">
        <ele>353.7</ele>
        <time>2019-05-19T06:37:28Z</time>
      </trkpt>
      <trkpt lat="46.7771" lon="5.69685">
        <ele>353.6</ele>
        <time>2019-05-19T06:37:31Z</time>
      </trkpt>
      <trkpt lat="46.77707" lon="5.69668">
        <ele>353.5</ele>
        <time>2019-05-19T06:37:34Z</time>
      </trkpt>
      <trkpt lat="46.77712" lon="5.69657">
        <ele>353.5</ele>
        <time>2019-05-19T06:37:36Z</time>
      </trkpt>
      <trkpt lat="46.77718" lon="5.69646">
        <ele>353.4</ele>
        <time>2019-05-19T06:37:38Z</time>
      </trkpt>
      <trkpt lat="46.77724" lon="5.69631">
        <ele>353.3</ele>
        <time>2019-05-19T06:37:40Z</time>
      </trkpt>
      <trkpt lat="46.77729" lon="5.69618">
        <ele>352.9</ele>
        <time>2019-05-19T06:37:42Z</time>
      </trkpt>
      <trkpt lat="46.7773" lon="5.69604">
        <ele>352.4</ele>
        <time>2019-05-19T06:37:45Z</time>
      </trkpt>
      <trkpt lat="46.77734" lon="5.69593">
        <ele>351.8</ele>
        <time>2019-05-19T06:37:50Z</time>
      </trkpt>
      <trkpt lat="46.77725" lon="5.69598">
        <ele>350.9</ele>
        <time>2019-05-19T06:38:01Z</time>
      </trkpt>
      <trkpt lat="46.77719" lon="5.69609">
        <ele>350.6</ele>
        <time>2019-05-19T06:38:09Z</time>
      </trkpt>
      <trkpt lat="46.7771" lon="5.69602">
        <ele>350.6</ele>
        <time>2019-05-19T06:38:20Z</time>
      </trkpt>
      <trkpt lat="46.77701" lon="5.69595">
        <ele>350.6</ele>
        <time>2019-05-19T06:38:25Z</time>
      </trkpt>
      <trkpt lat="46.77691" lon="5.69591">
        <ele>350.6</ele>
        <time>2019-05-19T06:38:29Z</time>
      </trkpt>
      <trkpt lat="46.7768" lon="5.69582">
        <ele>350.6</ele>
        <time>2019-05-19T06:38:33Z</time>
      </trkpt>
      <trkpt lat="46.7767" lon="5.69578">
        <ele>350.6</ele>
        <time>2019-05-19T06:38:36Z</time>
      </trkpt>
      <trkpt lat="46.77661" lon="5.69574">
        <ele>350.6</ele>
        <time>2019-05-19T06:38:39Z</time>
      </trkpt>
      <trkpt lat="46.77652" lon="5.69568">
        <ele>350.5</ele>
        <time>2019-05-19T06:38:42Z</time>
      </trkpt>
      <trkpt lat="46.77643" lon="5.69562">
        <ele>350.7</ele>
        <time>2019-05-19T06:38:46Z</time>
      </trkpt>
      <trkpt lat="46.77634" lon="5.69556">
        <ele>350.9</ele>
        <time>2019-05-19T06:38:49Z</time>
      </trkpt>
      <trkpt lat="46.77625" lon="5.69552">
        <ele>351</ele>
        <time>2019-05-19T06:38:52Z</time>
      </trkpt>
      <trkpt lat="46.77617" lon="5.69545">
        <ele>351</ele>
        <time>2019-05-19T06:38:55Z</time>
      </trkpt>
      <trkpt lat="46.77606" lon="5.6954">
        <ele>351.1</ele>
        <time>2019-05-19T06:38:58Z</time>
      </trkpt>
      <trkpt lat="46.77596" lon="5.69536">
        <ele>351.1</ele>
        <time>2019-05-19T06:39:01Z</time>
      </trkpt>
      <trkpt lat="46.77587" lon="5.6953">
        <ele>351.1</ele>
        <time>2019-05-19T06:39:04Z</time>
      </trkpt>
      <trkpt lat="46.77578" lon="5.69524">
        <ele>351</ele>
        <time>2019-05-19T06:39:07Z</time>
      </trkpt>
      <trkpt lat="46.77568" lon="5.69521">
        <ele>350.7</ele>
        <time>2019-05-19T06:39:11Z</time>
      </trkpt>
      <trkpt lat="46.77559" lon="5.6952">
        <ele>350.4</ele>
        <time>2019-05-19T06:39:16Z</time>
      </trkpt>
      <trkpt lat="46.77557" lon="5.69504">
        <ele>350.1</ele>
        <time>2019-05-19T06:39:23Z</time>
      </trkpt>
      <trkpt lat="46.77555" lon="5.69489">
        <ele>350</ele>
        <time>2019-05-19T06:39:26Z</time>
      </trkpt>
      <trkpt lat="46.77552" lon="5.69472">
        <ele>349.7</ele>
        <time>2019-05-19T06:39:29Z</time>
      </trkpt>
      <trkpt lat="46.77553" lon="5.69458">
        <ele>349.5</ele>
        <time>2019-05-19T06:39:32Z</time>
      </trkpt>
      <trkpt lat="46.7755" lon="5.69445">
        <ele>349.2</ele>
        <time>2019-05-19T06:39:35Z</time>
      </trkpt>
      <trkpt lat="46.77548" lon="5.6943">
        <ele>349.1</ele>
        <time>2019-05-19T06:39:39Z</time>
      </trkpt>
      <trkpt lat="46.77542" lon="5.69415">
        <ele>349.1</ele>
        <time>2019-05-19T06:39:43Z</time>
      </trkpt>
      <trkpt lat="46.77533" lon="5.69401">
        <ele>349</ele>
        <time>2019-05-19T06:39:46Z</time>
      </trkpt>
      <trkpt lat="46.77524" lon="5.69392">
        <ele>348.8</ele>
        <time>2019-05-19T06:39:49Z</time>
      </trkpt>
      <trkpt lat="46.77514" lon="5.69385">
        <ele>348.5</ele>
        <time>2019-05-19T06:39:52Z</time>
      </trkpt>
      <trkpt lat="46.77506" lon="5.69377">
        <ele>348.3</ele>
        <time>2019-05-19T06:39:54Z</time>
      </trkpt>
      <trkpt lat="46.77498" lon="5.69369">
        <ele>348.2</ele>
        <time>2019-05-19T06:39:56Z</time>
      </trkpt>
      <trkpt lat="46.7749" lon="5.69359">
        <ele>347.9</ele>
        <time>2019-05-19T06:39:58Z</time>
      </trkpt>
      <trkpt lat="46.77481" lon="5.69351">
        <ele>347.5</ele>
        <time>2019-05-19T06:40:01Z</time>
      </trkpt>
      <trkpt lat="46.77472" lon="5.69342">
        <ele>347</ele>
        <time>2019-05-19T06:40:05Z</time>
      </trkpt>
      <trkpt lat="46.77464" lon="5.69334">
        <ele>346.7</ele>
        <time>2019-05-19T06:40:09Z</time>
      </trkpt>
      <trkpt lat="46.77455" lon="5.69324">
        <ele>346.7</ele>
        <time>2019-05-19T06:40:14Z</time>
      </trkpt>
      <trkpt lat="46.77449" lon="5.69312">
        <ele>346.6</ele>
        <time>2019-05-19T06:40:17Z</time>
      </trkpt>
      <trkpt lat="46.77445" lon="5.69298">
        <ele>346.4</ele>
        <time>2019-05-19T06:40:21Z</time>
      </trkpt>
      <trkpt lat="46.77435" lon="5.69293">
        <ele>346.2</ele>
        <time>2019-05-19T06:40:25Z</time>
      </trkpt>
      <trkpt lat="46.77426" lon="5.69298">
        <ele>346</ele>
        <time>2019-05-19T06:40:28Z</time>
      </trkpt>
      <trkpt lat="46.77416" lon="5.69306">
        <ele>345.9</ele>
        <time>2019-05-19T06:40:31Z</time>
      </trkpt>
      <trkpt lat="46.77405" lon="5.69313">
        <ele>345.8</ele>
        <time>2019-05-19T06:40:34Z</time>
      </trkpt>
      <trkpt lat="46.77395" lon="5.69319">
        <ele>345.7</ele>
        <time>2019-05-19T06:40:37Z</time>
      </trkpt>
      <trkpt lat="46.77385" lon="5.69324">
        <ele>345.7</ele>
        <time>2019-05-19T06:40:40Z</time>
      </trkpt>
      <trkpt lat="46.77376" lon="5.69328">
        <ele>345.8</ele>
        <time>2019-05-19T06:40:43Z</time>
      </trkpt>
      <trkpt lat="46.77367" lon="5.69331">
        <ele>346</ele>
        <time>2019-05-19T06:40:47Z</time>
      </trkpt>
      <trkpt lat="46.77356" lon="5.69334">
        <ele>346.6</ele>
        <time>2019-05-19T06:40:52Z</time>
      </trkpt>
      <trkpt lat="46.77346" lon="5.69333">
        <ele>347.3</ele>
        <time>2019-05-19T06:40:57Z</time>
      </trkpt>
      <trkpt lat="46.77337" lon="5.69329">
        <ele>347.9</ele>
        <time>2019-05-19T06:41:01Z</time>
      </trkpt>
      <trkpt lat="46.77326" lon="5.69323">
        <ele>348.5</ele>
        <time>2019-05-19T06:41:05Z</time>
      </trkpt>
      <trkpt lat="46.77317" lon="5.69318">
        <ele>348.8</ele>
        <time>2019-05-19T06:41:08Z</time>
      </trkpt>
      <trkpt lat="46.77306" lon="5.69312">
        <ele>349.1</ele>
        <time>2019-05-19T06:41:11Z</time>
      </trkpt>
      <trkpt lat="46.77298" lon="5.69307">
        <ele>349.3</ele>
        <time>2019-05-19T06:41:13Z</time>
      </trkpt>
      <trkpt lat="46.77288" lon="5.69302">
        <ele>349.4</ele>
        <time>2019-05-19T06:41:15Z</time>
      </trkpt>
      <trkpt lat="46.77277" lon="5.69298">
        <ele>349.6</ele>
        <time>2019-05-19T06:41:17Z</time>
      </trkpt>
      <trkpt lat="46.77265" lon="5.69294">
        <ele>349.7</ele>
        <time>2019-05-19T06:41:19Z</time>
      </trkpt>
      <trkpt lat="46.77252" lon="5.69291">
        <ele>349.7</ele>
        <time>2019-05-19T06:41:21Z</time>
      </trkpt>
      <trkpt lat="46.77239" lon="5.6929">
        <ele>349.8</ele>
        <time>2019-05-19T06:41:23Z</time>
      </trkpt>
      <trkpt lat="46.77226" lon="5.69289">
        <ele>349.8</ele>
        <time>2019-05-19T06:41:25Z</time>
      </trkpt>
      <trkpt lat="46.77212" lon="5.69289">
        <ele>349.7</ele>
        <time>2019-05-19T06:41:27Z</time>
      </trkpt>
      <trkpt lat="46.77199" lon="5.69288">
        <ele>349.5</ele>
        <time>2019-05-19T06:41:29Z</time>
      </trkpt>
      <trkpt lat="46.77185" lon="5.69287">
        <ele>349.4</ele>
        <time>2019-05-19T06:41:31Z</time>
      </trkpt>
      <trkpt lat="46.77172" lon="5.69287">
        <ele>349.3</ele>
        <time>2019-05-19T06:41:33Z</time>
      </trkpt>
      <trkpt lat="46.77158" lon="5.69286">
        <ele>349.2</ele>
        <time>2019-05-19T06:41:35Z</time>
      </trkpt>
      <trkpt lat="46.77145" lon="5.69286">
        <ele>349</ele>
        <time>2019-05-19T06:41:37Z</time>
      </trkpt>
      <trkpt lat="46.77132" lon="5.69286">
        <ele>348.9</ele>
        <time>2019-05-19T06:41:39Z</time>
      </trkpt>
      <trkpt lat="46.77119" lon="5.69286">
        <ele>348.7</ele>
        <time>2019-05-19T06:41:41Z</time>
      </trkpt>
      <trkpt lat="46.77107" lon="5.69287">
        <ele>348.5</ele>
        <time>2019-05-19T06:41:43Z</time>
      </trkpt>
      <trkpt lat="46.77094" lon="5.69289">
        <ele>348.3</ele>
        <time>2019-05-19T06:41:45Z</time>
      </trkpt>
      <trkpt lat="46.77081" lon="5.6929">
        <ele>348.1</ele>
        <time>2019-05-19T06:41:47Z</time>
      </trkpt>
      <trkpt lat="46.77068" lon="5.69292">
        <ele>347.9</ele>
        <time>2019-05-19T06:41:49Z</time>
      </trkpt>
      <trkpt lat="46.77055" lon="5.69294">
        <ele>347.7</ele>
        <time>2019-05-19T06:41:51Z</time>
      </trkpt>
      <trkpt lat="46.77042" lon="5.69295">
        <ele>347.5</ele>
        <time>2019-05-19T06:41:53Z</time>
      </trkpt>
      <trkpt lat="46.7703" lon="5.69295">
        <ele>347.3</ele>
        <time>2019-05-19T06:41:55Z</time>
      </trkpt>
      <trkpt lat="46.77018" lon="5.69296">
        <ele>347.1</ele>
        <time>2019-05-19T06:41:57Z</time>
      </trkpt>
      <trkpt lat="46.77007" lon="5.69296">
        <ele>347</ele>
        <time>2019-05-19T06:41:59Z</time>
      </trkpt>
      <trkpt lat="46.76996" lon="5.69296">
        <ele>346.9</ele>
        <time>2019-05-19T06:42:01Z</time>
      </trkpt>
      <trkpt lat="46.76984" lon="5.69295">
        <ele>346.8</ele>
        <time>2019-05-19T06:42:03Z</time>
      </trkpt>
      <trkpt lat="46.76972" lon="5.69295">
        <ele>346.7</ele>
        <time>2019-05-19T06:42:05Z</time>
      </trkpt>
      <trkpt lat="46.7696" lon="5.69296">
        <ele>346.6</ele>
        <time>2019-05-19T06:42:07Z</time>
      </trkpt>
      <trkpt lat="46.76949" lon="5.69298">
        <ele>346.5</ele>
        <time>2019-05-19T06:42:09Z</time>
      </trkpt>
      <trkpt lat="46.76937" lon="5.693">
        <ele>346.4</ele>
        <time>2019-05-19T06:42:11Z</time>
      </trkpt>
      <trkpt lat="46.76926" lon="5.69303">
        <ele>346.4</ele>
        <time>2019-05-19T06:42:13Z</time>
      </trkpt>
      <trkpt lat="46.76915" lon="5.69307">
        <ele>346.3</ele>
        <time>2019-05-19T06:42:15Z</time>
      </trkpt>
      <trkpt lat="46.76904" lon="5.6931">
        <ele>346.3</ele>
        <time>2019-05-19T06:42:17Z</time>
      </trkpt>
      <trkpt lat="46.76893" lon="5.69312">
        <ele>346.3</ele>
        <time>2019-05-19T06:42:19Z</time>
      </trkpt>
      <trkpt lat="46.76882" lon="5.69315">
        <ele>346.3</ele>
        <time>2019-05-19T06:42:21Z</time>
      </trkpt>
      <trkpt lat="46.7687" lon="5.69317">
        <ele>346.3</ele>
        <time>2019-05-19T06:42:23Z</time>
      </trkpt>
      <trkpt lat="46.76858" lon="5.69319">
        <ele>346.3</ele>
        <time>2019-05-19T06:42:25Z</time>
      </trkpt>
      <trkpt lat="46.76846" lon="5.69322">
        <ele>346.4</ele>
        <time>2019-05-19T06:42:27Z</time>
      </trkpt>
      <trkpt lat="46.76835" lon="5.69325">
        <ele>346.4</ele>
        <time>2019-05-19T06:42:29Z</time>
      </trkpt>
      <trkpt lat="46.76823" lon="5.69329">
        <ele>346.4</ele>
        <time>2019-05-19T06:42:31Z</time>
      </trkpt>
      <trkpt lat="46.76812" lon="5.69333">
        <ele>346.4</ele>
        <time>2019-05-19T06:42:33Z</time>
      </trkpt>
      <trkpt lat="46.768" lon="5.69339">
        <ele>346.4</ele>
        <time>2019-05-19T06:42:35Z</time>
      </trkpt>
      <trkpt lat="46.76789" lon="5.69345">
        <ele>346.4</ele>
        <time>2019-05-19T06:42:37Z</time>
      </trkpt>
      <trkpt lat="46.76778" lon="5.69351">
        <ele>346.4</ele>
        <time>2019-05-19T06:42:39Z</time>
      </trkpt>
      <trkpt lat="46.76767" lon="5.69356">
        <ele>346.4</ele>
        <time>2019-05-19T06:42:41Z</time>
      </trkpt>
      <trkpt lat="46.76757" lon="5.69361">
        <ele>346.4</ele>
        <time>2019-05-19T06:42:43Z</time>
      </trkpt>
      <trkpt lat="46.76747" lon="5.69366">
        <ele>346.5</ele>
        <time>2019-05-19T06:42:45Z</time>
      </trkpt>
      <trkpt lat="46.76737" lon="5.69369">
        <ele>346.5</ele>
        <time>2019-05-19T06:42:47Z</time>
      </trkpt>
      <trkpt lat="46.76724" lon="5.69373">
        <ele>346.6</ele>
        <time>2019-05-19T06:42:50Z</time>
      </trkpt>
      <trkpt lat="46.76714" lon="5.69376">
        <ele>346.7</ele>
        <time>2019-05-19T06:42:53Z</time>
      </trkpt>
      <trkpt lat="46.76705" lon="5.69366">
        <ele>346.9</ele>
        <time>2019-05-19T06:42:57Z</time>
      </trkpt>
      <trkpt lat="46.76702" lon="5.69352">
        <ele>347.3</ele>
        <time>2019-05-19T06:43:00Z</time>
      </trkpt>
      <trkpt lat="46.76699" lon="5.69338">
        <ele>347.8</ele>
        <time>2019-05-19T06:43:03Z</time>
      </trkpt>
      <trkpt lat="46.76696" lon="5.69325">
        <ele>348.3</ele>
        <time>2019-05-19T06:43:06Z</time>
      </trkpt>
      <trkpt lat="46.76693" lon="5.69311">
        <ele>348.9</ele>
        <time>2019-05-19T06:43:09Z</time>
      </trkpt>
      <trkpt lat="46.7669" lon="5.69296">
        <ele>349.5</ele>
        <time>2019-05-19T06:43:12Z</time>
      </trkpt>
      <trkpt lat="46.76688" lon="5.69281">
        <ele>350.1</ele>
        <time>2019-05-19T06:43:15Z</time>
      </trkpt>
      <trkpt lat="46.76685" lon="5.69265">
        <ele>350.6</ele>
        <time>2019-05-19T06:43:18Z</time>
      </trkpt>
      <trkpt lat="46.76683" lon="5.69249">
        <ele>351.1</ele>
        <time>2019-05-19T06:43:21Z</time>
      </trkpt>
      <trkpt lat="46.7668" lon="5.69233">
        <ele>351.6</ele>
        <time>2019-05-19T06:43:24Z</time>
      </trkpt>
      <trkpt lat="46.76678" lon="5.69216">
        <ele>351.9</ele>
        <time>2019-05-19T06:43:27Z</time>
      </trkpt>
      <trkpt lat="46.76675" lon="5.69199">
        <ele>352.2</ele>
        <time>2019-05-19T06:43:30Z</time>
      </trkpt>
      <trkpt lat="46.76673" lon="5.69181">
        <ele>352.4</ele>
        <time>2019-05-19T06:43:33Z</time>
      </trkpt>
      <trkpt lat="46.7667" lon="5.69162">
        <ele>352.6</ele>
        <time>2019-05-19T06:43:36Z</time>
      </trkpt>
      <trkpt lat="46.76668" lon="5.69148">
        <ele>352.7</ele>
        <time>2019-05-19T06:43:38Z</time>
      </trkpt>
      <trkpt lat="46.76667" lon="5.69134">
        <ele>352.8</ele>
        <time>2019-05-19T06:43:40Z</time>
      </trkpt>
      <trkpt lat="46.76665" lon="5.69118">
        <ele>352.9</ele>
        <time>2019-05-19T06:43:42Z</time>
      </trkpt>
      <trkpt lat="46.76663" lon="5.69103">
        <ele>352.9</ele>
        <time>2019-05-19T06:43:44Z</time>
      </trkpt>
      <trkpt lat="46.76662" lon="5.69088">
        <ele>352.8</ele>
        <time>2019-05-19T06:43:46Z</time>
      </trkpt>
      <trkpt lat="46.7666" lon="5.69072">
        <ele>352.8</ele>
        <time>2019-05-19T06:43:48Z</time>
      </trkpt>
      <trkpt lat="46.76659" lon="5.69058">
        <ele>352.7</ele>
        <time>2019-05-19T06:43:50Z</time>
      </trkpt>
      <trkpt lat="46.76658" lon="5.69043">
        <ele>352.6</ele>
        <time>2019-05-19T06:43:52Z</time>
      </trkpt>
      <trkpt lat="46.76658" lon="5.69027">
        <ele>352.5</ele>
        <time>2019-05-19T06:43:54Z</time>
      </trkpt>
      <trkpt lat="46.7666" lon="5.6901">
        <ele>352.3</ele>
        <time>2019-05-19T06:43:56Z</time>
      </trkpt>
      <trkpt lat="46.76664" lon="5.68995">
        <ele>352.2</ele>
        <time>2019-05-19T06:43:58Z</time>
      </trkpt>
      <trkpt lat="46.76667" lon="5.68983">
        <ele>352</ele>
        <time>2019-05-19T06:44:00Z</time>
      </trkpt>
      <trkpt lat="46.76672" lon="5.68966">
        <ele>351.9</ele>
        <time>2019-05-19T06:44:03Z</time>
      </trkpt>
      <trkpt lat="46.76677" lon="5.68947">
        <ele>351.8</ele>
        <time>2019-05-19T06:44:06Z</time>
      </trkpt>
      <trkpt lat="46.7668" lon="5.68934">
        <ele>351.7</ele>
        <time>2019-05-19T06:44:08Z</time>
      </trkpt>
      <trkpt lat="46.76682" lon="5.68921">
        <ele>351.7</ele>
        <time>2019-05-19T06:44:10Z</time>
      </trkpt>
      <trkpt lat="46.76684" lon="5.68907">
        <ele>351.7</ele>
        <time>2019-05-19T06:44:12Z</time>
      </trkpt>
      <trkpt lat="46.76684" lon="5.68893">
        <ele>351.6</ele>
        <time>2019-05-19T06:44:14Z</time>
      </trkpt>
      <trkpt lat="46.76684" lon="5.68878">
        <ele>351.6</ele>
        <time>2019-05-19T06:44:16Z</time>
      </trkpt>
      <trkpt lat="46.76686" lon="5.68862">
        <ele>351.6</ele>
        <time>2019-05-19T06:44:18Z</time>
      </trkpt>
      <trkpt lat="46.76688" lon="5.68847">
        <ele>351.6</ele>
        <time>2019-05-19T06:44:20Z</time>
      </trkpt>
      <trkpt lat="46.76692" lon="5.68833">
        <ele>351.6</ele>
        <time>2019-05-19T06:44:22Z</time>
      </trkpt>
      <trkpt lat="46.76697" lon="5.6882">
        <ele>351.5</ele>
        <time>2019-05-19T06:44:24Z</time>
      </trkpt>
      <trkpt lat="46.76702" lon="5.68807">
        <ele>351.4</ele>
        <time>2019-05-19T06:44:26Z</time>
      </trkpt>
      <trkpt lat="46.76708" lon="5.68794">
        <ele>351.3</ele>
        <time>2019-05-19T06:44:28Z</time>
      </trkpt>
      <trkpt lat="46.76714" lon="5.68781">
        <ele>351.2</ele>
        <time>2019-05-19T06:44:30Z</time>
      </trkpt>
      <trkpt lat="46.7672" lon="5.68768">
        <ele>351.1</ele>
        <time>2019-05-19T06:44:32Z</time>
      </trkpt>
      <trkpt lat="46.76727" lon="5.68755">
        <ele>351</ele>
        <time>2019-05-19T06:44:34Z</time>
      </trkpt>
      <trkpt lat="46.76733" lon="5.68743">
        <ele>350.9</ele>
        <time>2019-05-19T06:44:36Z</time>
      </trkpt>
      <trkpt lat="46.7674" lon="5.68731">
        <ele>350.9</ele>
        <time>2019-05-19T06:44:38Z</time>
      </trkpt>
      <trkpt lat="46.76747" lon="5.68719">
        <ele>350.8</ele>
        <time>2019-05-19T06:44:40Z</time>
      </trkpt>
      <trkpt lat="46.76753" lon="5.68707">
        <ele>350.7</ele>
        <time>2019-05-19T06:44:42Z</time>
      </trkpt>
      <trkpt lat="46.7676" lon="5.68695">
        <ele>350.6</ele>
        <time>2019-05-19T06:44:44Z</time>
      </trkpt>
      <trkpt lat="46.76765" lon="5.68681">
        <ele>350.5</ele>
        <time>2019-05-19T06:44:46Z</time>
      </trkpt>
      <trkpt lat="46.7677" lon="5.68667">
        <ele>350.5</ele>
        <time>2019-05-19T06:44:48Z</time>
      </trkpt>
      <trkpt lat="46.76773" lon="5.68651">
        <ele>350.4</ele>
        <time>2019-05-19T06:44:50Z</time>
      </trkpt>
      <trkpt lat="46.76773" lon="5.68635">
        <ele>350.3</ele>
        <time>2019-05-19T06:44:52Z</time>
      </trkpt>
      <trkpt lat="46.76773" lon="5.68618">
        <ele>350.2</ele>
        <time>2019-05-19T06:44:54Z</time>
      </trkpt>
      <trkpt lat="46.76772" lon="5.68601">
        <ele>350.1</ele>
        <time>2019-05-19T06:44:56Z</time>
      </trkpt>
      <trkpt lat="46.76771" lon="5.68585">
        <ele>349.9</ele>
        <time>2019-05-19T06:44:58Z</time>
      </trkpt>
      <trkpt lat="46.76771" lon="5.6857">
        <ele>349.8</ele>
        <time>2019-05-19T06:45:00Z</time>
      </trkpt>
      <trkpt lat="46.76775" lon="5.68557">
        <ele>349.6</ele>
        <time>2019-05-19T06:45:02Z</time>
      </trkpt>
      <trkpt lat="46.76784" lon="5.68551">
        <ele>349.4</ele>
        <time>2019-05-19T06:45:04Z</time>
      </trkpt>
      <trkpt lat="46.76794" lon="5.68548">
        <ele>349.1</ele>
        <time>2019-05-19T06:45:06Z</time>
      </trkpt>
      <trkpt lat="46.76805" lon="5.68544">
        <ele>348.9</ele>
        <time>2019-05-19T06:45:08Z</time>
      </trkpt>
      <trkpt lat="46.76815" lon="5.68543">
        <ele>348.7</ele>
        <time>2019-05-19T06:45:10Z</time>
      </trkpt>
      <trkpt lat="46.76825" lon="5.68541">
        <ele>348.5</ele>
        <time>2019-05-19T06:45:12Z</time>
      </trkpt>
      <trkpt lat="46.76835" lon="5.68542">
        <ele>348.2</ele>
        <time>2019-05-19T06:45:14Z</time>
      </trkpt>
      <trkpt lat="46.76845" lon="5.68544">
        <ele>348</ele>
        <time>2019-05-19T06:45:16Z</time>
      </trkpt>
      <trkpt lat="46.76854" lon="5.6854">
        <ele>347.7</ele>
        <time>2019-05-19T06:45:18Z</time>
      </trkpt>
      <trkpt lat="46.76861" lon="5.68531">
        <ele>347.4</ele>
        <time>2019-05-19T06:45:20Z</time>
      </trkpt>
      <trkpt lat="46.7687" lon="5.68522">
        <ele>347.1</ele>
        <time>2019-05-19T06:45:22Z</time>
      </trkpt>
      <trkpt lat="46.76879" lon="5.68512">
        <ele>346.7</ele>
        <time>2019-05-19T06:45:24Z</time>
      </trkpt>
      <trkpt lat="46.76891" lon="5.68502">
        <ele>346.3</ele>
        <time>2019-05-19T06:45:26Z</time>
      </trkpt>
      <trkpt lat="46.76901" lon="5.68492">
        <ele>345.9</ele>
        <time>2019-05-19T06:45:28Z</time>
      </trkpt>
      <trkpt lat="46.7691" lon="5.6848">
        <ele>345.5</ele>
        <time>2019-05-19T06:45:30Z</time>
      </trkpt>
      <trkpt lat="46.76915" lon="5.68465">
        <ele>345.2</ele>
        <time>2019-05-19T06:45:32Z</time>
      </trkpt>
      <trkpt lat="46.76918" lon="5.6845">
        <ele>344.9</ele>
        <time>2019-05-19T06:45:34Z</time>
      </trkpt>
      <trkpt lat="46.76921" lon="5.68436">
        <ele>344.6</ele>
        <time>2019-05-19T06:45:36Z</time>
      </trkpt>
      <trkpt lat="46.76924" lon="5.68422">
        <ele>344.4</ele>
        <time>2019-05-19T06:45:38Z</time>
      </trkpt>
      <trkpt lat="46.76927" lon="5.68409">
        <ele>344.1</ele>
        <time>2019-05-19T06:45:40Z</time>
      </trkpt>
      <trkpt lat="46.7693" lon="5.68395">
        <ele>344</ele>
        <time>2019-05-19T06:45:42Z</time>
      </trkpt>
      <trkpt lat="46.76932" lon="5.68382">
        <ele>343.8</ele>
        <time>2019-05-19T06:45:44Z</time>
      </trkpt>
      <trkpt lat="46.76934" lon="5.68369">
        <ele>343.6</ele>
        <time>2019-05-19T06:45:46Z</time>
      </trkpt>
      <trkpt lat="46.76936" lon="5.68355">
        <ele>343.5</ele>
        <time>2019-05-19T06:45:48Z</time>
      </trkpt>
      <trkpt lat="46.76937" lon="5.68342">
        <ele>343.4</ele>
        <time>2019-05-19T06:45:50Z</time>
      </trkpt>
      <trkpt lat="46.76941" lon="5.68323">
        <ele>343.3</ele>
        <time>2019-05-19T06:45:53Z</time>
      </trkpt>
      <trkpt lat="46.76944" lon="5.68311">
        <ele>343.2</ele>
        <time>2019-05-19T06:45:55Z</time>
      </trkpt>
      <trkpt lat="46.76949" lon="5.68299">
        <ele>343.1</ele>
        <time>2019-05-19T06:45:57Z</time>
      </trkpt>
      <trkpt lat="46.76958" lon="5.68286">
        <ele>343.1</ele>
        <time>2019-05-19T06:46:00Z</time>
      </trkpt>
      <trkpt lat="46.76967" lon="5.6828">
        <ele>343.1</ele>
        <time>2019-05-19T06:46:03Z</time>
      </trkpt>
      <trkpt lat="46.76975" lon="5.68273">
        <ele>343.4</ele>
        <time>2019-05-19T06:46:09Z</time>
      </trkpt>
      <trkpt lat="46.76984" lon="5.68265">
        <ele>343.8</ele>
        <time>2019-05-19T06:46:15Z</time>
      </trkpt>
      <trkpt lat="46.76992" lon="5.68255">
        <ele>344.4</ele>
        <time>2019-05-19T06:46:21Z</time>
      </trkpt>
      <trkpt lat="46.77" lon="5.68248">
        <ele>344.9</ele>
        <time>2019-05-19T06:46:26Z</time>
      </trkpt>
      <trkpt lat="46.76996" lon="5.68233">
        <ele>345.7</ele>
        <time>2019-05-19T06:46:35Z</time>
      </trkpt>
      <trkpt lat="46.76991" lon="5.68221">
        <ele>345.8</ele>
        <time>2019-05-19T06:46:38Z</time>
      </trkpt>
      <trkpt lat="46.76987" lon="5.68209">
        <ele>346</ele>
        <time>2019-05-19T06:46:41Z</time>
      </trkpt>
      <trkpt lat="46.76982" lon="5.68195">
        <ele>346.1</ele>
        <time>2019-05-19T06:46:45Z</time>
      </trkpt>
      <trkpt lat="46.76977" lon="5.68182">
        <ele>346.2</ele>
        <time>2019-05-19T06:46:48Z</time>
      </trkpt>
      <trkpt lat="46.76974" lon="5.68166">
        <ele>346.2</ele>
        <time>2019-05-19T06:46:52Z</time>
      </trkpt>
      <trkpt lat="46.76973" lon="5.68151">
        <ele>346.2</ele>
        <time>2019-05-19T06:46:55Z</time>
      </trkpt>
      <trkpt lat="46.76971" lon="5.68137">
        <ele>346.2</ele>
        <time>2019-05-19T06:46:58Z</time>
      </trkpt>
      <trkpt lat="46.7697" lon="5.68121">
        <ele>346.3</ele>
        <time>2019-05-19T06:47:01Z</time>
      </trkpt>
      <trkpt lat="46.76967" lon="5.68108">
        <ele>346.3</ele>
        <time>2019-05-19T06:47:04Z</time>
      </trkpt>
      <trkpt lat="46.76966" lon="5.68094">
        <ele>346.3</ele>
        <time>2019-05-19T06:47:07Z</time>
      </trkpt>
      <trkpt lat="46.76961" lon="5.68081">
        <ele>346.3</ele>
        <time>2019-05-19T06:47:10Z</time>
      </trkpt>
      <trkpt lat="46.76957" lon="5.68069">
        <ele>346.3</ele>
        <time>2019-05-19T06:47:13Z</time>
      </trkpt>
      <trkpt lat="46.76954" lon="5.68053">
        <ele>346.5</ele>
        <time>2019-05-19T06:47:17Z</time>
      </trkpt>
      <trkpt lat="46.7695" lon="5.68038">
        <ele>346.8</ele>
        <time>2019-05-19T06:47:21Z</time>
      </trkpt>
      <trkpt lat="46.76954" lon="5.68022">
        <ele>347.2</ele>
        <time>2019-05-19T06:47:26Z</time>
      </trkpt>
      <trkpt lat="46.76956" lon="5.68009">
        <ele>347.6</ele>
        <time>2019-05-19T06:47:30Z</time>
      </trkpt>
      <trkpt lat="46.76962" lon="5.67997">
        <ele>348.1</ele>
        <time>2019-05-19T06:47:36Z</time>
      </trkpt>
      <trkpt lat="46.76969" lon="5.67987">
        <ele>348.3</ele>
        <time>2019-05-19T06:47:40Z</time>
      </trkpt>
      <trkpt lat="46.76976" lon="5.67977">
        <ele>348.9</ele>
        <time>2019-05-19T06:47:45Z</time>
      </trkpt>
      <trkpt lat="46.76981" lon="5.67965">
        <ele>349.6</ele>
        <time>2019-05-19T06:47:51Z</time>
      </trkpt>
      <trkpt lat="46.76988" lon="5.67954">
        <ele>350.2</ele>
        <time>2019-05-19T06:47:56Z</time>
      </trkpt>
      <trkpt lat="46.76996" lon="5.67945">
        <ele>350.6</ele>
        <time>2019-05-19T06:48:00Z</time>
      </trkpt>
      <trkpt lat="46.77003" lon="5.67937">
        <ele>351.6</ele>
        <time>2019-05-19T06:48:14Z</time>
      </trkpt>
      <trkpt lat="46.77012" lon="5.67926">
        <ele>351.9</ele>
        <time>2019-05-19T06:48:18Z</time>
      </trkpt>
      <trkpt lat="46.77019" lon="5.67918">
        <ele>352.3</ele>
        <time>2019-05-19T06:48:22Z</time>
      </trkpt>
      <trkpt lat="46.77027" lon="5.67908">
        <ele>352.7</ele>
        <time>2019-05-19T06:48:26Z</time>
      </trkpt>
      <trkpt lat="46.77034" lon="5.679">
        <ele>353</ele>
        <time>2019-05-19T06:48:29Z</time>
      </trkpt>
      <trkpt lat="46.77041" lon="5.67887">
        <ele>353.3</ele>
        <time>2019-05-19T06:48:33Z</time>
      </trkpt>
      <trkpt lat="46.7705" lon="5.67877">
        <ele>353.7</ele>
        <time>2019-05-19T06:48:37Z</time>
      </trkpt>
      <trkpt lat="46.77058" lon="5.6787">
        <ele>354</ele>
        <time>2019-05-19T06:48:40Z</time>
      </trkpt>
      <trkpt lat="46.77066" lon="5.67861">
        <ele>354.4</ele>
        <time>2019-05-19T06:48:44Z</time>
      </trkpt>
      <trkpt lat="46.77075" lon="5.67851">
        <ele>355.1</ele>
        <time>2019-05-19T06:48:48Z</time>
      </trkpt>
      <trkpt lat="46.77084" lon="5.67842">
        <ele>355.6</ele>
        <time>2019-05-19T06:48:52Z</time>
      </trkpt>
      <trkpt lat="46.77091" lon="5.67834">
        <ele>356.2</ele>
        <time>2019-05-19T06:48:56Z</time>
      </trkpt>
      <trkpt lat="46.77099" lon="5.67825">
        <ele>356.9</ele>
        <time>2019-05-19T06:49:00Z</time>
      </trkpt>
      <trkpt lat="46.77105" lon="5.67813">
        <ele>357.6</ele>
        <time>2019-05-19T06:49:04Z</time>
      </trkpt>
      <trkpt lat="46.77114" lon="5.67803">
        <ele>358.6</ele>
        <time>2019-05-19T06:49:09Z</time>
      </trkpt>
      <trkpt lat="46.77121" lon="5.67794">
        <ele>359.7</ele>
        <time>2019-05-19T06:49:14Z</time>
      </trkpt>
      <trkpt lat="46.77128" lon="5.67785">
        <ele>360.7</ele>
        <time>2019-05-19T06:49:20Z</time>
      </trkpt>
      <trkpt lat="46.77134" lon="5.67774">
        <ele>363.2</ele>
        <time>2019-05-19T06:49:38Z</time>
      </trkpt>
      <trkpt lat="46.7714" lon="5.67763">
        <ele>363.8</ele>
        <time>2019-05-19T06:49:45Z</time>
      </trkpt>
      <trkpt lat="46.77149" lon="5.67752">
        <ele>364.2</ele>
        <time>2019-05-19T06:49:50Z</time>
      </trkpt>
      <trkpt lat="46.77156" lon="5.67743">
        <ele>364.7</ele>
        <time>2019-05-19T06:49:54Z</time>
      </trkpt>
      <trkpt lat="46.77164" lon="5.67735">
        <ele>365</ele>
        <time>2019-05-19T06:49:58Z</time>
      </trkpt>
      <trkpt lat="46.7717" lon="5.67726">
        <ele>365.4</ele>
        <time>2019-05-19T06:50:02Z</time>
      </trkpt>
      <trkpt lat="46.7718" lon="5.67716">
        <ele>365.9</ele>
        <time>2019-05-19T06:50:06Z</time>
      </trkpt>
      <trkpt lat="46.77188" lon="5.67707">
        <ele>366.4</ele>
        <time>2019-05-19T06:50:10Z</time>
      </trkpt>
      <trkpt lat="46.77197" lon="5.67698">
        <ele>366.9</ele>
        <time>2019-05-19T06:50:14Z</time>
      </trkpt>
      <trkpt lat="46.77204" lon="5.67686">
        <ele>367.5</ele>
        <time>2019-05-19T06:50:18Z</time>
      </trkpt>
      <trkpt lat="46.77212" lon="5.67676">
        <ele>367.9</ele>
        <time>2019-05-19T06:50:22Z</time>
      </trkpt>
      <trkpt lat="46.77219" lon="5.67666">
        <ele>368.2</ele>
        <time>2019-05-19T06:50:26Z</time>
      </trkpt>
      <trkpt lat="46.77228" lon="5.67655">
        <ele>368.5</ele>
        <time>2019-05-19T06:50:30Z</time>
      </trkpt>
      <trkpt lat="46.77236" lon="5.67647">
        <ele>368.7</ele>
        <time>2019-05-19T06:50:33Z</time>
      </trkpt>
      <trkpt lat="46.77244" lon="5.67636">
        <ele>368.9</ele>
        <time>2019-05-19T06:50:37Z</time>
      </trkpt>
      <trkpt lat="46.77238" lon="5.67625">
        <ele>369.3</ele>
        <time>2019-05-19T06:50:44Z</time>
      </trkpt>
      <trkpt lat="46.77228" lon="5.67619">
        <ele>369.5</ele>
        <time>2019-05-19T06:50:49Z</time>
      </trkpt>
      <trkpt lat="46.77219" lon="5.67615">
        <ele>369.6</ele>
        <time>2019-05-19T06:50:52Z</time>
      </trkpt>
      <trkpt lat="46.77208" lon="5.6761">
        <ele>369.7</ele>
        <time>2019-05-19T06:50:55Z</time>
      </trkpt>
      <trkpt lat="46.77198" lon="5.67605">
        <ele>369.8</ele>
        <time>2019-05-19T06:50:59Z</time>
      </trkpt>
      <trkpt lat="46.7719" lon="5.67597">
        <ele>369.8</ele>
        <time>2019-05-19T06:51:02Z</time>
      </trkpt>
      <trkpt lat="46.77181" lon="5.67586">
        <ele>369.8</ele>
        <time>2019-05-19T06:51:05Z</time>
      </trkpt>
      <trkpt lat="46.77173" lon="5.67578">
        <ele>369.6</ele>
        <time>2019-05-19T06:51:08Z</time>
      </trkpt>
      <trkpt lat="46.77165" lon="5.67569">
        <ele>369.4</ele>
        <time>2019-05-19T06:51:11Z</time>
      </trkpt>
      <trkpt lat="46.77156" lon="5.67563">
        <ele>369.3</ele>
        <time>2019-05-19T06:51:14Z</time>
      </trkpt>
      <trkpt lat="46.77144" lon="5.67555">
        <ele>369.2</ele>
        <time>2019-05-19T06:51:17Z</time>
      </trkpt>
      <trkpt lat="46.77136" lon="5.67546">
        <ele>369</ele>
        <time>2019-05-19T06:51:19Z</time>
      </trkpt>
      <trkpt lat="46.77131" lon="5.67534">
        <ele>368.9</ele>
        <time>2019-05-19T06:51:21Z</time>
      </trkpt>
      <trkpt lat="46.77123" lon="5.67524">
        <ele>368.7</ele>
        <time>2019-05-19T06:51:23Z</time>
      </trkpt>
      <trkpt lat="46.77114" lon="5.67518">
        <ele>368.4</ele>
        <time>2019-05-19T06:51:26Z</time>
      </trkpt>
      <trkpt lat="46.77104" lon="5.67518">
        <ele>368.1</ele>
        <time>2019-05-19T06:51:29Z</time>
      </trkpt>
      <trkpt lat="46.77097" lon="5.6753">
        <ele>367.7</ele>
        <time>2019-05-19T06:51:32Z</time>
      </trkpt>
      <trkpt lat="46.77088" lon="5.67542">
        <ele>367.3</ele>
        <time>2019-05-19T06:51:35Z</time>
      </trkpt>
      <trkpt lat="46.77076" lon="5.67536">
        <ele>366.9</ele>
        <time>2019-05-19T06:51:38Z</time>
      </trkpt>
      <trkpt lat="46.77067" lon="5.67525">
        <ele>366.5</ele>
        <time>2019-05-19T06:51:41Z</time>
      </trkpt>
      <trkpt lat="46.7706" lon="5.67514">
        <ele>366.1</ele>
        <time>2019-05-19T06:51:44Z</time>
      </trkpt>
      <trkpt lat="46.77052" lon="5.675">
        <ele>365.7</ele>
        <time>2019-05-19T06:51:48Z</time>
      </trkpt>
      <trkpt lat="46.77045" lon="5.67487">
        <ele>365.5</ele>
        <time>2019-05-19T06:51:51Z</time>
      </trkpt>
      <trkpt lat="46.77036" lon="5.67478">
        <ele>365.3</ele>
        <time>2019-05-19T06:51:54Z</time>
      </trkpt>
      <trkpt lat="46.77028" lon="5.67464">
        <ele>365.1</ele>
        <time>2019-05-19T06:51:58Z</time>
      </trkpt>
      <trkpt lat="46.7702" lon="5.67451">
        <ele>365</ele>
        <time>2019-05-19T06:52:01Z</time>
      </trkpt>
      <trkpt lat="46.77012" lon="5.67441">
        <ele>364.9</ele>
        <time>2019-05-19T06:52:04Z</time>
      </trkpt>
      <trkpt lat="46.77008" lon="5.67429">
        <ele>364.8</ele>
        <time>2019-05-19T06:52:07Z</time>
      </trkpt>
      <trkpt lat="46.77" lon="5.67417">
        <ele>364.7</ele>
        <time>2019-05-19T06:52:10Z</time>
      </trkpt>
      <trkpt lat="46.76993" lon="5.67408">
        <ele>364.6</ele>
        <time>2019-05-19T06:52:13Z</time>
      </trkpt>
      <trkpt lat="46.76983" lon="5.67404">
        <ele>364.1</ele>
        <time>2019-05-19T06:52:17Z</time>
      </trkpt>
      <trkpt lat="46.76972" lon="5.67405">
        <ele>363.9</ele>
        <time>2019-05-19T06:52:20Z</time>
      </trkpt>
      <trkpt lat="46.76962" lon="5.67408">
        <ele>363.8</ele>
        <time>2019-05-19T06:52:22Z</time>
      </trkpt>
      <trkpt lat="46.7695" lon="5.67413">
        <ele>363.6</ele>
        <time>2019-05-19T06:52:25Z</time>
      </trkpt>
      <trkpt lat="46.7694" lon="5.67416">
        <ele>363.4</ele>
        <time>2019-05-19T06:52:28Z</time>
      </trkpt>
      <trkpt lat="46.76929" lon="5.67421">
        <ele>363.2</ele>
        <time>2019-05-19T06:52:31Z</time>
      </trkpt>
      <trkpt lat="46.76919" lon="5.67429">
        <ele>362.9</ele>
        <time>2019-05-19T06:52:34Z</time>
      </trkpt>
      <trkpt lat="46.7691" lon="5.67436">
        <ele>362.4</ele>
        <time>2019-05-19T06:52:37Z</time>
      </trkpt>
      <trkpt lat="46.76901" lon="5.67436">
        <ele>361.8</ele>
        <time>2019-05-19T06:52:41Z</time>
      </trkpt>
      <trkpt lat="46.76892" lon="5.67429">
        <ele>361.2</ele>
        <time>2019-05-19T06:52:46Z</time>
      </trkpt>
      <trkpt lat="46.76883" lon="5.67425">
        <ele>360.8</ele>
        <time>2019-05-19T06:52:49Z</time>
      </trkpt>
      <trkpt lat="46.76873" lon="5.67427">
        <ele>360.4</ele>
        <time>2019-05-19T06:52:52Z</time>
      </trkpt>
      <trkpt lat="46.76863" lon="5.67426">
        <ele>359.8</ele>
        <time>2019-05-19T06:52:56Z</time>
      </trkpt>
      <trkpt lat="46.76856" lon="5.67414">
        <ele>359.2</ele>
        <time>2019-05-19T06:53:00Z</time>
      </trkpt>
      <trkpt lat="46.76845" lon="5.67415">
        <ele>358.5</ele>
        <time>2019-05-19T06:53:04Z</time>
      </trkpt>
      <trkpt lat="46.76835" lon="5.6742">
        <ele>358</ele>
        <time>2019-05-19T06:53:07Z</time>
      </trkpt>
      <trkpt lat="46.76825" lon="5.67425">
        <ele>357.6</ele>
        <time>2019-05-19T06:53:10Z</time>
      </trkpt>
      <trkpt lat="46.76814" lon="5.67423">
        <ele>357</ele>
        <time>2019-05-19T06:53:15Z</time>
      </trkpt>
      <trkpt lat="46.76805" lon="5.67421">
        <ele>356.2</ele>
        <time>2019-05-19T06:53:21Z</time>
      </trkpt>
      <trkpt lat="46.76796" lon="5.67411">
        <ele>355.4</ele>
        <time>2019-05-19T06:53:26Z</time>
      </trkpt>
      <trkpt lat="46.76788" lon="5.67403">
        <ele>354.8</ele>
        <time>2019-05-19T06:53:29Z</time>
      </trkpt>
      <trkpt lat="46.76779" lon="5.67398">
        <ele>354.2</ele>
        <time>2019-05-19T06:53:32Z</time>
      </trkpt>
      <trkpt lat="46.7677" lon="5.67391">
        <ele>353.1</ele>
        <time>2019-05-19T06:53:38Z</time>
      </trkpt>
      <trkpt lat="46.76761" lon="5.67401">
        <ele>352.5</ele>
        <time>2019-05-19T06:53:42Z</time>
      </trkpt>
      <trkpt lat="46.76751" lon="5.67411">
        <ele>352.1</ele>
        <time>2019-05-19T06:53:45Z</time>
      </trkpt>
      <trkpt lat="46.76743" lon="5.67417">
        <ele>351.8</ele>
        <time>2019-05-19T06:53:48Z</time>
      </trkpt>
      <trkpt lat="46.76735" lon="5.67426">
        <ele>351.7</ele>
        <time>2019-05-19T06:53:52Z</time>
      </trkpt>
      <trkpt lat="46.76727" lon="5.67437">
        <ele>352.1</ele>
        <time>2019-05-19T06:53:56Z</time>
      </trkpt>
      <trkpt lat="46.76718" lon="5.67443">
        <ele>352.5</ele>
        <time>2019-05-19T06:53:59Z</time>
      </trkpt>
      <trkpt lat="46.76709" lon="5.67449">
        <ele>352.8</ele>
        <time>2019-05-19T06:54:02Z</time>
      </trkpt>
      <trkpt lat="46.76699" lon="5.67457">
        <ele>353</ele>
        <time>2019-05-19T06:54:05Z</time>
      </trkpt>
      <trkpt lat="46.76692" lon="5.67464">
        <ele>353.2</ele>
        <time>2019-05-19T06:54:08Z</time>
      </trkpt>
      <trkpt lat="46.76682" lon="5.6747">
        <ele>353.4</ele>
        <time>2019-05-19T06:54:11Z</time>
      </trkpt>
      <trkpt lat="46.76674" lon="5.67477">
        <ele>353.6</ele>
        <time>2019-05-19T06:54:14Z</time>
      </trkpt>
      <trkpt lat="46.76665" lon="5.67482">
        <ele>353.8</ele>
        <time>2019-05-19T06:54:18Z</time>
      </trkpt>
      <trkpt lat="46.76657" lon="5.67495">
        <ele>353.9</ele>
        <time>2019-05-19T06:54:23Z</time>
      </trkpt>
      <trkpt lat="46.7665" lon="5.67505">
        <ele>354.1</ele>
        <time>2019-05-19T06:54:27Z</time>
      </trkpt>
      <trkpt lat="46.76642" lon="5.67516">
        <ele>354.2</ele>
        <time>2019-05-19T06:54:31Z</time>
      </trkpt>
      <trkpt lat="46.76634" lon="5.67521">
        <ele>354.5</ele>
        <time>2019-05-19T06:54:35Z</time>
      </trkpt>
      <trkpt lat="46.76624" lon="5.67529">
        <ele>354.8</ele>
        <time>2019-05-19T06:54:40Z</time>
      </trkpt>
      <trkpt lat="46.76614" lon="5.67537">
        <ele>355</ele>
        <time>2019-05-19T06:54:44Z</time>
      </trkpt>
      <trkpt lat="46.76607" lon="5.67546">
        <ele>355.1</ele>
        <time>2019-05-19T06:54:47Z</time>
      </trkpt>
      <trkpt lat="46.76597" lon="5.67557">
        <ele>355.2</ele>
        <time>2019-05-19T06:54:51Z</time>
      </trkpt>
      <trkpt lat="46.76589" lon="5.67563">
        <ele>355.3</ele>
        <time>2019-05-19T06:54:54Z</time>
      </trkpt>
      <trkpt lat="46.76579" lon="5.67564">
        <ele>355.3</ele>
        <time>2019-05-19T06:54:59Z</time>
      </trkpt>
      <trkpt lat="46.76569" lon="5.67562">
        <ele>355.3</ele>
        <time>2019-05-19T06:55:04Z</time>
      </trkpt>
      <trkpt lat="46.7656" lon="5.67557">
        <ele>355.2</ele>
        <time>2019-05-19T06:55:07Z</time>
      </trkpt>
      <trkpt lat="46.76556" lon="5.67544">
        <ele>355.1</ele>
        <time>2019-05-19T06:55:10Z</time>
      </trkpt>
      <trkpt lat="46.76553" lon="5.67527">
        <ele>355</ele>
        <time>2019-05-19T06:55:13Z</time>
      </trkpt>
      <trkpt lat="46.76549" lon="5.67508">
        <ele>354.9</ele>
        <time>2019-05-19T06:55:16Z</time>
      </trkpt>
      <trkpt lat="46.76546" lon="5.67494">
        <ele>354.8</ele>
        <time>2019-05-19T06:55:18Z</time>
      </trkpt>
      <trkpt lat="46.76543" lon="5.67479">
        <ele>354.6</ele>
        <time>2019-05-19T06:55:20Z</time>
      </trkpt>
      <trkpt lat="46.76541" lon="5.67462">
        <ele>354.4</ele>
        <time>2019-05-19T06:55:22Z</time>
      </trkpt>
      <trkpt lat="46.76538" lon="5.67445">
        <ele>354.2</ele>
        <time>2019-05-19T06:55:24Z</time>
      </trkpt>
      <trkpt lat="46.76536" lon="5.67428">
        <ele>354.1</ele>
        <time>2019-05-19T06:55:26Z</time>
      </trkpt>
      <trkpt lat="46.76534" lon="5.67412">
        <ele>353.9</ele>
        <time>2019-05-19T06:55:28Z</time>
      </trkpt>
      <trkpt lat="46.76532" lon="5.67396">
        <ele>353.7</ele>
        <time>2019-05-19T06:55:30Z</time>
      </trkpt>
      <trkpt lat="46.76529" lon="5.6738">
        <ele>353.6</ele>
        <time>2019-05-19T06:55:32Z</time>
      </trkpt>
      <trkpt lat="46.76527" lon="5.67365">
        <ele>353.5</ele>
        <time>2019-05-19T06:55:34Z</time>
      </trkpt>
      <trkpt lat="46.76525" lon="5.67351">
        <ele>353.4</ele>
        <time>2019-05-19T06:55:36Z</time>
      </trkpt>
      <trkpt lat="46.76523" lon="5.67338">
        <ele>353.3</ele>
        <time>2019-05-19T06:55:38Z</time>
      </trkpt>
      <trkpt lat="46.7652" lon="5.67321">
        <ele>353.2</ele>
        <time>2019-05-19T06:55:41Z</time>
      </trkpt>
      <trkpt lat="46.76515" lon="5.6731">
        <ele>353.1</ele>
        <time>2019-05-19T06:55:45Z</time>
      </trkpt>
      <trkpt lat="46.76505" lon="5.67309">
        <ele>353</ele>
        <time>2019-05-19T06:55:51Z</time>
      </trkpt>
      <trkpt lat="46.76495" lon="5.67307">
        <ele>352.7</ele>
        <time>2019-05-19T06:55:55Z</time>
      </trkpt>
      <trkpt lat="46.76485" lon="5.67307">
        <ele>352.4</ele>
        <time>2019-05-19T06:55:58Z</time>
      </trkpt>
      <trkpt lat="46.76476" lon="5.67305">
        <ele>352.3</ele>
        <time>2019-05-19T06:56:01Z</time>
      </trkpt>
      <trkpt lat="46.76465" lon="5.67304">
        <ele>351.9</ele>
        <time>2019-05-19T06:56:05Z</time>
      </trkpt>
      <trkpt lat="46.76453" lon="5.673">
        <ele>351.7</ele>
        <time>2019-05-19T06:56:09Z</time>
      </trkpt>
      <trkpt lat="46.76443" lon="5.67299">
        <ele>351.5</ele>
        <time>2019-05-19T06:56:12Z</time>
      </trkpt>
      <trkpt lat="46.76432" lon="5.67296">
        <ele>351.4</ele>
        <time>2019-05-19T06:56:16Z</time>
      </trkpt>
      <trkpt lat="46.76423" lon="5.67297">
        <ele>351.4</ele>
        <time>2019-05-19T06:56:19Z</time>
      </trkpt>
      <trkpt lat="46.76414" lon="5.6729">
        <ele>351.3</ele>
        <time>2019-05-19T06:56:23Z</time>
      </trkpt>
      <trkpt lat="46.76402" lon="5.67286">
        <ele>351.2</ele>
        <time>2019-05-19T06:56:27Z</time>
      </trkpt>
      <trkpt lat="46.76391" lon="5.67281">
        <ele>351.2</ele>
        <time>2019-05-19T06:56:30Z</time>
      </trkpt>
      <trkpt lat="46.76383" lon="5.67273">
        <ele>351.2</ele>
        <time>2019-05-19T06:56:34Z</time>
      </trkpt>
      <trkpt lat="46.76376" lon="5.67261">
        <ele>351.2</ele>
        <time>2019-05-19T06:56:38Z</time>
      </trkpt>
      <trkpt lat="46.76371" lon="5.6725">
        <ele>351.2</ele>
        <time>2019-05-19T06:56:41Z</time>
      </trkpt>
      <trkpt lat="46.76366" lon="5.67237">
        <ele>351.2</ele>
        <time>2019-05-19T06:56:45Z</time>
      </trkpt>
      <trkpt lat="46.76355" lon="5.67231">
        <ele>351.3</ele>
        <time>2019-05-19T06:56:49Z</time>
      </trkpt>
      <trkpt lat="46.76346" lon="5.6722">
        <ele>351.2</ele>
        <time>2019-05-19T06:56:53Z</time>
      </trkpt>
      <trkpt lat="46.76337" lon="5.6721">
        <ele>350.9</ele>
        <time>2019-05-19T06:56:57Z</time>
      </trkpt>
      <trkpt lat="46.7633" lon="5.67202">
        <ele>350.6</ele>
        <time>2019-05-19T06:57:00Z</time>
      </trkpt>
      <trkpt lat="46.76322" lon="5.67193">
        <ele>350.3</ele>
        <time>2019-05-19T06:57:04Z</time>
      </trkpt>
      <trkpt lat="46.76314" lon="5.67183">
        <ele>349.9</ele>
        <time>2019-05-19T06:57:10Z</time>
      </trkpt>
      <trkpt lat="46.76308" lon="5.67169">
        <ele>349.6</ele>
        <time>2019-05-19T06:57:14Z</time>
      </trkpt>
      <trkpt lat="46.76301" lon="5.67161">
        <ele>349.5</ele>
        <time>2019-05-19T06:57:17Z</time>
      </trkpt>
      <trkpt lat="46.76296" lon="5.6715">
        <ele>349.2</ele>
        <time>2019-05-19T06:57:20Z</time>
      </trkpt>
      <trkpt lat="46.76291" lon="5.67137">
        <ele>348.9</ele>
        <time>2019-05-19T06:57:23Z</time>
      </trkpt>
      <trkpt lat="46.76286" lon="5.67125">
        <ele>348.6</ele>
        <time>2019-05-19T06:57:27Z</time>
      </trkpt>
      <trkpt lat="46.76277" lon="5.67117">
        <ele>348.1</ele>
        <time>2019-05-19T06:57:31Z</time>
      </trkpt>
      <trkpt lat="46.76269" lon="5.67111">
        <ele>347.9</ele>
        <time>2019-05-19T06:57:35Z</time>
      </trkpt>
      <trkpt lat="46.7626" lon="5.67104">
        <ele>348</ele>
        <time>2019-05-19T06:57:39Z</time>
      </trkpt>
      <trkpt lat="46.76252" lon="5.67094">
        <ele>348.2</ele>
        <time>2019-05-19T06:57:44Z</time>
      </trkpt>
      <trkpt lat="46.76246" lon="5.67083">
        <ele>348.4</ele>
        <time>2019-05-19T06:57:49Z</time>
      </trkpt>
      <trkpt lat="46.7624" lon="5.67071">
        <ele>348.6</ele>
        <time>2019-05-19T06:57:55Z</time>
      </trkpt>
      <trkpt lat="46.76231" lon="5.67057">
        <ele>348.8</ele>
        <time>2019-05-19T06:58:00Z</time>
      </trkpt>
      <trkpt lat="46.76223" lon="5.6705">
        <ele>348.9</ele>
        <time>2019-05-19T06:58:03Z</time>
      </trkpt>
      <trkpt lat="46.76216" lon="5.6704">
        <ele>348.9</ele>
        <time>2019-05-19T06:58:06Z</time>
      </trkpt>
      <trkpt lat="46.76206" lon="5.67033">
        <ele>348.9</ele>
        <time>2019-05-19T06:58:10Z</time>
      </trkpt>
      <trkpt lat="46.76195" lon="5.67025">
        <ele>348.9</ele>
        <time>2019-05-19T06:58:14Z</time>
      </trkpt>
      <trkpt lat="46.76188" lon="5.67017">
        <ele>348.9</ele>
        <time>2019-05-19T06:58:18Z</time>
      </trkpt>
      <trkpt lat="46.76178" lon="5.67011">
        <ele>348.9</ele>
        <time>2019-05-19T06:58:21Z</time>
      </trkpt>
      <trkpt lat="46.7617" lon="5.67005">
        <ele>348.8</ele>
        <time>2019-05-19T06:58:25Z</time>
      </trkpt>
      <trkpt lat="46.76161" lon="5.66997">
        <ele>348.5</ele>
        <time>2019-05-19T06:58:29Z</time>
      </trkpt>
      <trkpt lat="46.76152" lon="5.66995">
        <ele>348</ele>
        <time>2019-05-19T06:58:33Z</time>
      </trkpt>
      <trkpt lat="46.76144" lon="5.66986">
        <ele>347.6</ele>
        <time>2019-05-19T06:58:38Z</time>
      </trkpt>
      <trkpt lat="46.76136" lon="5.66976">
        <ele>347.5</ele>
        <time>2019-05-19T06:58:43Z</time>
      </trkpt>
      <trkpt lat="46.76127" lon="5.66967">
        <ele>347.5</ele>
        <time>2019-05-19T06:58:48Z</time>
      </trkpt>
      <trkpt lat="46.76117" lon="5.66964">
        <ele>347.5</ele>
        <time>2019-05-19T06:58:52Z</time>
      </trkpt>
      <trkpt lat="46.76107" lon="5.66959">
        <ele>347.5</ele>
        <time>2019-05-19T06:58:57Z</time>
      </trkpt>
      <trkpt lat="46.76097" lon="5.66955">
        <ele>347.4</ele>
        <time>2019-05-19T06:59:00Z</time>
      </trkpt>
      <trkpt lat="46.76088" lon="5.66947">
        <ele>347.3</ele>
        <time>2019-05-19T06:59:02Z</time>
      </trkpt>
      <trkpt lat="46.76078" lon="5.66942">
        <ele>347.1</ele>
        <time>2019-05-19T06:59:06Z</time>
      </trkpt>
      <trkpt lat="46.76068" lon="5.66942">
        <ele>346.8</ele>
        <time>2019-05-19T06:59:11Z</time>
      </trkpt>
      <trkpt lat="46.76058" lon="5.66938">
        <ele>346.6</ele>
        <time>2019-05-19T06:59:16Z</time>
      </trkpt>
      <trkpt lat="46.7605" lon="5.66931">
        <ele>346.3</ele>
        <time>2019-05-19T06:59:21Z</time>
      </trkpt>
      <trkpt lat="46.7604" lon="5.66928">
        <ele>346.1</ele>
        <time>2019-05-19T06:59:25Z</time>
      </trkpt>
      <trkpt lat="46.7603" lon="5.66925">
        <ele>345.6</ele>
        <time>2019-05-19T06:59:29Z</time>
      </trkpt>
      <trkpt lat="46.7602" lon="5.66924">
        <ele>345.1</ele>
        <time>2019-05-19T06:59:32Z</time>
      </trkpt>
      <trkpt lat="46.76007" lon="5.66924">
        <ele>344.8</ele>
        <time>2019-05-19T06:59:35Z</time>
      </trkpt>
      <trkpt lat="46.75998" lon="5.66922">
        <ele>344.2</ele>
        <time>2019-05-19T06:59:38Z</time>
      </trkpt>
      <trkpt lat="46.75987" lon="5.66919">
        <ele>343.4</ele>
        <time>2019-05-19T06:59:42Z</time>
      </trkpt>
      <trkpt lat="46.75977" lon="5.66923">
        <ele>342.9</ele>
        <time>2019-05-19T06:59:46Z</time>
      </trkpt>
      <trkpt lat="46.75968" lon="5.66922">
        <ele>342.3</ele>
        <time>2019-05-19T06:59:50Z</time>
      </trkpt>
      <trkpt lat="46.75957" lon="5.66915">
        <ele>341.6</ele>
        <time>2019-05-19T06:59:55Z</time>
      </trkpt>
      <trkpt lat="46.75949" lon="5.66907">
        <ele>341.3</ele>
        <time>2019-05-19T06:59:59Z</time>
      </trkpt>
      <trkpt lat="46.75938" lon="5.66901">
        <ele>341</ele>
        <time>2019-05-19T07:00:03Z</time>
      </trkpt>
      <trkpt lat="46.75926" lon="5.66897">
        <ele>340.9</ele>
        <time>2019-05-19T07:00:06Z</time>
      </trkpt>
      <trkpt lat="46.75919" lon="5.66886">
        <ele>340.7</ele>
        <time>2019-05-19T07:00:10Z</time>
      </trkpt>
      <trkpt lat="46.75914" lon="5.66873">
        <ele>340.6</ele>
        <time>2019-05-19T07:00:14Z</time>
      </trkpt>
      <trkpt lat="46.75908" lon="5.66859">
        <ele>340.4</ele>
        <time>2019-05-19T07:00:18Z</time>
      </trkpt>
      <trkpt lat="46.75904" lon="5.66847">
        <ele>340.2</ele>
        <time>2019-05-19T07:00:22Z</time>
      </trkpt>
      <trkpt lat="46.75897" lon="5.66836">
        <ele>340.3</ele>
        <time>2019-05-19T07:00:28Z</time>
      </trkpt>
      <trkpt lat="46.75893" lon="5.66823">
        <ele>340.6</ele>
        <time>2019-05-19T07:00:33Z</time>
      </trkpt>
      <trkpt lat="46.75896" lon="5.66809">
        <ele>341.1</ele>
        <time>2019-05-19T07:00:37Z</time>
      </trkpt>
      <trkpt lat="46.759" lon="5.66798">
        <ele>341.6</ele>
        <time>2019-05-19T07:00:41Z</time>
      </trkpt>
      <trkpt lat="46.75901" lon="5.66783">
        <ele>342.3</ele>
        <time>2019-05-19T07:00:46Z</time>
      </trkpt>
      <trkpt lat="46.75905" lon="5.66771">
        <ele>342.9</ele>
        <time>2019-05-19T07:00:50Z</time>
      </trkpt>
      <trkpt lat="46.7591" lon="5.66757">
        <ele>343.5</ele>
        <time>2019-05-19T07:00:54Z</time>
      </trkpt>
      <trkpt lat="46.75904" lon="5.66746">
        <ele>344.4</ele>
        <time>2019-05-19T07:01:00Z</time>
      </trkpt>
      <trkpt lat="46.75894" lon="5.66745">
        <ele>345.1</ele>
        <time>2019-05-19T07:01:04Z</time>
      </trkpt>
      <trkpt lat="46.75885" lon="5.66741">
        <ele>345.7</ele>
        <time>2019-05-19T07:01:08Z</time>
      </trkpt>
      <trkpt lat="46.75875" lon="5.66741">
        <ele>346.2</ele>
        <time>2019-05-19T07:01:12Z</time>
      </trkpt>
      <trkpt lat="46.75866" lon="5.66744">
        <ele>346.7</ele>
        <time>2019-05-19T07:01:15Z</time>
      </trkpt>
      <trkpt lat="46.75856" lon="5.66745">
        <ele>347.2</ele>
        <time>2019-05-19T07:01:19Z</time>
      </trkpt>
      <trkpt lat="46.75846" lon="5.66744">
        <ele>347.8</ele>
        <time>2019-05-19T07:01:23Z</time>
      </trkpt>
      <trkpt lat="46.75837" lon="5.66743">
        <ele>348.6</ele>
        <time>2019-05-19T07:01:27Z</time>
      </trkpt>
      <trkpt lat="46.75829" lon="5.66735">
        <ele>349.4</ele>
        <time>2019-05-19T07:01:31Z</time>
      </trkpt>
      <trkpt lat="46.7582" lon="5.66727">
        <ele>350</ele>
        <time>2019-05-19T07:01:35Z</time>
      </trkpt>
      <trkpt lat="46.75811" lon="5.66719">
        <ele>350.6</ele>
        <time>2019-05-19T07:01:39Z</time>
      </trkpt>
      <trkpt lat="46.75803" lon="5.66711">
        <ele>350.8</ele>
        <time>2019-05-19T07:01:41Z</time>
      </trkpt>
      <trkpt lat="46.75794" lon="5.66703">
        <ele>351.1</ele>
        <time>2019-05-19T07:01:44Z</time>
      </trkpt>
      <trkpt lat="46.75785" lon="5.66693">
        <ele>351.4</ele>
        <time>2019-05-19T07:01:48Z</time>
      </trkpt>
      <trkpt lat="46.75776" lon="5.66683">
        <ele>351.7</ele>
        <time>2019-05-19T07:01:52Z</time>
      </trkpt>
      <trkpt lat="46.75769" lon="5.66677">
        <ele>352</ele>
        <time>2019-05-19T07:01:55Z</time>
      </trkpt>
      <trkpt lat="46.75759" lon="5.66668">
        <ele>352.3</ele>
        <time>2019-05-19T07:02:00Z</time>
      </trkpt>
      <trkpt lat="46.75751" lon="5.66662">
        <ele>352.3</ele>
        <time>2019-05-19T07:02:03Z</time>
      </trkpt>
      <trkpt lat="46.75741" lon="5.66655">
        <ele>352.3</ele>
        <time>2019-05-19T07:02:06Z</time>
      </trkpt>
      <trkpt lat="46.75733" lon="5.66648">
        <ele>352.4</ele>
        <time>2019-05-19T07:02:08Z</time>
      </trkpt>
      <trkpt lat="46.75721" lon="5.66639">
        <ele>352.4</ele>
        <time>2019-05-19T07:02:11Z</time>
      </trkpt>
      <trkpt lat="46.75708" lon="5.66632">
        <ele>352.5</ele>
        <time>2019-05-19T07:02:14Z</time>
      </trkpt>
      <trkpt lat="46.75699" lon="5.66625">
        <ele>352.4</ele>
        <time>2019-05-19T07:02:16Z</time>
      </trkpt>
      <trkpt lat="46.7569" lon="5.66617">
        <ele>352.4</ele>
        <time>2019-05-19T07:02:18Z</time>
      </trkpt>
      <trkpt lat="46.75682" lon="5.66608">
        <ele>352.2</ele>
        <time>2019-05-19T07:02:20Z</time>
      </trkpt>
      <trkpt lat="46.75671" lon="5.666">
        <ele>352</ele>
        <time>2019-05-19T07:02:23Z</time>
      </trkpt>
      <trkpt lat="46.75662" lon="5.66597">
        <ele>351.8</ele>
        <time>2019-05-19T07:02:25Z</time>
      </trkpt>
      <trkpt lat="46.75649" lon="5.66593">
        <ele>351.5</ele>
        <time>2019-05-19T07:02:28Z</time>
      </trkpt>
      <trkpt lat="46.75636" lon="5.66593">
        <ele>351.4</ele>
        <time>2019-05-19T07:02:31Z</time>
      </trkpt>
      <trkpt lat="46.75624" lon="5.66593">
        <ele>351.3</ele>
        <time>2019-05-19T07:02:34Z</time>
      </trkpt>
      <trkpt lat="46.75614" lon="5.6659">
        <ele>351.3</ele>
        <time>2019-05-19T07:02:37Z</time>
      </trkpt>
      <trkpt lat="46.75603" lon="5.66589">
        <ele>351.2</ele>
        <time>2019-05-19T07:02:40Z</time>
      </trkpt>
      <trkpt lat="46.75592" lon="5.66589">
        <ele>351</ele>
        <time>2019-05-19T07:02:43Z</time>
      </trkpt>
      <trkpt lat="46.75582" lon="5.66587">
        <ele>350.8</ele>
        <time>2019-05-19T07:02:46Z</time>
      </trkpt>
      <trkpt lat="46.75573" lon="5.66582">
        <ele>350.9</ele>
        <time>2019-05-19T07:02:49Z</time>
      </trkpt>
      <trkpt lat="46.75562" lon="5.66576">
        <ele>351.1</ele>
        <time>2019-05-19T07:02:53Z</time>
      </trkpt>
      <trkpt lat="46.75551" lon="5.66574">
        <ele>351.3</ele>
        <time>2019-05-19T07:02:56Z</time>
      </trkpt>
      <trkpt lat="46.75541" lon="5.66569">
        <ele>351.5</ele>
        <time>2019-05-19T07:02:59Z</time>
      </trkpt>
      <trkpt lat="46.75532" lon="5.66563">
        <ele>351.8</ele>
        <time>2019-05-19T07:03:02Z</time>
      </trkpt>
      <trkpt lat="46.75522" lon="5.66555">
        <ele>352</ele>
        <time>2019-05-19T07:03:05Z</time>
      </trkpt>
      <trkpt lat="46.75513" lon="5.66548">
        <ele>352.3</ele>
        <time>2019-05-19T07:03:08Z</time>
      </trkpt>
      <trkpt lat="46.75506" lon="5.66541">
        <ele>352.3</ele>
        <time>2019-05-19T07:03:10Z</time>
      </trkpt>
      <trkpt lat="46.75497" lon="5.66535">
        <ele>352.3</ele>
        <time>2019-05-19T07:03:12Z</time>
      </trkpt>
      <trkpt lat="46.75489" lon="5.66528">
        <ele>352.4</ele>
        <time>2019-05-19T07:03:15Z</time>
      </trkpt>
      <trkpt lat="46.75481" lon="5.6652">
        <ele>352.6</ele>
        <time>2019-05-19T07:03:20Z</time>
      </trkpt>
      <trkpt lat="46.75472" lon="5.66513">
        <ele>352.7</ele>
        <time>2019-05-19T07:03:26Z</time>
      </trkpt>
      <trkpt lat="46.75462" lon="5.66513">
        <ele>353.5</ele>
        <time>2019-05-19T07:03:40Z</time>
      </trkpt>
      <trkpt lat="46.75452" lon="5.6651">
        <ele>353.7</ele>
        <time>2019-05-19T07:03:42Z</time>
      </trkpt>
      <trkpt lat="46.75442" lon="5.66505">
        <ele>354</ele>
        <time>2019-05-19T07:03:45Z</time>
      </trkpt>
      <trkpt lat="46.75434" lon="5.66498">
        <ele>354.2</ele>
        <time>2019-05-19T07:03:48Z</time>
      </trkpt>
      <trkpt lat="46.75426" lon="5.66492">
        <ele>354.5</ele>
        <time>2019-05-19T07:03:51Z</time>
      </trkpt>
      <trkpt lat="46.75418" lon="5.66482">
        <ele>354.9</ele>
        <time>2019-05-19T07:03:55Z</time>
      </trkpt>
      <trkpt lat="46.75411" lon="5.66473">
        <ele>355.4</ele>
        <time>2019-05-19T07:03:59Z</time>
      </trkpt>
      <trkpt lat="46.75405" lon="5.66462">
        <ele>356.5</ele>
        <time>2019-05-19T07:04:05Z</time>
      </trkpt>
      <trkpt lat="46.75396" lon="5.66452">
        <ele>357.7</ele>
        <time>2019-05-19T07:04:12Z</time>
      </trkpt>
      <trkpt lat="46.75391" lon="5.66439">
        <ele>359.5</ele>
        <time>2019-05-19T07:04:20Z</time>
      </trkpt>
      <trkpt lat="46.75381" lon="5.66435">
        <ele>360.7</ele>
        <time>2019-05-19T07:04:26Z</time>
      </trkpt>
      <trkpt lat="46.75372" lon="5.66428">
        <ele>361.4</ele>
        <time>2019-05-19T07:04:30Z</time>
      </trkpt>
      <trkpt lat="46.75366" lon="5.66415">
        <ele>362.1</ele>
        <time>2019-05-19T07:04:34Z</time>
      </trkpt>
      <trkpt lat="46.75357" lon="5.66409">
        <ele>362.4</ele>
        <time>2019-05-19T07:04:38Z</time>
      </trkpt>
      <trkpt lat="46.7535" lon="5.66397">
        <ele>362.3</ele>
        <time>2019-05-19T07:04:42Z</time>
      </trkpt>
      <trkpt lat="46.75344" lon="5.66384">
        <ele>361.8</ele>
        <time>2019-05-19T07:04:46Z</time>
      </trkpt>
      <trkpt lat="46.75346" lon="5.6637">
        <ele>361.3</ele>
        <time>2019-05-19T07:04:49Z</time>
      </trkpt>
      <trkpt lat="46.75349" lon="5.66355">
        <ele>360.7</ele>
        <time>2019-05-19T07:04:52Z</time>
      </trkpt>
      <trkpt lat="46.75357" lon="5.66345">
        <ele>359.5</ele>
        <time>2019-05-19T07:04:56Z</time>
      </trkpt>
      <trkpt lat="46.75367" lon="5.66345">
        <ele>357.8</ele>
        <time>2019-05-19T07:05:01Z</time>
      </trkpt>
      <trkpt lat="46.75378" lon="5.66343">
        <ele>355.7</ele>
        <time>2019-05-19T07:05:07Z</time>
      </trkpt>
      <trkpt lat="46.7538" lon="5.66329">
        <ele>353.1</ele>
        <time>2019-05-19T07:05:14Z</time>
      </trkpt>
      <trkpt lat="46.75378" lon="5.66316">
        <ele>351.1</ele>
        <time>2019-05-19T07:05:20Z</time>
      </trkpt>
      <trkpt lat="46.75374" lon="5.66302">
        <ele>349.9</ele>
        <time>2019-05-19T07:05:25Z</time>
      </trkpt>
      <trkpt lat="46.75372" lon="5.66288">
        <ele>349</ele>
        <time>2019-05-19T07:05:28Z</time>
      </trkpt>
      <trkpt lat="46.75368" lon="5.66276">
        <ele>348.1</ele>
        <time>2019-05-19T07:05:31Z</time>
      </trkpt>
      <trkpt lat="46.75366" lon="5.6626">
        <ele>346.6</ele>
        <time>2019-05-19T07:05:36Z</time>
      </trkpt>
      <trkpt lat="46.75359" lon="5.66248">
        <ele>345.7</ele>
        <time>2019-05-19T07:05:40Z</time>
      </trkpt>
      <trkpt lat="46.75353" lon="5.66238">
        <ele>344.4</ele>
        <time>2019-05-19T07:05:44Z</time>
      </trkpt>
      <trkpt lat="46.75345" lon="5.66226">
        <ele>343.2</ele>
        <time>2019-05-19T07:05:48Z</time>
      </trkpt>
      <trkpt lat="46.75336" lon="5.66218">
        <ele>341.5</ele>
        <time>2019-05-19T07:05:53Z</time>
      </trkpt>
      <trkpt lat="46.75327" lon="5.66217">
        <ele>340.1</ele>
        <time>2019-05-19T07:05:57Z</time>
      </trkpt>
      <trkpt lat="46.75317" lon="5.66216">
        <ele>338.8</ele>
        <time>2019-05-19T07:06:01Z</time>
      </trkpt>
      <trkpt lat="46.75308" lon="5.66219">
        <ele>337.8</ele>
        <time>2019-05-19T07:06:04Z</time>
      </trkpt>
      <trkpt lat="46.75297" lon="5.66225">
        <ele>333.8</ele>
        <time>2019-05-19T07:06:20Z</time>
      </trkpt>
      <trkpt lat="46.75289" lon="5.66234">
        <ele>333.3</ele>
        <time>2019-05-19T07:06:23Z</time>
      </trkpt>
      <trkpt lat="46.75282" lon="5.66242">
        <ele>332.3</ele>
        <time>2019-05-19T07:06:27Z</time>
      </trkpt>
      <trkpt lat="46.75278" lon="5.66256">
        <ele>331.2</ele>
        <time>2019-05-19T07:06:32Z</time>
      </trkpt>
      <trkpt lat="46.75272" lon="5.66268">
        <ele>330</ele>
        <time>2019-05-19T07:06:36Z</time>
      </trkpt>
      <trkpt lat="46.75266" lon="5.66281">
        <ele>328.7</ele>
        <time>2019-05-19T07:06:40Z</time>
      </trkpt>
      <trkpt lat="46.75259" lon="5.66292">
        <ele>327.4</ele>
        <time>2019-05-19T07:06:43Z</time>
      </trkpt>
      <trkpt lat="46.75254" lon="5.66306">
        <ele>325.6</ele>
        <time>2019-05-19T07:06:47Z</time>
      </trkpt>
      <trkpt lat="46.75249" lon="5.66318">
        <ele>324.3</ele>
        <time>2019-05-19T07:06:50Z</time>
      </trkpt>
      <trkpt lat="46.75243" lon="5.66329">
        <ele>322.8</ele>
        <time>2019-05-19T07:06:53Z</time>
      </trkpt>
      <trkpt lat="46.75235" lon="5.66343">
        <ele>321</ele>
        <time>2019-05-19T07:06:56Z</time>
      </trkpt>
      <trkpt lat="46.75227" lon="5.66355">
        <ele>319</ele>
        <time>2019-05-19T07:06:59Z</time>
      </trkpt>
      <trkpt lat="46.75215" lon="5.66364">
        <ele>316.8</ele>
        <time>2019-05-19T07:07:02Z</time>
      </trkpt>
      <trkpt lat="46.75206" lon="5.66375">
        <ele>314.5</ele>
        <time>2019-05-19T07:07:05Z</time>
      </trkpt>
      <trkpt lat="46.75196" lon="5.66385">
        <ele>312.2</ele>
        <time>2019-05-19T07:07:08Z</time>
      </trkpt>
      <trkpt lat="46.75185" lon="5.66393">
        <ele>310</ele>
        <time>2019-05-19T07:07:11Z</time>
      </trkpt>
      <trkpt lat="46.75173" lon="5.664">
        <ele>307.6</ele>
        <time>2019-05-19T07:07:14Z</time>
      </trkpt>
      <trkpt lat="46.75163" lon="5.66406">
        <ele>305.1</ele>
        <time>2019-05-19T07:07:17Z</time>
      </trkpt>
      <trkpt lat="46.75151" lon="5.66411">
        <ele>302.5</ele>
        <time>2019-05-19T07:07:20Z</time>
      </trkpt>
      <trkpt lat="46.75138" lon="5.6641">
        <ele>300.1</ele>
        <time>2019-05-19T07:07:23Z</time>
      </trkpt>
      <trkpt lat="46.75125" lon="5.66407">
        <ele>297.8</ele>
        <time>2019-05-19T07:07:26Z</time>
      </trkpt>
      <trkpt lat="46.75112" lon="5.6641">
        <ele>295.5</ele>
        <time>2019-05-19T07:07:29Z</time>
      </trkpt>
      <trkpt lat="46.75101" lon="5.6641">
        <ele>293</ele>
        <time>2019-05-19T07:07:32Z</time>
      </trkpt>
      <trkpt lat="46.75088" lon="5.66407">
        <ele>290.4</ele>
        <time>2019-05-19T07:07:35Z</time>
      </trkpt>
      <trkpt lat="46.75077" lon="5.66407">
        <ele>288.1</ele>
        <time>2019-05-19T07:07:38Z</time>
      </trkpt>
      <trkpt lat="46.75067" lon="5.66406">
        <ele>286</ele>
        <time>2019-05-19T07:07:41Z</time>
      </trkpt>
      <trkpt lat="46.75055" lon="5.66409">
        <ele>282.9</ele>
        <time>2019-05-19T07:07:45Z</time>
      </trkpt>
      <trkpt lat="46.75044" lon="5.66411">
        <ele>280.3</ele>
        <time>2019-05-19T07:07:48Z</time>
      </trkpt>
      <trkpt lat="46.75032" lon="5.66412">
        <ele>278.1</ele>
        <time>2019-05-19T07:07:51Z</time>
      </trkpt>
      <trkpt lat="46.75022" lon="5.66415">
        <ele>275.9</ele>
        <time>2019-05-19T07:07:54Z</time>
      </trkpt>
      <trkpt lat="46.75012" lon="5.66415">
        <ele>273.8</ele>
        <time>2019-05-19T07:07:57Z</time>
      </trkpt>
      <trkpt lat="46.75002" lon="5.66414">
        <ele>271.5</ele>
        <time>2019-05-19T07:08:00Z</time>
      </trkpt>
      <trkpt lat="46.7499" lon="5.66411">
        <ele>269.2</ele>
        <time>2019-05-19T07:08:03Z</time>
      </trkpt>
      <trkpt lat="46.7498" lon="5.66406">
        <ele>266.8</ele>
        <time>2019-05-19T07:08:06Z</time>
      </trkpt>
      <trkpt lat="46.74975" lon="5.66395">
        <ele>263.8</ele>
        <time>2019-05-19T07:08:10Z</time>
      </trkpt>
      <trkpt lat="46.74978" lon="5.66381">
        <ele>261.5</ele>
        <time>2019-05-19T07:08:13Z</time>
      </trkpt>
      <trkpt lat="46.74986" lon="5.66372">
        <ele>258.4</ele>
        <time>2019-05-19T07:08:17Z</time>
      </trkpt>
      <trkpt lat="46.74989" lon="5.66357">
        <ele>252.5</ele>
        <time>2019-05-19T07:08:25Z</time>
      </trkpt>
      <trkpt lat="46.74979" lon="5.66345">
        <ele>250.4</ele>
        <time>2019-05-19T07:08:28Z</time>
      </trkpt>
      <trkpt lat="46.74969" lon="5.66337">
        <ele>248.3</ele>
        <time>2019-05-19T07:08:31Z</time>
      </trkpt>
      <trkpt lat="46.74958" lon="5.66333">
        <ele>246</ele>
        <time>2019-05-19T07:08:34Z</time>
      </trkpt>
      <trkpt lat="46.74945" lon="5.66329">
        <ele>243.6</ele>
        <time>2019-05-19T07:08:37Z</time>
      </trkpt>
      <trkpt lat="46.74935" lon="5.66325">
        <ele>241.1</ele>
        <time>2019-05-19T07:08:40Z</time>
      </trkpt>
      <trkpt lat="46.74924" lon="5.6632">
        <ele>238.1</ele>
        <time>2019-05-19T07:08:44Z</time>
      </trkpt>
      <trkpt lat="46.74914" lon="5.66318">
        <ele>235.7</ele>
        <time>2019-05-19T07:08:47Z</time>
      </trkpt>
      <trkpt lat="46.74903" lon="5.66317">
        <ele>233.3</ele>
        <time>2019-05-19T07:08:50Z</time>
      </trkpt>
      <trkpt lat="46.74889" lon="5.6632">
        <ele>231.1</ele>
        <time>2019-05-19T07:08:53Z</time>
      </trkpt>
      <trkpt lat="46.74878" lon="5.66324">
        <ele>229.7</ele>
        <time>2019-05-19T07:08:55Z</time>
      </trkpt>
      <trkpt lat="46.74865" lon="5.66329">
        <ele>228.2</ele>
        <time>2019-05-19T07:08:57Z</time>
      </trkpt>
      <trkpt lat="46.74853" lon="5.66328">
        <ele>226.7</ele>
        <time>2019-05-19T07:08:59Z</time>
      </trkpt>
      <trkpt lat="46.74842" lon="5.66325">
        <ele>225.3</ele>
        <time>2019-05-19T07:09:01Z</time>
      </trkpt>
      <trkpt lat="46.74832" lon="5.66321">
        <ele>224.1</ele>
        <time>2019-05-19T07:09:03Z</time>
      </trkpt>
      <trkpt lat="46.74822" lon="5.66316">
        <ele>222.8</ele>
        <time>2019-05-19T07:09:05Z</time>
      </trkpt>
      <trkpt lat="46.74812" lon="5.66315">
        <ele>221.6</ele>
        <time>2019-05-19T07:09:07Z</time>
      </trkpt>
      <trkpt lat="46.74801" lon="5.66325">
        <ele>220</ele>
        <time>2019-05-19T07:09:10Z</time>
      </trkpt>
      <trkpt lat="46.74794" lon="5.66337">
        <ele>219</ele>
        <time>2019-05-19T07:09:12Z</time>
      </trkpt>
      <trkpt lat="46.74787" lon="5.66353">
        <ele>218</ele>
        <time>2019-05-19T07:09:14Z</time>
      </trkpt>
      <trkpt lat="46.74782" lon="5.66368">
        <ele>217</ele>
        <time>2019-05-19T07:09:16Z</time>
      </trkpt>
      <trkpt lat="46.74778" lon="5.66383">
        <ele>216</ele>
        <time>2019-05-19T07:09:18Z</time>
      </trkpt>
      <trkpt lat="46.74775" lon="5.66398">
        <ele>215</ele>
        <time>2019-05-19T07:09:20Z</time>
      </trkpt>
      <trkpt lat="46.74772" lon="5.66412">
        <ele>213.9</ele>
        <time>2019-05-19T07:09:22Z</time>
      </trkpt>
      <trkpt lat="46.74768" lon="5.66429">
        <ele>212.4</ele>
        <time>2019-05-19T07:09:25Z</time>
      </trkpt>
      <trkpt lat="46.74764" lon="5.66445">
        <ele>211.2</ele>
        <time>2019-05-19T07:09:28Z</time>
      </trkpt>
      <trkpt lat="46.74763" lon="5.66463">
        <ele>210.2</ele>
        <time>2019-05-19T07:09:31Z</time>
      </trkpt>
      <trkpt lat="46.74763" lon="5.66478">
        <ele>209.6</ele>
        <time>2019-05-19T07:09:33Z</time>
      </trkpt>
      <trkpt lat="46.74765" lon="5.66494">
        <ele>209</ele>
        <time>2019-05-19T07:09:35Z</time>
      </trkpt>
      <trkpt lat="46.74766" lon="5.6651">
        <ele>208.5</ele>
        <time>2019-05-19T07:09:37Z</time>
      </trkpt>
      <trkpt lat="46.74766" lon="5.66528">
        <ele>207.9</ele>
        <time>2019-05-19T07:09:39Z</time>
      </trkpt>
      <trkpt lat="46.74763" lon="5.66547">
        <ele>207.4</ele>
        <time>2019-05-19T07:09:41Z</time>
      </trkpt>
      <trkpt lat="46.74758" lon="5.66566">
        <ele>207</ele>
        <time>2019-05-19T07:09:43Z</time>
      </trkpt>
      <trkpt lat="46.74753" lon="5.66582">
        <ele>206.6</ele>
        <time>2019-05-19T07:09:45Z</time>
      </trkpt>
      <trkpt lat="46.74748" lon="5.66596">
        <ele>206.2</ele>
        <time>2019-05-19T07:09:47Z</time>
      </trkpt>
      <trkpt lat="46.74744" lon="5.66607">
        <ele>205.9</ele>
        <time>2019-05-19T07:09:49Z</time>
      </trkpt>
      <trkpt lat="46.74736" lon="5.66619">
        <ele>205.5</ele>
        <time>2019-05-19T07:09:52Z</time>
      </trkpt>
      <trkpt lat="46.74739" lon="5.66632">
        <ele>232.3</ele>
        <time>2019-05-19T07:13:51Z</time>
      </trkpt>
      <trkpt lat="46.74742" lon="5.66648">
        <ele>233.2</ele>
        <time>2019-05-19T07:13:56Z</time>
      </trkpt>
      <trkpt lat="46.74745" lon="5.66662">
        <ele>233.8</ele>
        <time>2019-05-19T07:14:00Z</time>
      </trkpt>
      <trkpt lat="46.74747" lon="5.66677">
        <ele>234.5</ele>
        <time>2019-05-19T07:14:04Z</time>
      </trkpt>
      <trkpt lat="46.7475" lon="5.66693">
        <ele>235.2</ele>
        <time>2019-05-19T07:14:08Z</time>
      </trkpt>
      <trkpt lat="46.74753" lon="5.66709">
        <ele>235.9</ele>
        <time>2019-05-19T07:14:12Z</time>
      </trkpt>
      <trkpt lat="46.74756" lon="5.66723">
        <ele>236.6</ele>
        <time>2019-05-19T07:14:16Z</time>
      </trkpt>
      <trkpt lat="46.74759" lon="5.66738">
        <ele>237.4</ele>
        <time>2019-05-19T07:14:20Z</time>
      </trkpt>
      <trkpt lat="46.74761" lon="5.66753">
        <ele>238.3</ele>
        <time>2019-05-19T07:14:25Z</time>
      </trkpt>
      <trkpt lat="46.74754" lon="5.66743">
        <ele>239.7</ele>
        <time>2019-05-19T07:14:33Z</time>
      </trkpt>
      <trkpt lat="46.74743" lon="5.66746">
        <ele>240.4</ele>
        <time>2019-05-19T07:14:37Z</time>
      </trkpt>
      <trkpt lat="46.74731" lon="5.66742">
        <ele>241.1</ele>
        <time>2019-05-19T07:14:41Z</time>
      </trkpt>
      <trkpt lat="46.74724" lon="5.66733">
        <ele>241.6</ele>
        <time>2019-05-19T07:14:44Z</time>
      </trkpt>
      <trkpt lat="46.74718" lon="5.66722">
        <ele>242.1</ele>
        <time>2019-05-19T07:14:47Z</time>
      </trkpt>
      <trkpt lat="46.74711" lon="5.66711">
        <ele>242.7</ele>
        <time>2019-05-19T07:14:50Z</time>
      </trkpt>
      <trkpt lat="46.74705" lon="5.66699">
        <ele>243.4</ele>
        <time>2019-05-19T07:14:53Z</time>
      </trkpt>
      <trkpt lat="46.74699" lon="5.66687">
        <ele>244</ele>
        <time>2019-05-19T07:14:56Z</time>
      </trkpt>
      <trkpt lat="46.74692" lon="5.66675">
        <ele>244.6</ele>
        <time>2019-05-19T07:14:59Z</time>
      </trkpt>
      <trkpt lat="46.74686" lon="5.66663">
        <ele>245.2</ele>
        <time>2019-05-19T07:15:02Z</time>
      </trkpt>
      <trkpt lat="46.7468" lon="5.66649">
        <ele>245.7</ele>
        <time>2019-05-19T07:15:05Z</time>
      </trkpt>
      <trkpt lat="46.74676" lon="5.66634">
        <ele>246.2</ele>
        <time>2019-05-19T07:15:08Z</time>
      </trkpt>
      <trkpt lat="46.74673" lon="5.66616">
        <ele>246.7</ele>
        <time>2019-05-19T07:15:11Z</time>
      </trkpt>
      <trkpt lat="46.74671" lon="5.66597">
        <ele>247.2</ele>
        <time>2019-05-19T07:15:14Z</time>
      </trkpt>
      <trkpt lat="46.74668" lon="5.66578">
        <ele>247.6</ele>
        <time>2019-05-19T07:15:17Z</time>
      </trkpt>
      <trkpt lat="46.74665" lon="5.66559">
        <ele>248</ele>
        <time>2019-05-19T07:15:20Z</time>
      </trkpt>
      <trkpt lat="46.74663" lon="5.66546">
        <ele>248.2</ele>
        <time>2019-05-19T07:15:22Z</time>
      </trkpt>
      <trkpt lat="46.7466" lon="5.66528">
        <ele>248.6</ele>
        <time>2019-05-19T07:15:25Z</time>
      </trkpt>
      <trkpt lat="46.74656" lon="5.6651">
        <ele>248.9</ele>
        <time>2019-05-19T07:15:28Z</time>
      </trkpt>
      <trkpt lat="46.7465" lon="5.66494">
        <ele>249.3</ele>
        <time>2019-05-19T07:15:31Z</time>
      </trkpt>
      <trkpt lat="46.74648" lon="5.66479">
        <ele>249.7</ele>
        <time>2019-05-19T07:15:34Z</time>
      </trkpt>
      <trkpt lat="46.74646" lon="5.66465">
        <ele>250.2</ele>
        <time>2019-05-19T07:15:37Z</time>
      </trkpt>
      <trkpt lat="46.74644" lon="5.66448">
        <ele>251.1</ele>
        <time>2019-05-19T07:15:41Z</time>
      </trkpt>
      <trkpt lat="46.74641" lon="5.66433">
        <ele>252.2</ele>
        <time>2019-05-19T07:15:45Z</time>
      </trkpt>
      <trkpt lat="46.74637" lon="5.6642">
        <ele>253.3</ele>
        <time>2019-05-19T07:15:49Z</time>
      </trkpt>
      <trkpt lat="46.74633" lon="5.66407">
        <ele>254.7</ele>
        <time>2019-05-19T07:15:53Z</time>
      </trkpt>
      <trkpt lat="46.74632" lon="5.66393">
        <ele>256.6</ele>
        <time>2019-05-19T07:15:58Z</time>
      </trkpt>
      <trkpt lat="46.74631" lon="5.66377">
        <ele>258</ele>
        <time>2019-05-19T07:16:02Z</time>
      </trkpt>
      <trkpt lat="46.74632" lon="5.6636">
        <ele>259.3</ele>
        <time>2019-05-19T07:16:06Z</time>
      </trkpt>
      <trkpt lat="46.74633" lon="5.66343">
        <ele>260.1</ele>
        <time>2019-05-19T07:16:09Z</time>
      </trkpt>
      <trkpt lat="46.74634" lon="5.66325">
        <ele>260.8</ele>
        <time>2019-05-19T07:16:12Z</time>
      </trkpt>
      <trkpt lat="46.74635" lon="5.66307">
        <ele>261.4</ele>
        <time>2019-05-19T07:16:15Z</time>
      </trkpt>
      <trkpt lat="46.74634" lon="5.66291">
        <ele>262</ele>
        <time>2019-05-19T07:16:18Z</time>
      </trkpt>
      <trkpt lat="46.74633" lon="5.66278">
        <ele>262.6</ele>
        <time>2019-05-19T07:16:21Z</time>
      </trkpt>
      <trkpt lat="46.74632" lon="5.66264">
        <ele>263.2</ele>
        <time>2019-05-19T07:16:24Z</time>
      </trkpt>
      <trkpt lat="46.7463" lon="5.66251">
        <ele>263.7</ele>
        <time>2019-05-19T07:16:27Z</time>
      </trkpt>
      <trkpt lat="46.74628" lon="5.66237">
        <ele>264.3</ele>
        <time>2019-05-19T07:16:30Z</time>
      </trkpt>
      <trkpt lat="46.74626" lon="5.66223">
        <ele>264.8</ele>
        <time>2019-05-19T07:16:33Z</time>
      </trkpt>
      <trkpt lat="46.74623" lon="5.66206">
        <ele>265.4</ele>
        <time>2019-05-19T07:16:36Z</time>
      </trkpt>
      <trkpt lat="46.74622" lon="5.66193">
        <ele>265.6</ele>
        <time>2019-05-19T07:16:38Z</time>
      </trkpt>
      <trkpt lat="46.7462" lon="5.66177">
        <ele>265.7</ele>
        <time>2019-05-19T07:16:40Z</time>
      </trkpt>
      <trkpt lat="46.7462" lon="5.66159">
        <ele>265.8</ele>
        <time>2019-05-19T07:16:42Z</time>
      </trkpt>
      <trkpt lat="46.74621" lon="5.66139">
        <ele>265.9</ele>
        <time>2019-05-19T07:16:44Z</time>
      </trkpt>
      <trkpt lat="46.7462" lon="5.66122">
        <ele>265.9</ele>
        <time>2019-05-19T07:16:46Z</time>
      </trkpt>
      <trkpt lat="46.74619" lon="5.66106">
        <ele>265.9</ele>
        <time>2019-05-19T07:16:48Z</time>
      </trkpt>
      <trkpt lat="46.74618" lon="5.66091">
        <ele>266</ele>
        <time>2019-05-19T07:16:50Z</time>
      </trkpt>
      <trkpt lat="46.74616" lon="5.66076">
        <ele>266</ele>
        <time>2019-05-19T07:16:52Z</time>
      </trkpt>
      <trkpt lat="46.74612" lon="5.66062">
        <ele>265.9</ele>
        <time>2019-05-19T07:16:54Z</time>
      </trkpt>
      <trkpt lat="46.74609" lon="5.66048">
        <ele>265.9</ele>
        <time>2019-05-19T07:16:56Z</time>
      </trkpt>
      <trkpt lat="46.74606" lon="5.66035">
        <ele>266</ele>
        <time>2019-05-19T07:16:58Z</time>
      </trkpt>
      <trkpt lat="46.74603" lon="5.66022">
        <ele>266</ele>
        <time>2019-05-19T07:17:00Z</time>
      </trkpt>
      <trkpt lat="46.746" lon="5.66008">
        <ele>266.1</ele>
        <time>2019-05-19T07:17:02Z</time>
      </trkpt>
      <trkpt lat="46.74597" lon="5.65992">
        <ele>266.1</ele>
        <time>2019-05-19T07:17:04Z</time>
      </trkpt>
      <trkpt lat="46.74593" lon="5.65976">
        <ele>266.2</ele>
        <time>2019-05-19T07:17:06Z</time>
      </trkpt>
      <trkpt lat="46.74589" lon="5.65962">
        <ele>266.2</ele>
        <time>2019-05-19T07:17:08Z</time>
      </trkpt>
      <trkpt lat="46.74585" lon="5.65949">
        <ele>266.1</ele>
        <time>2019-05-19T07:17:10Z</time>
      </trkpt>
      <trkpt lat="46.74577" lon="5.65937">
        <ele>266</ele>
        <time>2019-05-19T07:17:12Z</time>
      </trkpt>
      <trkpt lat="46.74568" lon="5.65929">
        <ele>265.9</ele>
        <time>2019-05-19T07:17:14Z</time>
      </trkpt>
      <trkpt lat="46.74558" lon="5.65923">
        <ele>265.7</ele>
        <time>2019-05-19T07:17:16Z</time>
      </trkpt>
      <trkpt lat="46.74547" lon="5.65915">
        <ele>265.6</ele>
        <time>2019-05-19T07:17:18Z</time>
      </trkpt>
      <trkpt lat="46.74537" lon="5.65908">
        <ele>265.5</ele>
        <time>2019-05-19T07:17:20Z</time>
      </trkpt>
      <trkpt lat="46.74526" lon="5.65903">
        <ele>265.4</ele>
        <time>2019-05-19T07:17:23Z</time>
      </trkpt>
      <trkpt lat="46.74518" lon="5.65897">
        <ele>265.5</ele>
        <time>2019-05-19T07:17:27Z</time>
      </trkpt>
      <trkpt lat="46.74512" lon="5.65883">
        <ele>266</ele>
        <time>2019-05-19T07:17:32Z</time>
      </trkpt>
      <trkpt lat="46.74506" lon="5.65872">
        <ele>266.8</ele>
        <time>2019-05-19T07:17:36Z</time>
      </trkpt>
      <trkpt lat="46.74499" lon="5.65863">
        <ele>267.4</ele>
        <time>2019-05-19T07:17:39Z</time>
      </trkpt>
      <trkpt lat="46.74493" lon="5.65852">
        <ele>267.8</ele>
        <time>2019-05-19T07:17:41Z</time>
      </trkpt>
      <trkpt lat="46.7449" lon="5.65835">
        <ele>268.2</ele>
        <time>2019-05-19T07:17:44Z</time>
      </trkpt>
      <trkpt lat="46.74484" lon="5.65822">
        <ele>269.1</ele>
        <time>2019-05-19T07:17:50Z</time>
      </trkpt>
      <trkpt lat="46.74479" lon="5.65811">
        <ele>270</ele>
        <time>2019-05-19T07:17:55Z</time>
      </trkpt>
      <trkpt lat="46.7447" lon="5.65806">
        <ele>271</ele>
        <time>2019-05-19T07:18:00Z</time>
      </trkpt>
      <trkpt lat="46.74462" lon="5.65795">
        <ele>272.1</ele>
        <time>2019-05-19T07:18:05Z</time>
      </trkpt>
      <trkpt lat="46.74454" lon="5.65784">
        <ele>281.2</ele>
        <time>2019-05-19T07:19:06Z</time>
      </trkpt>
      <trkpt lat="46.74446" lon="5.65774">
        <ele>281.8</ele>
        <time>2019-05-19T07:19:10Z</time>
      </trkpt>
      <trkpt lat="46.74439" lon="5.65766">
        <ele>282.2</ele>
        <time>2019-05-19T07:19:13Z</time>
      </trkpt>
      <trkpt lat="46.74429" lon="5.65757">
        <ele>282.5</ele>
        <time>2019-05-19T07:19:16Z</time>
      </trkpt>
      <trkpt lat="46.74419" lon="5.65748">
        <ele>282.8</ele>
        <time>2019-05-19T07:19:19Z</time>
      </trkpt>
      <trkpt lat="46.74409" lon="5.65739">
        <ele>283.2</ele>
        <time>2019-05-19T07:19:22Z</time>
      </trkpt>
      <trkpt lat="46.74399" lon="5.65732">
        <ele>283.6</ele>
        <time>2019-05-19T07:19:25Z</time>
      </trkpt>
      <trkpt lat="46.74389" lon="5.65726">
        <ele>284</ele>
        <time>2019-05-19T07:19:28Z</time>
      </trkpt>
      <trkpt lat="46.74378" lon="5.65721">
        <ele>284.3</ele>
        <time>2019-05-19T07:19:31Z</time>
      </trkpt>
      <trkpt lat="46.74366" lon="5.65716">
        <ele>284.4</ele>
        <time>2019-05-19T07:19:34Z</time>
      </trkpt>
      <trkpt lat="46.74358" lon="5.65711">
        <ele>284.5</ele>
        <time>2019-05-19T07:19:36Z</time>
      </trkpt>
      <trkpt lat="46.74346" lon="5.65702">
        <ele>284.7</ele>
        <time>2019-05-19T07:19:39Z</time>
      </trkpt>
      <trkpt lat="46.74335" lon="5.65694">
        <ele>285</ele>
        <time>2019-05-19T07:19:42Z</time>
      </trkpt>
      <trkpt lat="46.74325" lon="5.65684">
        <ele>285.2</ele>
        <time>2019-05-19T07:19:45Z</time>
      </trkpt>
      <trkpt lat="46.74316" lon="5.65672">
        <ele>285.5</ele>
        <time>2019-05-19T07:19:48Z</time>
      </trkpt>
      <trkpt lat="46.74306" lon="5.6566">
        <ele>285.7</ele>
        <time>2019-05-19T07:19:51Z</time>
      </trkpt>
      <trkpt lat="46.74298" lon="5.65652">
        <ele>285.8</ele>
        <time>2019-05-19T07:19:53Z</time>
      </trkpt>
      <trkpt lat="46.7429" lon="5.65644">
        <ele>285.9</ele>
        <time>2019-05-19T07:19:55Z</time>
      </trkpt>
      <trkpt lat="46.74281" lon="5.65636">
        <ele>286.1</ele>
        <time>2019-05-19T07:19:57Z</time>
      </trkpt>
      <trkpt lat="46.74272" lon="5.65629">
        <ele>286.1</ele>
        <time>2019-05-19T07:19:59Z</time>
      </trkpt>
      <trkpt lat="46.74262" lon="5.65622">
        <ele>286.2</ele>
        <time>2019-05-19T07:20:01Z</time>
      </trkpt>
      <trkpt lat="46.74254" lon="5.65615">
        <ele>286.2</ele>
        <time>2019-05-19T07:20:03Z</time>
      </trkpt>
      <trkpt lat="46.74244" lon="5.6561">
        <ele>286.2</ele>
        <time>2019-05-19T07:20:05Z</time>
      </trkpt>
      <trkpt lat="46.74235" lon="5.65607">
        <ele>286.2</ele>
        <time>2019-05-19T07:20:07Z</time>
      </trkpt>
      <trkpt lat="46.74224" lon="5.65605">
        <ele>286.1</ele>
        <time>2019-05-19T07:20:09Z</time>
      </trkpt>
      <trkpt lat="46.74213" lon="5.65603">
        <ele>286.1</ele>
        <time>2019-05-19T07:20:11Z</time>
      </trkpt>
      <trkpt lat="46.74202" lon="5.65599">
        <ele>286</ele>
        <time>2019-05-19T07:20:13Z</time>
      </trkpt>
      <trkpt lat="46.74194" lon="5.65595">
        <ele>285.9</ele>
        <time>2019-05-19T07:20:15Z</time>
      </trkpt>
      <trkpt lat="46.74183" lon="5.6559">
        <ele>285.9</ele>
        <time>2019-05-19T07:20:18Z</time>
      </trkpt>
      <trkpt lat="46.74173" lon="5.65583">
        <ele>286</ele>
        <time>2019-05-19T07:20:22Z</time>
      </trkpt>
      <trkpt lat="46.74164" lon="5.65579">
        <ele>286.9</ele>
        <time>2019-05-19T07:20:33Z</time>
      </trkpt>
      <trkpt lat="46.74158" lon="5.65567">
        <ele>289.2</ele>
        <time>2019-05-19T07:20:48Z</time>
      </trkpt>
      <trkpt lat="46.74149" lon="5.65558">
        <ele>290</ele>
        <time>2019-05-19T07:20:52Z</time>
      </trkpt>
      <trkpt lat="46.7414" lon="5.6555">
        <ele>290.5</ele>
        <time>2019-05-19T07:20:55Z</time>
      </trkpt>
      <trkpt lat="46.74131" lon="5.65543">
        <ele>291.2</ele>
        <time>2019-05-19T07:20:59Z</time>
      </trkpt>
      <trkpt lat="46.74124" lon="5.65535">
        <ele>291.9</ele>
        <time>2019-05-19T07:21:03Z</time>
      </trkpt>
      <trkpt lat="46.74115" lon="5.6553">
        <ele>292.2</ele>
        <time>2019-05-19T07:21:06Z</time>
      </trkpt>
      <trkpt lat="46.74103" lon="5.65527">
        <ele>292.4</ele>
        <time>2019-05-19T07:21:09Z</time>
      </trkpt>
      <trkpt lat="46.74092" lon="5.65522">
        <ele>292.6</ele>
        <time>2019-05-19T07:21:12Z</time>
      </trkpt>
      <trkpt lat="46.74081" lon="5.65515">
        <ele>292.8</ele>
        <time>2019-05-19T07:21:15Z</time>
      </trkpt>
      <trkpt lat="46.7407" lon="5.65508">
        <ele>293.1</ele>
        <time>2019-05-19T07:21:18Z</time>
      </trkpt>
      <trkpt lat="46.74059" lon="5.65501">
        <ele>293.4</ele>
        <time>2019-05-19T07:21:21Z</time>
      </trkpt>
      <trkpt lat="46.74049" lon="5.65496">
        <ele>293.5</ele>
        <time>2019-05-19T07:21:24Z</time>
      </trkpt>
      <trkpt lat="46.7404" lon="5.65492">
        <ele>293.7</ele>
        <time>2019-05-19T07:21:27Z</time>
      </trkpt>
      <trkpt lat="46.74029" lon="5.65488">
        <ele>293.9</ele>
        <time>2019-05-19T07:21:31Z</time>
      </trkpt>
      <trkpt lat="46.74019" lon="5.65483">
        <ele>294.1</ele>
        <time>2019-05-19T07:21:34Z</time>
      </trkpt>
      <trkpt lat="46.74008" lon="5.65476">
        <ele>294.3</ele>
        <time>2019-05-19T07:21:37Z</time>
      </trkpt>
      <trkpt lat="46.73997" lon="5.6547">
        <ele>294.6</ele>
        <time>2019-05-19T07:21:40Z</time>
      </trkpt>
      <trkpt lat="46.73987" lon="5.65464">
        <ele>294.8</ele>
        <time>2019-05-19T07:21:43Z</time>
      </trkpt>
      <trkpt lat="46.73976" lon="5.65457">
        <ele>295.1</ele>
        <time>2019-05-19T07:21:46Z</time>
      </trkpt>
      <trkpt lat="46.73966" lon="5.6545">
        <ele>295.4</ele>
        <time>2019-05-19T07:21:49Z</time>
      </trkpt>
      <trkpt lat="46.73956" lon="5.65444">
        <ele>295.7</ele>
        <time>2019-05-19T07:21:52Z</time>
      </trkpt>
      <trkpt lat="46.73947" lon="5.65438">
        <ele>296</ele>
        <time>2019-05-19T07:21:55Z</time>
      </trkpt>
      <trkpt lat="46.73936" lon="5.65436">
        <ele>296.5</ele>
        <time>2019-05-19T07:21:58Z</time>
      </trkpt>
      <trkpt lat="46.73925" lon="5.65433">
        <ele>297.1</ele>
        <time>2019-05-19T07:22:01Z</time>
      </trkpt>
      <trkpt lat="46.73913" lon="5.65426">
        <ele>297.7</ele>
        <time>2019-05-19T07:22:04Z</time>
      </trkpt>
      <trkpt lat="46.73902" lon="5.65419">
        <ele>298.4</ele>
        <time>2019-05-19T07:22:07Z</time>
      </trkpt>
      <trkpt lat="46.7389" lon="5.65412">
        <ele>299</ele>
        <time>2019-05-19T07:22:10Z</time>
      </trkpt>
      <trkpt lat="46.73878" lon="5.65405">
        <ele>299.6</ele>
        <time>2019-05-19T07:22:13Z</time>
      </trkpt>
      <trkpt lat="46.73866" lon="5.65398">
        <ele>300.2</ele>
        <time>2019-05-19T07:22:16Z</time>
      </trkpt>
      <trkpt lat="46.73855" lon="5.65391">
        <ele>300.7</ele>
        <time>2019-05-19T07:22:19Z</time>
      </trkpt>
      <trkpt lat="46.73843" lon="5.65383">
        <ele>301.2</ele>
        <time>2019-05-19T07:22:22Z</time>
      </trkpt>
      <trkpt lat="46.73831" lon="5.65375">
        <ele>301.8</ele>
        <time>2019-05-19T07:22:25Z</time>
      </trkpt>
      <trkpt lat="46.7382" lon="5.65368">
        <ele>302.3</ele>
        <time>2019-05-19T07:22:28Z</time>
      </trkpt>
      <trkpt lat="46.73809" lon="5.65361">
        <ele>302.9</ele>
        <time>2019-05-19T07:22:31Z</time>
      </trkpt>
      <trkpt lat="46.73799" lon="5.65355">
        <ele>303.4</ele>
        <time>2019-05-19T07:22:34Z</time>
      </trkpt>
      <trkpt lat="46.7379" lon="5.65349">
        <ele>304</ele>
        <time>2019-05-19T07:22:37Z</time>
      </trkpt>
      <trkpt lat="46.7378" lon="5.65343">
        <ele>304.6</ele>
        <time>2019-05-19T07:22:40Z</time>
      </trkpt>
      <trkpt lat="46.73771" lon="5.65336">
        <ele>305.2</ele>
        <time>2019-05-19T07:22:43Z</time>
      </trkpt>
      <trkpt lat="46.73761" lon="5.65327">
        <ele>305.8</ele>
        <time>2019-05-19T07:22:46Z</time>
      </trkpt>
      <trkpt lat="46.73752" lon="5.65317">
        <ele>306.4</ele>
        <time>2019-05-19T07:22:49Z</time>
      </trkpt>
      <trkpt lat="46.73742" lon="5.65306">
        <ele>306.9</ele>
        <time>2019-05-19T07:22:52Z</time>
      </trkpt>
      <trkpt lat="46.73734" lon="5.65299">
        <ele>307.2</ele>
        <time>2019-05-19T07:22:54Z</time>
      </trkpt>
      <trkpt lat="46.73726" lon="5.65292">
        <ele>307.5</ele>
        <time>2019-05-19T07:22:56Z</time>
      </trkpt>
      <trkpt lat="46.73714" lon="5.65285">
        <ele>307.8</ele>
        <time>2019-05-19T07:22:59Z</time>
      </trkpt>
      <trkpt lat="46.73702" lon="5.65279">
        <ele>308.1</ele>
        <time>2019-05-19T07:23:02Z</time>
      </trkpt>
      <trkpt lat="46.7369" lon="5.65273">
        <ele>308.3</ele>
        <time>2019-05-19T07:23:05Z</time>
      </trkpt>
      <trkpt lat="46.73679" lon="5.65269">
        <ele>308.6</ele>
        <time>2019-05-19T07:23:08Z</time>
      </trkpt>
      <trkpt lat="46.73668" lon="5.65266">
        <ele>308.8</ele>
        <time>2019-05-19T07:23:11Z</time>
      </trkpt>
      <trkpt lat="46.73658" lon="5.65267">
        <ele>309.1</ele>
        <time>2019-05-19T07:23:14Z</time>
      </trkpt>
      <trkpt lat="46.73647" lon="5.65268">
        <ele>309.4</ele>
        <time>2019-05-19T07:23:18Z</time>
      </trkpt>
      <trkpt lat="46.73638" lon="5.65262">
        <ele>309.2</ele>
        <time>2019-05-19T07:23:23Z</time>
      </trkpt>
      <trkpt lat="46.73633" lon="5.65245">
        <ele>309</ele>
        <time>2019-05-19T07:23:26Z</time>
      </trkpt>
      <trkpt lat="46.73629" lon="5.65231">
        <ele>308.8</ele>
        <time>2019-05-19T07:23:28Z</time>
      </trkpt>
      <trkpt lat="46.73625" lon="5.65213">
        <ele>308.3</ele>
        <time>2019-05-19T07:23:30Z</time>
      </trkpt>
      <trkpt lat="46.73619" lon="5.65194">
        <ele>307.6</ele>
        <time>2019-05-19T07:23:32Z</time>
      </trkpt>
      <trkpt lat="46.73611" lon="5.65179">
        <ele>306.9</ele>
        <time>2019-05-19T07:23:34Z</time>
      </trkpt>
      <trkpt lat="46.73602" lon="5.65165">
        <ele>306</ele>
        <time>2019-05-19T07:23:36Z</time>
      </trkpt>
      <trkpt lat="46.73595" lon="5.65153">
        <ele>305.2</ele>
        <time>2019-05-19T07:23:38Z</time>
      </trkpt>
      <trkpt lat="46.73585" lon="5.65144">
        <ele>304</ele>
        <time>2019-05-19T07:23:41Z</time>
      </trkpt>
      <trkpt lat="46.73573" lon="5.65148">
        <ele>303.2</ele>
        <time>2019-05-19T07:23:44Z</time>
      </trkpt>
      <trkpt lat="46.73562" lon="5.65154">
        <ele>302.5</ele>
        <time>2019-05-19T07:23:47Z</time>
      </trkpt>
      <trkpt lat="46.7355" lon="5.6516">
        <ele>302</ele>
        <time>2019-05-19T07:23:50Z</time>
      </trkpt>
      <trkpt lat="46.73538" lon="5.65165">
        <ele>301.8</ele>
        <time>2019-05-19T07:23:53Z</time>
      </trkpt>
      <trkpt lat="46.73526" lon="5.65172">
        <ele>301.8</ele>
        <time>2019-05-19T07:23:56Z</time>
      </trkpt>
      <trkpt lat="46.73516" lon="5.65181">
        <ele>302</ele>
        <time>2019-05-19T07:23:59Z</time>
      </trkpt>
      <trkpt lat="46.73508" lon="5.65191">
        <ele>302.2</ele>
        <time>2019-05-19T07:24:02Z</time>
      </trkpt>
      <trkpt lat="46.735" lon="5.65201">
        <ele>302.6</ele>
        <time>2019-05-19T07:24:05Z</time>
      </trkpt>
      <trkpt lat="46.73491" lon="5.65208">
        <ele>303.1</ele>
        <time>2019-05-19T07:24:08Z</time>
      </trkpt>
      <trkpt lat="46.73481" lon="5.65214">
        <ele>304</ele>
        <time>2019-05-19T07:24:12Z</time>
      </trkpt>
      <trkpt lat="46.73472" lon="5.65219">
        <ele>305.1</ele>
        <time>2019-05-19T07:24:16Z</time>
      </trkpt>
      <trkpt lat="46.73464" lon="5.65226">
        <ele>306.4</ele>
        <time>2019-05-19T07:24:20Z</time>
      </trkpt>
      <trkpt lat="46.73456" lon="5.65233">
        <ele>307.4</ele>
        <time>2019-05-19T07:24:23Z</time>
      </trkpt>
      <trkpt lat="46.73446" lon="5.6524">
        <ele>308.4</ele>
        <time>2019-05-19T07:24:26Z</time>
      </trkpt>
      <trkpt lat="46.73439" lon="5.65249">
        <ele>309.1</ele>
        <time>2019-05-19T07:24:28Z</time>
      </trkpt>
      <trkpt lat="46.7343" lon="5.65259">
        <ele>310.2</ele>
        <time>2019-05-19T07:24:31Z</time>
      </trkpt>
      <trkpt lat="46.73423" lon="5.65268">
        <ele>311.3</ele>
        <time>2019-05-19T07:24:34Z</time>
      </trkpt>
      <trkpt lat="46.73415" lon="5.65277">
        <ele>312.9</ele>
        <time>2019-05-19T07:24:38Z</time>
      </trkpt>
      <trkpt lat="46.73406" lon="5.65283">
        <ele>314.6</ele>
        <time>2019-05-19T07:24:42Z</time>
      </trkpt>
      <trkpt lat="46.73395" lon="5.65289">
        <ele>316.2</ele>
        <time>2019-05-19T07:24:46Z</time>
      </trkpt>
      <trkpt lat="46.73385" lon="5.65295">
        <ele>317.9</ele>
        <time>2019-05-19T07:24:50Z</time>
      </trkpt>
      <trkpt lat="46.73374" lon="5.65301">
        <ele>319.5</ele>
        <time>2019-05-19T07:24:54Z</time>
      </trkpt>
      <trkpt lat="46.73366" lon="5.65307">
        <ele>320.7</ele>
        <time>2019-05-19T07:24:57Z</time>
      </trkpt>
      <trkpt lat="46.73357" lon="5.65315">
        <ele>321.8</ele>
        <time>2019-05-19T07:25:00Z</time>
      </trkpt>
      <trkpt lat="46.73348" lon="5.65319">
        <ele>322.8</ele>
        <time>2019-05-19T07:25:03Z</time>
      </trkpt>
      <trkpt lat="46.73339" lon="5.65322">
        <ele>323.8</ele>
        <time>2019-05-19T07:25:06Z</time>
      </trkpt>
      <trkpt lat="46.73328" lon="5.65325">
        <ele>325</ele>
        <time>2019-05-19T07:25:10Z</time>
      </trkpt>
      <trkpt lat="46.73319" lon="5.65328">
        <ele>325.9</ele>
        <time>2019-05-19T07:25:13Z</time>
      </trkpt>
      <trkpt lat="46.73307" lon="5.65331">
        <ele>327.1</ele>
        <time>2019-05-19T07:25:17Z</time>
      </trkpt>
      <trkpt lat="46.73298" lon="5.65333">
        <ele>328</ele>
        <time>2019-05-19T07:25:20Z</time>
      </trkpt>
      <trkpt lat="46.73289" lon="5.65334">
        <ele>329.1</ele>
        <time>2019-05-19T07:25:23Z</time>
      </trkpt>
      <trkpt lat="46.73279" lon="5.65335">
        <ele>330.2</ele>
        <time>2019-05-19T07:25:26Z</time>
      </trkpt>
      <trkpt lat="46.73269" lon="5.65337">
        <ele>331.3</ele>
        <time>2019-05-19T07:25:29Z</time>
      </trkpt>
      <trkpt lat="46.7326" lon="5.65336">
        <ele>332.4</ele>
        <time>2019-05-19T07:25:32Z</time>
      </trkpt>
      <trkpt lat="46.73251" lon="5.65337">
        <ele>334.1</ele>
        <time>2019-05-19T07:25:37Z</time>
      </trkpt>
      <trkpt lat="46.73241" lon="5.65338">
        <ele>335.6</ele>
        <time>2019-05-19T07:25:41Z</time>
      </trkpt>
      <trkpt lat="46.73231" lon="5.65339">
        <ele>336.8</ele>
        <time>2019-05-19T07:25:44Z</time>
      </trkpt>
      <trkpt lat="46.73222" lon="5.65338">
        <ele>337.9</ele>
        <time>2019-05-19T07:25:47Z</time>
      </trkpt>
      <trkpt lat="46.73212" lon="5.6534">
        <ele>339.4</ele>
        <time>2019-05-19T07:25:51Z</time>
      </trkpt>
      <trkpt lat="46.73202" lon="5.65341">
        <ele>341.1</ele>
        <time>2019-05-19T07:25:56Z</time>
      </trkpt>
      <trkpt lat="46.7319" lon="5.65336">
        <ele>342.5</ele>
        <time>2019-05-19T07:26:00Z</time>
      </trkpt>
      <trkpt lat="46.73178" lon="5.65336">
        <ele>344</ele>
        <time>2019-05-19T07:26:04Z</time>
      </trkpt>
      <trkpt lat="46.73169" lon="5.65337">
        <ele>345.2</ele>
        <time>2019-05-19T07:26:07Z</time>
      </trkpt>
      <trkpt lat="46.73159" lon="5.6534">
        <ele>346.5</ele>
        <time>2019-05-19T07:26:10Z</time>
      </trkpt>
      <trkpt lat="46.73149" lon="5.6534">
        <ele>347.8</ele>
        <time>2019-05-19T07:26:13Z</time>
      </trkpt>
      <trkpt lat="46.73139" lon="5.65342">
        <ele>349.4</ele>
        <time>2019-05-19T07:26:17Z</time>
      </trkpt>
      <trkpt lat="46.7313" lon="5.65344">
        <ele>350.6</ele>
        <time>2019-05-19T07:26:20Z</time>
      </trkpt>
      <trkpt lat="46.73121" lon="5.65347">
        <ele>351.7</ele>
        <time>2019-05-19T07:26:23Z</time>
      </trkpt>
      <trkpt lat="46.73112" lon="5.65351">
        <ele>352.8</ele>
        <time>2019-05-19T07:26:26Z</time>
      </trkpt>
      <trkpt lat="46.731" lon="5.65354">
        <ele>354.3</ele>
        <time>2019-05-19T07:26:30Z</time>
      </trkpt>
      <trkpt lat="46.73091" lon="5.65358">
        <ele>355</ele>
        <time>2019-05-19T07:26:32Z</time>
      </trkpt>
      <trkpt lat="46.73081" lon="5.6536">
        <ele>355.9</ele>
        <time>2019-05-19T07:26:35Z</time>
      </trkpt>
      <trkpt lat="46.73071" lon="5.65365">
        <ele>357.3</ele>
        <time>2019-05-19T07:26:39Z</time>
      </trkpt>
      <trkpt lat="46.73061" lon="5.65371">
        <ele>358.6</ele>
        <time>2019-05-19T07:26:43Z</time>
      </trkpt>
      <trkpt lat="46.73051" lon="5.65372">
        <ele>360</ele>
        <time>2019-05-19T07:26:47Z</time>
      </trkpt>
      <trkpt lat="46.73042" lon="5.65377">
        <ele>361.5</ele>
        <time>2019-05-19T07:26:51Z</time>
      </trkpt>
      <trkpt lat="46.73041" lon="5.6539">
        <ele>363.5</ele>
        <time>2019-05-19T07:26:56Z</time>
      </trkpt>
      <trkpt lat="46.73049" lon="5.65399">
        <ele>365.5</ele>
        <time>2019-05-19T07:27:01Z</time>
      </trkpt>
      <trkpt lat="46.73058" lon="5.65402">
        <ele>367.1</ele>
        <time>2019-05-19T07:27:05Z</time>
      </trkpt>
      <trkpt lat="46.73069" lon="5.65407">
        <ele>368.7</ele>
        <time>2019-05-19T07:27:09Z</time>
      </trkpt>
      <trkpt lat="46.73078" lon="5.65411">
        <ele>369.9</ele>
        <time>2019-05-19T07:27:12Z</time>
      </trkpt>
      <trkpt lat="46.73089" lon="5.65415">
        <ele>371.3</ele>
        <time>2019-05-19T07:27:16Z</time>
      </trkpt>
      <trkpt lat="46.731" lon="5.65415">
        <ele>372.7</ele>
        <time>2019-05-19T07:27:20Z</time>
      </trkpt>
      <trkpt lat="46.73112" lon="5.65415">
        <ele>374.1</ele>
        <time>2019-05-19T07:27:24Z</time>
      </trkpt>
      <trkpt lat="46.73121" lon="5.65413">
        <ele>375.1</ele>
        <time>2019-05-19T07:27:27Z</time>
      </trkpt>
      <trkpt lat="46.7313" lon="5.65411">
        <ele>376.1</ele>
        <time>2019-05-19T07:27:30Z</time>
      </trkpt>
      <trkpt lat="46.73142" lon="5.65408">
        <ele>377.6</ele>
        <time>2019-05-19T07:27:34Z</time>
      </trkpt>
      <trkpt lat="46.73151" lon="5.65405">
        <ele>379.1</ele>
        <time>2019-05-19T07:27:38Z</time>
      </trkpt>
      <trkpt lat="46.73162" lon="5.65403">
        <ele>380.7</ele>
        <time>2019-05-19T07:27:42Z</time>
      </trkpt>
      <trkpt lat="46.73172" lon="5.65402">
        <ele>382.3</ele>
        <time>2019-05-19T07:27:46Z</time>
      </trkpt>
      <trkpt lat="46.73182" lon="5.65401">
        <ele>383.9</ele>
        <time>2019-05-19T07:27:50Z</time>
      </trkpt>
      <trkpt lat="46.73193" lon="5.65404">
        <ele>385.5</ele>
        <time>2019-05-19T07:27:54Z</time>
      </trkpt>
      <trkpt lat="46.73202" lon="5.65406">
        <ele>387.3</ele>
        <time>2019-05-19T07:27:58Z</time>
      </trkpt>
      <trkpt lat="46.73212" lon="5.65407">
        <ele>389</ele>
        <time>2019-05-19T07:28:02Z</time>
      </trkpt>
      <trkpt lat="46.73222" lon="5.65411">
        <ele>390.6</ele>
        <time>2019-05-19T07:28:06Z</time>
      </trkpt>
      <trkpt lat="46.73233" lon="5.65414">
        <ele>392.1</ele>
        <time>2019-05-19T07:28:10Z</time>
      </trkpt>
      <trkpt lat="46.73242" lon="5.65417">
        <ele>393.2</ele>
        <time>2019-05-19T07:28:13Z</time>
      </trkpt>
      <trkpt lat="46.73251" lon="5.6542">
        <ele>394.2</ele>
        <time>2019-05-19T07:28:16Z</time>
      </trkpt>
      <trkpt lat="46.7326" lon="5.65424">
        <ele>395.2</ele>
        <time>2019-05-19T07:28:19Z</time>
      </trkpt>
      <trkpt lat="46.7327" lon="5.65429">
        <ele>396.2</ele>
        <time>2019-05-19T07:28:22Z</time>
      </trkpt>
      <trkpt lat="46.73279" lon="5.65433">
        <ele>397.2</ele>
        <time>2019-05-19T07:28:25Z</time>
      </trkpt>
      <trkpt lat="46.73287" lon="5.65437">
        <ele>398.3</ele>
        <time>2019-05-19T07:28:28Z</time>
      </trkpt>
      <trkpt lat="46.73296" lon="5.65443">
        <ele>399.4</ele>
        <time>2019-05-19T07:28:31Z</time>
      </trkpt>
      <trkpt lat="46.73305" lon="5.6545">
        <ele>400.5</ele>
        <time>2019-05-19T07:28:34Z</time>
      </trkpt>
      <trkpt lat="46.73314" lon="5.65456">
        <ele>401.4</ele>
        <time>2019-05-19T07:28:37Z</time>
      </trkpt>
      <trkpt lat="46.73323" lon="5.6546">
        <ele>402.3</ele>
        <time>2019-05-19T07:28:40Z</time>
      </trkpt>
      <trkpt lat="46.73334" lon="5.65464">
        <ele>403.2</ele>
        <time>2019-05-19T07:28:43Z</time>
      </trkpt>
      <trkpt lat="46.73344" lon="5.65468">
        <ele>404</ele>
        <time>2019-05-19T07:28:46Z</time>
      </trkpt>
      <trkpt lat="46.73353" lon="5.65471">
        <ele>404.9</ele>
        <time>2019-05-19T07:28:49Z</time>
      </trkpt>
      <trkpt lat="46.73365" lon="5.65476">
        <ele>406.3</ele>
        <time>2019-05-19T07:28:53Z</time>
      </trkpt>
      <trkpt lat="46.73374" lon="5.65481">
        <ele>407.5</ele>
        <time>2019-05-19T07:28:56Z</time>
      </trkpt>
      <trkpt lat="46.73382" lon="5.65491">
        <ele>408.5</ele>
        <time>2019-05-19T07:28:59Z</time>
      </trkpt>
      <trkpt lat="46.73392" lon="5.65501">
        <ele>409.5</ele>
        <time>2019-05-19T07:29:02Z</time>
      </trkpt>
      <trkpt lat="46.73402" lon="5.65514">
        <ele>410.5</ele>
        <time>2019-05-19T07:29:05Z</time>
      </trkpt>
      <trkpt lat="46.73409" lon="5.65523">
        <ele>411</ele>
        <time>2019-05-19T07:29:07Z</time>
      </trkpt>
      <trkpt lat="46.73419" lon="5.65533">
        <ele>411.8</ele>
        <time>2019-05-19T07:29:10Z</time>
      </trkpt>
      <trkpt lat="46.73427" lon="5.65539">
        <ele>412.6</ele>
        <time>2019-05-19T07:29:13Z</time>
      </trkpt>
      <trkpt lat="46.73435" lon="5.65546">
        <ele>413.4</ele>
        <time>2019-05-19T07:29:16Z</time>
      </trkpt>
      <trkpt lat="46.73446" lon="5.65552">
        <ele>414.5</ele>
        <time>2019-05-19T07:29:20Z</time>
      </trkpt>
      <trkpt lat="46.73455" lon="5.65559">
        <ele>415.4</ele>
        <time>2019-05-19T07:29:23Z</time>
      </trkpt>
      <trkpt lat="46.73463" lon="5.65567">
        <ele>416.4</ele>
        <time>2019-05-19T07:29:26Z</time>
      </trkpt>
      <trkpt lat="46.73471" lon="5.65575">
        <ele>417.4</ele>
        <time>2019-05-19T07:29:29Z</time>
      </trkpt>
      <trkpt lat="46.73479" lon="5.65586">
        <ele>418.8</ele>
        <time>2019-05-19T07:29:33Z</time>
      </trkpt>
      <trkpt lat="46.73488" lon="5.65598">
        <ele>420.3</ele>
        <time>2019-05-19T07:29:37Z</time>
      </trkpt>
      <trkpt lat="46.73497" lon="5.65608">
        <ele>421.9</ele>
        <time>2019-05-19T07:29:41Z</time>
      </trkpt>
      <trkpt lat="46.73506" lon="5.65615">
        <ele>423.5</ele>
        <time>2019-05-19T07:29:45Z</time>
      </trkpt>
      <trkpt lat="46.73515" lon="5.65618">
        <ele>425.1</ele>
        <time>2019-05-19T07:29:49Z</time>
      </trkpt>
      <trkpt lat="46.73526" lon="5.6562">
        <ele>427.1</ele>
        <time>2019-05-19T07:29:54Z</time>
      </trkpt>
      <trkpt lat="46.73534" lon="5.65626">
        <ele>428.7</ele>
        <time>2019-05-19T07:29:58Z</time>
      </trkpt>
      <trkpt lat="46.73533" lon="5.65639">
        <ele>430.5</ele>
        <time>2019-05-19T07:30:03Z</time>
      </trkpt>
      <trkpt lat="46.73524" lon="5.65643">
        <ele>431.8</ele>
        <time>2019-05-19T07:30:07Z</time>
      </trkpt>
      <trkpt lat="46.73515" lon="5.65643">
        <ele>433.1</ele>
        <time>2019-05-19T07:30:11Z</time>
      </trkpt>
      <trkpt lat="46.73504" lon="5.65644">
        <ele>434.6</ele>
        <time>2019-05-19T07:30:16Z</time>
      </trkpt>
      <trkpt lat="46.73494" lon="5.65649">
        <ele>435.9</ele>
        <time>2019-05-19T07:30:21Z</time>
      </trkpt>
      <trkpt lat="46.73485" lon="5.65656">
        <ele>437.1</ele>
        <time>2019-05-19T07:30:26Z</time>
      </trkpt>
      <trkpt lat="46.73476" lon="5.65658">
        <ele>438.4</ele>
        <time>2019-05-19T07:30:31Z</time>
      </trkpt>
      <trkpt lat="46.73465" lon="5.65655">
        <ele>439.6</ele>
        <time>2019-05-19T07:30:36Z</time>
      </trkpt>
      <trkpt lat="46.73456" lon="5.65651">
        <ele>440.6</ele>
        <time>2019-05-19T07:30:40Z</time>
      </trkpt>
      <trkpt lat="46.73446" lon="5.65646">
        <ele>441.9</ele>
        <time>2019-05-19T07:30:45Z</time>
      </trkpt>
      <trkpt lat="46.73437" lon="5.65642">
        <ele>443.4</ele>
        <time>2019-05-19T07:30:50Z</time>
      </trkpt>
      <trkpt lat="46.73428" lon="5.65636">
        <ele>445.2</ele>
        <time>2019-05-19T07:30:56Z</time>
      </trkpt>
      <trkpt lat="46.73419" lon="5.6563">
        <ele>447.7</ele>
        <time>2019-05-19T07:31:05Z</time>
      </trkpt>
      <trkpt lat="46.73407" lon="5.65622">
        <ele>448.9</ele>
        <time>2019-05-19T07:31:10Z</time>
      </trkpt>
      <trkpt lat="46.73399" lon="5.65616">
        <ele>449.7</ele>
        <time>2019-05-19T07:31:13Z</time>
      </trkpt>
      <trkpt lat="46.73389" lon="5.65612">
        <ele>450.9</ele>
        <time>2019-05-19T07:31:18Z</time>
      </trkpt>
      <trkpt lat="46.73379" lon="5.65608">
        <ele>452.1</ele>
        <time>2019-05-19T07:31:23Z</time>
      </trkpt>
      <trkpt lat="46.73369" lon="5.65606">
        <ele>453.4</ele>
        <time>2019-05-19T07:31:28Z</time>
      </trkpt>
      <trkpt lat="46.73359" lon="5.65604">
        <ele>454.6</ele>
        <time>2019-05-19T07:31:33Z</time>
      </trkpt>
      <trkpt lat="46.73349" lon="5.65604">
        <ele>455.7</ele>
        <time>2019-05-19T07:31:38Z</time>
      </trkpt>
      <trkpt lat="46.73338" lon="5.656">
        <ele>456.5</ele>
        <time>2019-05-19T07:31:42Z</time>
      </trkpt>
      <trkpt lat="46.73328" lon="5.65597">
        <ele>457.8</ele>
        <time>2019-05-19T07:31:48Z</time>
      </trkpt>
      <trkpt lat="46.7332" lon="5.65589">
        <ele>459</ele>
        <time>2019-05-19T07:31:53Z</time>
      </trkpt>
      <trkpt lat="46.7331" lon="5.65585">
        <ele>460.2</ele>
        <time>2019-05-19T07:31:58Z</time>
      </trkpt>
      <trkpt lat="46.73301" lon="5.65583">
        <ele>461.1</ele>
        <time>2019-05-19T07:32:02Z</time>
      </trkpt>
      <trkpt lat="46.7329" lon="5.65579">
        <ele>462.1</ele>
        <time>2019-05-19T07:32:06Z</time>
      </trkpt>
      <trkpt lat="46.7328" lon="5.65579">
        <ele>463.1</ele>
        <time>2019-05-19T07:32:11Z</time>
      </trkpt>
      <trkpt lat="46.7327" lon="5.65577">
        <ele>464.2</ele>
        <time>2019-05-19T07:32:16Z</time>
      </trkpt>
      <trkpt lat="46.7326" lon="5.65574">
        <ele>465.1</ele>
        <time>2019-05-19T07:32:20Z</time>
      </trkpt>
      <trkpt lat="46.73251" lon="5.65575">
        <ele>466.5</ele>
        <time>2019-05-19T07:32:25Z</time>
      </trkpt>
      <trkpt lat="46.73241" lon="5.65575">
        <ele>467.7</ele>
        <time>2019-05-19T07:32:30Z</time>
      </trkpt>
      <trkpt lat="46.73231" lon="5.65575">
        <ele>468.6</ele>
        <time>2019-05-19T07:32:34Z</time>
      </trkpt>
      <trkpt lat="46.7322" lon="5.65578">
        <ele>469.4</ele>
        <time>2019-05-19T07:32:38Z</time>
      </trkpt>
      <trkpt lat="46.7321" lon="5.65582">
        <ele>470.4</ele>
        <time>2019-05-19T07:32:42Z</time>
      </trkpt>
      <trkpt lat="46.73201" lon="5.65585">
        <ele>471.3</ele>
        <time>2019-05-19T07:32:45Z</time>
      </trkpt>
      <trkpt lat="46.73192" lon="5.65591">
        <ele>472.8</ele>
        <time>2019-05-19T07:32:51Z</time>
      </trkpt>
      <trkpt lat="46.73184" lon="5.65598">
        <ele>474.5</ele>
        <time>2019-05-19T07:32:57Z</time>
      </trkpt>
      <trkpt lat="46.73173" lon="5.656">
        <ele>476.1</ele>
        <time>2019-05-19T07:33:03Z</time>
      </trkpt>
      <trkpt lat="46.73162" lon="5.65602">
        <ele>477.2</ele>
        <time>2019-05-19T07:33:07Z</time>
      </trkpt>
      <trkpt lat="46.73155" lon="5.65611">
        <ele>479.1</ele>
        <time>2019-05-19T07:33:14Z</time>
      </trkpt>
      <trkpt lat="46.73164" lon="5.65617">
        <ele>480.4</ele>
        <time>2019-05-19T07:33:19Z</time>
      </trkpt>
      <trkpt lat="46.73175" lon="5.65617">
        <ele>481.5</ele>
        <time>2019-05-19T07:33:24Z</time>
      </trkpt>
      <trkpt lat="46.73184" lon="5.65619">
        <ele>482.5</ele>
        <time>2019-05-19T07:33:28Z</time>
      </trkpt>
      <trkpt lat="46.73195" lon="5.65619">
        <ele>483.7</ele>
        <time>2019-05-19T07:33:33Z</time>
      </trkpt>
      <trkpt lat="46.73206" lon="5.6562">
        <ele>484.9</ele>
        <time>2019-05-19T07:33:38Z</time>
      </trkpt>
      <trkpt lat="46.73216" lon="5.6562">
        <ele>486.2</ele>
        <time>2019-05-19T07:33:43Z</time>
      </trkpt>
      <trkpt lat="46.73226" lon="5.6562">
        <ele>487.4</ele>
        <time>2019-05-19T07:33:48Z</time>
      </trkpt>
      <trkpt lat="46.73237" lon="5.65621">
        <ele>488.8</ele>
        <time>2019-05-19T07:33:53Z</time>
      </trkpt>
      <trkpt lat="46.73248" lon="5.65623">
        <ele>490</ele>
        <time>2019-05-19T07:33:58Z</time>
      </trkpt>
      <trkpt lat="46.73258" lon="5.65623">
        <ele>491.3</ele>
        <time>2019-05-19T07:34:03Z</time>
      </trkpt>
      <trkpt lat="46.73269" lon="5.65625">
        <ele>492.5</ele>
        <time>2019-05-19T07:34:08Z</time>
      </trkpt>
      <trkpt lat="46.73278" lon="5.65628">
        <ele>493.6</ele>
        <time>2019-05-19T07:34:12Z</time>
      </trkpt>
      <trkpt lat="46.73287" lon="5.65631">
        <ele>494.5</ele>
        <time>2019-05-19T07:34:16Z</time>
      </trkpt>
      <trkpt lat="46.73297" lon="5.65634">
        <ele>495.4</ele>
        <time>2019-05-19T07:34:20Z</time>
      </trkpt>
      <trkpt lat="46.73307" lon="5.65639">
        <ele>496.7</ele>
        <time>2019-05-19T07:34:25Z</time>
      </trkpt>
      <trkpt lat="46.73315" lon="5.65645">
        <ele>497.7</ele>
        <time>2019-05-19T07:34:29Z</time>
      </trkpt>
      <trkpt lat="46.73325" lon="5.65653">
        <ele>498.9</ele>
        <time>2019-05-19T07:34:34Z</time>
      </trkpt>
      <trkpt lat="46.73334" lon="5.65661">
        <ele>500.2</ele>
        <time>2019-05-19T07:34:39Z</time>
      </trkpt>
      <trkpt lat="46.73344" lon="5.65668">
        <ele>501.6</ele>
        <time>2019-05-19T07:34:44Z</time>
      </trkpt>
      <trkpt lat="46.73352" lon="5.65682">
        <ele>502.6</ele>
        <time>2019-05-19T07:34:48Z</time>
      </trkpt>
      <trkpt lat="46.73358" lon="5.65695">
        <ele>503.5</ele>
        <time>2019-05-19T07:34:52Z</time>
      </trkpt>
      <trkpt lat="46.73361" lon="5.65708">
        <ele>504.4</ele>
        <time>2019-05-19T07:34:56Z</time>
      </trkpt>
      <trkpt lat="46.73364" lon="5.65723">
        <ele>505.6</ele>
        <time>2019-05-19T07:35:01Z</time>
      </trkpt>
      <trkpt lat="46.73366" lon="5.65738">
        <ele>507.2</ele>
        <time>2019-05-19T07:35:07Z</time>
      </trkpt>
      <trkpt lat="46.73367" lon="5.65753">
        <ele>508.3</ele>
        <time>2019-05-19T07:35:12Z</time>
      </trkpt>
      <trkpt lat="46.7337" lon="5.65766">
        <ele>509.8</ele>
        <time>2019-05-19T07:35:18Z</time>
      </trkpt>
      <trkpt lat="46.73373" lon="5.6578">
        <ele>510.9</ele>
        <time>2019-05-19T07:35:23Z</time>
      </trkpt>
      <trkpt lat="46.73378" lon="5.65794">
        <ele>511.9</ele>
        <time>2019-05-19T07:35:27Z</time>
      </trkpt>
      <trkpt lat="46.73382" lon="5.65809">
        <ele>513.2</ele>
        <time>2019-05-19T07:35:32Z</time>
      </trkpt>
      <trkpt lat="46.73384" lon="5.65822">
        <ele>514.3</ele>
        <time>2019-05-19T07:35:37Z</time>
      </trkpt>
      <trkpt lat="46.7339" lon="5.65835">
        <ele>515.7</ele>
        <time>2019-05-19T07:35:43Z</time>
      </trkpt>
      <trkpt lat="46.73397" lon="5.65843">
        <ele>516.8</ele>
        <time>2019-05-19T07:35:48Z</time>
      </trkpt>
      <trkpt lat="46.73403" lon="5.65855">
        <ele>517.9</ele>
        <time>2019-05-19T07:35:53Z</time>
      </trkpt>
      <trkpt lat="46.73411" lon="5.65863">
        <ele>518.9</ele>
        <time>2019-05-19T07:35:58Z</time>
      </trkpt>
      <trkpt lat="46.73419" lon="5.65872">
        <ele>520.1</ele>
        <time>2019-05-19T07:36:03Z</time>
      </trkpt>
      <trkpt lat="46.73427" lon="5.65882">
        <ele>521.4</ele>
        <time>2019-05-19T07:36:08Z</time>
      </trkpt>
      <trkpt lat="46.73435" lon="5.65891">
        <ele>522.6</ele>
        <time>2019-05-19T07:36:13Z</time>
      </trkpt>
      <trkpt lat="46.73442" lon="5.65901">
        <ele>523.5</ele>
        <time>2019-05-19T07:36:17Z</time>
      </trkpt>
      <trkpt lat="46.7345" lon="5.65912">
        <ele>524.5</ele>
        <time>2019-05-19T07:36:22Z</time>
      </trkpt>
      <trkpt lat="46.7346" lon="5.65918">
        <ele>525.7</ele>
        <time>2019-05-19T07:36:27Z</time>
      </trkpt>
      <trkpt lat="46.7347" lon="5.65921">
        <ele>526.9</ele>
        <time>2019-05-19T07:36:32Z</time>
      </trkpt>
      <trkpt lat="46.7348" lon="5.65921">
        <ele>528.1</ele>
        <time>2019-05-19T07:36:37Z</time>
      </trkpt>
      <trkpt lat="46.73491" lon="5.65921">
        <ele>529.3</ele>
        <time>2019-05-19T07:36:42Z</time>
      </trkpt>
      <trkpt lat="46.73501" lon="5.65921">
        <ele>530.6</ele>
        <time>2019-05-19T07:36:47Z</time>
      </trkpt>
      <trkpt lat="46.73511" lon="5.65924">
        <ele>532.1</ele>
        <time>2019-05-19T07:36:52Z</time>
      </trkpt>
      <trkpt lat="46.73521" lon="5.65922">
        <ele>533.3</ele>
        <time>2019-05-19T07:36:57Z</time>
      </trkpt>
      <trkpt lat="46.73532" lon="5.65921">
        <ele>534.5</ele>
        <time>2019-05-19T07:37:02Z</time>
      </trkpt>
      <trkpt lat="46.73541" lon="5.65919">
        <ele>535.8</ele>
        <time>2019-05-19T07:37:07Z</time>
      </trkpt>
      <trkpt lat="46.73551" lon="5.65914">
        <ele>537</ele>
        <time>2019-05-19T07:37:12Z</time>
      </trkpt>
      <trkpt lat="46.7356" lon="5.65909">
        <ele>538.2</ele>
        <time>2019-05-19T07:37:17Z</time>
      </trkpt>
      <trkpt lat="46.73571" lon="5.65904">
        <ele>539.5</ele>
        <time>2019-05-19T07:37:22Z</time>
      </trkpt>
      <trkpt lat="46.73579" lon="5.65899">
        <ele>540.4</ele>
        <time>2019-05-19T07:37:26Z</time>
      </trkpt>
      <trkpt lat="46.7359" lon="5.65895">
        <ele>541.6</ele>
        <time>2019-05-19T07:37:31Z</time>
      </trkpt>
      <trkpt lat="46.73599" lon="5.65893">
        <ele>542.4</ele>
        <time>2019-05-19T07:37:35Z</time>
      </trkpt>
      <trkpt lat="46.73609" lon="5.65895">
        <ele>543.3</ele>
        <time>2019-05-19T07:37:39Z</time>
      </trkpt>
      <trkpt lat="46.73618" lon="5.659">
        <ele>544.1</ele>
        <time>2019-05-19T07:37:43Z</time>
      </trkpt>
      <trkpt lat="46.73627" lon="5.6591">
        <ele>544.7</ele>
        <time>2019-05-19T07:37:47Z</time>
      </trkpt>
      <trkpt lat="46.73635" lon="5.65922">
        <ele>545.4</ele>
        <time>2019-05-19T07:37:51Z</time>
      </trkpt>
      <trkpt lat="46.73642" lon="5.65935">
        <ele>546.2</ele>
        <time>2019-05-19T07:37:55Z</time>
      </trkpt>
      <trkpt lat="46.7365" lon="5.65946">
        <ele>547</ele>
        <time>2019-05-19T07:37:59Z</time>
      </trkpt>
      <trkpt lat="46.73655" lon="5.65957">
        <ele>548</ele>
        <time>2019-05-19T07:38:03Z</time>
      </trkpt>
      <trkpt lat="46.7366" lon="5.65969">
        <ele>549</ele>
        <time>2019-05-19T07:38:07Z</time>
      </trkpt>
      <trkpt lat="46.73663" lon="5.65983">
        <ele>550</ele>
        <time>2019-05-19T07:38:11Z</time>
      </trkpt>
      <trkpt lat="46.73664" lon="5.65997">
        <ele>550.9</ele>
        <time>2019-05-19T07:38:15Z</time>
      </trkpt>
      <trkpt lat="46.73666" lon="5.66012">
        <ele>551.8</ele>
        <time>2019-05-19T07:38:19Z</time>
      </trkpt>
      <trkpt lat="46.73667" lon="5.66028">
        <ele>552.4</ele>
        <time>2019-05-19T07:38:23Z</time>
      </trkpt>
      <trkpt lat="46.73667" lon="5.66042">
        <ele>552.8</ele>
        <time>2019-05-19T07:38:26Z</time>
      </trkpt>
      <trkpt lat="46.73667" lon="5.66055">
        <ele>553.1</ele>
        <time>2019-05-19T07:38:29Z</time>
      </trkpt>
      <trkpt lat="46.73667" lon="5.66069">
        <ele>553.6</ele>
        <time>2019-05-19T07:38:32Z</time>
      </trkpt>
      <trkpt lat="46.73664" lon="5.66084">
        <ele>553.9</ele>
        <time>2019-05-19T07:38:35Z</time>
      </trkpt>
      <trkpt lat="46.73661" lon="5.66099">
        <ele>554.2</ele>
        <time>2019-05-19T07:38:38Z</time>
      </trkpt>
      <trkpt lat="46.73659" lon="5.66113">
        <ele>554.4</ele>
        <time>2019-05-19T07:38:41Z</time>
      </trkpt>
      <trkpt lat="46.73657" lon="5.66129">
        <ele>554.6</ele>
        <time>2019-05-19T07:38:44Z</time>
      </trkpt>
      <trkpt lat="46.73655" lon="5.66144">
        <ele>554.8</ele>
        <time>2019-05-19T07:38:47Z</time>
      </trkpt>
      <trkpt lat="46.73651" lon="5.66161">
        <ele>554.9</ele>
        <time>2019-05-19T07:38:50Z</time>
      </trkpt>
      <trkpt lat="46.73648" lon="5.66174">
        <ele>554.9</ele>
        <time>2019-05-19T07:38:52Z</time>
      </trkpt>
      <trkpt lat="46.73646" lon="5.66187">
        <ele>554.9</ele>
        <time>2019-05-19T07:38:54Z</time>
      </trkpt>
      <trkpt lat="46.73643" lon="5.662">
        <ele>554.9</ele>
        <time>2019-05-19T07:38:56Z</time>
      </trkpt>
      <trkpt lat="46.73639" lon="5.66218">
        <ele>554.9</ele>
        <time>2019-05-19T07:38:59Z</time>
      </trkpt>
      <trkpt lat="46.73636" lon="5.66234">
        <ele>554.9</ele>
        <time>2019-05-19T07:39:02Z</time>
      </trkpt>
      <trkpt lat="46.73632" lon="5.66251">
        <ele>554.9</ele>
        <time>2019-05-19T07:39:05Z</time>
      </trkpt>
      <trkpt lat="46.7363" lon="5.66264">
        <ele>554.8</ele>
        <time>2019-05-19T07:39:07Z</time>
      </trkpt>
      <trkpt lat="46.73627" lon="5.66278">
        <ele>554.7</ele>
        <time>2019-05-19T07:39:09Z</time>
      </trkpt>
      <trkpt lat="46.73624" lon="5.66292">
        <ele>554.6</ele>
        <time>2019-05-19T07:39:11Z</time>
      </trkpt>
      <trkpt lat="46.73619" lon="5.66306">
        <ele>554.5</ele>
        <time>2019-05-19T07:39:13Z</time>
      </trkpt>
      <trkpt lat="46.73615" lon="5.6632">
        <ele>554.5</ele>
        <time>2019-05-19T07:39:15Z</time>
      </trkpt>
      <trkpt lat="46.7361" lon="5.66334">
        <ele>554.4</ele>
        <time>2019-05-19T07:39:17Z</time>
      </trkpt>
      <trkpt lat="46.73604" lon="5.66346">
        <ele>554.4</ele>
        <time>2019-05-19T07:39:19Z</time>
      </trkpt>
      <trkpt lat="46.73598" lon="5.66359">
        <ele>554.4</ele>
        <time>2019-05-19T07:39:21Z</time>
      </trkpt>
      <trkpt lat="46.73591" lon="5.6637">
        <ele>554.4</ele>
        <time>2019-05-19T07:39:23Z</time>
      </trkpt>
      <trkpt lat="46.73586" lon="5.66382">
        <ele>554.3</ele>
        <time>2019-05-19T07:39:25Z</time>
      </trkpt>
      <trkpt lat="46.73581" lon="5.66395">
        <ele>554.4</ele>
        <time>2019-05-19T07:39:27Z</time>
      </trkpt>
      <trkpt lat="46.73577" lon="5.66407">
        <ele>554.4</ele>
        <time>2019-05-19T07:39:29Z</time>
      </trkpt>
      <trkpt lat="46.73572" lon="5.66425">
        <ele>554.5</ele>
        <time>2019-05-19T07:39:32Z</time>
      </trkpt>
      <trkpt lat="46.73569" lon="5.66443">
        <ele>554.8</ele>
        <time>2019-05-19T07:39:35Z</time>
      </trkpt>
      <trkpt lat="46.73565" lon="5.66461">
        <ele>555</ele>
        <time>2019-05-19T07:39:38Z</time>
      </trkpt>
      <trkpt lat="46.73562" lon="5.66478">
        <ele>555.2</ele>
        <time>2019-05-19T07:39:41Z</time>
      </trkpt>
      <trkpt lat="46.73559" lon="5.66496">
        <ele>555.5</ele>
        <time>2019-05-19T07:39:44Z</time>
      </trkpt>
      <trkpt lat="46.73554" lon="5.66514">
        <ele>555.8</ele>
        <time>2019-05-19T07:39:47Z</time>
      </trkpt>
      <trkpt lat="46.7355" lon="5.66532">
        <ele>556</ele>
        <time>2019-05-19T07:39:50Z</time>
      </trkpt>
      <trkpt lat="46.73545" lon="5.66547">
        <ele>556.4</ele>
        <time>2019-05-19T07:39:53Z</time>
      </trkpt>
      <trkpt lat="46.73542" lon="5.66561">
        <ele>556.7</ele>
        <time>2019-05-19T07:39:56Z</time>
      </trkpt>
      <trkpt lat="46.73541" lon="5.66578">
        <ele>557.1</ele>
        <time>2019-05-19T07:40:00Z</time>
      </trkpt>
      <trkpt lat="46.73539" lon="5.66594">
        <ele>557.3</ele>
        <time>2019-05-19T07:40:03Z</time>
      </trkpt>
      <trkpt lat="46.73537" lon="5.66611">
        <ele>557.5</ele>
        <time>2019-05-19T07:40:06Z</time>
      </trkpt>
      <trkpt lat="46.73535" lon="5.66629">
        <ele>557.8</ele>
        <time>2019-05-19T07:40:09Z</time>
      </trkpt>
      <trkpt lat="46.73533" lon="5.66643">
        <ele>557.9</ele>
        <time>2019-05-19T07:40:11Z</time>
      </trkpt>
      <trkpt lat="46.73532" lon="5.66657">
        <ele>558.1</ele>
        <time>2019-05-19T07:40:13Z</time>
      </trkpt>
      <trkpt lat="46.73531" lon="5.66671">
        <ele>558.2</ele>
        <time>2019-05-19T07:40:15Z</time>
      </trkpt>
      <trkpt lat="46.73529" lon="5.66685">
        <ele>558.4</ele>
        <time>2019-05-19T07:40:17Z</time>
      </trkpt>
      <trkpt lat="46.73528" lon="5.667">
        <ele>558.5</ele>
        <time>2019-05-19T07:40:19Z</time>
      </trkpt>
      <trkpt lat="46.73527" lon="5.66717">
        <ele>558.7</ele>
        <time>2019-05-19T07:40:21Z</time>
      </trkpt>
      <trkpt lat="46.73526" lon="5.66732">
        <ele>558.9</ele>
        <time>2019-05-19T07:40:23Z</time>
      </trkpt>
      <trkpt lat="46.73524" lon="5.66747">
        <ele>559.1</ele>
        <time>2019-05-19T07:40:25Z</time>
      </trkpt>
      <trkpt lat="46.73521" lon="5.66762">
        <ele>559.2</ele>
        <time>2019-05-19T07:40:27Z</time>
      </trkpt>
      <trkpt lat="46.73518" lon="5.66781">
        <ele>559.3</ele>
        <time>2019-05-19T07:40:29Z</time>
      </trkpt>
      <trkpt lat="46.73515" lon="5.66798">
        <ele>559.4</ele>
        <time>2019-05-19T07:40:31Z</time>
      </trkpt>
      <trkpt lat="46.73513" lon="5.66817">
        <ele>559.5</ele>
        <time>2019-05-19T07:40:33Z</time>
      </trkpt>
      <trkpt lat="46.7351" lon="5.66835">
        <ele>559.5</ele>
        <time>2019-05-19T07:40:35Z</time>
      </trkpt>
      <trkpt lat="46.73508" lon="5.66852">
        <ele>559.5</ele>
        <time>2019-05-19T07:40:37Z</time>
      </trkpt>
      <trkpt lat="46.73507" lon="5.66866">
        <ele>559.6</ele>
        <time>2019-05-19T07:40:39Z</time>
      </trkpt>
      <trkpt lat="46.73507" lon="5.66881">
        <ele>559.6</ele>
        <time>2019-05-19T07:40:41Z</time>
      </trkpt>
      <trkpt lat="46.73505" lon="5.66895">
        <ele>559.7</ele>
        <time>2019-05-19T07:40:43Z</time>
      </trkpt>
      <trkpt lat="46.73503" lon="5.6691">
        <ele>559.7</ele>
        <time>2019-05-19T07:40:45Z</time>
      </trkpt>
      <trkpt lat="46.73501" lon="5.66923">
        <ele>559.8</ele>
        <time>2019-05-19T07:40:47Z</time>
      </trkpt>
      <trkpt lat="46.73499" lon="5.66936">
        <ele>560</ele>
        <time>2019-05-19T07:40:49Z</time>
      </trkpt>
      <trkpt lat="46.73497" lon="5.66952">
        <ele>560.1</ele>
        <time>2019-05-19T07:40:51Z</time>
      </trkpt>
      <trkpt lat="46.73495" lon="5.66967">
        <ele>560.3</ele>
        <time>2019-05-19T07:40:53Z</time>
      </trkpt>
      <trkpt lat="46.73493" lon="5.66981">
        <ele>560.5</ele>
        <time>2019-05-19T07:40:55Z</time>
      </trkpt>
      <trkpt lat="46.7349" lon="5.66995">
        <ele>560.7</ele>
        <time>2019-05-19T07:40:57Z</time>
      </trkpt>
      <trkpt lat="46.73489" lon="5.67008">
        <ele>560.9</ele>
        <time>2019-05-19T07:40:59Z</time>
      </trkpt>
      <trkpt lat="46.73486" lon="5.67022">
        <ele>561</ele>
        <time>2019-05-19T07:41:01Z</time>
      </trkpt>
      <trkpt lat="46.73485" lon="5.67037">
        <ele>561.3</ele>
        <time>2019-05-19T07:41:03Z</time>
      </trkpt>
      <trkpt lat="46.73483" lon="5.67052">
        <ele>561.5</ele>
        <time>2019-05-19T07:41:05Z</time>
      </trkpt>
      <trkpt lat="46.73483" lon="5.67066">
        <ele>561.8</ele>
        <time>2019-05-19T07:41:07Z</time>
      </trkpt>
      <trkpt lat="46.73481" lon="5.6708">
        <ele>562</ele>
        <time>2019-05-19T07:41:09Z</time>
      </trkpt>
      <trkpt lat="46.73479" lon="5.67094">
        <ele>562.3</ele>
        <time>2019-05-19T07:41:11Z</time>
      </trkpt>
      <trkpt lat="46.73477" lon="5.67107">
        <ele>562.5</ele>
        <time>2019-05-19T07:41:13Z</time>
      </trkpt>
      <trkpt lat="46.73475" lon="5.6712">
        <ele>562.7</ele>
        <time>2019-05-19T07:41:15Z</time>
      </trkpt>
      <trkpt lat="46.73471" lon="5.67134">
        <ele>562.9</ele>
        <time>2019-05-19T07:41:18Z</time>
      </trkpt>
      <trkpt lat="46.73461" lon="5.67138">
        <ele>563.2</ele>
        <time>2019-05-19T07:41:22Z</time>
      </trkpt>
      <trkpt lat="46.73453" lon="5.67132">
        <ele>563.6</ele>
        <time>2019-05-19T07:41:28Z</time>
      </trkpt>
      <trkpt lat="46.73443" lon="5.67127">
        <ele>564</ele>
        <time>2019-05-19T07:41:33Z</time>
      </trkpt>
      <trkpt lat="46.73433" lon="5.67125">
        <ele>564.2</ele>
        <time>2019-05-19T07:41:36Z</time>
      </trkpt>
      <trkpt lat="46.73422" lon="5.67126">
        <ele>564.3</ele>
        <time>2019-05-19T07:41:40Z</time>
      </trkpt>
      <trkpt lat="46.73409" lon="5.67124">
        <ele>564.5</ele>
        <time>2019-05-19T07:41:43Z</time>
      </trkpt>
      <trkpt lat="46.73397" lon="5.67122">
        <ele>564.7</ele>
        <time>2019-05-19T07:41:46Z</time>
      </trkpt>
      <trkpt lat="46.73385" lon="5.67123">
        <ele>564.8</ele>
        <time>2019-05-19T07:41:49Z</time>
      </trkpt>
      <trkpt lat="46.73374" lon="5.67122">
        <ele>565</ele>
        <time>2019-05-19T07:41:52Z</time>
      </trkpt>
      <trkpt lat="46.73362" lon="5.67123">
        <ele>565.2</ele>
        <time>2019-05-19T07:41:55Z</time>
      </trkpt>
      <trkpt lat="46.73354" lon="5.67117">
        <ele>565.3</ele>
        <time>2019-05-19T07:41:59Z</time>
      </trkpt>
      <trkpt lat="46.73345" lon="5.67109">
        <ele>565.3</ele>
        <time>2019-05-19T07:42:06Z</time>
      </trkpt>
      <trkpt lat="46.73335" lon="5.67107">
        <ele>565.3</ele>
        <time>2019-05-19T07:42:09Z</time>
      </trkpt>
      <trkpt lat="46.73324" lon="5.67104">
        <ele>565.2</ele>
        <time>2019-05-19T07:42:12Z</time>
      </trkpt>
      <trkpt lat="46.73315" lon="5.67099">
        <ele>565.1</ele>
        <time>2019-05-19T07:42:15Z</time>
      </trkpt>
      <trkpt lat="46.73304" lon="5.67095">
        <ele>565</ele>
        <time>2019-05-19T07:42:18Z</time>
      </trkpt>
      <trkpt lat="46.73294" lon="5.67095">
        <ele>564.9</ele>
        <time>2019-05-19T07:42:20Z</time>
      </trkpt>
      <trkpt lat="46.73284" lon="5.67094">
        <ele>564.9</ele>
        <time>2019-05-19T07:42:22Z</time>
      </trkpt>
      <trkpt lat="46.73271" lon="5.6709">
        <ele>565</ele>
        <time>2019-05-19T07:42:25Z</time>
      </trkpt>
      <trkpt lat="46.7326" lon="5.67087">
        <ele>565.2</ele>
        <time>2019-05-19T07:42:28Z</time>
      </trkpt>
      <trkpt lat="46.73248" lon="5.67084">
        <ele>565.4</ele>
        <time>2019-05-19T07:42:31Z</time>
      </trkpt>
      <trkpt lat="46.73238" lon="5.67082">
        <ele>565.6</ele>
        <time>2019-05-19T07:42:33Z</time>
      </trkpt>
      <trkpt lat="46.73229" lon="5.67081">
        <ele>565.7</ele>
        <time>2019-05-19T07:42:35Z</time>
      </trkpt>
      <trkpt lat="46.73217" lon="5.67077">
        <ele>565.9</ele>
        <time>2019-05-19T07:42:38Z</time>
      </trkpt>
      <trkpt lat="46.73206" lon="5.67074">
        <ele>566.1</ele>
        <time>2019-05-19T07:42:41Z</time>
      </trkpt>
      <trkpt lat="46.73193" lon="5.6707">
        <ele>566.1</ele>
        <time>2019-05-19T07:42:44Z</time>
      </trkpt>
      <trkpt lat="46.73184" lon="5.67068">
        <ele>566</ele>
        <time>2019-05-19T07:42:46Z</time>
      </trkpt>
      <trkpt lat="46.73174" lon="5.67067">
        <ele>565.9</ele>
        <time>2019-05-19T07:42:48Z</time>
      </trkpt>
      <trkpt lat="46.73163" lon="5.67063">
        <ele>565.8</ele>
        <time>2019-05-19T07:42:50Z</time>
      </trkpt>
      <trkpt lat="46.73154" lon="5.6706">
        <ele>565.5</ele>
        <time>2019-05-19T07:42:52Z</time>
      </trkpt>
      <trkpt lat="46.73143" lon="5.67052">
        <ele>565.1</ele>
        <time>2019-05-19T07:42:55Z</time>
      </trkpt>
      <trkpt lat="46.73131" lon="5.67049">
        <ele>564.8</ele>
        <time>2019-05-19T07:42:58Z</time>
      </trkpt>
      <trkpt lat="46.73122" lon="5.67047">
        <ele>564.4</ele>
        <time>2019-05-19T07:43:00Z</time>
      </trkpt>
      <trkpt lat="46.73109" lon="5.67045">
        <ele>564.1</ele>
        <time>2019-05-19T07:43:03Z</time>
      </trkpt>
      <trkpt lat="46.73098" lon="5.67048">
        <ele>563.8</ele>
        <time>2019-05-19T07:43:06Z</time>
      </trkpt>
      <trkpt lat="46.73092" lon="5.67062">
        <ele>563.5</ele>
        <time>2019-05-19T07:43:11Z</time>
      </trkpt>
      <trkpt lat="46.73091" lon="5.67079">
        <ele>563.2</ele>
        <time>2019-05-19T07:43:14Z</time>
      </trkpt>
      <trkpt lat="46.73088" lon="5.67098">
        <ele>563</ele>
        <time>2019-05-19T07:43:17Z</time>
      </trkpt>
      <trkpt lat="46.73086" lon="5.67113">
        <ele>562.8</ele>
        <time>2019-05-19T07:43:19Z</time>
      </trkpt>
      <trkpt lat="46.73085" lon="5.67128">
        <ele>562.6</ele>
        <time>2019-05-19T07:43:21Z</time>
      </trkpt>
      <trkpt lat="46.73084" lon="5.67142">
        <ele>562.3</ele>
        <time>2019-05-19T07:43:23Z</time>
      </trkpt>
      <trkpt lat="46.73082" lon="5.6716">
        <ele>561.8</ele>
        <time>2019-05-19T07:43:26Z</time>
      </trkpt>
      <trkpt lat="46.7308" lon="5.67179">
        <ele>561.4</ele>
        <time>2019-05-19T07:43:29Z</time>
      </trkpt>
      <trkpt lat="46.73078" lon="5.67194">
        <ele>561.1</ele>
        <time>2019-05-19T07:43:32Z</time>
      </trkpt>
      <trkpt lat="46.73075" lon="5.6721">
        <ele>560.8</ele>
        <time>2019-05-19T07:43:36Z</time>
      </trkpt>
      <trkpt lat="46.73073" lon="5.67224">
        <ele>560.6</ele>
        <time>2019-05-19T07:43:40Z</time>
      </trkpt>
      <trkpt lat="46.73071" lon="5.67237">
        <ele>560.4</ele>
        <time>2019-05-19T07:43:43Z</time>
      </trkpt>
      <trkpt lat="46.73069" lon="5.67255">
        <ele>560.2</ele>
        <time>2019-05-19T07:43:46Z</time>
      </trkpt>
      <trkpt lat="46.73067" lon="5.67271">
        <ele>560.1</ele>
        <time>2019-05-19T07:43:49Z</time>
      </trkpt>
      <trkpt lat="46.73063" lon="5.67288">
        <ele>560</ele>
        <time>2019-05-19T07:43:53Z</time>
      </trkpt>
      <trkpt lat="46.73062" lon="5.67306">
        <ele>560.1</ele>
        <time>2019-05-19T07:43:56Z</time>
      </trkpt>
      <trkpt lat="46.73062" lon="5.67319">
        <ele>560.1</ele>
        <time>2019-05-19T07:43:58Z</time>
      </trkpt>
      <trkpt lat="46.7306" lon="5.67337">
        <ele>560</ele>
        <time>2019-05-19T07:44:01Z</time>
      </trkpt>
      <trkpt lat="46.73057" lon="5.67356">
        <ele>560.2</ele>
        <time>2019-05-19T07:44:04Z</time>
      </trkpt>
      <trkpt lat="46.73054" lon="5.67373">
        <ele>560.4</ele>
        <time>2019-05-19T07:44:06Z</time>
      </trkpt>
      <trkpt lat="46.73051" lon="5.67391">
        <ele>560.7</ele>
        <time>2019-05-19T07:44:09Z</time>
      </trkpt>
      <trkpt lat="46.73049" lon="5.67405">
        <ele>560.9</ele>
        <time>2019-05-19T07:44:12Z</time>
      </trkpt>
      <trkpt lat="46.73046" lon="5.67421">
        <ele>561</ele>
        <time>2019-05-19T07:44:15Z</time>
      </trkpt>
      <trkpt lat="46.73046" lon="5.67435">
        <ele>561.1</ele>
        <time>2019-05-19T07:44:18Z</time>
      </trkpt>
      <trkpt lat="46.73043" lon="5.67451">
        <ele>561.2</ele>
        <time>2019-05-19T07:44:22Z</time>
      </trkpt>
      <trkpt lat="46.73039" lon="5.67464">
        <ele>561.1</ele>
        <time>2019-05-19T07:44:25Z</time>
      </trkpt>
      <trkpt lat="46.73037" lon="5.67479">
        <ele>561.2</ele>
        <time>2019-05-19T07:44:28Z</time>
      </trkpt>
      <trkpt lat="46.73035" lon="5.67493">
        <ele>561.3</ele>
        <time>2019-05-19T07:44:31Z</time>
      </trkpt>
      <trkpt lat="46.73033" lon="5.67507">
        <ele>561.4</ele>
        <time>2019-05-19T07:44:34Z</time>
      </trkpt>
      <trkpt lat="46.73029" lon="5.67522">
        <ele>561.5</ele>
        <time>2019-05-19T07:44:37Z</time>
      </trkpt>
      <trkpt lat="46.73028" lon="5.67539">
        <ele>561.7</ele>
        <time>2019-05-19T07:44:40Z</time>
      </trkpt>
      <trkpt lat="46.73025" lon="5.67555">
        <ele>561.8</ele>
        <time>2019-05-19T07:44:43Z</time>
      </trkpt>
      <trkpt lat="46.73025" lon="5.6757">
        <ele>562</ele>
        <time>2019-05-19T07:44:47Z</time>
      </trkpt>
      <trkpt lat="46.73024" lon="5.67585">
        <ele>562.3</ele>
        <time>2019-05-19T07:44:51Z</time>
      </trkpt>
      <trkpt lat="46.73022" lon="5.67598">
        <ele>562.5</ele>
        <time>2019-05-19T07:44:54Z</time>
      </trkpt>
      <trkpt lat="46.7302" lon="5.67613">
        <ele>562.8</ele>
        <time>2019-05-19T07:44:57Z</time>
      </trkpt>
      <trkpt lat="46.73019" lon="5.67628">
        <ele>563.1</ele>
        <time>2019-05-19T07:45:01Z</time>
      </trkpt>
      <trkpt lat="46.73017" lon="5.67642">
        <ele>563.4</ele>
        <time>2019-05-19T07:45:04Z</time>
      </trkpt>
      <trkpt lat="46.73015" lon="5.67661">
        <ele>563.7</ele>
        <time>2019-05-19T07:45:07Z</time>
      </trkpt>
      <trkpt lat="46.73005" lon="5.67668">
        <ele>563.9</ele>
        <time>2019-05-19T07:45:10Z</time>
      </trkpt>
      <trkpt lat="46.72996" lon="5.67672">
        <ele>564.1</ele>
        <time>2019-05-19T07:45:13Z</time>
      </trkpt>
      <trkpt lat="46.72987" lon="5.67668">
        <ele>564.3</ele>
        <time>2019-05-19T07:45:17Z</time>
      </trkpt>
      <trkpt lat="46.72977" lon="5.67667">
        <ele>564.4</ele>
        <time>2019-05-19T07:45:20Z</time>
      </trkpt>
      <trkpt lat="46.72966" lon="5.67664">
        <ele>564.2</ele>
        <time>2019-05-19T07:45:23Z</time>
      </trkpt>
      <trkpt lat="46.72954" lon="5.6766">
        <ele>564.2</ele>
        <time>2019-05-19T07:45:26Z</time>
      </trkpt>
      <trkpt lat="46.72944" lon="5.6766">
        <ele>564.2</ele>
        <time>2019-05-19T07:45:28Z</time>
      </trkpt>
      <trkpt lat="46.72932" lon="5.67656">
        <ele>564.1</ele>
        <time>2019-05-19T07:45:31Z</time>
      </trkpt>
      <trkpt lat="46.72923" lon="5.67653">
        <ele>564</ele>
        <time>2019-05-19T07:45:35Z</time>
      </trkpt>
      <trkpt lat="46.72914" lon="5.67643">
        <ele>564</ele>
        <time>2019-05-19T07:45:39Z</time>
      </trkpt>
      <trkpt lat="46.72904" lon="5.67637">
        <ele>564</ele>
        <time>2019-05-19T07:45:43Z</time>
      </trkpt>
      <trkpt lat="46.72891" lon="5.67636">
        <ele>564.1</ele>
        <time>2019-05-19T07:45:46Z</time>
      </trkpt>
      <trkpt lat="46.72879" lon="5.67636">
        <ele>564.2</ele>
        <time>2019-05-19T07:45:49Z</time>
      </trkpt>
      <trkpt lat="46.72868" lon="5.67633">
        <ele>564.3</ele>
        <time>2019-05-19T07:45:52Z</time>
      </trkpt>
      <trkpt lat="46.72856" lon="5.67625">
        <ele>564.4</ele>
        <time>2019-05-19T07:45:55Z</time>
      </trkpt>
      <trkpt lat="46.72846" lon="5.6762">
        <ele>564.5</ele>
        <time>2019-05-19T07:45:58Z</time>
      </trkpt>
      <trkpt lat="46.72833" lon="5.67617">
        <ele>564.6</ele>
        <time>2019-05-19T07:46:01Z</time>
      </trkpt>
      <trkpt lat="46.72822" lon="5.67614">
        <ele>564.6</ele>
        <time>2019-05-19T07:46:04Z</time>
      </trkpt>
      <trkpt lat="46.72811" lon="5.6761">
        <ele>564.8</ele>
        <time>2019-05-19T07:46:07Z</time>
      </trkpt>
      <trkpt lat="46.72802" lon="5.67606">
        <ele>565</ele>
        <time>2019-05-19T07:46:10Z</time>
      </trkpt>
      <trkpt lat="46.72791" lon="5.67595">
        <ele>565.3</ele>
        <time>2019-05-19T07:46:13Z</time>
      </trkpt>
      <trkpt lat="46.72781" lon="5.67582">
        <ele>565.5</ele>
        <time>2019-05-19T07:46:16Z</time>
      </trkpt>
      <trkpt lat="46.72773" lon="5.6757">
        <ele>565.7</ele>
        <time>2019-05-19T07:46:19Z</time>
      </trkpt>
      <trkpt lat="46.72765" lon="5.67561">
        <ele>565.9</ele>
        <time>2019-05-19T07:46:22Z</time>
      </trkpt>
      <trkpt lat="46.72756" lon="5.67551">
        <ele>566.1</ele>
        <time>2019-05-19T07:46:25Z</time>
      </trkpt>
      <trkpt lat="46.7275" lon="5.67536">
        <ele>566.3</ele>
        <time>2019-05-19T07:46:29Z</time>
      </trkpt>
      <trkpt lat="46.7274" lon="5.6753">
        <ele>566.5</ele>
        <time>2019-05-19T07:46:32Z</time>
      </trkpt>
      <trkpt lat="46.72729" lon="5.67526">
        <ele>566.7</ele>
        <time>2019-05-19T07:46:36Z</time>
      </trkpt>
      <trkpt lat="46.72716" lon="5.67522">
        <ele>566.8</ele>
        <time>2019-05-19T07:46:40Z</time>
      </trkpt>
      <trkpt lat="46.72706" lon="5.6752">
        <ele>566.9</ele>
        <time>2019-05-19T07:46:44Z</time>
      </trkpt>
      <trkpt lat="46.72694" lon="5.67521">
        <ele>567.1</ele>
        <time>2019-05-19T07:46:48Z</time>
      </trkpt>
      <trkpt lat="46.72684" lon="5.67519">
        <ele>567.2</ele>
        <time>2019-05-19T07:46:51Z</time>
      </trkpt>
      <trkpt lat="46.7268" lon="5.67507">
        <ele>567.4</ele>
        <time>2019-05-19T07:46:56Z</time>
      </trkpt>
      <trkpt lat="46.72679" lon="5.67491">
        <ele>567.6</ele>
        <time>2019-05-19T07:47:00Z</time>
      </trkpt>
      <trkpt lat="46.72678" lon="5.67476">
        <ele>567.7</ele>
        <time>2019-05-19T07:47:04Z</time>
      </trkpt>
      <trkpt lat="46.72677" lon="5.67461">
        <ele>567.9</ele>
        <time>2019-05-19T07:47:08Z</time>
      </trkpt>
      <trkpt lat="46.72675" lon="5.67445">
        <ele>567.9</ele>
        <time>2019-05-19T07:47:12Z</time>
      </trkpt>
      <trkpt lat="46.72673" lon="5.67429">
        <ele>568</ele>
        <time>2019-05-19T07:47:16Z</time>
      </trkpt>
      <trkpt lat="46.72672" lon="5.67415">
        <ele>568</ele>
        <time>2019-05-19T07:47:19Z</time>
      </trkpt>
      <trkpt lat="46.72672" lon="5.674">
        <ele>567.8</ele>
        <time>2019-05-19T07:47:22Z</time>
      </trkpt>
      <trkpt lat="46.72673" lon="5.67386">
        <ele>567.6</ele>
        <time>2019-05-19T07:47:25Z</time>
      </trkpt>
      <trkpt lat="46.72674" lon="5.67372">
        <ele>567.3</ele>
        <time>2019-05-19T07:47:28Z</time>
      </trkpt>
      <trkpt lat="46.72675" lon="5.67352">
        <ele>566.9</ele>
        <time>2019-05-19T07:47:31Z</time>
      </trkpt>
      <trkpt lat="46.72677" lon="5.67338">
        <ele>566.6</ele>
        <time>2019-05-19T07:47:33Z</time>
      </trkpt>
      <trkpt lat="46.72679" lon="5.67319">
        <ele>566.1</ele>
        <time>2019-05-19T07:47:36Z</time>
      </trkpt>
      <trkpt lat="46.7268" lon="5.67305">
        <ele>565.7</ele>
        <time>2019-05-19T07:47:39Z</time>
      </trkpt>
      <trkpt lat="46.72681" lon="5.67287">
        <ele>565.3</ele>
        <time>2019-05-19T07:47:42Z</time>
      </trkpt>
      <trkpt lat="46.72682" lon="5.67272">
        <ele>564.8</ele>
        <time>2019-05-19T07:47:45Z</time>
      </trkpt>
      <trkpt lat="46.72685" lon="5.67259">
        <ele>564.3</ele>
        <time>2019-05-19T07:47:48Z</time>
      </trkpt>
      <trkpt lat="46.72684" lon="5.67245">
        <ele>563.8</ele>
        <time>2019-05-19T07:47:51Z</time>
      </trkpt>
      <trkpt lat="46.7268" lon="5.67232">
        <ele>563</ele>
        <time>2019-05-19T07:47:57Z</time>
      </trkpt>
      <trkpt lat="46.72676" lon="5.6722">
        <ele>563</ele>
        <time>2019-05-19T07:48:03Z</time>
      </trkpt>
      <trkpt lat="46.72668" lon="5.67214">
        <ele>563.6</ele>
        <time>2019-05-19T07:48:08Z</time>
      </trkpt>
      <trkpt lat="46.72656" lon="5.67209">
        <ele>564.5</ele>
        <time>2019-05-19T07:48:13Z</time>
      </trkpt>
      <trkpt lat="46.72645" lon="5.67204">
        <ele>565.2</ele>
        <time>2019-05-19T07:48:17Z</time>
      </trkpt>
      <trkpt lat="46.7264" lon="5.67191">
        <ele>565.8</ele>
        <time>2019-05-19T07:48:21Z</time>
      </trkpt>
      <trkpt lat="46.72636" lon="5.67178">
        <ele>566.3</ele>
        <time>2019-05-19T07:48:25Z</time>
      </trkpt>
      <trkpt lat="46.72628" lon="5.67167">
        <ele>566.8</ele>
        <time>2019-05-19T07:48:30Z</time>
      </trkpt>
      <trkpt lat="46.72618" lon="5.67164">
        <ele>567.1</ele>
        <time>2019-05-19T07:48:35Z</time>
      </trkpt>
      <trkpt lat="46.72611" lon="5.67155">
        <ele>567.2</ele>
        <time>2019-05-19T07:48:39Z</time>
      </trkpt>
      <trkpt lat="46.72606" lon="5.67143">
        <ele>567.1</ele>
        <time>2019-05-19T07:48:43Z</time>
      </trkpt>
      <trkpt lat="46.72613" lon="5.67133">
        <ele>566.9</ele>
        <time>2019-05-19T07:48:47Z</time>
      </trkpt>
      <trkpt lat="46.72612" lon="5.6712">
        <ele>566.4</ele>
        <time>2019-05-19T07:48:56Z</time>
      </trkpt>
      <trkpt lat="46.72607" lon="5.67108">
        <ele>566.2</ele>
        <time>2019-05-19T07:49:01Z</time>
      </trkpt>
      <trkpt lat="46.72604" lon="5.67093">
        <ele>566.1</ele>
        <time>2019-05-19T07:49:06Z</time>
      </trkpt>
      <trkpt lat="46.726" lon="5.67079">
        <ele>566.4</ele>
        <time>2019-05-19T07:49:11Z</time>
      </trkpt>
      <trkpt lat="46.72597" lon="5.67066">
        <ele>566.6</ele>
        <time>2019-05-19T07:49:16Z</time>
      </trkpt>
      <trkpt lat="46.72596" lon="5.67051">
        <ele>566.9</ele>
        <time>2019-05-19T07:49:22Z</time>
      </trkpt>
      <trkpt lat="46.72599" lon="5.67035">
        <ele>567</ele>
        <time>2019-05-19T07:49:28Z</time>
      </trkpt>
      <trkpt lat="46.726" lon="5.67019">
        <ele>567.1</ele>
        <time>2019-05-19T07:49:32Z</time>
      </trkpt>
      <trkpt lat="46.72601" lon="5.67004">
        <ele>567</ele>
        <time>2019-05-19T07:49:35Z</time>
      </trkpt>
      <trkpt lat="46.72602" lon="5.66989">
        <ele>566.8</ele>
        <time>2019-05-19T07:49:38Z</time>
      </trkpt>
      <trkpt lat="46.72602" lon="5.66975">
        <ele>566.4</ele>
        <time>2019-05-19T07:49:40Z</time>
      </trkpt>
      <trkpt lat="46.72602" lon="5.66959">
        <ele>565.9</ele>
        <time>2019-05-19T07:49:43Z</time>
      </trkpt>
      <trkpt lat="46.72599" lon="5.66944">
        <ele>565.5</ele>
        <time>2019-05-19T07:49:46Z</time>
      </trkpt>
      <trkpt lat="46.72598" lon="5.66929">
        <ele>565.1</ele>
        <time>2019-05-19T07:49:49Z</time>
      </trkpt>
      <trkpt lat="46.72601" lon="5.66913">
        <ele>564.7</ele>
        <time>2019-05-19T07:49:52Z</time>
      </trkpt>
      <trkpt lat="46.72601" lon="5.66898">
        <ele>563.9</ele>
        <time>2019-05-19T07:49:55Z</time>
      </trkpt>
      <trkpt lat="46.72596" lon="5.66887">
        <ele>563.2</ele>
        <time>2019-05-19T07:49:58Z</time>
      </trkpt>
      <trkpt lat="46.7259" lon="5.66877">
        <ele>559.5</ele>
        <time>2019-05-19T07:50:17Z</time>
      </trkpt>
      <trkpt lat="46.72581" lon="5.66867">
        <ele>558.1</ele>
        <time>2019-05-19T07:50:32Z</time>
      </trkpt>
      <trkpt lat="46.72576" lon="5.66856">
        <ele>557.9</ele>
        <time>2019-05-19T07:50:34Z</time>
      </trkpt>
      <trkpt lat="46.72569" lon="5.66844">
        <ele>557.6</ele>
        <time>2019-05-19T07:50:37Z</time>
      </trkpt>
      <trkpt lat="46.72561" lon="5.66833">
        <ele>557.2</ele>
        <time>2019-05-19T07:50:41Z</time>
      </trkpt>
      <trkpt lat="46.72552" lon="5.66826">
        <ele>556.9</ele>
        <time>2019-05-19T07:50:45Z</time>
      </trkpt>
      <trkpt lat="46.72542" lon="5.66819">
        <ele>556.6</ele>
        <time>2019-05-19T07:50:49Z</time>
      </trkpt>
      <trkpt lat="46.72535" lon="5.6681">
        <ele>556.3</ele>
        <time>2019-05-19T07:50:53Z</time>
      </trkpt>
      <trkpt lat="46.72529" lon="5.66799">
        <ele>556.1</ele>
        <time>2019-05-19T07:50:57Z</time>
      </trkpt>
      <trkpt lat="46.72523" lon="5.66787">
        <ele>556.1</ele>
        <time>2019-05-19T07:51:01Z</time>
      </trkpt>
      <trkpt lat="46.72518" lon="5.66775">
        <ele>556.1</ele>
        <time>2019-05-19T07:51:04Z</time>
      </trkpt>
      <trkpt lat="46.72512" lon="5.66765">
        <ele>556.1</ele>
        <time>2019-05-19T07:51:07Z</time>
      </trkpt>
      <trkpt lat="46.72506" lon="5.66753">
        <ele>556.1</ele>
        <time>2019-05-19T07:51:11Z</time>
      </trkpt>
      <trkpt lat="46.72501" lon="5.66739">
        <ele>556</ele>
        <time>2019-05-19T07:51:14Z</time>
      </trkpt>
      <trkpt lat="46.72496" lon="5.66728">
        <ele>556</ele>
        <time>2019-05-19T07:51:17Z</time>
      </trkpt>
      <trkpt lat="46.7249" lon="5.66716">
        <ele>555.8</ele>
        <time>2019-05-19T07:51:20Z</time>
      </trkpt>
      <trkpt lat="46.72481" lon="5.66708">
        <ele>555.7</ele>
        <time>2019-05-19T07:51:23Z</time>
      </trkpt>
      <trkpt lat="46.72473" lon="5.66701">
        <ele>555.6</ele>
        <time>2019-05-19T07:51:26Z</time>
      </trkpt>
      <trkpt lat="46.72464" lon="5.6669">
        <ele>555.4</ele>
        <time>2019-05-19T07:51:30Z</time>
      </trkpt>
      <trkpt lat="46.72455" lon="5.66681">
        <ele>555.4</ele>
        <time>2019-05-19T07:51:33Z</time>
      </trkpt>
      <trkpt lat="46.72445" lon="5.66674">
        <ele>555.3</ele>
        <time>2019-05-19T07:51:37Z</time>
      </trkpt>
      <trkpt lat="46.72435" lon="5.66669">
        <ele>555.4</ele>
        <time>2019-05-19T07:51:40Z</time>
      </trkpt>
      <trkpt lat="46.72424" lon="5.66664">
        <ele>555.5</ele>
        <time>2019-05-19T07:51:43Z</time>
      </trkpt>
      <trkpt lat="46.72414" lon="5.66662">
        <ele>555.6</ele>
        <time>2019-05-19T07:51:46Z</time>
      </trkpt>
      <trkpt lat="46.72405" lon="5.66659">
        <ele>555.8</ele>
        <time>2019-05-19T07:51:49Z</time>
      </trkpt>
      <trkpt lat="46.72394" lon="5.66653">
        <ele>556.1</ele>
        <time>2019-05-19T07:51:53Z</time>
      </trkpt>
      <trkpt lat="46.72385" lon="5.66647">
        <ele>556.4</ele>
        <time>2019-05-19T07:51:56Z</time>
      </trkpt>
      <trkpt lat="46.72374" lon="5.66642">
        <ele>556.7</ele>
        <time>2019-05-19T07:52:00Z</time>
      </trkpt>
      <trkpt lat="46.72365" lon="5.66637">
        <ele>556.8</ele>
        <time>2019-05-19T07:52:03Z</time>
      </trkpt>
      <trkpt lat="46.72355" lon="5.66629">
        <ele>557</ele>
        <time>2019-05-19T07:52:06Z</time>
      </trkpt>
      <trkpt lat="46.72343" lon="5.66623">
        <ele>557.1</ele>
        <time>2019-05-19T07:52:09Z</time>
      </trkpt>
      <trkpt lat="46.72333" lon="5.66616">
        <ele>557.2</ele>
        <time>2019-05-19T07:52:12Z</time>
      </trkpt>
      <trkpt lat="46.72325" lon="5.66611">
        <ele>557.3</ele>
        <time>2019-05-19T07:52:15Z</time>
      </trkpt>
      <trkpt lat="46.72316" lon="5.66606">
        <ele>557.4</ele>
        <time>2019-05-19T07:52:18Z</time>
      </trkpt>
      <trkpt lat="46.72304" lon="5.66601">
        <ele>557.3</ele>
        <time>2019-05-19T07:52:21Z</time>
      </trkpt>
      <trkpt lat="46.72296" lon="5.66596">
        <ele>557.2</ele>
        <time>2019-05-19T07:52:23Z</time>
      </trkpt>
      <trkpt lat="46.72285" lon="5.6659">
        <ele>556.9</ele>
        <time>2019-05-19T07:52:26Z</time>
      </trkpt>
      <trkpt lat="46.72278" lon="5.66579">
        <ele>556.7</ele>
        <time>2019-05-19T07:52:29Z</time>
      </trkpt>
      <trkpt lat="46.72273" lon="5.66562">
        <ele>556.5</ele>
        <time>2019-05-19T07:52:32Z</time>
      </trkpt>
      <trkpt lat="46.7227" lon="5.66549">
        <ele>556.5</ele>
        <time>2019-05-19T07:52:34Z</time>
      </trkpt>
      <trkpt lat="46.72267" lon="5.66537">
        <ele>556.4</ele>
        <time>2019-05-19T07:52:36Z</time>
      </trkpt>
      <trkpt lat="46.72263" lon="5.66524">
        <ele>556.3</ele>
        <time>2019-05-19T07:52:38Z</time>
      </trkpt>
      <trkpt lat="46.72258" lon="5.66506">
        <ele>556.3</ele>
        <time>2019-05-19T07:52:41Z</time>
      </trkpt>
      <trkpt lat="46.72254" lon="5.66488">
        <ele>556.4</ele>
        <time>2019-05-19T07:52:44Z</time>
      </trkpt>
      <trkpt lat="46.72248" lon="5.66471">
        <ele>556.5</ele>
        <time>2019-05-19T07:52:47Z</time>
      </trkpt>
      <trkpt lat="46.7224" lon="5.66456">
        <ele>556.6</ele>
        <time>2019-05-19T07:52:50Z</time>
      </trkpt>
      <trkpt lat="46.72232" lon="5.66443">
        <ele>557</ele>
        <time>2019-05-19T07:52:53Z</time>
      </trkpt>
      <trkpt lat="46.72224" lon="5.66428">
        <ele>557.3</ele>
        <time>2019-05-19T07:52:56Z</time>
      </trkpt>
      <trkpt lat="46.72218" lon="5.6641">
        <ele>557.6</ele>
        <time>2019-05-19T07:52:59Z</time>
      </trkpt>
      <trkpt lat="46.72215" lon="5.66398">
        <ele>557.9</ele>
        <time>2019-05-19T07:53:01Z</time>
      </trkpt>
      <trkpt lat="46.72213" lon="5.66385">
        <ele>558.1</ele>
        <time>2019-05-19T07:53:03Z</time>
      </trkpt>
      <trkpt lat="46.72211" lon="5.66371">
        <ele>558.4</ele>
        <time>2019-05-19T07:53:05Z</time>
      </trkpt>
      <trkpt lat="46.7221" lon="5.66355">
        <ele>558.6</ele>
        <time>2019-05-19T07:53:07Z</time>
      </trkpt>
      <trkpt lat="46.72209" lon="5.66339">
        <ele>558.7</ele>
        <time>2019-05-19T07:53:09Z</time>
      </trkpt>
      <trkpt lat="46.72209" lon="5.66322">
        <ele>558.9</ele>
        <time>2019-05-19T07:53:11Z</time>
      </trkpt>
      <trkpt lat="46.72208" lon="5.66304">
        <ele>559</ele>
        <time>2019-05-19T07:53:13Z</time>
      </trkpt>
      <trkpt lat="46.72205" lon="5.66287">
        <ele>559.1</ele>
        <time>2019-05-19T07:53:15Z</time>
      </trkpt>
      <trkpt lat="46.72199" lon="5.66273">
        <ele>559.1</ele>
        <time>2019-05-19T07:53:17Z</time>
      </trkpt>
      <trkpt lat="46.72191" lon="5.6626">
        <ele>559.1</ele>
        <time>2019-05-19T07:53:19Z</time>
      </trkpt>
      <trkpt lat="46.72183" lon="5.66246">
        <ele>559</ele>
        <time>2019-05-19T07:53:21Z</time>
      </trkpt>
      <trkpt lat="46.72176" lon="5.66233">
        <ele>559</ele>
        <time>2019-05-19T07:53:23Z</time>
      </trkpt>
      <trkpt lat="46.72169" lon="5.66219">
        <ele>558.9</ele>
        <time>2019-05-19T07:53:25Z</time>
      </trkpt>
      <trkpt lat="46.72163" lon="5.66205">
        <ele>558.9</ele>
        <time>2019-05-19T07:53:27Z</time>
      </trkpt>
      <trkpt lat="46.72157" lon="5.6619">
        <ele>558.9</ele>
        <time>2019-05-19T07:53:29Z</time>
      </trkpt>
      <trkpt lat="46.72152" lon="5.66176">
        <ele>558.8</ele>
        <time>2019-05-19T07:53:31Z</time>
      </trkpt>
      <trkpt lat="46.72147" lon="5.66161">
        <ele>558.9</ele>
        <time>2019-05-19T07:53:33Z</time>
      </trkpt>
      <trkpt lat="46.72143" lon="5.66147">
        <ele>559</ele>
        <time>2019-05-19T07:53:35Z</time>
      </trkpt>
      <trkpt lat="46.72138" lon="5.66133">
        <ele>559.2</ele>
        <time>2019-05-19T07:53:37Z</time>
      </trkpt>
      <trkpt lat="46.72134" lon="5.6612">
        <ele>559.3</ele>
        <time>2019-05-19T07:53:39Z</time>
      </trkpt>
      <trkpt lat="46.7213" lon="5.66107">
        <ele>559.4</ele>
        <time>2019-05-19T07:53:41Z</time>
      </trkpt>
      <trkpt lat="46.72126" lon="5.66094">
        <ele>559.6</ele>
        <time>2019-05-19T07:53:43Z</time>
      </trkpt>
      <trkpt lat="46.72122" lon="5.6608">
        <ele>559.7</ele>
        <time>2019-05-19T07:53:45Z</time>
      </trkpt>
      <trkpt lat="46.72124" lon="5.66062">
        <ele>559.7</ele>
        <time>2019-05-19T07:53:48Z</time>
      </trkpt>
      <trkpt lat="46.72137" lon="5.66054">
        <ele>559.7</ele>
        <time>2019-05-19T07:53:51Z</time>
      </trkpt>
      <trkpt lat="46.72144" lon="5.66045">
        <ele>559.7</ele>
        <time>2019-05-19T07:53:53Z</time>
      </trkpt>
      <trkpt lat="46.72148" lon="5.66032">
        <ele>559.6</ele>
        <time>2019-05-19T07:53:55Z</time>
      </trkpt>
      <trkpt lat="46.72149" lon="5.66016">
        <ele>559.5</ele>
        <time>2019-05-19T07:53:57Z</time>
      </trkpt>
      <trkpt lat="46.72153" lon="5.66">
        <ele>559.4</ele>
        <time>2019-05-19T07:53:59Z</time>
      </trkpt>
      <trkpt lat="46.72159" lon="5.65986">
        <ele>559.2</ele>
        <time>2019-05-19T07:54:01Z</time>
      </trkpt>
      <trkpt lat="46.72165" lon="5.65973">
        <ele>559</ele>
        <time>2019-05-19T07:54:03Z</time>
      </trkpt>
      <trkpt lat="46.7217" lon="5.65957">
        <ele>558.8</ele>
        <time>2019-05-19T07:54:05Z</time>
      </trkpt>
      <trkpt lat="46.72173" lon="5.65942">
        <ele>558.6</ele>
        <time>2019-05-19T07:54:07Z</time>
      </trkpt>
      <trkpt lat="46.72175" lon="5.65928">
        <ele>558.4</ele>
        <time>2019-05-19T07:54:09Z</time>
      </trkpt>
      <trkpt lat="46.72179" lon="5.65915">
        <ele>558.3</ele>
        <time>2019-05-19T07:54:11Z</time>
      </trkpt>
      <trkpt lat="46.72186" lon="5.65906">
        <ele>558.2</ele>
        <time>2019-05-19T07:54:13Z</time>
      </trkpt>
      <trkpt lat="46.72199" lon="5.65908">
        <ele>558</ele>
        <time>2019-05-19T07:54:16Z</time>
      </trkpt>
      <trkpt lat="46.72208" lon="5.65918">
        <ele>557.9</ele>
        <time>2019-05-19T07:54:18Z</time>
      </trkpt>
      <trkpt lat="46.72219" lon="5.65927">
        <ele>557.7</ele>
        <time>2019-05-19T07:54:20Z</time>
      </trkpt>
      <trkpt lat="46.72231" lon="5.65936">
        <ele>557.5</ele>
        <time>2019-05-19T07:54:22Z</time>
      </trkpt>
      <trkpt lat="46.72244" lon="5.65945">
        <ele>557.4</ele>
        <time>2019-05-19T07:54:24Z</time>
      </trkpt>
      <trkpt lat="46.72257" lon="5.65953">
        <ele>557.2</ele>
        <time>2019-05-19T07:54:26Z</time>
      </trkpt>
      <trkpt lat="46.7227" lon="5.6596">
        <ele>557</ele>
        <time>2019-05-19T07:54:28Z</time>
      </trkpt>
      <trkpt lat="46.72284" lon="5.65968">
        <ele>556.7</ele>
        <time>2019-05-19T07:54:30Z</time>
      </trkpt>
      <trkpt lat="46.72297" lon="5.65974">
        <ele>556.4</ele>
        <time>2019-05-19T07:54:32Z</time>
      </trkpt>
      <trkpt lat="46.72311" lon="5.65979">
        <ele>556.2</ele>
        <time>2019-05-19T07:54:34Z</time>
      </trkpt>
      <trkpt lat="46.72325" lon="5.65984">
        <ele>555.9</ele>
        <time>2019-05-19T07:54:36Z</time>
      </trkpt>
      <trkpt lat="46.7234" lon="5.65988">
        <ele>555.7</ele>
        <time>2019-05-19T07:54:38Z</time>
      </trkpt>
      <trkpt lat="46.72353" lon="5.65995">
        <ele>555.3</ele>
        <time>2019-05-19T07:54:40Z</time>
      </trkpt>
      <trkpt lat="46.72366" lon="5.66005">
        <ele>555</ele>
        <time>2019-05-19T07:54:42Z</time>
      </trkpt>
      <trkpt lat="46.72378" lon="5.66019">
        <ele>554.7</ele>
        <time>2019-05-19T07:54:44Z</time>
      </trkpt>
      <trkpt lat="46.7239" lon="5.66032">
        <ele>554.4</ele>
        <time>2019-05-19T07:54:46Z</time>
      </trkpt>
      <trkpt lat="46.72401" lon="5.66044">
        <ele>554.2</ele>
        <time>2019-05-19T07:54:48Z</time>
      </trkpt>
      <trkpt lat="46.72411" lon="5.66055">
        <ele>554</ele>
        <time>2019-05-19T07:54:50Z</time>
      </trkpt>
      <trkpt lat="46.72422" lon="5.66065">
        <ele>553.7</ele>
        <time>2019-05-19T07:54:52Z</time>
      </trkpt>
      <trkpt lat="46.72432" lon="5.66077">
        <ele>553.5</ele>
        <time>2019-05-19T07:54:54Z</time>
      </trkpt>
      <trkpt lat="46.72441" lon="5.66088">
        <ele>553.4</ele>
        <time>2019-05-19T07:54:56Z</time>
      </trkpt>
      <trkpt lat="46.7245" lon="5.66099">
        <ele>553.2</ele>
        <time>2019-05-19T07:54:58Z</time>
      </trkpt>
      <trkpt lat="46.72459" lon="5.66108">
        <ele>553.1</ele>
        <time>2019-05-19T07:55:00Z</time>
      </trkpt>
      <trkpt lat="46.72467" lon="5.66117">
        <ele>553</ele>
        <time>2019-05-19T07:55:02Z</time>
      </trkpt>
      <trkpt lat="46.72476" lon="5.66124">
        <ele>553</ele>
        <time>2019-05-19T07:55:04Z</time>
      </trkpt>
      <trkpt lat="46.72485" lon="5.66131">
        <ele>553</ele>
        <time>2019-05-19T07:55:06Z</time>
      </trkpt>
      <trkpt lat="46.72493" lon="5.66136">
        <ele>553.1</ele>
        <time>2019-05-19T07:55:08Z</time>
      </trkpt>
      <trkpt lat="46.72505" lon="5.66144">
        <ele>553.2</ele>
        <time>2019-05-19T07:55:11Z</time>
      </trkpt>
      <trkpt lat="46.72514" lon="5.6615">
        <ele>553.3</ele>
        <time>2019-05-19T07:55:14Z</time>
      </trkpt>
      <trkpt lat="46.72523" lon="5.66156">
        <ele>553.4</ele>
        <time>2019-05-19T07:55:19Z</time>
      </trkpt>
      <trkpt lat="46.72523" lon="5.66142">
        <ele>553.5</ele>
        <time>2019-05-19T07:55:30Z</time>
      </trkpt>
      <trkpt lat="46.72525" lon="5.66128">
        <ele>553.5</ele>
        <time>2019-05-19T07:55:33Z</time>
      </trkpt>
      <trkpt lat="46.72524" lon="5.66111">
        <ele>553.4</ele>
        <time>2019-05-19T07:55:36Z</time>
      </trkpt>
      <trkpt lat="46.72525" lon="5.66092">
        <ele>553.3</ele>
        <time>2019-05-19T07:55:39Z</time>
      </trkpt>
      <trkpt lat="46.72524" lon="5.66075">
        <ele>553.2</ele>
        <time>2019-05-19T07:55:42Z</time>
      </trkpt>
      <trkpt lat="46.72522" lon="5.6606">
        <ele>553</ele>
        <time>2019-05-19T07:55:45Z</time>
      </trkpt>
      <trkpt lat="46.72519" lon="5.66047">
        <ele>552.9</ele>
        <time>2019-05-19T07:55:47Z</time>
      </trkpt>
      <trkpt lat="46.72515" lon="5.6603">
        <ele>552.7</ele>
        <time>2019-05-19T07:55:50Z</time>
      </trkpt>
      <trkpt lat="46.72511" lon="5.66015">
        <ele>552.3</ele>
        <time>2019-05-19T07:55:53Z</time>
      </trkpt>
      <trkpt lat="46.72509" lon="5.66001">
        <ele>552.1</ele>
        <time>2019-05-19T07:55:56Z</time>
      </trkpt>
      <trkpt lat="46.72508" lon="5.65985">
        <ele>551.8</ele>
        <time>2019-05-19T07:55:59Z</time>
      </trkpt>
      <trkpt lat="46.72508" lon="5.65968">
        <ele>551.6</ele>
        <time>2019-05-19T07:56:02Z</time>
      </trkpt>
      <trkpt lat="46.72507" lon="5.6595">
        <ele>551.4</ele>
        <time>2019-05-19T07:56:05Z</time>
      </trkpt>
      <trkpt lat="46.72504" lon="5.65935">
        <ele>551.3</ele>
        <time>2019-05-19T07:56:09Z</time>
      </trkpt>
      <trkpt lat="46.72503" lon="5.6592">
        <ele>548.6</ele>
        <time>2019-05-19T07:57:13Z</time>
      </trkpt>
      <trkpt lat="46.72501" lon="5.65904">
        <ele>548.5</ele>
        <time>2019-05-19T07:57:19Z</time>
      </trkpt>
      <trkpt lat="46.72501" lon="5.65889">
        <ele>548.3</ele>
        <time>2019-05-19T07:57:23Z</time>
      </trkpt>
      <trkpt lat="46.72501" lon="5.65875">
        <ele>548.2</ele>
        <time>2019-05-19T07:57:27Z</time>
      </trkpt>
      <trkpt lat="46.72503" lon="5.65861">
        <ele>548</ele>
        <time>2019-05-19T07:57:31Z</time>
      </trkpt>
      <trkpt lat="46.72504" lon="5.65844">
        <ele>547.9</ele>
        <time>2019-05-19T07:57:35Z</time>
      </trkpt>
      <trkpt lat="46.72507" lon="5.6583">
        <ele>547.8</ele>
        <time>2019-05-19T07:57:38Z</time>
      </trkpt>
      <trkpt lat="46.7251" lon="5.65815">
        <ele>547.8</ele>
        <time>2019-05-19T07:57:41Z</time>
      </trkpt>
      <trkpt lat="46.72509" lon="5.65799">
        <ele>547.8</ele>
        <time>2019-05-19T07:57:44Z</time>
      </trkpt>
      <trkpt lat="46.72504" lon="5.65784">
        <ele>547.7</ele>
        <time>2019-05-19T07:57:47Z</time>
      </trkpt>
      <trkpt lat="46.72496" lon="5.6577">
        <ele>547.7</ele>
        <time>2019-05-19T07:57:50Z</time>
      </trkpt>
      <trkpt lat="46.72493" lon="5.65757">
        <ele>547.6</ele>
        <time>2019-05-19T07:57:52Z</time>
      </trkpt>
      <trkpt lat="46.72489" lon="5.65738">
        <ele>547.6</ele>
        <time>2019-05-19T07:57:55Z</time>
      </trkpt>
      <trkpt lat="46.72489" lon="5.65725">
        <ele>547.5</ele>
        <time>2019-05-19T07:57:57Z</time>
      </trkpt>
      <trkpt lat="46.7249" lon="5.65711">
        <ele>547.5</ele>
        <time>2019-05-19T07:57:59Z</time>
      </trkpt>
      <trkpt lat="46.7249" lon="5.65697">
        <ele>547.4</ele>
        <time>2019-05-19T07:58:01Z</time>
      </trkpt>
      <trkpt lat="46.72489" lon="5.65681">
        <ele>547.3</ele>
        <time>2019-05-19T07:58:04Z</time>
      </trkpt>
      <trkpt lat="46.72489" lon="5.65662">
        <ele>547.3</ele>
        <time>2019-05-19T07:58:07Z</time>
      </trkpt>
      <trkpt lat="46.72483" lon="5.65647">
        <ele>547.2</ele>
        <time>2019-05-19T07:58:10Z</time>
      </trkpt>
      <trkpt lat="46.72473" lon="5.65634">
        <ele>547.1</ele>
        <time>2019-05-19T07:58:13Z</time>
      </trkpt>
      <trkpt lat="46.72467" lon="5.65619">
        <ele>547.1</ele>
        <time>2019-05-19T07:58:15Z</time>
      </trkpt>
      <trkpt lat="46.7246" lon="5.65606">
        <ele>547</ele>
        <time>2019-05-19T07:58:17Z</time>
      </trkpt>
      <trkpt lat="46.72451" lon="5.65597">
        <ele>547</ele>
        <time>2019-05-19T07:58:19Z</time>
      </trkpt>
      <trkpt lat="46.72446" lon="5.65586">
        <ele>546.9</ele>
        <time>2019-05-19T07:58:22Z</time>
      </trkpt>
      <trkpt lat="46.7244" lon="5.6557">
        <ele>547</ele>
        <time>2019-05-19T07:58:26Z</time>
      </trkpt>
      <trkpt lat="46.72436" lon="5.65557">
        <ele>547.2</ele>
        <time>2019-05-19T07:58:29Z</time>
      </trkpt>
      <trkpt lat="46.72432" lon="5.65544">
        <ele>547.4</ele>
        <time>2019-05-19T07:58:32Z</time>
      </trkpt>
      <trkpt lat="46.72427" lon="5.65527">
        <ele>547.7</ele>
        <time>2019-05-19T07:58:35Z</time>
      </trkpt>
      <trkpt lat="46.72422" lon="5.6551">
        <ele>547.9</ele>
        <time>2019-05-19T07:58:38Z</time>
      </trkpt>
      <trkpt lat="46.72418" lon="5.65493">
        <ele>548.1</ele>
        <time>2019-05-19T07:58:41Z</time>
      </trkpt>
      <trkpt lat="46.72415" lon="5.65479">
        <ele>548.3</ele>
        <time>2019-05-19T07:58:43Z</time>
      </trkpt>
      <trkpt lat="46.7241" lon="5.65467">
        <ele>548.5</ele>
        <time>2019-05-19T07:58:45Z</time>
      </trkpt>
      <trkpt lat="46.72404" lon="5.65453">
        <ele>548.5</ele>
        <time>2019-05-19T07:58:47Z</time>
      </trkpt>
      <trkpt lat="46.72396" lon="5.65439">
        <ele>548.6</ele>
        <time>2019-05-19T07:58:49Z</time>
      </trkpt>
      <trkpt lat="46.72388" lon="5.65424">
        <ele>548.7</ele>
        <time>2019-05-19T07:58:51Z</time>
      </trkpt>
      <trkpt lat="46.7238" lon="5.65409">
        <ele>548.6</ele>
        <time>2019-05-19T07:58:53Z</time>
      </trkpt>
      <trkpt lat="46.72372" lon="5.65394">
        <ele>548.6</ele>
        <time>2019-05-19T07:58:55Z</time>
      </trkpt>
      <trkpt lat="46.72364" lon="5.6538">
        <ele>548.5</ele>
        <time>2019-05-19T07:58:57Z</time>
      </trkpt>
      <trkpt lat="46.72355" lon="5.65366">
        <ele>548.3</ele>
        <time>2019-05-19T07:58:59Z</time>
      </trkpt>
      <trkpt lat="46.72344" lon="5.65355">
        <ele>548.2</ele>
        <time>2019-05-19T07:59:01Z</time>
      </trkpt>
      <trkpt lat="46.72334" lon="5.65345">
        <ele>548</ele>
        <time>2019-05-19T07:59:03Z</time>
      </trkpt>
      <trkpt lat="46.72324" lon="5.65332">
        <ele>547.9</ele>
        <time>2019-05-19T07:59:05Z</time>
      </trkpt>
      <trkpt lat="46.72316" lon="5.65318">
        <ele>547.7</ele>
        <time>2019-05-19T07:59:07Z</time>
      </trkpt>
      <trkpt lat="46.7231" lon="5.65301">
        <ele>547.5</ele>
        <time>2019-05-19T07:59:09Z</time>
      </trkpt>
      <trkpt lat="46.72306" lon="5.65283">
        <ele>547.3</ele>
        <time>2019-05-19T07:59:11Z</time>
      </trkpt>
      <trkpt lat="46.72302" lon="5.65264">
        <ele>547.2</ele>
        <time>2019-05-19T07:59:13Z</time>
      </trkpt>
      <trkpt lat="46.72298" lon="5.65246">
        <ele>547</ele>
        <time>2019-05-19T07:59:15Z</time>
      </trkpt>
      <trkpt lat="46.72295" lon="5.65228">
        <ele>546.8</ele>
        <time>2019-05-19T07:59:17Z</time>
      </trkpt>
      <trkpt lat="46.72293" lon="5.65211">
        <ele>546.7</ele>
        <time>2019-05-19T07:59:19Z</time>
      </trkpt>
      <trkpt lat="46.7229" lon="5.65195">
        <ele>546.6</ele>
        <time>2019-05-19T07:59:21Z</time>
      </trkpt>
      <trkpt lat="46.72288" lon="5.6518">
        <ele>546.4</ele>
        <time>2019-05-19T07:59:23Z</time>
      </trkpt>
      <trkpt lat="46.72283" lon="5.65166">
        <ele>546.4</ele>
        <time>2019-05-19T07:59:25Z</time>
      </trkpt>
      <trkpt lat="46.72278" lon="5.65153">
        <ele>546.4</ele>
        <time>2019-05-19T07:59:27Z</time>
      </trkpt>
      <trkpt lat="46.72274" lon="5.65139">
        <ele>546.4</ele>
        <time>2019-05-19T07:59:29Z</time>
      </trkpt>
      <trkpt lat="46.72268" lon="5.65127">
        <ele>546.6</ele>
        <time>2019-05-19T07:59:31Z</time>
      </trkpt>
      <trkpt lat="46.72264" lon="5.65114">
        <ele>546.7</ele>
        <time>2019-05-19T07:59:33Z</time>
      </trkpt>
      <trkpt lat="46.72259" lon="5.651">
        <ele>546.8</ele>
        <time>2019-05-19T07:59:35Z</time>
      </trkpt>
      <trkpt lat="46.72254" lon="5.65087">
        <ele>546.9</ele>
        <time>2019-05-19T07:59:37Z</time>
      </trkpt>
      <trkpt lat="46.72249" lon="5.65074">
        <ele>547</ele>
        <time>2019-05-19T07:59:39Z</time>
      </trkpt>
      <trkpt lat="46.72245" lon="5.65059">
        <ele>547.1</ele>
        <time>2019-05-19T07:59:41Z</time>
      </trkpt>
      <trkpt lat="46.72242" lon="5.65043">
        <ele>547.2</ele>
        <time>2019-05-19T07:59:43Z</time>
      </trkpt>
      <trkpt lat="46.7224" lon="5.65026">
        <ele>547.3</ele>
        <time>2019-05-19T07:59:45Z</time>
      </trkpt>
      <trkpt lat="46.72238" lon="5.65007">
        <ele>547.3</ele>
        <time>2019-05-19T07:59:47Z</time>
      </trkpt>
      <trkpt lat="46.72238" lon="5.64988">
        <ele>547.2</ele>
        <time>2019-05-19T07:59:49Z</time>
      </trkpt>
      <trkpt lat="46.72238" lon="5.64968">
        <ele>547.1</ele>
        <time>2019-05-19T07:59:51Z</time>
      </trkpt>
      <trkpt lat="46.72238" lon="5.64948">
        <ele>547</ele>
        <time>2019-05-19T07:59:53Z</time>
      </trkpt>
      <trkpt lat="46.72238" lon="5.64928">
        <ele>546.8</ele>
        <time>2019-05-19T07:59:55Z</time>
      </trkpt>
      <trkpt lat="46.72237" lon="5.64908">
        <ele>546.6</ele>
        <time>2019-05-19T07:59:57Z</time>
      </trkpt>
      <trkpt lat="46.72236" lon="5.64889">
        <ele>546.3</ele>
        <time>2019-05-19T07:59:59Z</time>
      </trkpt>
      <trkpt lat="46.72233" lon="5.6487">
        <ele>546</ele>
        <time>2019-05-19T08:00:01Z</time>
      </trkpt>
      <trkpt lat="46.72226" lon="5.64853">
        <ele>545.7</ele>
        <time>2019-05-19T08:00:03Z</time>
      </trkpt>
      <trkpt lat="46.72213" lon="5.64843">
        <ele>545.3</ele>
        <time>2019-05-19T08:00:05Z</time>
      </trkpt>
      <trkpt lat="46.72202" lon="5.6483">
        <ele>545</ele>
        <time>2019-05-19T08:00:07Z</time>
      </trkpt>
      <trkpt lat="46.72195" lon="5.64811">
        <ele>544.7</ele>
        <time>2019-05-19T08:00:09Z</time>
      </trkpt>
      <trkpt lat="46.7219" lon="5.64789">
        <ele>544.2</ele>
        <time>2019-05-19T08:00:11Z</time>
      </trkpt>
      <trkpt lat="46.7219" lon="5.64765">
        <ele>543.7</ele>
        <time>2019-05-19T08:00:13Z</time>
      </trkpt>
      <trkpt lat="46.72189" lon="5.64752">
        <ele>543.4</ele>
        <time>2019-05-19T08:00:14Z</time>
      </trkpt>
      <trkpt lat="46.72187" lon="5.64739">
        <ele>543.1</ele>
        <time>2019-05-19T08:00:15Z</time>
      </trkpt>
      <trkpt lat="46.72185" lon="5.64725">
        <ele>542.7</ele>
        <time>2019-05-19T08:00:16Z</time>
      </trkpt>
      <trkpt lat="46.72183" lon="5.64712">
        <ele>542.3</ele>
        <time>2019-05-19T08:00:17Z</time>
      </trkpt>
      <trkpt lat="46.72181" lon="5.64699">
        <ele>541.9</ele>
        <time>2019-05-19T08:00:18Z</time>
      </trkpt>
      <trkpt lat="46.72179" lon="5.64687">
        <ele>541.6</ele>
        <time>2019-05-19T08:00:19Z</time>
      </trkpt>
      <trkpt lat="46.72174" lon="5.64662">
        <ele>541</ele>
        <time>2019-05-19T08:00:21Z</time>
      </trkpt>
      <trkpt lat="46.7217" lon="5.64639">
        <ele>540.4</ele>
        <time>2019-05-19T08:00:23Z</time>
      </trkpt>
      <trkpt lat="46.72162" lon="5.6462">
        <ele>539.9</ele>
        <time>2019-05-19T08:00:25Z</time>
      </trkpt>
      <trkpt lat="46.72152" lon="5.64607">
        <ele>539.4</ele>
        <time>2019-05-19T08:00:27Z</time>
      </trkpt>
      <trkpt lat="46.72142" lon="5.64596">
        <ele>539</ele>
        <time>2019-05-19T08:00:29Z</time>
      </trkpt>
      <trkpt lat="46.72132" lon="5.64585">
        <ele>538.8</ele>
        <time>2019-05-19T08:00:31Z</time>
      </trkpt>
      <trkpt lat="46.72122" lon="5.64574">
        <ele>538.5</ele>
        <time>2019-05-19T08:00:33Z</time>
      </trkpt>
      <trkpt lat="46.72112" lon="5.64564">
        <ele>538.3</ele>
        <time>2019-05-19T08:00:35Z</time>
      </trkpt>
      <trkpt lat="46.72102" lon="5.64554">
        <ele>538.2</ele>
        <time>2019-05-19T08:00:37Z</time>
      </trkpt>
      <trkpt lat="46.72091" lon="5.64546">
        <ele>538</ele>
        <time>2019-05-19T08:00:39Z</time>
      </trkpt>
      <trkpt lat="46.72078" lon="5.64544">
        <ele>537.9</ele>
        <time>2019-05-19T08:00:41Z</time>
      </trkpt>
      <trkpt lat="46.72066" lon="5.64543">
        <ele>537.8</ele>
        <time>2019-05-19T08:00:43Z</time>
      </trkpt>
      <trkpt lat="46.72053" lon="5.64543">
        <ele>537.7</ele>
        <time>2019-05-19T08:00:45Z</time>
      </trkpt>
      <trkpt lat="46.72041" lon="5.64544">
        <ele>537.7</ele>
        <time>2019-05-19T08:00:47Z</time>
      </trkpt>
      <trkpt lat="46.72028" lon="5.64546">
        <ele>537.6</ele>
        <time>2019-05-19T08:00:49Z</time>
      </trkpt>
      <trkpt lat="46.72016" lon="5.64546">
        <ele>537.5</ele>
        <time>2019-05-19T08:00:51Z</time>
      </trkpt>
      <trkpt lat="46.72004" lon="5.64547">
        <ele>537.5</ele>
        <time>2019-05-19T08:00:53Z</time>
      </trkpt>
      <trkpt lat="46.71993" lon="5.64551">
        <ele>537.4</ele>
        <time>2019-05-19T08:00:55Z</time>
      </trkpt>
      <trkpt lat="46.71991" lon="5.64566">
        <ele>537.4</ele>
        <time>2019-05-19T08:00:57Z</time>
      </trkpt>
      <trkpt lat="46.71992" lon="5.64586">
        <ele>537.3</ele>
        <time>2019-05-19T08:00:59Z</time>
      </trkpt>
      <trkpt lat="46.71992" lon="5.64605">
        <ele>537.2</ele>
        <time>2019-05-19T08:01:01Z</time>
      </trkpt>
      <trkpt lat="46.71991" lon="5.64626">
        <ele>537</ele>
        <time>2019-05-19T08:01:03Z</time>
      </trkpt>
      <trkpt lat="46.71988" lon="5.64647">
        <ele>536.8</ele>
        <time>2019-05-19T08:01:05Z</time>
      </trkpt>
      <trkpt lat="46.71984" lon="5.64668">
        <ele>536.6</ele>
        <time>2019-05-19T08:01:07Z</time>
      </trkpt>
      <trkpt lat="46.71981" lon="5.64688">
        <ele>536.3</ele>
        <time>2019-05-19T08:01:09Z</time>
      </trkpt>
      <trkpt lat="46.71977" lon="5.64707">
        <ele>536.1</ele>
        <time>2019-05-19T08:01:11Z</time>
      </trkpt>
      <trkpt lat="46.71975" lon="5.64726">
        <ele>535.9</ele>
        <time>2019-05-19T08:01:13Z</time>
      </trkpt>
      <trkpt lat="46.71975" lon="5.64743">
        <ele>535.7</ele>
        <time>2019-05-19T08:01:15Z</time>
      </trkpt>
      <trkpt lat="46.71975" lon="5.64758">
        <ele>535.5</ele>
        <time>2019-05-19T08:01:17Z</time>
      </trkpt>
      <trkpt lat="46.71977" lon="5.64772">
        <ele>535.4</ele>
        <time>2019-05-19T08:01:19Z</time>
      </trkpt>
      <trkpt lat="46.71979" lon="5.6479">
        <ele>535.3</ele>
        <time>2019-05-19T08:01:22Z</time>
      </trkpt>
      <trkpt lat="46.71981" lon="5.64806">
        <ele>535.6</ele>
        <time>2019-05-19T08:01:25Z</time>
      </trkpt>
      <trkpt lat="46.71983" lon="5.64821">
        <ele>535.9</ele>
        <time>2019-05-19T08:01:28Z</time>
      </trkpt>
      <trkpt lat="46.71984" lon="5.64836">
        <ele>536.3</ele>
        <time>2019-05-19T08:01:31Z</time>
      </trkpt>
      <trkpt lat="46.71984" lon="5.64851">
        <ele>536.7</ele>
        <time>2019-05-19T08:01:34Z</time>
      </trkpt>
      <trkpt lat="46.71982" lon="5.64866">
        <ele>537.2</ele>
        <time>2019-05-19T08:01:37Z</time>
      </trkpt>
      <trkpt lat="46.71979" lon="5.64882">
        <ele>537.6</ele>
        <time>2019-05-19T08:01:40Z</time>
      </trkpt>
      <trkpt lat="46.71975" lon="5.64898">
        <ele>538.1</ele>
        <time>2019-05-19T08:01:43Z</time>
      </trkpt>
      <trkpt lat="46.7197" lon="5.64913">
        <ele>538.5</ele>
        <time>2019-05-19T08:01:46Z</time>
      </trkpt>
      <trkpt lat="46.71967" lon="5.6493">
        <ele>539</ele>
        <time>2019-05-19T08:01:49Z</time>
      </trkpt>
      <trkpt lat="46.71964" lon="5.64947">
        <ele>539.4</ele>
        <time>2019-05-19T08:01:52Z</time>
      </trkpt>
      <trkpt lat="46.71961" lon="5.64964">
        <ele>539.8</ele>
        <time>2019-05-19T08:01:55Z</time>
      </trkpt>
      <trkpt lat="46.71958" lon="5.64981">
        <ele>540.2</ele>
        <time>2019-05-19T08:01:58Z</time>
      </trkpt>
      <trkpt lat="46.71956" lon="5.65">
        <ele>540.6</ele>
        <time>2019-05-19T08:02:01Z</time>
      </trkpt>
      <trkpt lat="46.71955" lon="5.65017">
        <ele>541</ele>
        <time>2019-05-19T08:02:04Z</time>
      </trkpt>
      <trkpt lat="46.71955" lon="5.65035">
        <ele>541.3</ele>
        <time>2019-05-19T08:02:07Z</time>
      </trkpt>
      <trkpt lat="46.71951" lon="5.65048">
        <ele>541.6</ele>
        <time>2019-05-19T08:02:10Z</time>
      </trkpt>
      <trkpt lat="46.71941" lon="5.65041">
        <ele>541.9</ele>
        <time>2019-05-19T08:02:13Z</time>
      </trkpt>
      <trkpt lat="46.71932" lon="5.65033">
        <ele>542</ele>
        <time>2019-05-19T08:02:15Z</time>
      </trkpt>
      <trkpt lat="46.71922" lon="5.65024">
        <ele>542</ele>
        <time>2019-05-19T08:02:17Z</time>
      </trkpt>
      <trkpt lat="46.71911" lon="5.65014">
        <ele>542</ele>
        <time>2019-05-19T08:02:19Z</time>
      </trkpt>
      <trkpt lat="46.71899" lon="5.65004">
        <ele>542</ele>
        <time>2019-05-19T08:02:21Z</time>
      </trkpt>
      <trkpt lat="46.71888" lon="5.64992">
        <ele>542</ele>
        <time>2019-05-19T08:02:23Z</time>
      </trkpt>
      <trkpt lat="46.71876" lon="5.6498">
        <ele>541.9</ele>
        <time>2019-05-19T08:02:25Z</time>
      </trkpt>
      <trkpt lat="46.71864" lon="5.64968">
        <ele>541.7</ele>
        <time>2019-05-19T08:02:27Z</time>
      </trkpt>
      <trkpt lat="46.71852" lon="5.64954">
        <ele>541.5</ele>
        <time>2019-05-19T08:02:29Z</time>
      </trkpt>
      <trkpt lat="46.7184" lon="5.64942">
        <ele>541.3</ele>
        <time>2019-05-19T08:02:31Z</time>
      </trkpt>
      <trkpt lat="46.71828" lon="5.6493">
        <ele>541.1</ele>
        <time>2019-05-19T08:02:33Z</time>
      </trkpt>
      <trkpt lat="46.71817" lon="5.64919">
        <ele>540.8</ele>
        <time>2019-05-19T08:02:35Z</time>
      </trkpt>
      <trkpt lat="46.71807" lon="5.64909">
        <ele>540.6</ele>
        <time>2019-05-19T08:02:37Z</time>
      </trkpt>
      <trkpt lat="46.71797" lon="5.649">
        <ele>540.3</ele>
        <time>2019-05-19T08:02:39Z</time>
      </trkpt>
      <trkpt lat="46.71787" lon="5.6489">
        <ele>540.1</ele>
        <time>2019-05-19T08:02:41Z</time>
      </trkpt>
      <trkpt lat="46.71776" lon="5.64883">
        <ele>539.9</ele>
        <time>2019-05-19T08:02:43Z</time>
      </trkpt>
      <trkpt lat="46.71765" lon="5.64875">
        <ele>539.8</ele>
        <time>2019-05-19T08:02:45Z</time>
      </trkpt>
      <trkpt lat="46.71755" lon="5.64866">
        <ele>539.5</ele>
        <time>2019-05-19T08:02:47Z</time>
      </trkpt>
      <trkpt lat="46.71743" lon="5.64861">
        <ele>539.2</ele>
        <time>2019-05-19T08:02:49Z</time>
      </trkpt>
      <trkpt lat="46.71734" lon="5.6485">
        <ele>539.1</ele>
        <time>2019-05-19T08:02:51Z</time>
      </trkpt>
      <trkpt lat="46.71726" lon="5.64836">
        <ele>538.9</ele>
        <time>2019-05-19T08:02:53Z</time>
      </trkpt>
      <trkpt lat="46.71718" lon="5.64822">
        <ele>538.7</ele>
        <time>2019-05-19T08:02:55Z</time>
      </trkpt>
      <trkpt lat="46.7171" lon="5.6481">
        <ele>538.6</ele>
        <time>2019-05-19T08:02:57Z</time>
      </trkpt>
      <trkpt lat="46.71701" lon="5.64797">
        <ele>538.4</ele>
        <time>2019-05-19T08:02:59Z</time>
      </trkpt>
      <trkpt lat="46.71691" lon="5.64786">
        <ele>538.3</ele>
        <time>2019-05-19T08:03:01Z</time>
      </trkpt>
      <trkpt lat="46.7168" lon="5.64776">
        <ele>538.2</ele>
        <time>2019-05-19T08:03:03Z</time>
      </trkpt>
      <trkpt lat="46.71668" lon="5.64768">
        <ele>538</ele>
        <time>2019-05-19T08:03:05Z</time>
      </trkpt>
      <trkpt lat="46.71657" lon="5.64759">
        <ele>537.9</ele>
        <time>2019-05-19T08:03:07Z</time>
      </trkpt>
      <trkpt lat="46.71646" lon="5.64751">
        <ele>537.8</ele>
        <time>2019-05-19T08:03:09Z</time>
      </trkpt>
      <trkpt lat="46.71636" lon="5.64742">
        <ele>537.7</ele>
        <time>2019-05-19T08:03:11Z</time>
      </trkpt>
      <trkpt lat="46.71626" lon="5.64733">
        <ele>537.6</ele>
        <time>2019-05-19T08:03:13Z</time>
      </trkpt>
      <trkpt lat="46.71618" lon="5.64723">
        <ele>537.5</ele>
        <time>2019-05-19T08:03:15Z</time>
      </trkpt>
      <trkpt lat="46.71608" lon="5.64716">
        <ele>537.4</ele>
        <time>2019-05-19T08:03:17Z</time>
      </trkpt>
      <trkpt lat="46.71597" lon="5.64711">
        <ele>537.3</ele>
        <time>2019-05-19T08:03:19Z</time>
      </trkpt>
      <trkpt lat="46.71586" lon="5.64708">
        <ele>537.3</ele>
        <time>2019-05-19T08:03:21Z</time>
      </trkpt>
      <trkpt lat="46.71574" lon="5.64705">
        <ele>537.3</ele>
        <time>2019-05-19T08:03:23Z</time>
      </trkpt>
      <trkpt lat="46.71562" lon="5.64702">
        <ele>537.3</ele>
        <time>2019-05-19T08:03:25Z</time>
      </trkpt>
      <trkpt lat="46.7155" lon="5.64699">
        <ele>537.3</ele>
        <time>2019-05-19T08:03:27Z</time>
      </trkpt>
      <trkpt lat="46.71538" lon="5.64695">
        <ele>537.3</ele>
        <time>2019-05-19T08:03:29Z</time>
      </trkpt>
      <trkpt lat="46.71526" lon="5.64692">
        <ele>537.3</ele>
        <time>2019-05-19T08:03:31Z</time>
      </trkpt>
      <trkpt lat="46.71513" lon="5.64686">
        <ele>537.3</ele>
        <time>2019-05-19T08:03:33Z</time>
      </trkpt>
      <trkpt lat="46.71501" lon="5.64677">
        <ele>537.3</ele>
        <time>2019-05-19T08:03:35Z</time>
      </trkpt>
      <trkpt lat="46.7149" lon="5.64665">
        <ele>537.3</ele>
        <time>2019-05-19T08:03:37Z</time>
      </trkpt>
      <trkpt lat="46.71479" lon="5.64651">
        <ele>537.2</ele>
        <time>2019-05-19T08:03:39Z</time>
      </trkpt>
      <trkpt lat="46.71468" lon="5.64637">
        <ele>537</ele>
        <time>2019-05-19T08:03:41Z</time>
      </trkpt>
      <trkpt lat="46.71455" lon="5.64625">
        <ele>536.8</ele>
        <time>2019-05-19T08:03:43Z</time>
      </trkpt>
      <trkpt lat="46.71442" lon="5.64617">
        <ele>536.5</ele>
        <time>2019-05-19T08:03:45Z</time>
      </trkpt>
      <trkpt lat="46.71429" lon="5.6461">
        <ele>536.3</ele>
        <time>2019-05-19T08:03:47Z</time>
      </trkpt>
      <trkpt lat="46.71416" lon="5.64604">
        <ele>536.1</ele>
        <time>2019-05-19T08:03:49Z</time>
      </trkpt>
      <trkpt lat="46.71404" lon="5.64597">
        <ele>536</ele>
        <time>2019-05-19T08:03:51Z</time>
      </trkpt>
      <trkpt lat="46.71393" lon="5.64589">
        <ele>535.8</ele>
        <time>2019-05-19T08:03:53Z</time>
      </trkpt>
      <trkpt lat="46.71382" lon="5.6458">
        <ele>535.7</ele>
        <time>2019-05-19T08:03:55Z</time>
      </trkpt>
      <trkpt lat="46.71374" lon="5.64568">
        <ele>535.5</ele>
        <time>2019-05-19T08:03:57Z</time>
      </trkpt>
      <trkpt lat="46.71368" lon="5.64553">
        <ele>535.4</ele>
        <time>2019-05-19T08:03:59Z</time>
      </trkpt>
      <trkpt lat="46.71367" lon="5.64537">
        <ele>535.3</ele>
        <time>2019-05-19T08:04:01Z</time>
      </trkpt>
      <trkpt lat="46.71367" lon="5.64521">
        <ele>535.2</ele>
        <time>2019-05-19T08:04:03Z</time>
      </trkpt>
      <trkpt lat="46.71369" lon="5.64505">
        <ele>535.2</ele>
        <time>2019-05-19T08:04:05Z</time>
      </trkpt>
      <trkpt lat="46.71373" lon="5.64493">
        <ele>535.3</ele>
        <time>2019-05-19T08:04:07Z</time>
      </trkpt>
      <trkpt lat="46.7138" lon="5.64477">
        <ele>535.4</ele>
        <time>2019-05-19T08:04:10Z</time>
      </trkpt>
      <trkpt lat="46.71385" lon="5.64463">
        <ele>535.5</ele>
        <time>2019-05-19T08:04:13Z</time>
      </trkpt>
      <trkpt lat="46.71391" lon="5.6445">
        <ele>535.6</ele>
        <time>2019-05-19T08:04:16Z</time>
      </trkpt>
      <trkpt lat="46.71388" lon="5.64436">
        <ele>535.7</ele>
        <time>2019-05-19T08:04:20Z</time>
      </trkpt>
      <trkpt lat="46.71377" lon="5.64439">
        <ele>535.9</ele>
        <time>2019-05-19T08:04:24Z</time>
      </trkpt>
      <trkpt lat="46.71382" lon="5.64453">
        <ele>525.1</ele>
        <time>2019-05-19T08:11:07Z</time>
      </trkpt>
      <trkpt lat="46.71392" lon="5.64452">
        <ele>525</ele>
        <time>2019-05-19T08:11:13Z</time>
      </trkpt>
      <trkpt lat="46.714" lon="5.64441">
        <ele>525</ele>
        <time>2019-05-19T08:11:16Z</time>
      </trkpt>
      <trkpt lat="46.7141" lon="5.6443">
        <ele>525</ele>
        <time>2019-05-19T08:11:19Z</time>
      </trkpt>
      <trkpt lat="46.71421" lon="5.64422">
        <ele>525.1</ele>
        <time>2019-05-19T08:11:22Z</time>
      </trkpt>
      <trkpt lat="46.71433" lon="5.64414">
        <ele>525.1</ele>
        <time>2019-05-19T08:11:25Z</time>
      </trkpt>
      <trkpt lat="46.71442" lon="5.64409">
        <ele>525.2</ele>
        <time>2019-05-19T08:11:27Z</time>
      </trkpt>
      <trkpt lat="46.71452" lon="5.64405">
        <ele>525.2</ele>
        <time>2019-05-19T08:11:30Z</time>
      </trkpt>
      <trkpt lat="46.71457" lon="5.6439">
        <ele>525.2</ele>
        <time>2019-05-19T08:11:33Z</time>
      </trkpt>
      <trkpt lat="46.71455" lon="5.64371">
        <ele>525.2</ele>
        <time>2019-05-19T08:11:36Z</time>
      </trkpt>
      <trkpt lat="46.7145" lon="5.64354">
        <ele>525.4</ele>
        <time>2019-05-19T08:11:39Z</time>
      </trkpt>
      <trkpt lat="46.71445" lon="5.64339">
        <ele>525.5</ele>
        <time>2019-05-19T08:11:42Z</time>
      </trkpt>
      <trkpt lat="46.71436" lon="5.64329">
        <ele>525.6</ele>
        <time>2019-05-19T08:11:45Z</time>
      </trkpt>
      <trkpt lat="46.71426" lon="5.64318">
        <ele>525.6</ele>
        <time>2019-05-19T08:11:48Z</time>
      </trkpt>
      <trkpt lat="46.71421" lon="5.64302">
        <ele>525.6</ele>
        <time>2019-05-19T08:11:51Z</time>
      </trkpt>
      <trkpt lat="46.71418" lon="5.64285">
        <ele>525.5</ele>
        <time>2019-05-19T08:11:54Z</time>
      </trkpt>
      <trkpt lat="46.71413" lon="5.64271">
        <ele>525.1</ele>
        <time>2019-05-19T08:11:57Z</time>
      </trkpt>
      <trkpt lat="46.71405" lon="5.64263">
        <ele>525</ele>
        <time>2019-05-19T08:11:59Z</time>
      </trkpt>
      <trkpt lat="46.71396" lon="5.64259">
        <ele>524.7</ele>
        <time>2019-05-19T08:12:01Z</time>
      </trkpt>
      <trkpt lat="46.71383" lon="5.64255">
        <ele>524.4</ele>
        <time>2019-05-19T08:12:04Z</time>
      </trkpt>
      <trkpt lat="46.71374" lon="5.64254">
        <ele>524.2</ele>
        <time>2019-05-19T08:12:06Z</time>
      </trkpt>
      <trkpt lat="46.71365" lon="5.64251">
        <ele>524</ele>
        <time>2019-05-19T08:12:08Z</time>
      </trkpt>
      <trkpt lat="46.71354" lon="5.64242">
        <ele>523.7</ele>
        <time>2019-05-19T08:12:11Z</time>
      </trkpt>
      <trkpt lat="46.71354" lon="5.64222">
        <ele>523.4</ele>
        <time>2019-05-19T08:12:14Z</time>
      </trkpt>
      <trkpt lat="46.71354" lon="5.64209">
        <ele>523.2</ele>
        <time>2019-05-19T08:12:16Z</time>
      </trkpt>
      <trkpt lat="46.71355" lon="5.64195">
        <ele>523</ele>
        <time>2019-05-19T08:12:18Z</time>
      </trkpt>
      <trkpt lat="46.71359" lon="5.64179">
        <ele>522.6</ele>
        <time>2019-05-19T08:12:21Z</time>
      </trkpt>
      <trkpt lat="46.71368" lon="5.64174">
        <ele>517.2</ele>
        <time>2019-05-19T08:13:28Z</time>
      </trkpt>
      <trkpt lat="46.71375" lon="5.64163">
        <ele>517.1</ele>
        <time>2019-05-19T08:13:31Z</time>
      </trkpt>
      <trkpt lat="46.7138" lon="5.64152">
        <ele>517</ele>
        <time>2019-05-19T08:13:33Z</time>
      </trkpt>
      <trkpt lat="46.71386" lon="5.64135">
        <ele>516.9</ele>
        <time>2019-05-19T08:13:36Z</time>
      </trkpt>
      <trkpt lat="46.7139" lon="5.64117">
        <ele>516.7</ele>
        <time>2019-05-19T08:13:39Z</time>
      </trkpt>
      <trkpt lat="46.71392" lon="5.64104">
        <ele>516.7</ele>
        <time>2019-05-19T08:13:41Z</time>
      </trkpt>
      <trkpt lat="46.71394" lon="5.64084">
        <ele>516.4</ele>
        <time>2019-05-19T08:13:44Z</time>
      </trkpt>
      <trkpt lat="46.71394" lon="5.6407">
        <ele>516.3</ele>
        <time>2019-05-19T08:13:46Z</time>
      </trkpt>
      <trkpt lat="46.7139" lon="5.64056">
        <ele>516.1</ele>
        <time>2019-05-19T08:13:49Z</time>
      </trkpt>
      <trkpt lat="46.71387" lon="5.64043">
        <ele>515.5</ele>
        <time>2019-05-19T08:13:53Z</time>
      </trkpt>
      <trkpt lat="46.71394" lon="5.6403">
        <ele>514.9</ele>
        <time>2019-05-19T08:13:56Z</time>
      </trkpt>
      <trkpt lat="46.71399" lon="5.64019">
        <ele>514.4</ele>
        <time>2019-05-19T08:13:58Z</time>
      </trkpt>
      <trkpt lat="46.71406" lon="5.64004">
        <ele>513.4</ele>
        <time>2019-05-19T08:14:01Z</time>
      </trkpt>
      <trkpt lat="46.71411" lon="5.63986">
        <ele>512.2</ele>
        <time>2019-05-19T08:14:04Z</time>
      </trkpt>
      <trkpt lat="46.71414" lon="5.63973">
        <ele>511.5</ele>
        <time>2019-05-19T08:14:06Z</time>
      </trkpt>
      <trkpt lat="46.71422" lon="5.6396">
        <ele>510.4</ele>
        <time>2019-05-19T08:14:09Z</time>
      </trkpt>
      <trkpt lat="46.71429" lon="5.6395">
        <ele>509.4</ele>
        <time>2019-05-19T08:14:12Z</time>
      </trkpt>
      <trkpt lat="46.71438" lon="5.63943">
        <ele>508.5</ele>
        <time>2019-05-19T08:14:15Z</time>
      </trkpt>
      <trkpt lat="46.71447" lon="5.63936">
        <ele>507.5</ele>
        <time>2019-05-19T08:14:18Z</time>
      </trkpt>
      <trkpt lat="46.71449" lon="5.63923">
        <ele>503.9</ele>
        <time>2019-05-19T08:14:32Z</time>
      </trkpt>
      <trkpt lat="46.71451" lon="5.6391">
        <ele>500.9</ele>
        <time>2019-05-19T08:14:42Z</time>
      </trkpt>
      <trkpt lat="46.71456" lon="5.63897">
        <ele>499.7</ele>
        <time>2019-05-19T08:14:46Z</time>
      </trkpt>
      <trkpt lat="46.71465" lon="5.6389">
        <ele>498.9</ele>
        <time>2019-05-19T08:14:49Z</time>
      </trkpt>
      <trkpt lat="46.71476" lon="5.6388">
        <ele>498</ele>
        <time>2019-05-19T08:14:52Z</time>
      </trkpt>
      <trkpt lat="46.71487" lon="5.6387">
        <ele>497.2</ele>
        <time>2019-05-19T08:14:55Z</time>
      </trkpt>
      <trkpt lat="46.71499" lon="5.63861">
        <ele>496.4</ele>
        <time>2019-05-19T08:14:58Z</time>
      </trkpt>
      <trkpt lat="46.71509" lon="5.63853">
        <ele>495.7</ele>
        <time>2019-05-19T08:15:01Z</time>
      </trkpt>
      <trkpt lat="46.71517" lon="5.63849">
        <ele>489.3</ele>
        <time>2019-05-19T08:16:02Z</time>
      </trkpt>
      <trkpt lat="46.71529" lon="5.63851">
        <ele>489</ele>
        <time>2019-05-19T08:16:11Z</time>
      </trkpt>
      <trkpt lat="46.7154" lon="5.6385">
        <ele>489</ele>
        <time>2019-05-19T08:16:14Z</time>
      </trkpt>
      <trkpt lat="46.71551" lon="5.63848">
        <ele>488.8</ele>
        <time>2019-05-19T08:16:17Z</time>
      </trkpt>
      <trkpt lat="46.71562" lon="5.63844">
        <ele>488.6</ele>
        <time>2019-05-19T08:16:20Z</time>
      </trkpt>
      <trkpt lat="46.71573" lon="5.63843">
        <ele>488.3</ele>
        <time>2019-05-19T08:16:23Z</time>
      </trkpt>
      <trkpt lat="46.71584" lon="5.63843">
        <ele>488</ele>
        <time>2019-05-19T08:16:26Z</time>
      </trkpt>
      <trkpt lat="46.71597" lon="5.63845">
        <ele>487.8</ele>
        <time>2019-05-19T08:16:29Z</time>
      </trkpt>
      <trkpt lat="46.71606" lon="5.63845">
        <ele>487.6</ele>
        <time>2019-05-19T08:16:31Z</time>
      </trkpt>
      <trkpt lat="46.71618" lon="5.63844">
        <ele>487.1</ele>
        <time>2019-05-19T08:16:34Z</time>
      </trkpt>
      <trkpt lat="46.7163" lon="5.63842">
        <ele>486.4</ele>
        <time>2019-05-19T08:16:37Z</time>
      </trkpt>
      <trkpt lat="46.7164" lon="5.63846">
        <ele>485.7</ele>
        <time>2019-05-19T08:16:40Z</time>
      </trkpt>
      <trkpt lat="46.71651" lon="5.6385">
        <ele>485.1</ele>
        <time>2019-05-19T08:16:43Z</time>
      </trkpt>
      <trkpt lat="46.71659" lon="5.63855">
        <ele>484.6</ele>
        <time>2019-05-19T08:16:46Z</time>
      </trkpt>
      <trkpt lat="46.71669" lon="5.63857">
        <ele>484.1</ele>
        <time>2019-05-19T08:16:49Z</time>
      </trkpt>
      <trkpt lat="46.71679" lon="5.63861">
        <ele>483.7</ele>
        <time>2019-05-19T08:16:52Z</time>
      </trkpt>
      <trkpt lat="46.71689" lon="5.63865">
        <ele>483.2</ele>
        <time>2019-05-19T08:16:56Z</time>
      </trkpt>
      <trkpt lat="46.71699" lon="5.63865">
        <ele>483</ele>
        <time>2019-05-19T08:17:00Z</time>
      </trkpt>
      <trkpt lat="46.7171" lon="5.63864">
        <ele>482.7</ele>
        <time>2019-05-19T08:17:04Z</time>
      </trkpt>
      <trkpt lat="46.7172" lon="5.63862">
        <ele>482.6</ele>
        <time>2019-05-19T08:17:07Z</time>
      </trkpt>
      <trkpt lat="46.7173" lon="5.63864">
        <ele>482.3</ele>
        <time>2019-05-19T08:17:13Z</time>
      </trkpt>
      <trkpt lat="46.7174" lon="5.63865">
        <ele>482.1</ele>
        <time>2019-05-19T08:17:17Z</time>
      </trkpt>
      <trkpt lat="46.71749" lon="5.63866">
        <ele>481.7</ele>
        <time>2019-05-19T08:17:23Z</time>
      </trkpt>
      <trkpt lat="46.7176" lon="5.63867">
        <ele>481.3</ele>
        <time>2019-05-19T08:17:28Z</time>
      </trkpt>
      <trkpt lat="46.7177" lon="5.63869">
        <ele>480.8</ele>
        <time>2019-05-19T08:17:32Z</time>
      </trkpt>
      <trkpt lat="46.71781" lon="5.63871">
        <ele>480.3</ele>
        <time>2019-05-19T08:17:36Z</time>
      </trkpt>
      <trkpt lat="46.7179" lon="5.63872">
        <ele>479.9</ele>
        <time>2019-05-19T08:17:39Z</time>
      </trkpt>
      <trkpt lat="46.71801" lon="5.63876">
        <ele>479.3</ele>
        <time>2019-05-19T08:17:44Z</time>
      </trkpt>
      <trkpt lat="46.71811" lon="5.63875">
        <ele>478.8</ele>
        <time>2019-05-19T08:17:48Z</time>
      </trkpt>
      <trkpt lat="46.71821" lon="5.63882">
        <ele>478.2</ele>
        <time>2019-05-19T08:17:53Z</time>
      </trkpt>
      <trkpt lat="46.7183" lon="5.6389">
        <ele>477.8</ele>
        <time>2019-05-19T08:17:58Z</time>
      </trkpt>
      <trkpt lat="46.71838" lon="5.63893">
        <ele>477.4</ele>
        <time>2019-05-19T08:18:02Z</time>
      </trkpt>
      <trkpt lat="46.7185" lon="5.63896">
        <ele>477.2</ele>
        <time>2019-05-19T08:18:06Z</time>
      </trkpt>
      <trkpt lat="46.71859" lon="5.63899">
        <ele>476.9</ele>
        <time>2019-05-19T08:18:09Z</time>
      </trkpt>
      <trkpt lat="46.71868" lon="5.63901">
        <ele>476.4</ele>
        <time>2019-05-19T08:18:13Z</time>
      </trkpt>
      <trkpt lat="46.71877" lon="5.63905">
        <ele>476.2</ele>
        <time>2019-05-19T08:18:16Z</time>
      </trkpt>
      <trkpt lat="46.71887" lon="5.6391">
        <ele>475.9</ele>
        <time>2019-05-19T08:18:20Z</time>
      </trkpt>
      <trkpt lat="46.71897" lon="5.63915">
        <ele>475.6</ele>
        <time>2019-05-19T08:18:24Z</time>
      </trkpt>
      <trkpt lat="46.71906" lon="5.6392">
        <ele>475</ele>
        <time>2019-05-19T08:18:48Z</time>
      </trkpt>
      <trkpt lat="46.71917" lon="5.63922">
        <ele>474.9</ele>
        <time>2019-05-19T08:18:51Z</time>
      </trkpt>
      <trkpt lat="46.71927" lon="5.63924">
        <ele>474.8</ele>
        <time>2019-05-19T08:18:54Z</time>
      </trkpt>
      <trkpt lat="46.71937" lon="5.63921">
        <ele>474.6</ele>
        <time>2019-05-19T08:18:57Z</time>
      </trkpt>
      <trkpt lat="46.71948" lon="5.63923">
        <ele>474.4</ele>
        <time>2019-05-19T08:19:00Z</time>
      </trkpt>
      <trkpt lat="46.71958" lon="5.63925">
        <ele>474.2</ele>
        <time>2019-05-19T08:19:03Z</time>
      </trkpt>
      <trkpt lat="46.71967" lon="5.63931">
        <ele>474.1</ele>
        <time>2019-05-19T08:19:06Z</time>
      </trkpt>
      <trkpt lat="46.71978" lon="5.63938">
        <ele>473.9</ele>
        <time>2019-05-19T08:19:10Z</time>
      </trkpt>
      <trkpt lat="46.71987" lon="5.63942">
        <ele>473.8</ele>
        <time>2019-05-19T08:19:13Z</time>
      </trkpt>
      <trkpt lat="46.71998" lon="5.63943">
        <ele>473.6</ele>
        <time>2019-05-19T08:19:16Z</time>
      </trkpt>
      <trkpt lat="46.72007" lon="5.63947">
        <ele>473.4</ele>
        <time>2019-05-19T08:19:19Z</time>
      </trkpt>
      <trkpt lat="46.72015" lon="5.63952">
        <ele>473.3</ele>
        <time>2019-05-19T08:19:22Z</time>
      </trkpt>
      <trkpt lat="46.72025" lon="5.6396">
        <ele>473.4</ele>
        <time>2019-05-19T08:19:26Z</time>
      </trkpt>
      <trkpt lat="46.72037" lon="5.63964">
        <ele>473.4</ele>
        <time>2019-05-19T08:19:29Z</time>
      </trkpt>
      <trkpt lat="46.72047" lon="5.63965">
        <ele>473.2</ele>
        <time>2019-05-19T08:19:32Z</time>
      </trkpt>
      <trkpt lat="46.72052" lon="5.63953">
        <ele>472</ele>
        <time>2019-05-19T08:19:38Z</time>
      </trkpt>
      <trkpt lat="46.72042" lon="5.6394">
        <ele>470.4</ele>
        <time>2019-05-19T08:19:42Z</time>
      </trkpt>
      <trkpt lat="46.72033" lon="5.63932">
        <ele>469.4</ele>
        <time>2019-05-19T08:19:44Z</time>
      </trkpt>
      <trkpt lat="46.72024" lon="5.63922">
        <ele>468.2</ele>
        <time>2019-05-19T08:19:46Z</time>
      </trkpt>
      <trkpt lat="46.72014" lon="5.63912">
        <ele>466.8</ele>
        <time>2019-05-19T08:19:48Z</time>
      </trkpt>
      <trkpt lat="46.72002" lon="5.63901">
        <ele>465.3</ele>
        <time>2019-05-19T08:19:50Z</time>
      </trkpt>
      <trkpt lat="46.71991" lon="5.63891">
        <ele>463.7</ele>
        <time>2019-05-19T08:19:52Z</time>
      </trkpt>
      <trkpt lat="46.7198" lon="5.63881">
        <ele>462</ele>
        <time>2019-05-19T08:19:54Z</time>
      </trkpt>
      <trkpt lat="46.71968" lon="5.63871">
        <ele>460.2</ele>
        <time>2019-05-19T08:19:56Z</time>
      </trkpt>
      <trkpt lat="46.71959" lon="5.63862">
        <ele>458.3</ele>
        <time>2019-05-19T08:19:58Z</time>
      </trkpt>
      <trkpt lat="46.71951" lon="5.63853">
        <ele>456.5</ele>
        <time>2019-05-19T08:20:00Z</time>
      </trkpt>
      <trkpt lat="46.71939" lon="5.63846">
        <ele>453.6</ele>
        <time>2019-05-19T08:20:03Z</time>
      </trkpt>
      <trkpt lat="46.71927" lon="5.63835">
        <ele>450.5</ele>
        <time>2019-05-19T08:20:06Z</time>
      </trkpt>
      <trkpt lat="46.71918" lon="5.63828">
        <ele>448.2</ele>
        <time>2019-05-19T08:20:08Z</time>
      </trkpt>
      <trkpt lat="46.71908" lon="5.6382">
        <ele>446</ele>
        <time>2019-05-19T08:20:10Z</time>
      </trkpt>
      <trkpt lat="46.719" lon="5.63812">
        <ele>443.8</ele>
        <time>2019-05-19T08:20:12Z</time>
      </trkpt>
      <trkpt lat="46.71891" lon="5.63802">
        <ele>441.5</ele>
        <time>2019-05-19T08:20:14Z</time>
      </trkpt>
      <trkpt lat="46.71883" lon="5.63792">
        <ele>439</ele>
        <time>2019-05-19T08:20:16Z</time>
      </trkpt>
      <trkpt lat="46.71874" lon="5.63782">
        <ele>436.4</ele>
        <time>2019-05-19T08:20:18Z</time>
      </trkpt>
      <trkpt lat="46.71863" lon="5.63771">
        <ele>433.9</ele>
        <time>2019-05-19T08:20:20Z</time>
      </trkpt>
      <trkpt lat="46.71851" lon="5.63761">
        <ele>431.4</ele>
        <time>2019-05-19T08:20:22Z</time>
      </trkpt>
      <trkpt lat="46.71837" lon="5.6375">
        <ele>428.9</ele>
        <time>2019-05-19T08:20:24Z</time>
      </trkpt>
      <trkpt lat="46.71826" lon="5.63741">
        <ele>426.3</ele>
        <time>2019-05-19T08:20:26Z</time>
      </trkpt>
      <trkpt lat="46.71816" lon="5.63734">
        <ele>423.7</ele>
        <time>2019-05-19T08:20:28Z</time>
      </trkpt>
      <trkpt lat="46.71807" lon="5.63727">
        <ele>421.3</ele>
        <time>2019-05-19T08:20:30Z</time>
      </trkpt>
      <trkpt lat="46.71799" lon="5.63721">
        <ele>418.8</ele>
        <time>2019-05-19T08:20:32Z</time>
      </trkpt>
      <trkpt lat="46.71789" lon="5.63712">
        <ele>416.1</ele>
        <time>2019-05-19T08:20:34Z</time>
      </trkpt>
      <trkpt lat="46.71778" lon="5.63702">
        <ele>413.4</ele>
        <time>2019-05-19T08:20:36Z</time>
      </trkpt>
      <trkpt lat="46.71764" lon="5.63693">
        <ele>410.7</ele>
        <time>2019-05-19T08:20:38Z</time>
      </trkpt>
      <trkpt lat="46.71751" lon="5.63686">
        <ele>408.1</ele>
        <time>2019-05-19T08:20:40Z</time>
      </trkpt>
      <trkpt lat="46.7174" lon="5.63678">
        <ele>405.5</ele>
        <time>2019-05-19T08:20:42Z</time>
      </trkpt>
      <trkpt lat="46.71729" lon="5.6367">
        <ele>402.8</ele>
        <time>2019-05-19T08:20:44Z</time>
      </trkpt>
      <trkpt lat="46.7172" lon="5.63665">
        <ele>400.2</ele>
        <time>2019-05-19T08:20:46Z</time>
      </trkpt>
      <trkpt lat="46.71711" lon="5.63658">
        <ele>397.6</ele>
        <time>2019-05-19T08:20:48Z</time>
      </trkpt>
      <trkpt lat="46.717" lon="5.6365">
        <ele>393.9</ele>
        <time>2019-05-19T08:20:51Z</time>
      </trkpt>
      <trkpt lat="46.71694" lon="5.63638">
        <ele>386.5</ele>
        <time>2019-05-19T08:20:58Z</time>
      </trkpt>
      <trkpt lat="46.71685" lon="5.63622">
        <ele>383.8</ele>
        <time>2019-05-19T08:21:01Z</time>
      </trkpt>
      <trkpt lat="46.71678" lon="5.63614">
        <ele>381.9</ele>
        <time>2019-05-19T08:21:03Z</time>
      </trkpt>
      <trkpt lat="46.71669" lon="5.63607">
        <ele>380.1</ele>
        <time>2019-05-19T08:21:05Z</time>
      </trkpt>
      <trkpt lat="46.71658" lon="5.63603">
        <ele>378.1</ele>
        <time>2019-05-19T08:21:07Z</time>
      </trkpt>
      <trkpt lat="46.71649" lon="5.636">
        <ele>376.3</ele>
        <time>2019-05-19T08:21:09Z</time>
      </trkpt>
      <trkpt lat="46.7164" lon="5.63598">
        <ele>365.1</ele>
        <time>2019-05-19T08:21:27Z</time>
      </trkpt>
      <trkpt lat="46.71627" lon="5.63589">
        <ele>364.1</ele>
        <time>2019-05-19T08:21:30Z</time>
      </trkpt>
      <trkpt lat="46.71618" lon="5.63582">
        <ele>363.1</ele>
        <time>2019-05-19T08:21:32Z</time>
      </trkpt>
      <trkpt lat="46.71608" lon="5.63576">
        <ele>362</ele>
        <time>2019-05-19T08:21:34Z</time>
      </trkpt>
      <trkpt lat="46.71597" lon="5.63569">
        <ele>360.8</ele>
        <time>2019-05-19T08:21:36Z</time>
      </trkpt>
      <trkpt lat="46.71585" lon="5.63562">
        <ele>359.5</ele>
        <time>2019-05-19T08:21:38Z</time>
      </trkpt>
      <trkpt lat="46.7157" lon="5.6356">
        <ele>357.9</ele>
        <time>2019-05-19T08:21:40Z</time>
      </trkpt>
      <trkpt lat="46.71558" lon="5.63558">
        <ele>356.3</ele>
        <time>2019-05-19T08:21:42Z</time>
      </trkpt>
      <trkpt lat="46.71549" lon="5.63554">
        <ele>353.9</ele>
        <time>2019-05-19T08:21:45Z</time>
      </trkpt>
      <trkpt lat="46.71543" lon="5.6354">
        <ele>350.4</ele>
        <time>2019-05-19T08:21:49Z</time>
      </trkpt>
      <trkpt lat="46.71544" lon="5.63523">
        <ele>347.8</ele>
        <time>2019-05-19T08:21:52Z</time>
      </trkpt>
      <trkpt lat="46.71545" lon="5.63508">
        <ele>345.2</ele>
        <time>2019-05-19T08:21:55Z</time>
      </trkpt>
      <trkpt lat="46.71536" lon="5.63501">
        <ele>341.4</ele>
        <time>2019-05-19T08:22:00Z</time>
      </trkpt>
      <trkpt lat="46.71523" lon="5.63506">
        <ele>339.4</ele>
        <time>2019-05-19T08:22:03Z</time>
      </trkpt>
      <trkpt lat="46.71513" lon="5.63511">
        <ele>338.1</ele>
        <time>2019-05-19T08:22:05Z</time>
      </trkpt>
      <trkpt lat="46.71501" lon="5.63514">
        <ele>337</ele>
        <time>2019-05-19T08:22:07Z</time>
      </trkpt>
      <trkpt lat="46.71488" lon="5.63519">
        <ele>335.8</ele>
        <time>2019-05-19T08:22:09Z</time>
      </trkpt>
      <trkpt lat="46.71475" lon="5.63526">
        <ele>334.8</ele>
        <time>2019-05-19T08:22:11Z</time>
      </trkpt>
      <trkpt lat="46.71466" lon="5.63536">
        <ele>333.8</ele>
        <time>2019-05-19T08:22:13Z</time>
      </trkpt>
      <trkpt lat="46.71457" lon="5.63545">
        <ele>332.9</ele>
        <time>2019-05-19T08:22:15Z</time>
      </trkpt>
      <trkpt lat="46.7145" lon="5.63555">
        <ele>331.9</ele>
        <time>2019-05-19T08:22:18Z</time>
      </trkpt>
      <trkpt lat="46.71442" lon="5.63566">
        <ele>331.1</ele>
        <time>2019-05-19T08:22:21Z</time>
      </trkpt>
      <trkpt lat="46.71434" lon="5.63578">
        <ele>330.5</ele>
        <time>2019-05-19T08:22:24Z</time>
      </trkpt>
      <trkpt lat="46.71426" lon="5.63589">
        <ele>330.2</ele>
        <time>2019-05-19T08:22:27Z</time>
      </trkpt>
      <trkpt lat="46.71419" lon="5.636">
        <ele>329.9</ele>
        <time>2019-05-19T08:22:30Z</time>
      </trkpt>
      <trkpt lat="46.71411" lon="5.6361">
        <ele>330</ele>
        <time>2019-05-19T08:22:33Z</time>
      </trkpt>
      <trkpt lat="46.71402" lon="5.6362">
        <ele>330.1</ele>
        <time>2019-05-19T08:22:36Z</time>
      </trkpt>
      <trkpt lat="46.71392" lon="5.63629">
        <ele>330.1</ele>
        <time>2019-05-19T08:22:39Z</time>
      </trkpt>
      <trkpt lat="46.7138" lon="5.63639">
        <ele>330.1</ele>
        <time>2019-05-19T08:22:42Z</time>
      </trkpt>
      <trkpt lat="46.71371" lon="5.63646">
        <ele>330.1</ele>
        <time>2019-05-19T08:22:44Z</time>
      </trkpt>
      <trkpt lat="46.71361" lon="5.63654">
        <ele>330.1</ele>
        <time>2019-05-19T08:22:46Z</time>
      </trkpt>
      <trkpt lat="46.71352" lon="5.63664">
        <ele>330.1</ele>
        <time>2019-05-19T08:22:48Z</time>
      </trkpt>
      <trkpt lat="46.71343" lon="5.63675">
        <ele>330.1</ele>
        <time>2019-05-19T08:22:50Z</time>
      </trkpt>
      <trkpt lat="46.71336" lon="5.63688">
        <ele>329.9</ele>
        <time>2019-05-19T08:22:52Z</time>
      </trkpt>
      <trkpt lat="46.71332" lon="5.63701">
        <ele>329.8</ele>
        <time>2019-05-19T08:22:54Z</time>
      </trkpt>
      <trkpt lat="46.71331" lon="5.63718">
        <ele>329.6</ele>
        <time>2019-05-19T08:22:57Z</time>
      </trkpt>
      <trkpt lat="46.71333" lon="5.63731">
        <ele>329.4</ele>
        <time>2019-05-19T08:23:01Z</time>
      </trkpt>
      <trkpt lat="46.71335" lon="5.63744">
        <ele>329.5</ele>
        <time>2019-05-19T08:23:06Z</time>
      </trkpt>
      <trkpt lat="46.71333" lon="5.63758">
        <ele>329.7</ele>
        <time>2019-05-19T08:23:11Z</time>
      </trkpt>
      <trkpt lat="46.71332" lon="5.63773">
        <ele>330.1</ele>
        <time>2019-05-19T08:23:15Z</time>
      </trkpt>
      <trkpt lat="46.71329" lon="5.63787">
        <ele>330.5</ele>
        <time>2019-05-19T08:23:20Z</time>
      </trkpt>
      <trkpt lat="46.71323" lon="5.638">
        <ele>331.4</ele>
        <time>2019-05-19T08:23:27Z</time>
      </trkpt>
      <trkpt lat="46.71322" lon="5.63815">
        <ele>332</ele>
        <time>2019-05-19T08:23:32Z</time>
      </trkpt>
      <trkpt lat="46.7132" lon="5.63828">
        <ele>332.6</ele>
        <time>2019-05-19T08:23:37Z</time>
      </trkpt>
      <trkpt lat="46.71321" lon="5.63841">
        <ele>331.8</ele>
        <time>2019-05-19T08:27:52Z</time>
      </trkpt>
      <trkpt lat="46.71317" lon="5.63857">
        <ele>331.8</ele>
        <time>2019-05-19T08:27:56Z</time>
      </trkpt>
      <trkpt lat="46.71315" lon="5.63872">
        <ele>331.9</ele>
        <time>2019-05-19T08:28:00Z</time>
      </trkpt>
      <trkpt lat="46.71313" lon="5.63886">
        <ele>332</ele>
        <time>2019-05-19T08:28:04Z</time>
      </trkpt>
      <trkpt lat="46.7131" lon="5.63899">
        <ele>332.5</ele>
        <time>2019-05-19T08:28:08Z</time>
      </trkpt>
      <trkpt lat="46.71308" lon="5.63912">
        <ele>333.1</ele>
        <time>2019-05-19T08:28:12Z</time>
      </trkpt>
      <trkpt lat="46.71304" lon="5.63926">
        <ele>333.9</ele>
        <time>2019-05-19T08:28:16Z</time>
      </trkpt>
      <trkpt lat="46.713" lon="5.63941">
        <ele>334.6</ele>
        <time>2019-05-19T08:28:20Z</time>
      </trkpt>
      <trkpt lat="46.71298" lon="5.63955">
        <ele>335.3</ele>
        <time>2019-05-19T08:28:24Z</time>
      </trkpt>
      <trkpt lat="46.71295" lon="5.63969">
        <ele>336</ele>
        <time>2019-05-19T08:28:28Z</time>
      </trkpt>
      <trkpt lat="46.71293" lon="5.63983">
        <ele>336.8</ele>
        <time>2019-05-19T08:28:32Z</time>
      </trkpt>
      <trkpt lat="46.71291" lon="5.63997">
        <ele>337.6</ele>
        <time>2019-05-19T08:28:36Z</time>
      </trkpt>
      <trkpt lat="46.71289" lon="5.6401">
        <ele>338.5</ele>
        <time>2019-05-19T08:28:40Z</time>
      </trkpt>
      <trkpt lat="46.71287" lon="5.64024">
        <ele>339.5</ele>
        <time>2019-05-19T08:28:44Z</time>
      </trkpt>
      <trkpt lat="46.71285" lon="5.64037">
        <ele>340.4</ele>
        <time>2019-05-19T08:28:48Z</time>
      </trkpt>
      <trkpt lat="46.71282" lon="5.64053">
        <ele>341.8</ele>
        <time>2019-05-19T08:28:53Z</time>
      </trkpt>
      <trkpt lat="46.71281" lon="5.64068">
        <ele>343.1</ele>
        <time>2019-05-19T08:28:58Z</time>
      </trkpt>
      <trkpt lat="46.7128" lon="5.64083">
        <ele>344.5</ele>
        <time>2019-05-19T08:29:03Z</time>
      </trkpt>
      <trkpt lat="46.71279" lon="5.64099">
        <ele>345.6</ele>
        <time>2019-05-19T08:29:08Z</time>
      </trkpt>
      <trkpt lat="46.71278" lon="5.64113">
        <ele>346.9</ele>
        <time>2019-05-19T08:29:13Z</time>
      </trkpt>
      <trkpt lat="46.71276" lon="5.64127">
        <ele>348.3</ele>
        <time>2019-05-19T08:29:18Z</time>
      </trkpt>
      <trkpt lat="46.71273" lon="5.64141">
        <ele>349.7</ele>
        <time>2019-05-19T08:29:23Z</time>
      </trkpt>
      <trkpt lat="46.71272" lon="5.64157">
        <ele>351.3</ele>
        <time>2019-05-19T08:29:29Z</time>
      </trkpt>
      <trkpt lat="46.71271" lon="5.6417">
        <ele>352.6</ele>
        <time>2019-05-19T08:29:34Z</time>
      </trkpt>
      <trkpt lat="46.71269" lon="5.64183">
        <ele>353.9</ele>
        <time>2019-05-19T08:29:39Z</time>
      </trkpt>
      <trkpt lat="46.7127" lon="5.64197">
        <ele>355.2</ele>
        <time>2019-05-19T08:29:44Z</time>
      </trkpt>
      <trkpt lat="46.71269" lon="5.64211">
        <ele>356.4</ele>
        <time>2019-05-19T08:29:49Z</time>
      </trkpt>
      <trkpt lat="46.71269" lon="5.64225">
        <ele>357.6</ele>
        <time>2019-05-19T08:29:54Z</time>
      </trkpt>
      <trkpt lat="46.71268" lon="5.64239">
        <ele>358.6</ele>
        <time>2019-05-19T08:29:59Z</time>
      </trkpt>
      <trkpt lat="46.71268" lon="5.64254">
        <ele>359.9</ele>
        <time>2019-05-19T08:30:04Z</time>
      </trkpt>
      <trkpt lat="46.71267" lon="5.64269">
        <ele>361.1</ele>
        <time>2019-05-19T08:30:09Z</time>
      </trkpt>
      <trkpt lat="46.71267" lon="5.64283">
        <ele>362</ele>
        <time>2019-05-19T08:30:13Z</time>
      </trkpt>
      <trkpt lat="46.71266" lon="5.64299">
        <ele>363</ele>
        <time>2019-05-19T08:30:18Z</time>
      </trkpt>
      <trkpt lat="46.71263" lon="5.64315">
        <ele>364</ele>
        <time>2019-05-19T08:30:23Z</time>
      </trkpt>
      <trkpt lat="46.71261" lon="5.64327">
        <ele>364.8</ele>
        <time>2019-05-19T08:30:27Z</time>
      </trkpt>
      <trkpt lat="46.71258" lon="5.64341">
        <ele>365.6</ele>
        <time>2019-05-19T08:30:31Z</time>
      </trkpt>
      <trkpt lat="46.71255" lon="5.64354">
        <ele>366.3</ele>
        <time>2019-05-19T08:30:35Z</time>
      </trkpt>
      <trkpt lat="46.71253" lon="5.64369">
        <ele>367.3</ele>
        <time>2019-05-19T08:30:40Z</time>
      </trkpt>
      <trkpt lat="46.71248" lon="5.64382">
        <ele>368</ele>
        <time>2019-05-19T08:30:44Z</time>
      </trkpt>
      <trkpt lat="46.71244" lon="5.64396">
        <ele>368.6</ele>
        <time>2019-05-19T08:30:48Z</time>
      </trkpt>
      <trkpt lat="46.71241" lon="5.64409">
        <ele>369.4</ele>
        <time>2019-05-19T08:30:52Z</time>
      </trkpt>
      <trkpt lat="46.71236" lon="5.64422">
        <ele>370.1</ele>
        <time>2019-05-19T08:30:56Z</time>
      </trkpt>
      <trkpt lat="46.71231" lon="5.64435">
        <ele>370.9</ele>
        <time>2019-05-19T08:31:00Z</time>
      </trkpt>
      <trkpt lat="46.71226" lon="5.64448">
        <ele>371.7</ele>
        <time>2019-05-19T08:31:04Z</time>
      </trkpt>
      <trkpt lat="46.71223" lon="5.64461">
        <ele>372.5</ele>
        <time>2019-05-19T08:31:08Z</time>
      </trkpt>
      <trkpt lat="46.71221" lon="5.64476">
        <ele>373.3</ele>
        <time>2019-05-19T08:31:12Z</time>
      </trkpt>
      <trkpt lat="46.7122" lon="5.64491">
        <ele>374.4</ele>
        <time>2019-05-19T08:31:17Z</time>
      </trkpt>
      <trkpt lat="46.7122" lon="5.64505">
        <ele>375.3</ele>
        <time>2019-05-19T08:31:21Z</time>
      </trkpt>
      <trkpt lat="46.71218" lon="5.64522">
        <ele>376.7</ele>
        <time>2019-05-19T08:31:26Z</time>
      </trkpt>
      <trkpt lat="46.71214" lon="5.64535">
        <ele>377.6</ele>
        <time>2019-05-19T08:31:30Z</time>
      </trkpt>
      <trkpt lat="46.71211" lon="5.64548">
        <ele>378.2</ele>
        <time>2019-05-19T08:31:34Z</time>
      </trkpt>
      <trkpt lat="46.71205" lon="5.64568">
        <ele>378.6</ele>
        <time>2019-05-19T08:31:37Z</time>
      </trkpt>
      <trkpt lat="46.71197" lon="5.64586">
        <ele>378.6</ele>
        <time>2019-05-19T08:31:39Z</time>
      </trkpt>
      <trkpt lat="46.71188" lon="5.64606">
        <ele>378.5</ele>
        <time>2019-05-19T08:31:41Z</time>
      </trkpt>
      <trkpt lat="46.71177" lon="5.64626">
        <ele>378.3</ele>
        <time>2019-05-19T08:31:43Z</time>
      </trkpt>
      <trkpt lat="46.71165" lon="5.64644">
        <ele>378</ele>
        <time>2019-05-19T08:31:45Z</time>
      </trkpt>
      <trkpt lat="46.71159" lon="5.64653">
        <ele>377.7</ele>
        <time>2019-05-19T08:31:46Z</time>
      </trkpt>
      <trkpt lat="46.71152" lon="5.64663">
        <ele>377.4</ele>
        <time>2019-05-19T08:31:47Z</time>
      </trkpt>
      <trkpt lat="46.71144" lon="5.64672">
        <ele>377</ele>
        <time>2019-05-19T08:31:48Z</time>
      </trkpt>
      <trkpt lat="46.71136" lon="5.64682">
        <ele>376.7</ele>
        <time>2019-05-19T08:31:49Z</time>
      </trkpt>
      <trkpt lat="46.71127" lon="5.64692">
        <ele>376.3</ele>
        <time>2019-05-19T08:31:50Z</time>
      </trkpt>
      <trkpt lat="46.71119" lon="5.647">
        <ele>375.9</ele>
        <time>2019-05-19T08:31:51Z</time>
      </trkpt>
      <trkpt lat="46.7111" lon="5.64708">
        <ele>375.5</ele>
        <time>2019-05-19T08:31:52Z</time>
      </trkpt>
      <trkpt lat="46.71101" lon="5.64717">
        <ele>374.9</ele>
        <time>2019-05-19T08:31:53Z</time>
      </trkpt>
      <trkpt lat="46.71093" lon="5.64727">
        <ele>374.4</ele>
        <time>2019-05-19T08:31:54Z</time>
      </trkpt>
      <trkpt lat="46.71085" lon="5.64738">
        <ele>373.9</ele>
        <time>2019-05-19T08:31:55Z</time>
      </trkpt>
      <trkpt lat="46.71076" lon="5.64748">
        <ele>373.4</ele>
        <time>2019-05-19T08:31:56Z</time>
      </trkpt>
      <trkpt lat="46.71068" lon="5.64758">
        <ele>372.9</ele>
        <time>2019-05-19T08:31:57Z</time>
      </trkpt>
      <trkpt lat="46.71059" lon="5.64767">
        <ele>372.3</ele>
        <time>2019-05-19T08:31:58Z</time>
      </trkpt>
      <trkpt lat="46.71051" lon="5.64777">
        <ele>371.7</ele>
        <time>2019-05-19T08:31:59Z</time>
      </trkpt>
      <trkpt lat="46.71042" lon="5.64785">
        <ele>371</ele>
        <time>2019-05-19T08:32:00Z</time>
      </trkpt>
      <trkpt lat="46.71033" lon="5.64794">
        <ele>370.4</ele>
        <time>2019-05-19T08:32:01Z</time>
      </trkpt>
      <trkpt lat="46.71023" lon="5.648">
        <ele>369.7</ele>
        <time>2019-05-19T08:32:02Z</time>
      </trkpt>
      <trkpt lat="46.71012" lon="5.64806">
        <ele>369.1</ele>
        <time>2019-05-19T08:32:03Z</time>
      </trkpt>
      <trkpt lat="46.71002" lon="5.6481">
        <ele>368.4</ele>
        <time>2019-05-19T08:32:04Z</time>
      </trkpt>
      <trkpt lat="46.70992" lon="5.64813">
        <ele>367.6</ele>
        <time>2019-05-19T08:32:05Z</time>
      </trkpt>
      <trkpt lat="46.70982" lon="5.64815">
        <ele>366.9</ele>
        <time>2019-05-19T08:32:06Z</time>
      </trkpt>
      <trkpt lat="46.70967" lon="5.64814">
        <ele>365.3</ele>
        <time>2019-05-19T08:32:08Z</time>
      </trkpt>
      <trkpt lat="46.70978" lon="5.64812">
        <ele>356.5</ele>
        <time>2019-05-19T08:32:25Z</time>
      </trkpt>
      <trkpt lat="46.7099" lon="5.64806">
        <ele>355.3</ele>
        <time>2019-05-19T08:32:28Z</time>
      </trkpt>
      <trkpt lat="46.70998" lon="5.64797">
        <ele>354.4</ele>
        <time>2019-05-19T08:32:30Z</time>
      </trkpt>
      <trkpt lat="46.71005" lon="5.64787">
        <ele>353.6</ele>
        <time>2019-05-19T08:32:32Z</time>
      </trkpt>
      <trkpt lat="46.71012" lon="5.64775">
        <ele>352.7</ele>
        <time>2019-05-19T08:32:34Z</time>
      </trkpt>
      <trkpt lat="46.71019" lon="5.64762">
        <ele>351.6</ele>
        <time>2019-05-19T08:32:36Z</time>
      </trkpt>
      <trkpt lat="46.71024" lon="5.6475">
        <ele>350.6</ele>
        <time>2019-05-19T08:32:38Z</time>
      </trkpt>
      <trkpt lat="46.71032" lon="5.64735">
        <ele>341.8</ele>
        <time>2019-05-19T08:33:20Z</time>
      </trkpt>
      <trkpt lat="46.71037" lon="5.6472">
        <ele>340.8</ele>
        <time>2019-05-19T08:33:45Z</time>
      </trkpt>
      <trkpt lat="46.7104" lon="5.64702">
        <ele>340.5</ele>
        <time>2019-05-19T08:33:48Z</time>
      </trkpt>
      <trkpt lat="46.71043" lon="5.64683">
        <ele>339.7</ele>
        <time>2019-05-19T08:33:51Z</time>
      </trkpt>
      <trkpt lat="46.71046" lon="5.64667">
        <ele>338.9</ele>
        <time>2019-05-19T08:33:54Z</time>
      </trkpt>
      <trkpt lat="46.71048" lon="5.6465">
        <ele>337.4</ele>
        <time>2019-05-19T08:33:59Z</time>
      </trkpt>
      <trkpt lat="46.71047" lon="5.64636">
        <ele>336.2</ele>
        <time>2019-05-19T08:34:03Z</time>
      </trkpt>
      <trkpt lat="46.71052" lon="5.64625">
        <ele>335.2</ele>
        <time>2019-05-19T08:34:06Z</time>
      </trkpt>
      <trkpt lat="46.7105" lon="5.64612">
        <ele>333.4</ele>
        <time>2019-05-19T08:34:11Z</time>
      </trkpt>
      <trkpt lat="46.71041" lon="5.64606">
        <ele>331.9</ele>
        <time>2019-05-19T08:34:15Z</time>
      </trkpt>
      <trkpt lat="46.71031" lon="5.64602">
        <ele>330.5</ele>
        <time>2019-05-19T08:34:18Z</time>
      </trkpt>
      <trkpt lat="46.71022" lon="5.64604">
        <ele>329.1</ele>
        <time>2019-05-19T08:34:21Z</time>
      </trkpt>
      <trkpt lat="46.71013" lon="5.64609">
        <ele>327.4</ele>
        <time>2019-05-19T08:34:24Z</time>
      </trkpt>
      <trkpt lat="46.71003" lon="5.64617">
        <ele>325.8</ele>
        <time>2019-05-19T08:34:27Z</time>
      </trkpt>
      <trkpt lat="46.70997" lon="5.6463">
        <ele>324.3</ele>
        <time>2019-05-19T08:34:30Z</time>
      </trkpt>
      <trkpt lat="46.70989" lon="5.64637">
        <ele>322.7</ele>
        <time>2019-05-19T08:34:34Z</time>
      </trkpt>
      <trkpt lat="46.70985" lon="5.64625">
        <ele>321.5</ele>
        <time>2019-05-19T08:34:37Z</time>
      </trkpt>
      <trkpt lat="46.70979" lon="5.64613">
        <ele>320.4</ele>
        <time>2019-05-19T08:34:40Z</time>
      </trkpt>
      <trkpt lat="46.70972" lon="5.64601">
        <ele>318.6</ele>
        <time>2019-05-19T08:34:44Z</time>
      </trkpt>
      <trkpt lat="46.70967" lon="5.64589">
        <ele>316.9</ele>
        <time>2019-05-19T08:34:48Z</time>
      </trkpt>
      <trkpt lat="46.70971" lon="5.64574">
        <ele>315.2</ele>
        <time>2019-05-19T08:34:52Z</time>
      </trkpt>
      <trkpt lat="46.70977" lon="5.64561">
        <ele>313.7</ele>
        <time>2019-05-19T08:34:56Z</time>
      </trkpt>
      <trkpt lat="46.70979" lon="5.64548">
        <ele>312.3</ele>
        <time>2019-05-19T08:35:00Z</time>
      </trkpt>
      <trkpt lat="46.70979" lon="5.64529">
        <ele>311</ele>
        <time>2019-05-19T08:35:03Z</time>
      </trkpt>
      <trkpt lat="46.70978" lon="5.64514">
        <ele>310.1</ele>
        <time>2019-05-19T08:35:05Z</time>
      </trkpt>
      <trkpt lat="46.70974" lon="5.64502">
        <ele>309</ele>
        <time>2019-05-19T08:35:08Z</time>
      </trkpt>
      <trkpt lat="46.70976" lon="5.64489">
        <ele>307.4</ele>
        <time>2019-05-19T08:35:14Z</time>
      </trkpt>
      <trkpt lat="46.70982" lon="5.64478">
        <ele>306.9</ele>
        <time>2019-05-19T08:35:19Z</time>
      </trkpt>
      <trkpt lat="46.7099" lon="5.64469">
        <ele>306.8</ele>
        <time>2019-05-19T08:35:26Z</time>
      </trkpt>
      <trkpt lat="46.70998" lon="5.6446">
        <ele>307.2</ele>
        <time>2019-05-19T08:35:33Z</time>
      </trkpt>
      <trkpt lat="46.71006" lon="5.6445">
        <ele>307.6</ele>
        <time>2019-05-19T08:35:37Z</time>
      </trkpt>
      <trkpt lat="46.71015" lon="5.64442">
        <ele>307.9</ele>
        <time>2019-05-19T08:35:41Z</time>
      </trkpt>
      <trkpt lat="46.71023" lon="5.64431">
        <ele>308.1</ele>
        <time>2019-05-19T08:35:45Z</time>
      </trkpt>
      <trkpt lat="46.7103" lon="5.64421">
        <ele>308.2</ele>
        <time>2019-05-19T08:35:48Z</time>
      </trkpt>
      <trkpt lat="46.71038" lon="5.6441">
        <ele>308.3</ele>
        <time>2019-05-19T08:35:51Z</time>
      </trkpt>
      <trkpt lat="46.71045" lon="5.64398">
        <ele>308.4</ele>
        <time>2019-05-19T08:35:54Z</time>
      </trkpt>
      <trkpt lat="46.7105" lon="5.64382">
        <ele>308.5</ele>
        <time>2019-05-19T08:35:58Z</time>
      </trkpt>
      <trkpt lat="46.71058" lon="5.64371">
        <ele>308.5</ele>
        <time>2019-05-19T08:36:00Z</time>
      </trkpt>
      <trkpt lat="46.71066" lon="5.6436">
        <ele>308.6</ele>
        <time>2019-05-19T08:36:02Z</time>
      </trkpt>
      <trkpt lat="46.71075" lon="5.64348">
        <ele>308.6</ele>
        <time>2019-05-19T08:36:04Z</time>
      </trkpt>
      <trkpt lat="46.71084" lon="5.64335">
        <ele>308.5</ele>
        <time>2019-05-19T08:36:06Z</time>
      </trkpt>
      <trkpt lat="46.71093" lon="5.6432">
        <ele>308.5</ele>
        <time>2019-05-19T08:36:08Z</time>
      </trkpt>
      <trkpt lat="46.711" lon="5.64304">
        <ele>308.3</ele>
        <time>2019-05-19T08:36:10Z</time>
      </trkpt>
      <trkpt lat="46.71107" lon="5.64288">
        <ele>308.1</ele>
        <time>2019-05-19T08:36:12Z</time>
      </trkpt>
      <trkpt lat="46.71113" lon="5.6427">
        <ele>307.9</ele>
        <time>2019-05-19T08:36:14Z</time>
      </trkpt>
      <trkpt lat="46.71117" lon="5.64251">
        <ele>307.6</ele>
        <time>2019-05-19T08:36:16Z</time>
      </trkpt>
      <trkpt lat="46.7112" lon="5.64232">
        <ele>307.4</ele>
        <time>2019-05-19T08:36:18Z</time>
      </trkpt>
      <trkpt lat="46.71124" lon="5.64213">
        <ele>307.1</ele>
        <time>2019-05-19T08:36:20Z</time>
      </trkpt>
      <trkpt lat="46.71127" lon="5.64195">
        <ele>306.8</ele>
        <time>2019-05-19T08:36:22Z</time>
      </trkpt>
      <trkpt lat="46.7113" lon="5.64176">
        <ele>306.5</ele>
        <time>2019-05-19T08:36:24Z</time>
      </trkpt>
      <trkpt lat="46.71133" lon="5.64157">
        <ele>306.2</ele>
        <time>2019-05-19T08:36:26Z</time>
      </trkpt>
      <trkpt lat="46.71137" lon="5.6414">
        <ele>305.8</ele>
        <time>2019-05-19T08:36:28Z</time>
      </trkpt>
      <trkpt lat="46.7114" lon="5.64122">
        <ele>305.4</ele>
        <time>2019-05-19T08:36:30Z</time>
      </trkpt>
      <trkpt lat="46.71142" lon="5.64103">
        <ele>305</ele>
        <time>2019-05-19T08:36:32Z</time>
      </trkpt>
      <trkpt lat="46.71142" lon="5.64085">
        <ele>304.6</ele>
        <time>2019-05-19T08:36:34Z</time>
      </trkpt>
      <trkpt lat="46.71141" lon="5.64066">
        <ele>304.3</ele>
        <time>2019-05-19T08:36:36Z</time>
      </trkpt>
      <trkpt lat="46.71136" lon="5.64048">
        <ele>303.9</ele>
        <time>2019-05-19T08:36:38Z</time>
      </trkpt>
      <trkpt lat="46.71132" lon="5.64031">
        <ele>303.6</ele>
        <time>2019-05-19T08:36:40Z</time>
      </trkpt>
      <trkpt lat="46.71129" lon="5.64014">
        <ele>303.4</ele>
        <time>2019-05-19T08:36:42Z</time>
      </trkpt>
      <trkpt lat="46.71127" lon="5.63997">
        <ele>303.1</ele>
        <time>2019-05-19T08:36:44Z</time>
      </trkpt>
      <trkpt lat="46.71125" lon="5.63979">
        <ele>302.9</ele>
        <time>2019-05-19T08:36:46Z</time>
      </trkpt>
      <trkpt lat="46.71123" lon="5.63962">
        <ele>302.7</ele>
        <time>2019-05-19T08:36:48Z</time>
      </trkpt>
      <trkpt lat="46.71125" lon="5.63944">
        <ele>302.5</ele>
        <time>2019-05-19T08:36:50Z</time>
      </trkpt>
      <trkpt lat="46.71128" lon="5.63926">
        <ele>302.3</ele>
        <time>2019-05-19T08:36:52Z</time>
      </trkpt>
      <trkpt lat="46.71134" lon="5.63909">
        <ele>302</ele>
        <time>2019-05-19T08:36:54Z</time>
      </trkpt>
      <trkpt lat="46.71139" lon="5.63891">
        <ele>301.8</ele>
        <time>2019-05-19T08:36:56Z</time>
      </trkpt>
      <trkpt lat="46.71147" lon="5.63875">
        <ele>301.5</ele>
        <time>2019-05-19T08:36:58Z</time>
      </trkpt>
      <trkpt lat="46.71154" lon="5.63858">
        <ele>301.2</ele>
        <time>2019-05-19T08:37:00Z</time>
      </trkpt>
      <trkpt lat="46.71161" lon="5.63841">
        <ele>300.9</ele>
        <time>2019-05-19T08:37:02Z</time>
      </trkpt>
      <trkpt lat="46.7117" lon="5.63824">
        <ele>300.7</ele>
        <time>2019-05-19T08:37:04Z</time>
      </trkpt>
      <trkpt lat="46.71177" lon="5.63808">
        <ele>300.4</ele>
        <time>2019-05-19T08:37:06Z</time>
      </trkpt>
      <trkpt lat="46.71184" lon="5.63792">
        <ele>300.1</ele>
        <time>2019-05-19T08:37:08Z</time>
      </trkpt>
      <trkpt lat="46.71193" lon="5.63776">
        <ele>299.8</ele>
        <time>2019-05-19T08:37:10Z</time>
      </trkpt>
      <trkpt lat="46.712" lon="5.63761">
        <ele>299.6</ele>
        <time>2019-05-19T08:37:12Z</time>
      </trkpt>
      <trkpt lat="46.71206" lon="5.63745">
        <ele>299.3</ele>
        <time>2019-05-19T08:37:14Z</time>
      </trkpt>
      <trkpt lat="46.71207" lon="5.63727">
        <ele>299.1</ele>
        <time>2019-05-19T08:37:16Z</time>
      </trkpt>
      <trkpt lat="46.7121" lon="5.63708">
        <ele>298.9</ele>
        <time>2019-05-19T08:37:18Z</time>
      </trkpt>
      <trkpt lat="46.71215" lon="5.63689">
        <ele>298.6</ele>
        <time>2019-05-19T08:37:20Z</time>
      </trkpt>
      <trkpt lat="46.71219" lon="5.6367">
        <ele>298.4</ele>
        <time>2019-05-19T08:37:22Z</time>
      </trkpt>
      <trkpt lat="46.71223" lon="5.63651">
        <ele>298.1</ele>
        <time>2019-05-19T08:37:24Z</time>
      </trkpt>
      <trkpt lat="46.71227" lon="5.63633">
        <ele>298</ele>
        <time>2019-05-19T08:37:26Z</time>
      </trkpt>
      <trkpt lat="46.7123" lon="5.63616">
        <ele>297.8</ele>
        <time>2019-05-19T08:37:28Z</time>
      </trkpt>
      <trkpt lat="46.71232" lon="5.63598">
        <ele>297.6</ele>
        <time>2019-05-19T08:37:30Z</time>
      </trkpt>
      <trkpt lat="46.71234" lon="5.63583">
        <ele>297.4</ele>
        <time>2019-05-19T08:37:32Z</time>
      </trkpt>
      <trkpt lat="46.71237" lon="5.63568">
        <ele>297.3</ele>
        <time>2019-05-19T08:37:34Z</time>
      </trkpt>
      <trkpt lat="46.7124" lon="5.63552">
        <ele>297.1</ele>
        <time>2019-05-19T08:37:36Z</time>
      </trkpt>
      <trkpt lat="46.71238" lon="5.63537">
        <ele>297</ele>
        <time>2019-05-19T08:37:38Z</time>
      </trkpt>
      <trkpt lat="46.7124" lon="5.6352">
        <ele>296.9</ele>
        <time>2019-05-19T08:37:40Z</time>
      </trkpt>
      <trkpt lat="46.71243" lon="5.63504">
        <ele>296.7</ele>
        <time>2019-05-19T08:37:42Z</time>
      </trkpt>
      <trkpt lat="46.71244" lon="5.63489">
        <ele>296.6</ele>
        <time>2019-05-19T08:37:44Z</time>
      </trkpt>
      <trkpt lat="46.71245" lon="5.63473">
        <ele>296.5</ele>
        <time>2019-05-19T08:37:46Z</time>
      </trkpt>
      <trkpt lat="46.71244" lon="5.63457">
        <ele>296.4</ele>
        <time>2019-05-19T08:37:48Z</time>
      </trkpt>
      <trkpt lat="46.7124" lon="5.63442">
        <ele>296.3</ele>
        <time>2019-05-19T08:37:50Z</time>
      </trkpt>
      <trkpt lat="46.71236" lon="5.63429">
        <ele>296.2</ele>
        <time>2019-05-19T08:37:52Z</time>
      </trkpt>
      <trkpt lat="46.7123" lon="5.63416">
        <ele>296.1</ele>
        <time>2019-05-19T08:37:54Z</time>
      </trkpt>
      <trkpt lat="46.71224" lon="5.63403">
        <ele>296.1</ele>
        <time>2019-05-19T08:37:56Z</time>
      </trkpt>
      <trkpt lat="46.71219" lon="5.6339">
        <ele>296</ele>
        <time>2019-05-19T08:37:58Z</time>
      </trkpt>
      <trkpt lat="46.71214" lon="5.63377">
        <ele>296</ele>
        <time>2019-05-19T08:38:00Z</time>
      </trkpt>
      <trkpt lat="46.7121" lon="5.63364">
        <ele>295.9</ele>
        <time>2019-05-19T08:38:02Z</time>
      </trkpt>
      <trkpt lat="46.71208" lon="5.63349">
        <ele>295.9</ele>
        <time>2019-05-19T08:38:04Z</time>
      </trkpt>
      <trkpt lat="46.71206" lon="5.63335">
        <ele>295.8</ele>
        <time>2019-05-19T08:38:06Z</time>
      </trkpt>
      <trkpt lat="46.71206" lon="5.63321">
        <ele>295.8</ele>
        <time>2019-05-19T08:38:08Z</time>
      </trkpt>
      <trkpt lat="46.71208" lon="5.63307">
        <ele>295.8</ele>
        <time>2019-05-19T08:38:10Z</time>
      </trkpt>
      <trkpt lat="46.71209" lon="5.63293">
        <ele>295.8</ele>
        <time>2019-05-19T08:38:12Z</time>
      </trkpt>
      <trkpt lat="46.7121" lon="5.6328">
        <ele>295.8</ele>
        <time>2019-05-19T08:38:14Z</time>
      </trkpt>
      <trkpt lat="46.71209" lon="5.63267">
        <ele>295.8</ele>
        <time>2019-05-19T08:38:16Z</time>
      </trkpt>
      <trkpt lat="46.71207" lon="5.63247">
        <ele>295.8</ele>
        <time>2019-05-19T08:38:19Z</time>
      </trkpt>
      <trkpt lat="46.71205" lon="5.63234">
        <ele>295.9</ele>
        <time>2019-05-19T08:38:21Z</time>
      </trkpt>
      <trkpt lat="46.71199" lon="5.63218">
        <ele>296.1</ele>
        <time>2019-05-19T08:38:24Z</time>
      </trkpt>
      <trkpt lat="46.71192" lon="5.63206">
        <ele>296.3</ele>
        <time>2019-05-19T08:38:27Z</time>
      </trkpt>
      <trkpt lat="46.71182" lon="5.63198">
        <ele>296.6</ele>
        <time>2019-05-19T08:38:30Z</time>
      </trkpt>
      <trkpt lat="46.71172" lon="5.63189">
        <ele>297</ele>
        <time>2019-05-19T08:38:33Z</time>
      </trkpt>
      <trkpt lat="46.71162" lon="5.63181">
        <ele>297.4</ele>
        <time>2019-05-19T08:38:36Z</time>
      </trkpt>
      <trkpt lat="46.71153" lon="5.63172">
        <ele>297.8</ele>
        <time>2019-05-19T08:38:39Z</time>
      </trkpt>
      <trkpt lat="46.71142" lon="5.63164">
        <ele>298.3</ele>
        <time>2019-05-19T08:38:42Z</time>
      </trkpt>
      <trkpt lat="46.71133" lon="5.63156">
        <ele>298.9</ele>
        <time>2019-05-19T08:38:45Z</time>
      </trkpt>
      <trkpt lat="46.71125" lon="5.63148">
        <ele>299.6</ele>
        <time>2019-05-19T08:38:48Z</time>
      </trkpt>
      <trkpt lat="46.71116" lon="5.6314">
        <ele>300.3</ele>
        <time>2019-05-19T08:38:51Z</time>
      </trkpt>
      <trkpt lat="46.71107" lon="5.63132">
        <ele>300.9</ele>
        <time>2019-05-19T08:38:54Z</time>
      </trkpt>
      <trkpt lat="46.71099" lon="5.63125">
        <ele>301.7</ele>
        <time>2019-05-19T08:38:57Z</time>
      </trkpt>
      <trkpt lat="46.7109" lon="5.63121">
        <ele>302.4</ele>
        <time>2019-05-19T08:39:00Z</time>
      </trkpt>
      <trkpt lat="46.7108" lon="5.63115">
        <ele>303.4</ele>
        <time>2019-05-19T08:39:04Z</time>
      </trkpt>
      <trkpt lat="46.71071" lon="5.63107">
        <ele>304.3</ele>
        <time>2019-05-19T08:39:08Z</time>
      </trkpt>
      <trkpt lat="46.71061" lon="5.63101">
        <ele>305.2</ele>
        <time>2019-05-19T08:39:12Z</time>
      </trkpt>
      <trkpt lat="46.71052" lon="5.63096">
        <ele>305.9</ele>
        <time>2019-05-19T08:39:15Z</time>
      </trkpt>
      <trkpt lat="46.71043" lon="5.63093">
        <ele>306.7</ele>
        <time>2019-05-19T08:39:18Z</time>
      </trkpt>
      <trkpt lat="46.71034" lon="5.63089">
        <ele>307.4</ele>
        <time>2019-05-19T08:39:21Z</time>
      </trkpt>
      <trkpt lat="46.71023" lon="5.63085">
        <ele>308.2</ele>
        <time>2019-05-19T08:39:24Z</time>
      </trkpt>
      <trkpt lat="46.71012" lon="5.63081">
        <ele>308.9</ele>
        <time>2019-05-19T08:39:27Z</time>
      </trkpt>
      <trkpt lat="46.71003" lon="5.63073">
        <ele>309.5</ele>
        <time>2019-05-19T08:39:30Z</time>
      </trkpt>
      <trkpt lat="46.70994" lon="5.63066">
        <ele>310.2</ele>
        <time>2019-05-19T08:39:33Z</time>
      </trkpt>
      <trkpt lat="46.70985" lon="5.63062">
        <ele>310.8</ele>
        <time>2019-05-19T08:39:36Z</time>
      </trkpt>
      <trkpt lat="46.70975" lon="5.63061">
        <ele>311.6</ele>
        <time>2019-05-19T08:39:39Z</time>
      </trkpt>
      <trkpt lat="46.70965" lon="5.6306">
        <ele>312.4</ele>
        <time>2019-05-19T08:39:42Z</time>
      </trkpt>
      <trkpt lat="46.70954" lon="5.6306">
        <ele>313.1</ele>
        <time>2019-05-19T08:39:45Z</time>
      </trkpt>
      <trkpt lat="46.70945" lon="5.63057">
        <ele>313.8</ele>
        <time>2019-05-19T08:39:48Z</time>
      </trkpt>
      <trkpt lat="46.70935" lon="5.63053">
        <ele>314.5</ele>
        <time>2019-05-19T08:39:51Z</time>
      </trkpt>
      <trkpt lat="46.70927" lon="5.63048">
        <ele>315.1</ele>
        <time>2019-05-19T08:39:54Z</time>
      </trkpt>
      <trkpt lat="46.70918" lon="5.63042">
        <ele>315.8</ele>
        <time>2019-05-19T08:39:57Z</time>
      </trkpt>
      <trkpt lat="46.70909" lon="5.63035">
        <ele>316.4</ele>
        <time>2019-05-19T08:40:00Z</time>
      </trkpt>
      <trkpt lat="46.70903" lon="5.63026">
        <ele>317.2</ele>
        <time>2019-05-19T08:40:03Z</time>
      </trkpt>
      <trkpt lat="46.70896" lon="5.63016">
        <ele>318</ele>
        <time>2019-05-19T08:40:06Z</time>
      </trkpt>
      <trkpt lat="46.7089" lon="5.63006">
        <ele>318.6</ele>
        <time>2019-05-19T08:40:09Z</time>
      </trkpt>
      <trkpt lat="46.70884" lon="5.62994">
        <ele>319.3</ele>
        <time>2019-05-19T08:40:12Z</time>
      </trkpt>
      <trkpt lat="46.70877" lon="5.6298">
        <ele>320</ele>
        <time>2019-05-19T08:40:15Z</time>
      </trkpt>
      <trkpt lat="46.7087" lon="5.62967">
        <ele>320.5</ele>
        <time>2019-05-19T08:40:18Z</time>
      </trkpt>
      <trkpt lat="46.70863" lon="5.62956">
        <ele>321.1</ele>
        <time>2019-05-19T08:40:21Z</time>
      </trkpt>
      <trkpt lat="46.70856" lon="5.62948">
        <ele>321.8</ele>
        <time>2019-05-19T08:40:24Z</time>
      </trkpt>
      <trkpt lat="46.70847" lon="5.62942">
        <ele>322.5</ele>
        <time>2019-05-19T08:40:27Z</time>
      </trkpt>
      <trkpt lat="46.70838" lon="5.62939">
        <ele>323.2</ele>
        <time>2019-05-19T08:40:30Z</time>
      </trkpt>
      <trkpt lat="46.70828" lon="5.62936">
        <ele>323.9</ele>
        <time>2019-05-19T08:40:33Z</time>
      </trkpt>
      <trkpt lat="46.70819" lon="5.62934">
        <ele>324.6</ele>
        <time>2019-05-19T08:40:36Z</time>
      </trkpt>
      <trkpt lat="46.70809" lon="5.62933">
        <ele>325.3</ele>
        <time>2019-05-19T08:40:39Z</time>
      </trkpt>
      <trkpt lat="46.708" lon="5.6293">
        <ele>326</ele>
        <time>2019-05-19T08:40:42Z</time>
      </trkpt>
      <trkpt lat="46.7079" lon="5.62928">
        <ele>326.8</ele>
        <time>2019-05-19T08:40:45Z</time>
      </trkpt>
      <trkpt lat="46.70781" lon="5.62923">
        <ele>327.5</ele>
        <time>2019-05-19T08:40:48Z</time>
      </trkpt>
      <trkpt lat="46.70772" lon="5.62916">
        <ele>328.1</ele>
        <time>2019-05-19T08:40:51Z</time>
      </trkpt>
      <trkpt lat="46.70765" lon="5.62905">
        <ele>328.9</ele>
        <time>2019-05-19T08:40:54Z</time>
      </trkpt>
      <trkpt lat="46.70756" lon="5.62897">
        <ele>329.6</ele>
        <time>2019-05-19T08:40:57Z</time>
      </trkpt>
      <trkpt lat="46.70746" lon="5.62897">
        <ele>330.3</ele>
        <time>2019-05-19T08:41:00Z</time>
      </trkpt>
      <trkpt lat="46.70738" lon="5.62902">
        <ele>331</ele>
        <time>2019-05-19T08:41:03Z</time>
      </trkpt>
      <trkpt lat="46.70729" lon="5.62907">
        <ele>331.7</ele>
        <time>2019-05-19T08:41:06Z</time>
      </trkpt>
      <trkpt lat="46.70719" lon="5.62912">
        <ele>332.4</ele>
        <time>2019-05-19T08:41:09Z</time>
      </trkpt>
      <trkpt lat="46.7071" lon="5.62915">
        <ele>333.1</ele>
        <time>2019-05-19T08:41:12Z</time>
      </trkpt>
      <trkpt lat="46.70701" lon="5.62918">
        <ele>333.6</ele>
        <time>2019-05-19T08:41:15Z</time>
      </trkpt>
      <trkpt lat="46.70691" lon="5.6292">
        <ele>334.3</ele>
        <time>2019-05-19T08:41:18Z</time>
      </trkpt>
      <trkpt lat="46.70681" lon="5.62922">
        <ele>334.9</ele>
        <time>2019-05-19T08:41:21Z</time>
      </trkpt>
      <trkpt lat="46.70671" lon="5.62923">
        <ele>335.4</ele>
        <time>2019-05-19T08:41:24Z</time>
      </trkpt>
      <trkpt lat="46.70661" lon="5.62923">
        <ele>336</ele>
        <time>2019-05-19T08:41:27Z</time>
      </trkpt>
      <trkpt lat="46.70651" lon="5.62922">
        <ele>336.6</ele>
        <time>2019-05-19T08:41:30Z</time>
      </trkpt>
      <trkpt lat="46.70642" lon="5.62922">
        <ele>337.2</ele>
        <time>2019-05-19T08:41:33Z</time>
      </trkpt>
      <trkpt lat="46.7063" lon="5.62921">
        <ele>338</ele>
        <time>2019-05-19T08:41:37Z</time>
      </trkpt>
      <trkpt lat="46.7062" lon="5.62923">
        <ele>338.9</ele>
        <time>2019-05-19T08:41:41Z</time>
      </trkpt>
      <trkpt lat="46.70611" lon="5.62923">
        <ele>339.6</ele>
        <time>2019-05-19T08:41:44Z</time>
      </trkpt>
      <trkpt lat="46.706" lon="5.62921">
        <ele>340.5</ele>
        <time>2019-05-19T08:41:48Z</time>
      </trkpt>
      <trkpt lat="46.70588" lon="5.62918">
        <ele>341.3</ele>
        <time>2019-05-19T08:41:52Z</time>
      </trkpt>
      <trkpt lat="46.70576" lon="5.62915">
        <ele>342.2</ele>
        <time>2019-05-19T08:41:56Z</time>
      </trkpt>
      <trkpt lat="46.70568" lon="5.62909">
        <ele>342.9</ele>
        <time>2019-05-19T08:41:59Z</time>
      </trkpt>
      <trkpt lat="46.70561" lon="5.629">
        <ele>343.6</ele>
        <time>2019-05-19T08:42:02Z</time>
      </trkpt>
      <trkpt lat="46.70555" lon="5.62889">
        <ele>344.3</ele>
        <time>2019-05-19T08:42:05Z</time>
      </trkpt>
      <trkpt lat="46.7055" lon="5.62877">
        <ele>345</ele>
        <time>2019-05-19T08:42:08Z</time>
      </trkpt>
      <trkpt lat="46.70544" lon="5.62866">
        <ele>345.7</ele>
        <time>2019-05-19T08:42:11Z</time>
      </trkpt>
      <trkpt lat="46.70537" lon="5.62856">
        <ele>346.5</ele>
        <time>2019-05-19T08:42:14Z</time>
      </trkpt>
      <trkpt lat="46.70531" lon="5.62845">
        <ele>347.3</ele>
        <time>2019-05-19T08:42:17Z</time>
      </trkpt>
      <trkpt lat="46.70523" lon="5.62835">
        <ele>348</ele>
        <time>2019-05-19T08:42:20Z</time>
      </trkpt>
      <trkpt lat="46.70516" lon="5.62826">
        <ele>348.7</ele>
        <time>2019-05-19T08:42:23Z</time>
      </trkpt>
      <trkpt lat="46.70508" lon="5.62818">
        <ele>349.4</ele>
        <time>2019-05-19T08:42:26Z</time>
      </trkpt>
      <trkpt lat="46.705" lon="5.62811">
        <ele>350.1</ele>
        <time>2019-05-19T08:42:29Z</time>
      </trkpt>
      <trkpt lat="46.7049" lon="5.62803">
        <ele>351.1</ele>
        <time>2019-05-19T08:42:33Z</time>
      </trkpt>
      <trkpt lat="46.70483" lon="5.62795">
        <ele>351.7</ele>
        <time>2019-05-19T08:42:36Z</time>
      </trkpt>
      <trkpt lat="46.70474" lon="5.62789">
        <ele>352.5</ele>
        <time>2019-05-19T08:42:39Z</time>
      </trkpt>
      <trkpt lat="46.70464" lon="5.6278">
        <ele>353.3</ele>
        <time>2019-05-19T08:42:43Z</time>
      </trkpt>
      <trkpt lat="46.70457" lon="5.62771">
        <ele>354.1</ele>
        <time>2019-05-19T08:42:46Z</time>
      </trkpt>
      <trkpt lat="46.70451" lon="5.62761">
        <ele>354.8</ele>
        <time>2019-05-19T08:42:49Z</time>
      </trkpt>
      <trkpt lat="46.70444" lon="5.62748">
        <ele>355.7</ele>
        <time>2019-05-19T08:42:53Z</time>
      </trkpt>
      <trkpt lat="46.70434" lon="5.62738">
        <ele>356.6</ele>
        <time>2019-05-19T08:42:57Z</time>
      </trkpt>
      <trkpt lat="46.70424" lon="5.62739">
        <ele>357.4</ele>
        <time>2019-05-19T08:43:00Z</time>
      </trkpt>
      <trkpt lat="46.70413" lon="5.62745">
        <ele>358.4</ele>
        <time>2019-05-19T08:43:04Z</time>
      </trkpt>
      <trkpt lat="46.70405" lon="5.62755">
        <ele>359.1</ele>
        <time>2019-05-19T08:43:07Z</time>
      </trkpt>
      <trkpt lat="46.704" lon="5.62769">
        <ele>359.9</ele>
        <time>2019-05-19T08:43:10Z</time>
      </trkpt>
      <trkpt lat="46.70395" lon="5.62783">
        <ele>360.7</ele>
        <time>2019-05-19T08:43:13Z</time>
      </trkpt>
      <trkpt lat="46.70388" lon="5.62792">
        <ele>361.2</ele>
        <time>2019-05-19T08:43:15Z</time>
      </trkpt>
      <trkpt lat="46.70381" lon="5.628">
        <ele>361.7</ele>
        <time>2019-05-19T08:43:17Z</time>
      </trkpt>
      <trkpt lat="46.70373" lon="5.62809">
        <ele>362.5</ele>
        <time>2019-05-19T08:43:20Z</time>
      </trkpt>
      <trkpt lat="46.70366" lon="5.62821">
        <ele>363.4</ele>
        <time>2019-05-19T08:43:24Z</time>
      </trkpt>
      <trkpt lat="46.70358" lon="5.62833">
        <ele>364.3</ele>
        <time>2019-05-19T08:43:28Z</time>
      </trkpt>
      <trkpt lat="46.7035" lon="5.62841">
        <ele>365.2</ele>
        <time>2019-05-19T08:43:32Z</time>
      </trkpt>
      <trkpt lat="46.70338" lon="5.62846">
        <ele>366</ele>
        <time>2019-05-19T08:43:36Z</time>
      </trkpt>
      <trkpt lat="46.70329" lon="5.62847">
        <ele>366.6</ele>
        <time>2019-05-19T08:43:39Z</time>
      </trkpt>
      <trkpt lat="46.70316" lon="5.62849">
        <ele>367.3</ele>
        <time>2019-05-19T08:43:42Z</time>
      </trkpt>
      <trkpt lat="46.70303" lon="5.6285">
        <ele>368.1</ele>
        <time>2019-05-19T08:43:45Z</time>
      </trkpt>
      <trkpt lat="46.70293" lon="5.62852">
        <ele>368.8</ele>
        <time>2019-05-19T08:43:48Z</time>
      </trkpt>
      <trkpt lat="46.70282" lon="5.62847">
        <ele>369.8</ele>
        <time>2019-05-19T08:43:52Z</time>
      </trkpt>
      <trkpt lat="46.70273" lon="5.62843">
        <ele>370.4</ele>
        <time>2019-05-19T08:43:55Z</time>
      </trkpt>
      <trkpt lat="46.70263" lon="5.62837">
        <ele>371.1</ele>
        <time>2019-05-19T08:43:58Z</time>
      </trkpt>
      <trkpt lat="46.70252" lon="5.6283">
        <ele>371.9</ele>
        <time>2019-05-19T08:44:01Z</time>
      </trkpt>
      <trkpt lat="46.70243" lon="5.62821">
        <ele>372.7</ele>
        <time>2019-05-19T08:44:04Z</time>
      </trkpt>
      <trkpt lat="46.70236" lon="5.62813">
        <ele>373.5</ele>
        <time>2019-05-19T08:44:07Z</time>
      </trkpt>
      <trkpt lat="46.70227" lon="5.62807">
        <ele>374.1</ele>
        <time>2019-05-19T08:44:10Z</time>
      </trkpt>
      <trkpt lat="46.70218" lon="5.62804">
        <ele>374.8</ele>
        <time>2019-05-19T08:44:13Z</time>
      </trkpt>
      <trkpt lat="46.70207" lon="5.62802">
        <ele>375.7</ele>
        <time>2019-05-19T08:44:17Z</time>
      </trkpt>
      <trkpt lat="46.70197" lon="5.62801">
        <ele>376.4</ele>
        <time>2019-05-19T08:44:20Z</time>
      </trkpt>
      <trkpt lat="46.70187" lon="5.62801">
        <ele>377.2</ele>
        <time>2019-05-19T08:44:23Z</time>
      </trkpt>
      <trkpt lat="46.70176" lon="5.628">
        <ele>377.9</ele>
        <time>2019-05-19T08:44:26Z</time>
      </trkpt>
      <trkpt lat="46.70167" lon="5.62798">
        <ele>378.6</ele>
        <time>2019-05-19T08:44:29Z</time>
      </trkpt>
      <trkpt lat="46.70156" lon="5.62794">
        <ele>379.6</ele>
        <time>2019-05-19T08:44:33Z</time>
      </trkpt>
      <trkpt lat="46.70147" lon="5.62795">
        <ele>380.3</ele>
        <time>2019-05-19T08:44:36Z</time>
      </trkpt>
      <trkpt lat="46.70136" lon="5.62798">
        <ele>381.2</ele>
        <time>2019-05-19T08:44:40Z</time>
      </trkpt>
      <trkpt lat="46.70124" lon="5.62799">
        <ele>382.3</ele>
        <time>2019-05-19T08:44:44Z</time>
      </trkpt>
      <trkpt lat="46.70113" lon="5.62793">
        <ele>383.2</ele>
        <time>2019-05-19T08:44:48Z</time>
      </trkpt>
      <trkpt lat="46.70105" lon="5.62784">
        <ele>383.9</ele>
        <time>2019-05-19T08:44:51Z</time>
      </trkpt>
      <trkpt lat="46.70095" lon="5.62777">
        <ele>384.6</ele>
        <time>2019-05-19T08:44:54Z</time>
      </trkpt>
      <trkpt lat="46.70084" lon="5.62773">
        <ele>385.6</ele>
        <time>2019-05-19T08:44:58Z</time>
      </trkpt>
      <trkpt lat="46.70075" lon="5.62774">
        <ele>386.4</ele>
        <time>2019-05-19T08:45:01Z</time>
      </trkpt>
      <trkpt lat="46.70063" lon="5.62776">
        <ele>387.3</ele>
        <time>2019-05-19T08:45:05Z</time>
      </trkpt>
      <trkpt lat="46.70051" lon="5.62776">
        <ele>388.2</ele>
        <time>2019-05-19T08:45:09Z</time>
      </trkpt>
      <trkpt lat="46.70041" lon="5.62774">
        <ele>389.1</ele>
        <time>2019-05-19T08:45:13Z</time>
      </trkpt>
      <trkpt lat="46.7003" lon="5.62768">
        <ele>390.2</ele>
        <time>2019-05-19T08:45:17Z</time>
      </trkpt>
      <trkpt lat="46.70021" lon="5.62761">
        <ele>390.9</ele>
        <time>2019-05-19T08:45:20Z</time>
      </trkpt>
      <trkpt lat="46.70012" lon="5.62759">
        <ele>391.7</ele>
        <time>2019-05-19T08:45:23Z</time>
      </trkpt>
      <trkpt lat="46.70003" lon="5.62764">
        <ele>392.3</ele>
        <time>2019-05-19T08:45:26Z</time>
      </trkpt>
      <trkpt lat="46.69994" lon="5.62767">
        <ele>393</ele>
        <time>2019-05-19T08:45:29Z</time>
      </trkpt>
      <trkpt lat="46.69982" lon="5.62771">
        <ele>393.6</ele>
        <time>2019-05-19T08:45:32Z</time>
      </trkpt>
      <trkpt lat="46.6997" lon="5.62769">
        <ele>394.5</ele>
        <time>2019-05-19T08:45:36Z</time>
      </trkpt>
      <trkpt lat="46.69959" lon="5.62765">
        <ele>395.4</ele>
        <time>2019-05-19T08:45:40Z</time>
      </trkpt>
      <trkpt lat="46.6995" lon="5.62761">
        <ele>396</ele>
        <time>2019-05-19T08:45:43Z</time>
      </trkpt>
      <trkpt lat="46.69941" lon="5.62757">
        <ele>396.8</ele>
        <time>2019-05-19T08:45:46Z</time>
      </trkpt>
      <trkpt lat="46.69931" lon="5.62756">
        <ele>397.5</ele>
        <time>2019-05-19T08:45:49Z</time>
      </trkpt>
      <trkpt lat="46.6992" lon="5.62755">
        <ele>398.1</ele>
        <time>2019-05-19T08:45:52Z</time>
      </trkpt>
      <trkpt lat="46.69909" lon="5.62757">
        <ele>399.2</ele>
        <time>2019-05-19T08:45:56Z</time>
      </trkpt>
      <trkpt lat="46.69899" lon="5.62763">
        <ele>399.8</ele>
        <time>2019-05-19T08:45:59Z</time>
      </trkpt>
      <trkpt lat="46.6989" lon="5.6277">
        <ele>400.6</ele>
        <time>2019-05-19T08:46:02Z</time>
      </trkpt>
      <trkpt lat="46.69882" lon="5.62778">
        <ele>401.3</ele>
        <time>2019-05-19T08:46:05Z</time>
      </trkpt>
      <trkpt lat="46.69871" lon="5.62789">
        <ele>402</ele>
        <time>2019-05-19T08:46:08Z</time>
      </trkpt>
      <trkpt lat="46.69863" lon="5.62799">
        <ele>402.8</ele>
        <time>2019-05-19T08:46:11Z</time>
      </trkpt>
      <trkpt lat="46.69855" lon="5.6281">
        <ele>403.5</ele>
        <time>2019-05-19T08:46:14Z</time>
      </trkpt>
      <trkpt lat="46.69848" lon="5.6282">
        <ele>404.1</ele>
        <time>2019-05-19T08:46:17Z</time>
      </trkpt>
      <trkpt lat="46.6984" lon="5.6283">
        <ele>404.8</ele>
        <time>2019-05-19T08:46:20Z</time>
      </trkpt>
      <trkpt lat="46.69832" lon="5.62839">
        <ele>405.4</ele>
        <time>2019-05-19T08:46:23Z</time>
      </trkpt>
      <trkpt lat="46.69823" lon="5.62846">
        <ele>406.3</ele>
        <time>2019-05-19T08:46:27Z</time>
      </trkpt>
      <trkpt lat="46.69812" lon="5.62847">
        <ele>407.2</ele>
        <time>2019-05-19T08:46:31Z</time>
      </trkpt>
      <trkpt lat="46.69801" lon="5.62843">
        <ele>408.1</ele>
        <time>2019-05-19T08:46:35Z</time>
      </trkpt>
      <trkpt lat="46.69791" lon="5.62842">
        <ele>409</ele>
        <time>2019-05-19T08:46:39Z</time>
      </trkpt>
      <trkpt lat="46.69783" lon="5.62848">
        <ele>409.6</ele>
        <time>2019-05-19T08:46:42Z</time>
      </trkpt>
      <trkpt lat="46.69776" lon="5.62857">
        <ele>410.3</ele>
        <time>2019-05-19T08:46:45Z</time>
      </trkpt>
      <trkpt lat="46.6977" lon="5.62867">
        <ele>411.1</ele>
        <time>2019-05-19T08:46:48Z</time>
      </trkpt>
      <trkpt lat="46.69764" lon="5.62881">
        <ele>412</ele>
        <time>2019-05-19T08:46:52Z</time>
      </trkpt>
      <trkpt lat="46.69759" lon="5.62892">
        <ele>412.6</ele>
        <time>2019-05-19T08:46:55Z</time>
      </trkpt>
      <trkpt lat="46.69753" lon="5.62907">
        <ele>413.4</ele>
        <time>2019-05-19T08:46:59Z</time>
      </trkpt>
      <trkpt lat="46.69747" lon="5.62917">
        <ele>414</ele>
        <time>2019-05-19T08:47:02Z</time>
      </trkpt>
      <trkpt lat="46.69738" lon="5.6292">
        <ele>414.6</ele>
        <time>2019-05-19T08:47:05Z</time>
      </trkpt>
      <trkpt lat="46.69736" lon="5.62904">
        <ele>415.5</ele>
        <time>2019-05-19T08:47:09Z</time>
      </trkpt>
      <trkpt lat="46.6974" lon="5.6289">
        <ele>416.2</ele>
        <time>2019-05-19T08:47:12Z</time>
      </trkpt>
      <trkpt lat="46.69742" lon="5.62875">
        <ele>416.8</ele>
        <time>2019-05-19T08:47:15Z</time>
      </trkpt>
      <trkpt lat="46.69743" lon="5.62861">
        <ele>417.5</ele>
        <time>2019-05-19T08:47:18Z</time>
      </trkpt>
      <trkpt lat="46.69743" lon="5.62848">
        <ele>418.1</ele>
        <time>2019-05-19T08:47:21Z</time>
      </trkpt>
      <trkpt lat="46.69742" lon="5.62834">
        <ele>418.7</ele>
        <time>2019-05-19T08:47:24Z</time>
      </trkpt>
      <trkpt lat="46.6974" lon="5.6282">
        <ele>419.2</ele>
        <time>2019-05-19T08:47:27Z</time>
      </trkpt>
      <trkpt lat="46.6974" lon="5.62806">
        <ele>419.8</ele>
        <time>2019-05-19T08:47:30Z</time>
      </trkpt>
      <trkpt lat="46.69743" lon="5.62793">
        <ele>420.5</ele>
        <time>2019-05-19T08:47:33Z</time>
      </trkpt>
      <trkpt lat="46.69749" lon="5.62779">
        <ele>421.4</ele>
        <time>2019-05-19T08:47:37Z</time>
      </trkpt>
      <trkpt lat="46.69754" lon="5.62766">
        <ele>422.3</ele>
        <time>2019-05-19T08:47:41Z</time>
      </trkpt>
      <trkpt lat="46.69759" lon="5.62753">
        <ele>423.3</ele>
        <time>2019-05-19T08:47:45Z</time>
      </trkpt>
      <trkpt lat="46.69763" lon="5.62738">
        <ele>424.2</ele>
        <time>2019-05-19T08:47:49Z</time>
      </trkpt>
      <trkpt lat="46.69766" lon="5.62723">
        <ele>424.9</ele>
        <time>2019-05-19T08:47:53Z</time>
      </trkpt>
      <trkpt lat="46.69767" lon="5.62705">
        <ele>425.8</ele>
        <time>2019-05-19T08:47:57Z</time>
      </trkpt>
      <trkpt lat="46.69769" lon="5.62689">
        <ele>426.7</ele>
        <time>2019-05-19T08:48:01Z</time>
      </trkpt>
      <trkpt lat="46.69773" lon="5.62673">
        <ele>427.5</ele>
        <time>2019-05-19T08:48:05Z</time>
      </trkpt>
      <trkpt lat="46.69777" lon="5.62658">
        <ele>428.3</ele>
        <time>2019-05-19T08:48:09Z</time>
      </trkpt>
      <trkpt lat="46.69784" lon="5.62644">
        <ele>429.1</ele>
        <time>2019-05-19T08:48:13Z</time>
      </trkpt>
      <trkpt lat="46.69791" lon="5.62629">
        <ele>430</ele>
        <time>2019-05-19T08:48:17Z</time>
      </trkpt>
      <trkpt lat="46.69797" lon="5.62616">
        <ele>431</ele>
        <time>2019-05-19T08:48:21Z</time>
      </trkpt>
      <trkpt lat="46.69804" lon="5.62604">
        <ele>431.8</ele>
        <time>2019-05-19T08:48:25Z</time>
      </trkpt>
      <trkpt lat="46.69813" lon="5.62594">
        <ele>432.8</ele>
        <time>2019-05-19T08:48:29Z</time>
      </trkpt>
      <trkpt lat="46.69822" lon="5.62584">
        <ele>433.6</ele>
        <time>2019-05-19T08:48:33Z</time>
      </trkpt>
      <trkpt lat="46.69832" lon="5.62574">
        <ele>434.5</ele>
        <time>2019-05-19T08:48:37Z</time>
      </trkpt>
      <trkpt lat="46.6984" lon="5.62562">
        <ele>435.3</ele>
        <time>2019-05-19T08:48:41Z</time>
      </trkpt>
      <trkpt lat="46.69848" lon="5.6255">
        <ele>436.2</ele>
        <time>2019-05-19T08:48:45Z</time>
      </trkpt>
      <trkpt lat="46.69857" lon="5.62538">
        <ele>437.1</ele>
        <time>2019-05-19T08:48:49Z</time>
      </trkpt>
      <trkpt lat="46.69863" lon="5.62529">
        <ele>437.7</ele>
        <time>2019-05-19T08:48:52Z</time>
      </trkpt>
      <trkpt lat="46.69872" lon="5.62518">
        <ele>438.4</ele>
        <time>2019-05-19T08:48:56Z</time>
      </trkpt>
      <trkpt lat="46.69881" lon="5.62508">
        <ele>439.2</ele>
        <time>2019-05-19T08:49:00Z</time>
      </trkpt>
      <trkpt lat="46.69891" lon="5.62503">
        <ele>440.1</ele>
        <time>2019-05-19T08:49:04Z</time>
      </trkpt>
      <trkpt lat="46.69901" lon="5.62498">
        <ele>441</ele>
        <time>2019-05-19T08:49:09Z</time>
      </trkpt>
      <trkpt lat="46.69908" lon="5.62488">
        <ele>442.1</ele>
        <time>2019-05-19T08:49:15Z</time>
      </trkpt>
      <trkpt lat="46.69898" lon="5.62484">
        <ele>444.7</ele>
        <time>2019-05-19T08:49:46Z</time>
      </trkpt>
      <trkpt lat="46.69888" lon="5.62488">
        <ele>445</ele>
        <time>2019-05-19T08:49:50Z</time>
      </trkpt>
      <trkpt lat="46.69878" lon="5.62494">
        <ele>445.3</ele>
        <time>2019-05-19T08:49:54Z</time>
      </trkpt>
      <trkpt lat="46.69867" lon="5.62499">
        <ele>445.8</ele>
        <time>2019-05-19T08:49:58Z</time>
      </trkpt>
      <trkpt lat="46.69857" lon="5.62505">
        <ele>446.3</ele>
        <time>2019-05-19T08:50:02Z</time>
      </trkpt>
      <trkpt lat="46.69845" lon="5.62509">
        <ele>446.9</ele>
        <time>2019-05-19T08:50:06Z</time>
      </trkpt>
      <trkpt lat="46.69837" lon="5.62515">
        <ele>447.4</ele>
        <time>2019-05-19T08:50:09Z</time>
      </trkpt>
      <trkpt lat="46.69828" lon="5.62519">
        <ele>447.9</ele>
        <time>2019-05-19T08:50:12Z</time>
      </trkpt>
      <trkpt lat="46.69816" lon="5.62524">
        <ele>448.6</ele>
        <time>2019-05-19T08:50:16Z</time>
      </trkpt>
      <trkpt lat="46.69805" lon="5.6253">
        <ele>449.2</ele>
        <time>2019-05-19T08:50:20Z</time>
      </trkpt>
      <trkpt lat="46.69794" lon="5.62537">
        <ele>450</ele>
        <time>2019-05-19T08:50:24Z</time>
      </trkpt>
      <trkpt lat="46.69784" lon="5.62544">
        <ele>450.7</ele>
        <time>2019-05-19T08:50:28Z</time>
      </trkpt>
      <trkpt lat="46.69775" lon="5.6255">
        <ele>451.3</ele>
        <time>2019-05-19T08:50:31Z</time>
      </trkpt>
      <trkpt lat="46.69766" lon="5.62556">
        <ele>451.9</ele>
        <time>2019-05-19T08:50:34Z</time>
      </trkpt>
      <trkpt lat="46.69755" lon="5.62564">
        <ele>452.6</ele>
        <time>2019-05-19T08:50:38Z</time>
      </trkpt>
      <trkpt lat="46.69746" lon="5.62571">
        <ele>453.3</ele>
        <time>2019-05-19T08:50:41Z</time>
      </trkpt>
      <trkpt lat="46.69737" lon="5.62575">
        <ele>454</ele>
        <time>2019-05-19T08:50:44Z</time>
      </trkpt>
      <trkpt lat="46.69727" lon="5.6258">
        <ele>454.6</ele>
        <time>2019-05-19T08:50:47Z</time>
      </trkpt>
      <trkpt lat="46.69718" lon="5.62585">
        <ele>455.2</ele>
        <time>2019-05-19T08:50:50Z</time>
      </trkpt>
      <trkpt lat="46.69709" lon="5.6259">
        <ele>455.9</ele>
        <time>2019-05-19T08:50:53Z</time>
      </trkpt>
      <trkpt lat="46.69701" lon="5.62596">
        <ele>456.6</ele>
        <time>2019-05-19T08:50:56Z</time>
      </trkpt>
      <trkpt lat="46.69693" lon="5.62602">
        <ele>457.2</ele>
        <time>2019-05-19T08:50:59Z</time>
      </trkpt>
      <trkpt lat="46.69684" lon="5.6261">
        <ele>457.9</ele>
        <time>2019-05-19T08:51:02Z</time>
      </trkpt>
      <trkpt lat="46.69676" lon="5.62618">
        <ele>458.5</ele>
        <time>2019-05-19T08:51:05Z</time>
      </trkpt>
      <trkpt lat="46.69668" lon="5.62627">
        <ele>459.1</ele>
        <time>2019-05-19T08:51:08Z</time>
      </trkpt>
      <trkpt lat="46.6966" lon="5.62634">
        <ele>459.7</ele>
        <time>2019-05-19T08:51:11Z</time>
      </trkpt>
      <trkpt lat="46.69652" lon="5.62643">
        <ele>460.3</ele>
        <time>2019-05-19T08:51:14Z</time>
      </trkpt>
      <trkpt lat="46.69646" lon="5.62653">
        <ele>460.9</ele>
        <time>2019-05-19T08:51:17Z</time>
      </trkpt>
      <trkpt lat="46.69641" lon="5.62665">
        <ele>461.6</ele>
        <time>2019-05-19T08:51:20Z</time>
      </trkpt>
      <trkpt lat="46.69637" lon="5.62678">
        <ele>462.2</ele>
        <time>2019-05-19T08:51:23Z</time>
      </trkpt>
      <trkpt lat="46.69632" lon="5.6269">
        <ele>462.8</ele>
        <time>2019-05-19T08:51:26Z</time>
      </trkpt>
      <trkpt lat="46.69626" lon="5.62701">
        <ele>463.4</ele>
        <time>2019-05-19T08:51:29Z</time>
      </trkpt>
      <trkpt lat="46.69619" lon="5.62712">
        <ele>463.9</ele>
        <time>2019-05-19T08:51:32Z</time>
      </trkpt>
      <trkpt lat="46.69614" lon="5.62723">
        <ele>464.4</ele>
        <time>2019-05-19T08:51:35Z</time>
      </trkpt>
      <trkpt lat="46.69607" lon="5.62734">
        <ele>465.1</ele>
        <time>2019-05-19T08:51:38Z</time>
      </trkpt>
      <trkpt lat="46.69599" lon="5.62744">
        <ele>465.7</ele>
        <time>2019-05-19T08:51:41Z</time>
      </trkpt>
      <trkpt lat="46.69592" lon="5.62755">
        <ele>466.4</ele>
        <time>2019-05-19T08:51:44Z</time>
      </trkpt>
      <trkpt lat="46.69585" lon="5.62765">
        <ele>467</ele>
        <time>2019-05-19T08:51:47Z</time>
      </trkpt>
      <trkpt lat="46.69578" lon="5.62774">
        <ele>467.6</ele>
        <time>2019-05-19T08:51:50Z</time>
      </trkpt>
      <trkpt lat="46.69571" lon="5.62783">
        <ele>468.4</ele>
        <time>2019-05-19T08:51:53Z</time>
      </trkpt>
      <trkpt lat="46.69564" lon="5.62792">
        <ele>469</ele>
        <time>2019-05-19T08:51:56Z</time>
      </trkpt>
      <trkpt lat="46.69558" lon="5.62802">
        <ele>469.7</ele>
        <time>2019-05-19T08:51:59Z</time>
      </trkpt>
      <trkpt lat="46.69552" lon="5.62815">
        <ele>470.5</ele>
        <time>2019-05-19T08:52:03Z</time>
      </trkpt>
      <trkpt lat="46.69544" lon="5.6283">
        <ele>471.2</ele>
        <time>2019-05-19T08:52:07Z</time>
      </trkpt>
      <trkpt lat="46.69539" lon="5.62842">
        <ele>471.9</ele>
        <time>2019-05-19T08:52:10Z</time>
      </trkpt>
      <trkpt lat="46.69535" lon="5.62854">
        <ele>472.4</ele>
        <time>2019-05-19T08:52:13Z</time>
      </trkpt>
      <trkpt lat="46.69532" lon="5.6287">
        <ele>473.3</ele>
        <time>2019-05-19T08:52:17Z</time>
      </trkpt>
      <trkpt lat="46.6953" lon="5.62886">
        <ele>474.1</ele>
        <time>2019-05-19T08:52:21Z</time>
      </trkpt>
      <trkpt lat="46.69529" lon="5.62899">
        <ele>474.7</ele>
        <time>2019-05-19T08:52:24Z</time>
      </trkpt>
      <trkpt lat="46.69532" lon="5.62912">
        <ele>475.2</ele>
        <time>2019-05-19T08:52:27Z</time>
      </trkpt>
      <trkpt lat="46.69537" lon="5.62926">
        <ele>476.1</ele>
        <time>2019-05-19T08:52:32Z</time>
      </trkpt>
      <trkpt lat="46.69544" lon="5.62938">
        <ele>477.2</ele>
        <time>2019-05-19T08:52:37Z</time>
      </trkpt>
      <trkpt lat="46.69553" lon="5.62943">
        <ele>478.1</ele>
        <time>2019-05-19T08:52:41Z</time>
      </trkpt>
      <trkpt lat="46.69562" lon="5.62951">
        <ele>479.1</ele>
        <time>2019-05-19T08:52:46Z</time>
      </trkpt>
      <trkpt lat="46.69571" lon="5.62957">
        <ele>480</ele>
        <time>2019-05-19T08:52:50Z</time>
      </trkpt>
      <trkpt lat="46.69581" lon="5.62961">
        <ele>480.8</ele>
        <time>2019-05-19T08:52:54Z</time>
      </trkpt>
      <trkpt lat="46.6959" lon="5.62966">
        <ele>481.5</ele>
        <time>2019-05-19T08:52:57Z</time>
      </trkpt>
      <trkpt lat="46.69598" lon="5.62971">
        <ele>482.2</ele>
        <time>2019-05-19T08:53:00Z</time>
      </trkpt>
      <trkpt lat="46.69608" lon="5.62978">
        <ele>483</ele>
        <time>2019-05-19T08:53:04Z</time>
      </trkpt>
      <trkpt lat="46.69618" lon="5.62983">
        <ele>483.6</ele>
        <time>2019-05-19T08:53:07Z</time>
      </trkpt>
      <trkpt lat="46.69627" lon="5.62988">
        <ele>484.5</ele>
        <time>2019-05-19T08:53:11Z</time>
      </trkpt>
      <trkpt lat="46.69637" lon="5.62996">
        <ele>485.3</ele>
        <time>2019-05-19T08:53:15Z</time>
      </trkpt>
      <trkpt lat="46.69646" lon="5.63005">
        <ele>485.8</ele>
        <time>2019-05-19T08:53:18Z</time>
      </trkpt>
      <trkpt lat="46.69652" lon="5.63014">
        <ele>486.4</ele>
        <time>2019-05-19T08:53:21Z</time>
      </trkpt>
      <trkpt lat="46.69659" lon="5.63026">
        <ele>487.1</ele>
        <time>2019-05-19T08:53:24Z</time>
      </trkpt>
      <trkpt lat="46.69661" lon="5.63039">
        <ele>487.7</ele>
        <time>2019-05-19T08:53:27Z</time>
      </trkpt>
      <trkpt lat="46.69662" lon="5.63053">
        <ele>488.3</ele>
        <time>2019-05-19T08:53:30Z</time>
      </trkpt>
      <trkpt lat="46.69659" lon="5.6307">
        <ele>489</ele>
        <time>2019-05-19T08:53:34Z</time>
      </trkpt>
      <trkpt lat="46.69661" lon="5.63086">
        <ele>489.5</ele>
        <time>2019-05-19T08:53:37Z</time>
      </trkpt>
      <trkpt lat="46.69657" lon="5.63101">
        <ele>490.2</ele>
        <time>2019-05-19T08:53:41Z</time>
      </trkpt>
      <trkpt lat="46.69652" lon="5.63116">
        <ele>491</ele>
        <time>2019-05-19T08:53:45Z</time>
      </trkpt>
      <trkpt lat="46.69647" lon="5.63129">
        <ele>491.7</ele>
        <time>2019-05-19T08:53:49Z</time>
      </trkpt>
      <trkpt lat="46.6964" lon="5.63142">
        <ele>492.5</ele>
        <time>2019-05-19T08:53:53Z</time>
      </trkpt>
      <trkpt lat="46.69633" lon="5.63155">
        <ele>493.3</ele>
        <time>2019-05-19T08:53:57Z</time>
      </trkpt>
      <trkpt lat="46.69626" lon="5.6317">
        <ele>494</ele>
        <time>2019-05-19T08:54:01Z</time>
      </trkpt>
      <trkpt lat="46.69622" lon="5.63185">
        <ele>494.7</ele>
        <time>2019-05-19T08:54:05Z</time>
      </trkpt>
      <trkpt lat="46.69617" lon="5.63199">
        <ele>495.3</ele>
        <time>2019-05-19T08:54:08Z</time>
      </trkpt>
      <trkpt lat="46.69613" lon="5.63214">
        <ele>496.2</ele>
        <time>2019-05-19T08:54:12Z</time>
      </trkpt>
      <trkpt lat="46.69609" lon="5.63227">
        <ele>496.9</ele>
        <time>2019-05-19T08:54:16Z</time>
      </trkpt>
      <trkpt lat="46.69605" lon="5.63243">
        <ele>497.7</ele>
        <time>2019-05-19T08:54:20Z</time>
      </trkpt>
      <trkpt lat="46.69598" lon="5.63257">
        <ele>498.5</ele>
        <time>2019-05-19T08:54:24Z</time>
      </trkpt>
      <trkpt lat="46.69592" lon="5.63272">
        <ele>499.4</ele>
        <time>2019-05-19T08:54:28Z</time>
      </trkpt>
      <trkpt lat="46.69586" lon="5.63282">
        <ele>500</ele>
        <time>2019-05-19T08:54:31Z</time>
      </trkpt>
      <trkpt lat="46.6958" lon="5.63297">
        <ele>500.7</ele>
        <time>2019-05-19T08:54:35Z</time>
      </trkpt>
      <trkpt lat="46.69577" lon="5.63311">
        <ele>501.3</ele>
        <time>2019-05-19T08:54:38Z</time>
      </trkpt>
      <trkpt lat="46.69572" lon="5.63323">
        <ele>501.9</ele>
        <time>2019-05-19T08:54:41Z</time>
      </trkpt>
      <trkpt lat="46.69568" lon="5.63339">
        <ele>502.7</ele>
        <time>2019-05-19T08:54:45Z</time>
      </trkpt>
      <trkpt lat="46.69562" lon="5.63354">
        <ele>503.3</ele>
        <time>2019-05-19T08:54:49Z</time>
      </trkpt>
      <trkpt lat="46.69556" lon="5.63369">
        <ele>504.2</ele>
        <time>2019-05-19T08:54:53Z</time>
      </trkpt>
      <trkpt lat="46.69552" lon="5.63385">
        <ele>505</ele>
        <time>2019-05-19T08:54:57Z</time>
      </trkpt>
      <trkpt lat="46.69547" lon="5.63401">
        <ele>505.7</ele>
        <time>2019-05-19T08:55:01Z</time>
      </trkpt>
      <trkpt lat="46.69544" lon="5.63413">
        <ele>506.2</ele>
        <time>2019-05-19T08:55:04Z</time>
      </trkpt>
      <trkpt lat="46.69539" lon="5.6343">
        <ele>507</ele>
        <time>2019-05-19T08:55:08Z</time>
      </trkpt>
      <trkpt lat="46.69537" lon="5.63444">
        <ele>507.6</ele>
        <time>2019-05-19T08:55:11Z</time>
      </trkpt>
      <trkpt lat="46.69535" lon="5.6346">
        <ele>508.4</ele>
        <time>2019-05-19T08:55:15Z</time>
      </trkpt>
      <trkpt lat="46.69533" lon="5.63473">
        <ele>508.9</ele>
        <time>2019-05-19T08:55:18Z</time>
      </trkpt>
      <trkpt lat="46.69531" lon="5.63487">
        <ele>509.5</ele>
        <time>2019-05-19T08:55:21Z</time>
      </trkpt>
      <trkpt lat="46.69531" lon="5.63502">
        <ele>510.1</ele>
        <time>2019-05-19T08:55:24Z</time>
      </trkpt>
      <trkpt lat="46.69529" lon="5.63515">
        <ele>510.6</ele>
        <time>2019-05-19T08:55:27Z</time>
      </trkpt>
      <trkpt lat="46.69521" lon="5.63527">
        <ele>511.2</ele>
        <time>2019-05-19T08:55:31Z</time>
      </trkpt>
      <trkpt lat="46.69511" lon="5.63523">
        <ele>511.8</ele>
        <time>2019-05-19T08:55:35Z</time>
      </trkpt>
      <trkpt lat="46.69502" lon="5.63512">
        <ele>512.3</ele>
        <time>2019-05-19T08:55:39Z</time>
      </trkpt>
      <trkpt lat="46.69491" lon="5.63505">
        <ele>512.9</ele>
        <time>2019-05-19T08:55:43Z</time>
      </trkpt>
      <trkpt lat="46.69481" lon="5.63499">
        <ele>513.5</ele>
        <time>2019-05-19T08:55:47Z</time>
      </trkpt>
      <trkpt lat="46.69474" lon="5.63486">
        <ele>514.1</ele>
        <time>2019-05-19T08:55:51Z</time>
      </trkpt>
      <trkpt lat="46.69471" lon="5.63472">
        <ele>514.6</ele>
        <time>2019-05-19T08:55:54Z</time>
      </trkpt>
      <trkpt lat="46.69468" lon="5.63458">
        <ele>515.1</ele>
        <time>2019-05-19T08:55:57Z</time>
      </trkpt>
      <trkpt lat="46.69465" lon="5.63444">
        <ele>515.6</ele>
        <time>2019-05-19T08:56:00Z</time>
      </trkpt>
      <trkpt lat="46.69463" lon="5.63431">
        <ele>516.1</ele>
        <time>2019-05-19T08:56:03Z</time>
      </trkpt>
      <trkpt lat="46.69458" lon="5.63418">
        <ele>516.8</ele>
        <time>2019-05-19T08:56:07Z</time>
      </trkpt>
      <trkpt lat="46.69453" lon="5.63402">
        <ele>517.6</ele>
        <time>2019-05-19T08:56:11Z</time>
      </trkpt>
      <trkpt lat="46.69452" lon="5.63387">
        <ele>518.4</ele>
        <time>2019-05-19T08:56:15Z</time>
      </trkpt>
      <trkpt lat="46.69452" lon="5.63371">
        <ele>519</ele>
        <time>2019-05-19T08:56:19Z</time>
      </trkpt>
      <trkpt lat="46.69452" lon="5.63356">
        <ele>519.7</ele>
        <time>2019-05-19T08:56:23Z</time>
      </trkpt>
      <trkpt lat="46.69451" lon="5.63341">
        <ele>520.3</ele>
        <time>2019-05-19T08:56:27Z</time>
      </trkpt>
      <trkpt lat="46.69452" lon="5.63326">
        <ele>521</ele>
        <time>2019-05-19T08:56:31Z</time>
      </trkpt>
      <trkpt lat="46.69452" lon="5.63311">
        <ele>521.6</ele>
        <time>2019-05-19T08:56:35Z</time>
      </trkpt>
      <trkpt lat="46.69452" lon="5.63296">
        <ele>522.3</ele>
        <time>2019-05-19T08:56:39Z</time>
      </trkpt>
      <trkpt lat="46.69455" lon="5.63282">
        <ele>522.8</ele>
        <time>2019-05-19T08:56:43Z</time>
      </trkpt>
      <trkpt lat="46.6946" lon="5.63269">
        <ele>523.3</ele>
        <time>2019-05-19T08:56:48Z</time>
      </trkpt>
      <trkpt lat="46.69466" lon="5.63255">
        <ele>523.6</ele>
        <time>2019-05-19T08:56:52Z</time>
      </trkpt>
      <trkpt lat="46.69471" lon="5.63244">
        <ele>523.8</ele>
        <time>2019-05-19T08:56:55Z</time>
      </trkpt>
      <trkpt lat="46.69477" lon="5.63233">
        <ele>523.9</ele>
        <time>2019-05-19T08:56:58Z</time>
      </trkpt>
      <trkpt lat="46.69483" lon="5.63222">
        <ele>524</ele>
        <time>2019-05-19T08:57:01Z</time>
      </trkpt>
      <trkpt lat="46.69488" lon="5.63211">
        <ele>524.1</ele>
        <time>2019-05-19T08:57:04Z</time>
      </trkpt>
      <trkpt lat="46.69494" lon="5.63196">
        <ele>524.1</ele>
        <time>2019-05-19T08:57:08Z</time>
      </trkpt>
      <trkpt lat="46.695" lon="5.63183">
        <ele>524.3</ele>
        <time>2019-05-19T08:57:12Z</time>
      </trkpt>
      <trkpt lat="46.69507" lon="5.63169">
        <ele>524.8</ele>
        <time>2019-05-19T08:57:16Z</time>
      </trkpt>
      <trkpt lat="46.69513" lon="5.63155">
        <ele>525.5</ele>
        <time>2019-05-19T08:57:20Z</time>
      </trkpt>
      <trkpt lat="46.69518" lon="5.63144">
        <ele>526.2</ele>
        <time>2019-05-19T08:57:24Z</time>
      </trkpt>
      <trkpt lat="46.69525" lon="5.63134">
        <ele>526.9</ele>
        <time>2019-05-19T08:57:28Z</time>
      </trkpt>
      <trkpt lat="46.69533" lon="5.63126">
        <ele>527.7</ele>
        <time>2019-05-19T08:57:33Z</time>
      </trkpt>
      <trkpt lat="46.69529" lon="5.63113">
        <ele>529.2</ele>
        <time>2019-05-19T08:57:40Z</time>
      </trkpt>
      <trkpt lat="46.69523" lon="5.63103">
        <ele>530.3</ele>
        <time>2019-05-19T08:57:45Z</time>
      </trkpt>
      <trkpt lat="46.69514" lon="5.63096">
        <ele>531.7</ele>
        <time>2019-05-19T08:57:52Z</time>
      </trkpt>
      <trkpt lat="46.69505" lon="5.6309">
        <ele>533.2</ele>
        <time>2019-05-19T08:57:58Z</time>
      </trkpt>
      <trkpt lat="46.69497" lon="5.63084">
        <ele>534.5</ele>
        <time>2019-05-19T08:58:04Z</time>
      </trkpt>
      <trkpt lat="46.69488" lon="5.63077">
        <ele>536</ele>
        <time>2019-05-19T08:58:10Z</time>
      </trkpt>
      <trkpt lat="46.6948" lon="5.6307">
        <ele>537.6</ele>
        <time>2019-05-19T08:58:18Z</time>
      </trkpt>
      <trkpt lat="46.69472" lon="5.63062">
        <ele>539.4</ele>
        <time>2019-05-19T08:58:26Z</time>
      </trkpt>
      <trkpt lat="46.69464" lon="5.63054">
        <ele>541.4</ele>
        <time>2019-05-19T08:58:34Z</time>
      </trkpt>
      <trkpt lat="46.69455" lon="5.63046">
        <ele>543.5</ele>
        <time>2019-05-19T08:58:44Z</time>
      </trkpt>
      <trkpt lat="46.69446" lon="5.63044">
        <ele>544.5</ele>
        <time>2019-05-19T08:58:49Z</time>
      </trkpt>
      <trkpt lat="46.69436" lon="5.63043">
        <ele>545.7</ele>
        <time>2019-05-19T08:58:55Z</time>
      </trkpt>
      <trkpt lat="46.69427" lon="5.63042">
        <ele>546.6</ele>
        <time>2019-05-19T08:59:00Z</time>
      </trkpt>
      <trkpt lat="46.69417" lon="5.63042">
        <ele>547.5</ele>
        <time>2019-05-19T08:59:06Z</time>
      </trkpt>
      <trkpt lat="46.69407" lon="5.63039">
        <ele>548.1</ele>
        <time>2019-05-19T08:59:12Z</time>
      </trkpt>
      <trkpt lat="46.69396" lon="5.63036">
        <ele>548.6</ele>
        <time>2019-05-19T08:59:16Z</time>
      </trkpt>
      <trkpt lat="46.69387" lon="5.63029">
        <ele>549.3</ele>
        <time>2019-05-19T08:59:20Z</time>
      </trkpt>
      <trkpt lat="46.69383" lon="5.63016">
        <ele>550.2</ele>
        <time>2019-05-19T08:59:26Z</time>
      </trkpt>
      <trkpt lat="46.69377" lon="5.63006">
        <ele>551.2</ele>
        <time>2019-05-19T08:59:32Z</time>
      </trkpt>
      <trkpt lat="46.6937" lon="5.62997">
        <ele>552.5</ele>
        <time>2019-05-19T08:59:39Z</time>
      </trkpt>
      <trkpt lat="46.69361" lon="5.62993">
        <ele>553.6</ele>
        <time>2019-05-19T08:59:44Z</time>
      </trkpt>
      <trkpt lat="46.69352" lon="5.62989">
        <ele>555.4</ele>
        <time>2019-05-19T08:59:51Z</time>
      </trkpt>
      <trkpt lat="46.69344" lon="5.6298">
        <ele>556.8</ele>
        <time>2019-05-19T08:59:58Z</time>
      </trkpt>
      <trkpt lat="46.69335" lon="5.62974">
        <ele>558</ele>
        <time>2019-05-19T09:00:04Z</time>
      </trkpt>
      <trkpt lat="46.69328" lon="5.62966">
        <ele>559.5</ele>
        <time>2019-05-19T09:00:12Z</time>
      </trkpt>
      <trkpt lat="46.6932" lon="5.62959">
        <ele>561.1</ele>
        <time>2019-05-19T09:00:25Z</time>
      </trkpt>
      <trkpt lat="46.69313" lon="5.6295">
        <ele>562.1</ele>
        <time>2019-05-19T09:00:38Z</time>
      </trkpt>
      <trkpt lat="46.69304" lon="5.62943">
        <ele>563.8</ele>
        <time>2019-05-19T09:00:51Z</time>
      </trkpt>
      <trkpt lat="46.69297" lon="5.62936">
        <ele>564.7</ele>
        <time>2019-05-19T09:01:02Z</time>
      </trkpt>
      <trkpt lat="46.69289" lon="5.62931">
        <ele>565.9</ele>
        <time>2019-05-19T09:01:15Z</time>
      </trkpt>
      <trkpt lat="46.69282" lon="5.62922">
        <ele>566.9</ele>
        <time>2019-05-19T09:01:27Z</time>
      </trkpt>
      <trkpt lat="46.69272" lon="5.62918">
        <ele>568.2</ele>
        <time>2019-05-19T09:01:57Z</time>
      </trkpt>
      <trkpt lat="46.69263" lon="5.62914">
        <ele>568.4</ele>
        <time>2019-05-19T09:02:06Z</time>
      </trkpt>
      <trkpt lat="46.69257" lon="5.62904">
        <ele>568.7</ele>
        <time>2019-05-19T09:02:14Z</time>
      </trkpt>
      <trkpt lat="46.69252" lon="5.62892">
        <ele>569.2</ele>
        <time>2019-05-19T09:02:26Z</time>
      </trkpt>
      <trkpt lat="46.69249" lon="5.62879">
        <ele>569.4</ele>
        <time>2019-05-19T09:02:32Z</time>
      </trkpt>
      <trkpt lat="46.69242" lon="5.62869">
        <ele>569.5</ele>
        <time>2019-05-19T09:02:36Z</time>
      </trkpt>
      <trkpt lat="46.69242" lon="5.62854">
        <ele>569.7</ele>
        <time>2019-05-19T09:02:41Z</time>
      </trkpt>
      <trkpt lat="46.69245" lon="5.6284">
        <ele>569.8</ele>
        <time>2019-05-19T09:02:47Z</time>
      </trkpt>
      <trkpt lat="46.69252" lon="5.62828">
        <ele>570</ele>
        <time>2019-05-19T09:02:51Z</time>
      </trkpt>
      <trkpt lat="46.69258" lon="5.62816">
        <ele>570.3</ele>
        <time>2019-05-19T09:02:55Z</time>
      </trkpt>
      <trkpt lat="46.69262" lon="5.62804">
        <ele>570.5</ele>
        <time>2019-05-19T09:02:59Z</time>
      </trkpt>
      <trkpt lat="46.69268" lon="5.62791">
        <ele>570.7</ele>
        <time>2019-05-19T09:03:04Z</time>
      </trkpt>
      <trkpt lat="46.69271" lon="5.62776">
        <ele>570.9</ele>
        <time>2019-05-19T09:03:09Z</time>
      </trkpt>
      <trkpt lat="46.69277" lon="5.62766">
        <ele>571.2</ele>
        <time>2019-05-19T09:03:13Z</time>
      </trkpt>
      <trkpt lat="46.69283" lon="5.62752">
        <ele>571.6</ele>
        <time>2019-05-19T09:03:18Z</time>
      </trkpt>
      <trkpt lat="46.69289" lon="5.62739">
        <ele>571.8</ele>
        <time>2019-05-19T09:03:22Z</time>
      </trkpt>
      <trkpt lat="46.69295" lon="5.62727">
        <ele>571.8</ele>
        <time>2019-05-19T09:03:26Z</time>
      </trkpt>
      <trkpt lat="46.69301" lon="5.62714">
        <ele>572</ele>
        <time>2019-05-19T09:03:31Z</time>
      </trkpt>
      <trkpt lat="46.69305" lon="5.627">
        <ele>572.5</ele>
        <time>2019-05-19T09:03:36Z</time>
      </trkpt>
      <trkpt lat="46.69311" lon="5.62686">
        <ele>572.9</ele>
        <time>2019-05-19T09:03:41Z</time>
      </trkpt>
      <trkpt lat="46.69316" lon="5.62674">
        <ele>573.2</ele>
        <time>2019-05-19T09:03:45Z</time>
      </trkpt>
      <trkpt lat="46.69321" lon="5.62663">
        <ele>573.4</ele>
        <time>2019-05-19T09:03:48Z</time>
      </trkpt>
      <trkpt lat="46.69328" lon="5.62651">
        <ele>573.5</ele>
        <time>2019-05-19T09:03:51Z</time>
      </trkpt>
      <trkpt lat="46.69334" lon="5.62638">
        <ele>573.5</ele>
        <time>2019-05-19T09:03:54Z</time>
      </trkpt>
      <trkpt lat="46.69342" lon="5.62629">
        <ele>573.5</ele>
        <time>2019-05-19T09:03:57Z</time>
      </trkpt>
      <trkpt lat="46.69349" lon="5.62622">
        <ele>573.3</ele>
        <time>2019-05-19T09:04:00Z</time>
      </trkpt>
      <trkpt lat="46.69358" lon="5.62615">
        <ele>573</ele>
        <time>2019-05-19T09:04:02Z</time>
      </trkpt>
      <trkpt lat="46.69368" lon="5.62609">
        <ele>572.6</ele>
        <time>2019-05-19T09:04:04Z</time>
      </trkpt>
      <trkpt lat="46.69379" lon="5.626">
        <ele>572.2</ele>
        <time>2019-05-19T09:04:06Z</time>
      </trkpt>
      <trkpt lat="46.69389" lon="5.62591">
        <ele>571.7</ele>
        <time>2019-05-19T09:04:08Z</time>
      </trkpt>
      <trkpt lat="46.69401" lon="5.6258">
        <ele>571.2</ele>
        <time>2019-05-19T09:04:10Z</time>
      </trkpt>
      <trkpt lat="46.69413" lon="5.62567">
        <ele>570.8</ele>
        <time>2019-05-19T09:04:12Z</time>
      </trkpt>
      <trkpt lat="46.69426" lon="5.62555">
        <ele>570.2</ele>
        <time>2019-05-19T09:04:14Z</time>
      </trkpt>
      <trkpt lat="46.69435" lon="5.62545">
        <ele>569.5</ele>
        <time>2019-05-19T09:04:16Z</time>
      </trkpt>
      <trkpt lat="46.69443" lon="5.62535">
        <ele>568.9</ele>
        <time>2019-05-19T09:04:18Z</time>
      </trkpt>
      <trkpt lat="46.6945" lon="5.62524">
        <ele>568.2</ele>
        <time>2019-05-19T09:04:20Z</time>
      </trkpt>
      <trkpt lat="46.69458" lon="5.62516">
        <ele>567.4</ele>
        <time>2019-05-19T09:04:22Z</time>
      </trkpt>
      <trkpt lat="46.69467" lon="5.62508">
        <ele>566.6</ele>
        <time>2019-05-19T09:04:24Z</time>
      </trkpt>
      <trkpt lat="46.69476" lon="5.62495">
        <ele>565.4</ele>
        <time>2019-05-19T09:04:27Z</time>
      </trkpt>
      <trkpt lat="46.69483" lon="5.62483">
        <ele>564.5</ele>
        <time>2019-05-19T09:04:29Z</time>
      </trkpt>
      <trkpt lat="46.6949" lon="5.62471">
        <ele>563.6</ele>
        <time>2019-05-19T09:04:31Z</time>
      </trkpt>
      <trkpt lat="46.69495" lon="5.6246">
        <ele>562.6</ele>
        <time>2019-05-19T09:04:33Z</time>
      </trkpt>
      <trkpt lat="46.69506" lon="5.62458">
        <ele>561.2</ele>
        <time>2019-05-19T09:04:36Z</time>
      </trkpt>
      <trkpt lat="46.6952" lon="5.62461">
        <ele>560</ele>
        <time>2019-05-19T09:04:39Z</time>
      </trkpt>
      <trkpt lat="46.69531" lon="5.62451">
        <ele>558.9</ele>
        <time>2019-05-19T09:04:42Z</time>
      </trkpt>
      <trkpt lat="46.69544" lon="5.6244">
        <ele>558</ele>
        <time>2019-05-19T09:04:45Z</time>
      </trkpt>
      <trkpt lat="46.69555" lon="5.62436">
        <ele>557.4</ele>
        <time>2019-05-19T09:04:47Z</time>
      </trkpt>
      <trkpt lat="46.69563" lon="5.62429">
        <ele>556.9</ele>
        <time>2019-05-19T09:04:49Z</time>
      </trkpt>
      <trkpt lat="46.69573" lon="5.62417">
        <ele>556.1</ele>
        <time>2019-05-19T09:04:52Z</time>
      </trkpt>
      <trkpt lat="46.69584" lon="5.62407">
        <ele>555.4</ele>
        <time>2019-05-19T09:04:55Z</time>
      </trkpt>
      <trkpt lat="46.69592" lon="5.62397">
        <ele>554.8</ele>
        <time>2019-05-19T09:04:58Z</time>
      </trkpt>
      <trkpt lat="46.69601" lon="5.62388">
        <ele>554.3</ele>
        <time>2019-05-19T09:05:01Z</time>
      </trkpt>
      <trkpt lat="46.69607" lon="5.62377">
        <ele>553.6</ele>
        <time>2019-05-19T09:05:04Z</time>
      </trkpt>
      <trkpt lat="46.69615" lon="5.62371">
        <ele>552.8</ele>
        <time>2019-05-19T09:05:08Z</time>
      </trkpt>
      <trkpt lat="46.69623" lon="5.62366">
        <ele>552.1</ele>
        <time>2019-05-19T09:05:12Z</time>
      </trkpt>
      <trkpt lat="46.69634" lon="5.62362">
        <ele>551.3</ele>
        <time>2019-05-19T09:05:17Z</time>
      </trkpt>
      <trkpt lat="46.69643" lon="5.62357">
        <ele>551</ele>
        <time>2019-05-19T09:05:23Z</time>
      </trkpt>
      <trkpt lat="46.69652" lon="5.62353">
        <ele>551.4</ele>
        <time>2019-05-19T09:05:30Z</time>
      </trkpt>
      <trkpt lat="46.6966" lon="5.62346">
        <ele>552.2</ele>
        <time>2019-05-19T09:05:38Z</time>
      </trkpt>
      <trkpt lat="46.69668" lon="5.62336">
        <ele>552.7</ele>
        <time>2019-05-19T09:05:43Z</time>
      </trkpt>
      <trkpt lat="46.69678" lon="5.62326">
        <ele>553.1</ele>
        <time>2019-05-19T09:05:47Z</time>
      </trkpt>
      <trkpt lat="46.69684" lon="5.62316">
        <ele>553.3</ele>
        <time>2019-05-19T09:05:50Z</time>
      </trkpt>
      <trkpt lat="46.69695" lon="5.62306">
        <ele>553.5</ele>
        <time>2019-05-19T09:05:53Z</time>
      </trkpt>
      <trkpt lat="46.69705" lon="5.62294">
        <ele>553.4</ele>
        <time>2019-05-19T09:05:56Z</time>
      </trkpt>
      <trkpt lat="46.69715" lon="5.62284">
        <ele>553.2</ele>
        <time>2019-05-19T09:05:59Z</time>
      </trkpt>
      <trkpt lat="46.69725" lon="5.62281">
        <ele>552.8</ele>
        <time>2019-05-19T09:06:02Z</time>
      </trkpt>
      <trkpt lat="46.69734" lon="5.62273">
        <ele>552.3</ele>
        <time>2019-05-19T09:06:06Z</time>
      </trkpt>
      <trkpt lat="46.69742" lon="5.62263">
        <ele>551.6</ele>
        <time>2019-05-19T09:06:09Z</time>
      </trkpt>
      <trkpt lat="46.69751" lon="5.62255">
        <ele>550.7</ele>
        <time>2019-05-19T09:06:12Z</time>
      </trkpt>
      <trkpt lat="46.69763" lon="5.62255">
        <ele>549.8</ele>
        <time>2019-05-19T09:06:15Z</time>
      </trkpt>
      <trkpt lat="46.69775" lon="5.62255">
        <ele>549.1</ele>
        <time>2019-05-19T09:06:18Z</time>
      </trkpt>
      <trkpt lat="46.69786" lon="5.62256">
        <ele>548.4</ele>
        <time>2019-05-19T09:06:21Z</time>
      </trkpt>
      <trkpt lat="46.69797" lon="5.62253">
        <ele>547.8</ele>
        <time>2019-05-19T09:06:24Z</time>
      </trkpt>
      <trkpt lat="46.69806" lon="5.6225">
        <ele>547.4</ele>
        <time>2019-05-19T09:06:26Z</time>
      </trkpt>
      <trkpt lat="46.69816" lon="5.62247">
        <ele>547</ele>
        <time>2019-05-19T09:06:28Z</time>
      </trkpt>
      <trkpt lat="46.69829" lon="5.62243">
        <ele>546.4</ele>
        <time>2019-05-19T09:06:31Z</time>
      </trkpt>
      <trkpt lat="46.69838" lon="5.62238">
        <ele>546</ele>
        <time>2019-05-19T09:06:33Z</time>
      </trkpt>
      <trkpt lat="46.69848" lon="5.62232">
        <ele>545.6</ele>
        <time>2019-05-19T09:06:35Z</time>
      </trkpt>
      <trkpt lat="46.69856" lon="5.62224">
        <ele>545.1</ele>
        <time>2019-05-19T09:06:37Z</time>
      </trkpt>
      <trkpt lat="46.69865" lon="5.62219">
        <ele>544.7</ele>
        <time>2019-05-19T09:06:39Z</time>
      </trkpt>
      <trkpt lat="46.69876" lon="5.62216">
        <ele>543.9</ele>
        <time>2019-05-19T09:06:42Z</time>
      </trkpt>
      <trkpt lat="46.69887" lon="5.62213">
        <ele>543.1</ele>
        <time>2019-05-19T09:06:47Z</time>
      </trkpt>
      <trkpt lat="46.69898" lon="5.62209">
        <ele>542.6</ele>
        <time>2019-05-19T09:06:51Z</time>
      </trkpt>
      <trkpt lat="46.69908" lon="5.62206">
        <ele>542.3</ele>
        <time>2019-05-19T09:06:56Z</time>
      </trkpt>
      <trkpt lat="46.69919" lon="5.62203">
        <ele>542.1</ele>
        <time>2019-05-19T09:07:00Z</time>
      </trkpt>
      <trkpt lat="46.69928" lon="5.62199">
        <ele>541.9</ele>
        <time>2019-05-19T09:07:03Z</time>
      </trkpt>
      <trkpt lat="46.69937" lon="5.62193">
        <ele>541.8</ele>
        <time>2019-05-19T09:07:06Z</time>
      </trkpt>
      <trkpt lat="46.69948" lon="5.62188">
        <ele>541.7</ele>
        <time>2019-05-19T09:07:09Z</time>
      </trkpt>
      <trkpt lat="46.69958" lon="5.62182">
        <ele>541.7</ele>
        <time>2019-05-19T09:07:12Z</time>
      </trkpt>
      <trkpt lat="46.69967" lon="5.62179">
        <ele>541.9</ele>
        <time>2019-05-19T09:07:15Z</time>
      </trkpt>
      <trkpt lat="46.69977" lon="5.62174">
        <ele>542</ele>
        <time>2019-05-19T09:07:19Z</time>
      </trkpt>
      <trkpt lat="46.69989" lon="5.6217">
        <ele>541.9</ele>
        <time>2019-05-19T09:07:22Z</time>
      </trkpt>
      <trkpt lat="46.69999" lon="5.62167">
        <ele>541.6</ele>
        <time>2019-05-19T09:07:25Z</time>
      </trkpt>
      <trkpt lat="46.70008" lon="5.6216">
        <ele>541.1</ele>
        <time>2019-05-19T09:07:30Z</time>
      </trkpt>
      <trkpt lat="46.70017" lon="5.62156">
        <ele>540.6</ele>
        <time>2019-05-19T09:07:33Z</time>
      </trkpt>
      <trkpt lat="46.70027" lon="5.62162">
        <ele>539.9</ele>
        <time>2019-05-19T09:07:36Z</time>
      </trkpt>
      <trkpt lat="46.70037" lon="5.62175">
        <ele>539.1</ele>
        <time>2019-05-19T09:07:39Z</time>
      </trkpt>
      <trkpt lat="46.70047" lon="5.62184">
        <ele>538.2</ele>
        <time>2019-05-19T09:07:42Z</time>
      </trkpt>
      <trkpt lat="46.70058" lon="5.62185">
        <ele>537</ele>
        <time>2019-05-19T09:07:47Z</time>
      </trkpt>
      <trkpt lat="46.70068" lon="5.62184">
        <ele>536.6</ele>
        <time>2019-05-19T09:07:50Z</time>
      </trkpt>
      <trkpt lat="46.7008" lon="5.62186">
        <ele>536.3</ele>
        <time>2019-05-19T09:07:53Z</time>
      </trkpt>
      <trkpt lat="46.70091" lon="5.62183">
        <ele>536.2</ele>
        <time>2019-05-19T09:07:57Z</time>
      </trkpt>
      <trkpt lat="46.701" lon="5.6218">
        <ele>536.1</ele>
        <time>2019-05-19T09:08:01Z</time>
      </trkpt>
      <trkpt lat="46.7011" lon="5.62176">
        <ele>536.1</ele>
        <time>2019-05-19T09:08:05Z</time>
      </trkpt>
      <trkpt lat="46.7012" lon="5.62172">
        <ele>536.4</ele>
        <time>2019-05-19T09:08:10Z</time>
      </trkpt>
      <trkpt lat="46.70129" lon="5.62165">
        <ele>536.7</ele>
        <time>2019-05-19T09:08:15Z</time>
      </trkpt>
      <trkpt lat="46.70139" lon="5.6216">
        <ele>536.9</ele>
        <time>2019-05-19T09:08:19Z</time>
      </trkpt>
      <trkpt lat="46.70149" lon="5.62159">
        <ele>537</ele>
        <time>2019-05-19T09:08:22Z</time>
      </trkpt>
      <trkpt lat="46.70159" lon="5.62159">
        <ele>537.1</ele>
        <time>2019-05-19T09:08:25Z</time>
      </trkpt>
      <trkpt lat="46.70171" lon="5.62156">
        <ele>537.2</ele>
        <time>2019-05-19T09:08:29Z</time>
      </trkpt>
      <trkpt lat="46.70182" lon="5.62152">
        <ele>537.3</ele>
        <time>2019-05-19T09:08:33Z</time>
      </trkpt>
      <trkpt lat="46.70193" lon="5.6215">
        <ele>537.1</ele>
        <time>2019-05-19T09:08:36Z</time>
      </trkpt>
      <trkpt lat="46.70202" lon="5.62145">
        <ele>536.8</ele>
        <time>2019-05-19T09:08:39Z</time>
      </trkpt>
      <trkpt lat="46.7021" lon="5.62139">
        <ele>536.5</ele>
        <time>2019-05-19T09:08:41Z</time>
      </trkpt>
      <trkpt lat="46.70219" lon="5.62132">
        <ele>536</ele>
        <time>2019-05-19T09:08:43Z</time>
      </trkpt>
      <trkpt lat="46.70228" lon="5.62125">
        <ele>535.4</ele>
        <time>2019-05-19T09:08:45Z</time>
      </trkpt>
      <trkpt lat="46.70239" lon="5.62119">
        <ele>534.7</ele>
        <time>2019-05-19T09:08:47Z</time>
      </trkpt>
      <trkpt lat="46.70252" lon="5.62117">
        <ele>533.6</ele>
        <time>2019-05-19T09:08:50Z</time>
      </trkpt>
      <trkpt lat="46.70261" lon="5.62113">
        <ele>533</ele>
        <time>2019-05-19T09:08:52Z</time>
      </trkpt>
      <trkpt lat="46.7027" lon="5.62109">
        <ele>532.4</ele>
        <time>2019-05-19T09:08:54Z</time>
      </trkpt>
      <trkpt lat="46.7028" lon="5.62112">
        <ele>531.5</ele>
        <time>2019-05-19T09:08:57Z</time>
      </trkpt>
      <trkpt lat="46.70291" lon="5.62117">
        <ele>530.6</ele>
        <time>2019-05-19T09:09:00Z</time>
      </trkpt>
      <trkpt lat="46.70302" lon="5.62118">
        <ele>529.7</ele>
        <time>2019-05-19T09:09:03Z</time>
      </trkpt>
      <trkpt lat="46.70312" lon="5.62119">
        <ele>528.5</ele>
        <time>2019-05-19T09:09:08Z</time>
      </trkpt>
      <trkpt lat="46.70322" lon="5.62119">
        <ele>528.2</ele>
        <time>2019-05-19T09:09:12Z</time>
      </trkpt>
      <trkpt lat="46.70331" lon="5.62119">
        <ele>528.2</ele>
        <time>2019-05-19T09:09:16Z</time>
      </trkpt>
      <trkpt lat="46.70341" lon="5.62116">
        <ele>528.8</ele>
        <time>2019-05-19T09:09:21Z</time>
      </trkpt>
      <trkpt lat="46.70356" lon="5.62119">
        <ele>529.5</ele>
        <time>2019-05-19T09:09:25Z</time>
      </trkpt>
      <trkpt lat="46.70365" lon="5.62121">
        <ele>529.7</ele>
        <time>2019-05-19T09:09:27Z</time>
      </trkpt>
      <trkpt lat="46.70375" lon="5.62114">
        <ele>530.4</ele>
        <time>2019-05-19T09:09:33Z</time>
      </trkpt>
      <trkpt lat="46.70385" lon="5.62113">
        <ele>530.7</ele>
        <time>2019-05-19T09:09:37Z</time>
      </trkpt>
      <trkpt lat="46.70395" lon="5.62114">
        <ele>530.9</ele>
        <time>2019-05-19T09:09:40Z</time>
      </trkpt>
      <trkpt lat="46.70407" lon="5.62115">
        <ele>531.1</ele>
        <time>2019-05-19T09:09:43Z</time>
      </trkpt>
      <trkpt lat="46.70416" lon="5.62113">
        <ele>531.2</ele>
        <time>2019-05-19T09:09:45Z</time>
      </trkpt>
      <trkpt lat="46.70426" lon="5.62107">
        <ele>531.2</ele>
        <time>2019-05-19T09:09:47Z</time>
      </trkpt>
      <trkpt lat="46.70436" lon="5.62101">
        <ele>531.2</ele>
        <time>2019-05-19T09:09:49Z</time>
      </trkpt>
      <trkpt lat="46.70447" lon="5.62098">
        <ele>531</ele>
        <time>2019-05-19T09:09:51Z</time>
      </trkpt>
      <trkpt lat="46.70457" lon="5.62096">
        <ele>530.6</ele>
        <time>2019-05-19T09:09:53Z</time>
      </trkpt>
      <trkpt lat="46.70468" lon="5.62095">
        <ele>529.9</ele>
        <time>2019-05-19T09:09:56Z</time>
      </trkpt>
      <trkpt lat="46.70477" lon="5.62095">
        <ele>528.4</ele>
        <time>2019-05-19T09:10:01Z</time>
      </trkpt>
      <trkpt lat="46.70489" lon="5.62093">
        <ele>523.4</ele>
        <time>2019-05-19T09:11:05Z</time>
      </trkpt>
      <trkpt lat="46.70499" lon="5.6209">
        <ele>523.2</ele>
        <time>2019-05-19T09:11:08Z</time>
      </trkpt>
      <trkpt lat="46.70508" lon="5.6209">
        <ele>522.9</ele>
        <time>2019-05-19T09:11:12Z</time>
      </trkpt>
      <trkpt lat="46.70517" lon="5.62086">
        <ele>522.3</ele>
        <time>2019-05-19T09:11:18Z</time>
      </trkpt>
      <trkpt lat="46.70527" lon="5.62085">
        <ele>520.3</ele>
        <time>2019-05-19T09:11:50Z</time>
      </trkpt>
      <trkpt lat="46.70535" lon="5.62096">
        <ele>520.3</ele>
        <time>2019-05-19T09:11:55Z</time>
      </trkpt>
      <trkpt lat="46.70541" lon="5.62106">
        <ele>520.3</ele>
        <time>2019-05-19T09:11:59Z</time>
      </trkpt>
      <trkpt lat="46.7055" lon="5.62113">
        <ele>520.4</ele>
        <time>2019-05-19T09:12:04Z</time>
      </trkpt>
      <trkpt lat="46.7056" lon="5.62114">
        <ele>520.7</ele>
        <time>2019-05-19T09:12:10Z</time>
      </trkpt>
      <trkpt lat="46.70569" lon="5.62116">
        <ele>521.1</ele>
        <time>2019-05-19T09:12:15Z</time>
      </trkpt>
      <trkpt lat="46.70578" lon="5.62114">
        <ele>522.3</ele>
        <time>2019-05-19T09:12:25Z</time>
      </trkpt>
      <trkpt lat="46.70589" lon="5.62112">
        <ele>522.8</ele>
        <time>2019-05-19T09:12:31Z</time>
      </trkpt>
      <trkpt lat="46.70601" lon="5.62114">
        <ele>523.1</ele>
        <time>2019-05-19T09:12:35Z</time>
      </trkpt>
      <trkpt lat="46.7061" lon="5.62116">
        <ele>523.3</ele>
        <time>2019-05-19T09:12:38Z</time>
      </trkpt>
      <trkpt lat="46.7062" lon="5.62118">
        <ele>523.2</ele>
        <time>2019-05-19T09:12:41Z</time>
      </trkpt>
      <trkpt lat="46.70629" lon="5.62118">
        <ele>522.9</ele>
        <time>2019-05-19T09:12:44Z</time>
      </trkpt>
      <trkpt lat="46.70641" lon="5.62121">
        <ele>522.1</ele>
        <time>2019-05-19T09:12:47Z</time>
      </trkpt>
      <trkpt lat="46.70653" lon="5.62128">
        <ele>521.4</ele>
        <time>2019-05-19T09:12:50Z</time>
      </trkpt>
      <trkpt lat="46.70664" lon="5.62136">
        <ele>520.9</ele>
        <time>2019-05-19T09:12:53Z</time>
      </trkpt>
      <trkpt lat="46.70675" lon="5.62137">
        <ele>520.3</ele>
        <time>2019-05-19T09:12:56Z</time>
      </trkpt>
      <trkpt lat="46.70687" lon="5.62134">
        <ele>519.7</ele>
        <time>2019-05-19T09:12:59Z</time>
      </trkpt>
      <trkpt lat="46.707" lon="5.62131">
        <ele>519.2</ele>
        <time>2019-05-19T09:13:02Z</time>
      </trkpt>
      <trkpt lat="46.70711" lon="5.62126">
        <ele>518.6</ele>
        <time>2019-05-19T09:13:05Z</time>
      </trkpt>
      <trkpt lat="46.7072" lon="5.62119">
        <ele>518.1</ele>
        <time>2019-05-19T09:13:08Z</time>
      </trkpt>
      <trkpt lat="46.7073" lon="5.62116">
        <ele>517.7</ele>
        <time>2019-05-19T09:13:11Z</time>
      </trkpt>
      <trkpt lat="46.7074" lon="5.62111">
        <ele>517.3</ele>
        <time>2019-05-19T09:13:14Z</time>
      </trkpt>
      <trkpt lat="46.70751" lon="5.62104">
        <ele>516.8</ele>
        <time>2019-05-19T09:13:17Z</time>
      </trkpt>
      <trkpt lat="46.7076" lon="5.62095">
        <ele>516.3</ele>
        <time>2019-05-19T09:13:20Z</time>
      </trkpt>
      <trkpt lat="46.7077" lon="5.62089">
        <ele>515.6</ele>
        <time>2019-05-19T09:13:24Z</time>
      </trkpt>
      <trkpt lat="46.70778" lon="5.62083">
        <ele>514.7</ele>
        <time>2019-05-19T09:13:29Z</time>
      </trkpt>
      <trkpt lat="46.70783" lon="5.62071">
        <ele>513.9</ele>
        <time>2019-05-19T09:13:33Z</time>
      </trkpt>
      <trkpt lat="46.70781" lon="5.62057">
        <ele>512.6</ele>
        <time>2019-05-19T09:13:39Z</time>
      </trkpt>
      <trkpt lat="46.7079" lon="5.62061">
        <ele>511.5</ele>
        <time>2019-05-19T09:13:44Z</time>
      </trkpt>
      <trkpt lat="46.70797" lon="5.62072">
        <ele>510.8</ele>
        <time>2019-05-19T09:13:47Z</time>
      </trkpt>
      <trkpt lat="46.70806" lon="5.62081">
        <ele>510.3</ele>
        <time>2019-05-19T09:13:50Z</time>
      </trkpt>
      <trkpt lat="46.7081" lon="5.62094">
        <ele>509.8</ele>
        <time>2019-05-19T09:13:54Z</time>
      </trkpt>
      <trkpt lat="46.70818" lon="5.62101">
        <ele>509.4</ele>
        <time>2019-05-19T09:14:02Z</time>
      </trkpt>
      <trkpt lat="46.70829" lon="5.62103">
        <ele>509.5</ele>
        <time>2019-05-19T09:14:07Z</time>
      </trkpt>
      <trkpt lat="46.70838" lon="5.62103">
        <ele>509.6</ele>
        <time>2019-05-19T09:14:11Z</time>
      </trkpt>
      <trkpt lat="46.70847" lon="5.62106">
        <ele>510.3</ele>
        <time>2019-05-19T09:14:16Z</time>
      </trkpt>
      <trkpt lat="46.70856" lon="5.62108">
        <ele>511.1</ele>
        <time>2019-05-19T09:14:21Z</time>
      </trkpt>
      <trkpt lat="46.70866" lon="5.62106">
        <ele>511.8</ele>
        <time>2019-05-19T09:14:27Z</time>
      </trkpt>
      <trkpt lat="46.70877" lon="5.6211">
        <ele>512.3</ele>
        <time>2019-05-19T09:14:31Z</time>
      </trkpt>
      <trkpt lat="46.70888" lon="5.62111">
        <ele>512.8</ele>
        <time>2019-05-19T09:14:36Z</time>
      </trkpt>
      <trkpt lat="46.70896" lon="5.62115">
        <ele>513.1</ele>
        <time>2019-05-19T09:14:40Z</time>
      </trkpt>
      <trkpt lat="46.70905" lon="5.62125">
        <ele>513.6</ele>
        <time>2019-05-19T09:14:44Z</time>
      </trkpt>
      <trkpt lat="46.70913" lon="5.62132">
        <ele>514.2</ele>
        <time>2019-05-19T09:14:49Z</time>
      </trkpt>
      <trkpt lat="46.70922" lon="5.62136">
        <ele>514.8</ele>
        <time>2019-05-19T09:14:55Z</time>
      </trkpt>
      <trkpt lat="46.70932" lon="5.62142">
        <ele>515.3</ele>
        <time>2019-05-19T09:15:02Z</time>
      </trkpt>
      <trkpt lat="46.70942" lon="5.62141">
        <ele>515.7</ele>
        <time>2019-05-19T09:15:09Z</time>
      </trkpt>
      <trkpt lat="46.7095" lon="5.62148">
        <ele>516.3</ele>
        <time>2019-05-19T09:15:14Z</time>
      </trkpt>
      <trkpt lat="46.70959" lon="5.62148">
        <ele>517.3</ele>
        <time>2019-05-19T09:15:20Z</time>
      </trkpt>
      <trkpt lat="46.7097" lon="5.62145">
        <ele>518</ele>
        <time>2019-05-19T09:15:25Z</time>
      </trkpt>
      <trkpt lat="46.7098" lon="5.62145">
        <ele>518.5</ele>
        <time>2019-05-19T09:15:29Z</time>
      </trkpt>
      <trkpt lat="46.70994" lon="5.62144">
        <ele>518.8</ele>
        <time>2019-05-19T09:15:32Z</time>
      </trkpt>
      <trkpt lat="46.71005" lon="5.62147">
        <ele>519.2</ele>
        <time>2019-05-19T09:15:35Z</time>
      </trkpt>
      <trkpt lat="46.71014" lon="5.62151">
        <ele>519.7</ele>
        <time>2019-05-19T09:15:40Z</time>
      </trkpt>
      <trkpt lat="46.71023" lon="5.62153">
        <ele>519.9</ele>
        <time>2019-05-19T09:15:44Z</time>
      </trkpt>
      <trkpt lat="46.71033" lon="5.62154">
        <ele>520.1</ele>
        <time>2019-05-19T09:15:49Z</time>
      </trkpt>
      <trkpt lat="46.71043" lon="5.62154">
        <ele>520.3</ele>
        <time>2019-05-19T09:15:54Z</time>
      </trkpt>
      <trkpt lat="46.71053" lon="5.62154">
        <ele>520.4</ele>
        <time>2019-05-19T09:16:00Z</time>
      </trkpt>
      <trkpt lat="46.71062" lon="5.62152">
        <ele>520.6</ele>
        <time>2019-05-19T09:16:03Z</time>
      </trkpt>
      <trkpt lat="46.71072" lon="5.62153">
        <ele>520.9</ele>
        <time>2019-05-19T09:16:10Z</time>
      </trkpt>
      <trkpt lat="46.71081" lon="5.62156">
        <ele>521</ele>
        <time>2019-05-19T09:16:17Z</time>
      </trkpt>
      <trkpt lat="46.71092" lon="5.62149">
        <ele>520.9</ele>
        <time>2019-05-19T09:16:23Z</time>
      </trkpt>
      <trkpt lat="46.71101" lon="5.62149">
        <ele>520.6</ele>
        <time>2019-05-19T09:16:26Z</time>
      </trkpt>
      <trkpt lat="46.7111" lon="5.62149">
        <ele>520.1</ele>
        <time>2019-05-19T09:16:31Z</time>
      </trkpt>
      <trkpt lat="46.71119" lon="5.62153">
        <ele>519.9</ele>
        <time>2019-05-19T09:16:35Z</time>
      </trkpt>
      <trkpt lat="46.71131" lon="5.62156">
        <ele>519.6</ele>
        <time>2019-05-19T09:16:40Z</time>
      </trkpt>
      <trkpt lat="46.71142" lon="5.62161">
        <ele>519.2</ele>
        <time>2019-05-19T09:16:45Z</time>
      </trkpt>
      <trkpt lat="46.71152" lon="5.62165">
        <ele>518.5</ele>
        <time>2019-05-19T09:16:50Z</time>
      </trkpt>
      <trkpt lat="46.71162" lon="5.62165">
        <ele>517.9</ele>
        <time>2019-05-19T09:16:53Z</time>
      </trkpt>
      <trkpt lat="46.71171" lon="5.62164">
        <ele>517.1</ele>
        <time>2019-05-19T09:16:57Z</time>
      </trkpt>
      <trkpt lat="46.71181" lon="5.62161">
        <ele>516.5</ele>
        <time>2019-05-19T09:17:01Z</time>
      </trkpt>
      <trkpt lat="46.7119" lon="5.6216">
        <ele>515.9</ele>
        <time>2019-05-19T09:17:04Z</time>
      </trkpt>
      <trkpt lat="46.71202" lon="5.62163">
        <ele>515.4</ele>
        <time>2019-05-19T09:17:07Z</time>
      </trkpt>
      <trkpt lat="46.71213" lon="5.62162">
        <ele>514.7</ele>
        <time>2019-05-19T09:17:11Z</time>
      </trkpt>
      <trkpt lat="46.71222" lon="5.62159">
        <ele>514</ele>
        <time>2019-05-19T09:17:14Z</time>
      </trkpt>
      <trkpt lat="46.71233" lon="5.62153">
        <ele>513.2</ele>
        <time>2019-05-19T09:17:17Z</time>
      </trkpt>
      <trkpt lat="46.71244" lon="5.62149">
        <ele>512.4</ele>
        <time>2019-05-19T09:17:20Z</time>
      </trkpt>
      <trkpt lat="46.71251" lon="5.62141">
        <ele>511.4</ele>
        <time>2019-05-19T09:17:23Z</time>
      </trkpt>
      <trkpt lat="46.71259" lon="5.62133">
        <ele>510.3</ele>
        <time>2019-05-19T09:17:26Z</time>
      </trkpt>
      <trkpt lat="46.7127" lon="5.62126">
        <ele>508.7</ele>
        <time>2019-05-19T09:17:30Z</time>
      </trkpt>
      <trkpt lat="46.71279" lon="5.62114">
        <ele>507.1</ele>
        <time>2019-05-19T09:17:34Z</time>
      </trkpt>
      <trkpt lat="46.71287" lon="5.62105">
        <ele>506.3</ele>
        <time>2019-05-19T09:17:36Z</time>
      </trkpt>
      <trkpt lat="46.71291" lon="5.62092">
        <ele>504.6</ele>
        <time>2019-05-19T09:17:40Z</time>
      </trkpt>
      <trkpt lat="46.71301" lon="5.62089">
        <ele>502.6</ele>
        <time>2019-05-19T09:17:45Z</time>
      </trkpt>
      <trkpt lat="46.71311" lon="5.62092">
        <ele>501.5</ele>
        <time>2019-05-19T09:17:48Z</time>
      </trkpt>
      <trkpt lat="46.71324" lon="5.62095">
        <ele>499.7</ele>
        <time>2019-05-19T09:17:53Z</time>
      </trkpt>
      <trkpt lat="46.71337" lon="5.62097">
        <ele>498.9</ele>
        <time>2019-05-19T09:17:56Z</time>
      </trkpt>
      <trkpt lat="46.71351" lon="5.62099">
        <ele>498.2</ele>
        <time>2019-05-19T09:17:59Z</time>
      </trkpt>
      <trkpt lat="46.7136" lon="5.621">
        <ele>497.9</ele>
        <time>2019-05-19T09:18:01Z</time>
      </trkpt>
      <trkpt lat="46.7137" lon="5.621">
        <ele>497.5</ele>
        <time>2019-05-19T09:18:03Z</time>
      </trkpt>
      <trkpt lat="46.71381" lon="5.621">
        <ele>497.2</ele>
        <time>2019-05-19T09:18:05Z</time>
      </trkpt>
      <trkpt lat="46.7139" lon="5.62097">
        <ele>497</ele>
        <time>2019-05-19T09:18:07Z</time>
      </trkpt>
      <trkpt lat="46.71401" lon="5.62095">
        <ele>496.8</ele>
        <time>2019-05-19T09:18:09Z</time>
      </trkpt>
      <trkpt lat="46.71412" lon="5.62092">
        <ele>496.6</ele>
        <time>2019-05-19T09:18:11Z</time>
      </trkpt>
      <trkpt lat="46.71423" lon="5.62091">
        <ele>496.4</ele>
        <time>2019-05-19T09:18:13Z</time>
      </trkpt>
      <trkpt lat="46.71436" lon="5.62091">
        <ele>496.2</ele>
        <time>2019-05-19T09:18:15Z</time>
      </trkpt>
      <trkpt lat="46.7145" lon="5.62093">
        <ele>495.9</ele>
        <time>2019-05-19T09:18:17Z</time>
      </trkpt>
      <trkpt lat="46.71464" lon="5.62097">
        <ele>495.6</ele>
        <time>2019-05-19T09:18:19Z</time>
      </trkpt>
      <trkpt lat="46.71478" lon="5.62103">
        <ele>495.2</ele>
        <time>2019-05-19T09:18:21Z</time>
      </trkpt>
      <trkpt lat="46.71491" lon="5.6211">
        <ele>494.9</ele>
        <time>2019-05-19T09:18:23Z</time>
      </trkpt>
      <trkpt lat="46.71504" lon="5.62117">
        <ele>494.5</ele>
        <time>2019-05-19T09:18:25Z</time>
      </trkpt>
      <trkpt lat="46.71517" lon="5.62117">
        <ele>494.2</ele>
        <time>2019-05-19T09:18:27Z</time>
      </trkpt>
      <trkpt lat="46.7153" lon="5.62112">
        <ele>493.9</ele>
        <time>2019-05-19T09:18:29Z</time>
      </trkpt>
      <trkpt lat="46.71542" lon="5.62108">
        <ele>493.6</ele>
        <time>2019-05-19T09:18:31Z</time>
      </trkpt>
      <trkpt lat="46.71553" lon="5.6211">
        <ele>493.3</ele>
        <time>2019-05-19T09:18:33Z</time>
      </trkpt>
      <trkpt lat="46.71561" lon="5.6212">
        <ele>492.9</ele>
        <time>2019-05-19T09:18:35Z</time>
      </trkpt>
      <trkpt lat="46.71568" lon="5.6213">
        <ele>492.6</ele>
        <time>2019-05-19T09:18:37Z</time>
      </trkpt>
      <trkpt lat="46.71575" lon="5.62138">
        <ele>492.4</ele>
        <time>2019-05-19T09:18:39Z</time>
      </trkpt>
      <trkpt lat="46.71586" lon="5.62145">
        <ele>492.1</ele>
        <time>2019-05-19T09:18:42Z</time>
      </trkpt>
      <trkpt lat="46.71596" lon="5.62146">
        <ele>492</ele>
        <time>2019-05-19T09:18:45Z</time>
      </trkpt>
      <trkpt lat="46.71605" lon="5.62136">
        <ele>492.1</ele>
        <time>2019-05-19T09:18:49Z</time>
      </trkpt>
      <trkpt lat="46.71613" lon="5.62128">
        <ele>492.2</ele>
        <time>2019-05-19T09:18:52Z</time>
      </trkpt>
      <trkpt lat="46.71621" lon="5.62118">
        <ele>492.4</ele>
        <time>2019-05-19T09:18:56Z</time>
      </trkpt>
      <trkpt lat="46.71629" lon="5.6211">
        <ele>492.8</ele>
        <time>2019-05-19T09:19:00Z</time>
      </trkpt>
      <trkpt lat="46.71639" lon="5.62105">
        <ele>493.2</ele>
        <time>2019-05-19T09:19:04Z</time>
      </trkpt>
      <trkpt lat="46.71649" lon="5.62102">
        <ele>493.6</ele>
        <time>2019-05-19T09:19:08Z</time>
      </trkpt>
      <trkpt lat="46.7166" lon="5.621">
        <ele>494</ele>
        <time>2019-05-19T09:19:12Z</time>
      </trkpt>
      <trkpt lat="46.7167" lon="5.621">
        <ele>494.3</ele>
        <time>2019-05-19T09:19:15Z</time>
      </trkpt>
      <trkpt lat="46.71682" lon="5.62102">
        <ele>494.5</ele>
        <time>2019-05-19T09:19:18Z</time>
      </trkpt>
      <trkpt lat="46.71691" lon="5.62104">
        <ele>494.7</ele>
        <time>2019-05-19T09:19:20Z</time>
      </trkpt>
      <trkpt lat="46.71701" lon="5.62106">
        <ele>494.8</ele>
        <time>2019-05-19T09:19:22Z</time>
      </trkpt>
      <trkpt lat="46.71712" lon="5.62108">
        <ele>494.9</ele>
        <time>2019-05-19T09:19:24Z</time>
      </trkpt>
      <trkpt lat="46.71723" lon="5.6211">
        <ele>494.9</ele>
        <time>2019-05-19T09:19:26Z</time>
      </trkpt>
      <trkpt lat="46.71735" lon="5.62112">
        <ele>495</ele>
        <time>2019-05-19T09:19:28Z</time>
      </trkpt>
      <trkpt lat="46.71747" lon="5.62113">
        <ele>495</ele>
        <time>2019-05-19T09:19:30Z</time>
      </trkpt>
      <trkpt lat="46.71758" lon="5.62114">
        <ele>495</ele>
        <time>2019-05-19T09:19:32Z</time>
      </trkpt>
      <trkpt lat="46.71769" lon="5.62114">
        <ele>495</ele>
        <time>2019-05-19T09:19:34Z</time>
      </trkpt>
      <trkpt lat="46.71779" lon="5.62115">
        <ele>495</ele>
        <time>2019-05-19T09:19:36Z</time>
      </trkpt>
      <trkpt lat="46.71788" lon="5.62116">
        <ele>495</ele>
        <time>2019-05-19T09:19:38Z</time>
      </trkpt>
      <trkpt lat="46.71797" lon="5.62116">
        <ele>495</ele>
        <time>2019-05-19T09:19:40Z</time>
      </trkpt>
      <trkpt lat="46.71807" lon="5.62117">
        <ele>495</ele>
        <time>2019-05-19T09:19:42Z</time>
      </trkpt>
      <trkpt lat="46.71816" lon="5.62117">
        <ele>495</ele>
        <time>2019-05-19T09:19:44Z</time>
      </trkpt>
      <trkpt lat="46.71829" lon="5.62118">
        <ele>495</ele>
        <time>2019-05-19T09:19:47Z</time>
      </trkpt>
      <trkpt lat="46.71841" lon="5.62119">
        <ele>495</ele>
        <time>2019-05-19T09:19:50Z</time>
      </trkpt>
      <trkpt lat="46.71853" lon="5.6212">
        <ele>495.1</ele>
        <time>2019-05-19T09:19:53Z</time>
      </trkpt>
      <trkpt lat="46.71864" lon="5.62121">
        <ele>495.3</ele>
        <time>2019-05-19T09:19:56Z</time>
      </trkpt>
      <trkpt lat="46.71874" lon="5.62123">
        <ele>495.5</ele>
        <time>2019-05-19T09:19:59Z</time>
      </trkpt>
      <trkpt lat="46.71883" lon="5.62125">
        <ele>495.8</ele>
        <time>2019-05-19T09:20:02Z</time>
      </trkpt>
      <trkpt lat="46.71893" lon="5.62127">
        <ele>496</ele>
        <time>2019-05-19T09:20:05Z</time>
      </trkpt>
      <trkpt lat="46.71902" lon="5.6213">
        <ele>496.3</ele>
        <time>2019-05-19T09:20:08Z</time>
      </trkpt>
      <trkpt lat="46.71912" lon="5.62132">
        <ele>496.5</ele>
        <time>2019-05-19T09:20:11Z</time>
      </trkpt>
      <trkpt lat="46.71923" lon="5.62135">
        <ele>496.8</ele>
        <time>2019-05-19T09:20:14Z</time>
      </trkpt>
      <trkpt lat="46.71933" lon="5.62138">
        <ele>497</ele>
        <time>2019-05-19T09:20:17Z</time>
      </trkpt>
      <trkpt lat="46.71942" lon="5.62143">
        <ele>497.1</ele>
        <time>2019-05-19T09:20:20Z</time>
      </trkpt>
      <trkpt lat="46.7195" lon="5.62152">
        <ele>497.3</ele>
        <time>2019-05-19T09:20:23Z</time>
      </trkpt>
      <trkpt lat="46.71958" lon="5.62162">
        <ele>497.5</ele>
        <time>2019-05-19T09:20:26Z</time>
      </trkpt>
      <trkpt lat="46.71965" lon="5.62171">
        <ele>497.7</ele>
        <time>2019-05-19T09:20:29Z</time>
      </trkpt>
      <trkpt lat="46.71973" lon="5.62182">
        <ele>497.9</ele>
        <time>2019-05-19T09:20:32Z</time>
      </trkpt>
      <trkpt lat="46.71981" lon="5.62193">
        <ele>498.1</ele>
        <time>2019-05-19T09:20:35Z</time>
      </trkpt>
      <trkpt lat="46.71991" lon="5.62204">
        <ele>498.3</ele>
        <time>2019-05-19T09:20:38Z</time>
      </trkpt>
      <trkpt lat="46.72002" lon="5.62211">
        <ele>498.4</ele>
        <time>2019-05-19T09:20:41Z</time>
      </trkpt>
      <trkpt lat="46.72015" lon="5.62215">
        <ele>498.6</ele>
        <time>2019-05-19T09:20:44Z</time>
      </trkpt>
      <trkpt lat="46.72024" lon="5.62217">
        <ele>498.7</ele>
        <time>2019-05-19T09:20:46Z</time>
      </trkpt>
      <trkpt lat="46.72037" lon="5.62218">
        <ele>498.9</ele>
        <time>2019-05-19T09:20:49Z</time>
      </trkpt>
      <trkpt lat="46.72049" lon="5.62218">
        <ele>499.2</ele>
        <time>2019-05-19T09:20:52Z</time>
      </trkpt>
      <trkpt lat="46.72062" lon="5.62218">
        <ele>499.5</ele>
        <time>2019-05-19T09:20:55Z</time>
      </trkpt>
      <trkpt lat="46.72075" lon="5.62218">
        <ele>499.9</ele>
        <time>2019-05-19T09:20:58Z</time>
      </trkpt>
      <trkpt lat="46.72088" lon="5.62218">
        <ele>500.4</ele>
        <time>2019-05-19T09:21:01Z</time>
      </trkpt>
      <trkpt lat="46.72102" lon="5.62218">
        <ele>500.8</ele>
        <time>2019-05-19T09:21:04Z</time>
      </trkpt>
      <trkpt lat="46.72115" lon="5.62219">
        <ele>501.3</ele>
        <time>2019-05-19T09:21:07Z</time>
      </trkpt>
      <trkpt lat="46.72125" lon="5.6222">
        <ele>501.6</ele>
        <time>2019-05-19T09:21:09Z</time>
      </trkpt>
      <trkpt lat="46.72135" lon="5.6222">
        <ele>501.8</ele>
        <time>2019-05-19T09:21:11Z</time>
      </trkpt>
      <trkpt lat="46.72146" lon="5.62222">
        <ele>502</ele>
        <time>2019-05-19T09:21:13Z</time>
      </trkpt>
      <trkpt lat="46.72157" lon="5.62223">
        <ele>502.2</ele>
        <time>2019-05-19T09:21:15Z</time>
      </trkpt>
      <trkpt lat="46.72169" lon="5.62224">
        <ele>502.3</ele>
        <time>2019-05-19T09:21:17Z</time>
      </trkpt>
      <trkpt lat="46.72181" lon="5.62225">
        <ele>502.4</ele>
        <time>2019-05-19T09:21:19Z</time>
      </trkpt>
      <trkpt lat="46.72193" lon="5.62227">
        <ele>502.5</ele>
        <time>2019-05-19T09:21:21Z</time>
      </trkpt>
      <trkpt lat="46.72206" lon="5.62229">
        <ele>502.4</ele>
        <time>2019-05-19T09:21:23Z</time>
      </trkpt>
      <trkpt lat="46.72218" lon="5.62231">
        <ele>502.4</ele>
        <time>2019-05-19T09:21:25Z</time>
      </trkpt>
      <trkpt lat="46.7223" lon="5.62233">
        <ele>502.4</ele>
        <time>2019-05-19T09:21:27Z</time>
      </trkpt>
      <trkpt lat="46.72243" lon="5.62236">
        <ele>502.2</ele>
        <time>2019-05-19T09:21:29Z</time>
      </trkpt>
      <trkpt lat="46.72256" lon="5.62239">
        <ele>502.1</ele>
        <time>2019-05-19T09:21:31Z</time>
      </trkpt>
      <trkpt lat="46.7227" lon="5.62241">
        <ele>501.9</ele>
        <time>2019-05-19T09:21:33Z</time>
      </trkpt>
      <trkpt lat="46.72282" lon="5.62242">
        <ele>501.7</ele>
        <time>2019-05-19T09:21:35Z</time>
      </trkpt>
      <trkpt lat="46.72294" lon="5.62246">
        <ele>501.5</ele>
        <time>2019-05-19T09:21:37Z</time>
      </trkpt>
      <trkpt lat="46.72304" lon="5.62249">
        <ele>501.2</ele>
        <time>2019-05-19T09:21:39Z</time>
      </trkpt>
      <trkpt lat="46.72316" lon="5.62254">
        <ele>500.8</ele>
        <time>2019-05-19T09:21:42Z</time>
      </trkpt>
      <trkpt lat="46.72327" lon="5.62262">
        <ele>500.3</ele>
        <time>2019-05-19T09:21:45Z</time>
      </trkpt>
      <trkpt lat="46.72338" lon="5.6227">
        <ele>499.8</ele>
        <time>2019-05-19T09:21:48Z</time>
      </trkpt>
      <trkpt lat="46.72346" lon="5.62278">
        <ele>499.4</ele>
        <time>2019-05-19T09:21:50Z</time>
      </trkpt>
      <trkpt lat="46.72355" lon="5.62288">
        <ele>499</ele>
        <time>2019-05-19T09:21:52Z</time>
      </trkpt>
      <trkpt lat="46.72364" lon="5.62298">
        <ele>498.6</ele>
        <time>2019-05-19T09:21:54Z</time>
      </trkpt>
      <trkpt lat="46.72374" lon="5.62306">
        <ele>498.1</ele>
        <time>2019-05-19T09:21:56Z</time>
      </trkpt>
      <trkpt lat="46.72385" lon="5.62311">
        <ele>497.7</ele>
        <time>2019-05-19T09:21:58Z</time>
      </trkpt>
      <trkpt lat="46.72394" lon="5.62317">
        <ele>497.4</ele>
        <time>2019-05-19T09:22:00Z</time>
      </trkpt>
      <trkpt lat="46.72403" lon="5.62323">
        <ele>497</ele>
        <time>2019-05-19T09:22:02Z</time>
      </trkpt>
      <trkpt lat="46.72412" lon="5.6233">
        <ele>496.6</ele>
        <time>2019-05-19T09:22:04Z</time>
      </trkpt>
      <trkpt lat="46.72421" lon="5.62336">
        <ele>496.2</ele>
        <time>2019-05-19T09:22:06Z</time>
      </trkpt>
      <trkpt lat="46.7243" lon="5.62341">
        <ele>495.9</ele>
        <time>2019-05-19T09:22:08Z</time>
      </trkpt>
      <trkpt lat="46.72439" lon="5.62347">
        <ele>495.6</ele>
        <time>2019-05-19T09:22:10Z</time>
      </trkpt>
      <trkpt lat="46.72448" lon="5.62351">
        <ele>495.4</ele>
        <time>2019-05-19T09:22:12Z</time>
      </trkpt>
      <trkpt lat="46.72458" lon="5.62356">
        <ele>495.1</ele>
        <time>2019-05-19T09:22:14Z</time>
      </trkpt>
      <trkpt lat="46.72469" lon="5.62358">
        <ele>494.8</ele>
        <time>2019-05-19T09:22:16Z</time>
      </trkpt>
      <trkpt lat="46.7248" lon="5.6236">
        <ele>494.5</ele>
        <time>2019-05-19T09:22:18Z</time>
      </trkpt>
      <trkpt lat="46.72492" lon="5.62362">
        <ele>494</ele>
        <time>2019-05-19T09:22:20Z</time>
      </trkpt>
      <trkpt lat="46.72504" lon="5.62368">
        <ele>493.6</ele>
        <time>2019-05-19T09:22:22Z</time>
      </trkpt>
      <trkpt lat="46.72515" lon="5.62378">
        <ele>493.2</ele>
        <time>2019-05-19T09:22:24Z</time>
      </trkpt>
      <trkpt lat="46.72526" lon="5.62393">
        <ele>492.6</ele>
        <time>2019-05-19T09:22:26Z</time>
      </trkpt>
      <trkpt lat="46.72535" lon="5.6241">
        <ele>491.9</ele>
        <time>2019-05-19T09:22:28Z</time>
      </trkpt>
      <trkpt lat="46.72545" lon="5.62426">
        <ele>491.2</ele>
        <time>2019-05-19T09:22:30Z</time>
      </trkpt>
      <trkpt lat="46.72557" lon="5.62439">
        <ele>490.6</ele>
        <time>2019-05-19T09:22:32Z</time>
      </trkpt>
      <trkpt lat="46.72569" lon="5.6245">
        <ele>490</ele>
        <time>2019-05-19T09:22:34Z</time>
      </trkpt>
      <trkpt lat="46.7258" lon="5.62462">
        <ele>489.1</ele>
        <time>2019-05-19T09:22:36Z</time>
      </trkpt>
      <trkpt lat="46.72592" lon="5.62474">
        <ele>488.3</ele>
        <time>2019-05-19T09:22:38Z</time>
      </trkpt>
      <trkpt lat="46.72604" lon="5.62485">
        <ele>487.5</ele>
        <time>2019-05-19T09:22:40Z</time>
      </trkpt>
      <trkpt lat="46.72616" lon="5.62493">
        <ele>486.6</ele>
        <time>2019-05-19T09:22:42Z</time>
      </trkpt>
      <trkpt lat="46.72627" lon="5.62496">
        <ele>485.7</ele>
        <time>2019-05-19T09:22:44Z</time>
      </trkpt>
      <trkpt lat="46.72636" lon="5.6249">
        <ele>485</ele>
        <time>2019-05-19T09:22:46Z</time>
      </trkpt>
      <trkpt lat="46.72646" lon="5.62483">
        <ele>484.1</ele>
        <time>2019-05-19T09:22:49Z</time>
      </trkpt>
      <trkpt lat="46.72655" lon="5.62481">
        <ele>483.3</ele>
        <time>2019-05-19T09:22:52Z</time>
      </trkpt>
      <trkpt lat="46.72666" lon="5.62482">
        <ele>482.7</ele>
        <time>2019-05-19T09:22:55Z</time>
      </trkpt>
      <trkpt lat="46.72675" lon="5.62485">
        <ele>482.2</ele>
        <time>2019-05-19T09:22:58Z</time>
      </trkpt>
      <trkpt lat="46.72685" lon="5.62489">
        <ele>481.8</ele>
        <time>2019-05-19T09:23:01Z</time>
      </trkpt>
      <trkpt lat="46.72695" lon="5.6249">
        <ele>481.6</ele>
        <time>2019-05-19T09:23:04Z</time>
      </trkpt>
      <trkpt lat="46.72706" lon="5.62488">
        <ele>481.5</ele>
        <time>2019-05-19T09:23:07Z</time>
      </trkpt>
      <trkpt lat="46.72715" lon="5.62487">
        <ele>481.6</ele>
        <time>2019-05-19T09:23:10Z</time>
      </trkpt>
      <trkpt lat="46.72726" lon="5.62489">
        <ele>481.7</ele>
        <time>2019-05-19T09:23:14Z</time>
      </trkpt>
      <trkpt lat="46.72737" lon="5.62496">
        <ele>481.7</ele>
        <time>2019-05-19T09:23:17Z</time>
      </trkpt>
      <trkpt lat="46.72746" lon="5.62502">
        <ele>481.7</ele>
        <time>2019-05-19T09:23:19Z</time>
      </trkpt>
      <trkpt lat="46.72754" lon="5.62513">
        <ele>481.7</ele>
        <time>2019-05-19T09:23:22Z</time>
      </trkpt>
      <trkpt lat="46.72763" lon="5.62519">
        <ele>481.7</ele>
        <time>2019-05-19T09:23:25Z</time>
      </trkpt>
      <trkpt lat="46.72772" lon="5.62519">
        <ele>481.6</ele>
        <time>2019-05-19T09:23:29Z</time>
      </trkpt>
      <trkpt lat="46.72782" lon="5.62519">
        <ele>481.6</ele>
        <time>2019-05-19T09:23:33Z</time>
      </trkpt>
      <trkpt lat="46.72793" lon="5.62521">
        <ele>481.6</ele>
        <time>2019-05-19T09:23:37Z</time>
      </trkpt>
      <trkpt lat="46.72804" lon="5.62521">
        <ele>481.7</ele>
        <time>2019-05-19T09:23:41Z</time>
      </trkpt>
      <trkpt lat="46.72813" lon="5.62519">
        <ele>481.7</ele>
        <time>2019-05-19T09:23:44Z</time>
      </trkpt>
      <trkpt lat="46.72824" lon="5.6252">
        <ele>481.6</ele>
        <time>2019-05-19T09:23:47Z</time>
      </trkpt>
      <trkpt lat="46.72836" lon="5.62525">
        <ele>481.6</ele>
        <time>2019-05-19T09:23:50Z</time>
      </trkpt>
      <trkpt lat="46.72846" lon="5.62531">
        <ele>481.5</ele>
        <time>2019-05-19T09:23:52Z</time>
      </trkpt>
      <trkpt lat="46.72858" lon="5.6254">
        <ele>481.3</ele>
        <time>2019-05-19T09:23:55Z</time>
      </trkpt>
      <trkpt lat="46.72867" lon="5.62546">
        <ele>481.1</ele>
        <time>2019-05-19T09:23:58Z</time>
      </trkpt>
      <trkpt lat="46.72878" lon="5.62549">
        <ele>480.9</ele>
        <time>2019-05-19T09:24:02Z</time>
      </trkpt>
      <trkpt lat="46.72886" lon="5.62557">
        <ele>480.8</ele>
        <time>2019-05-19T09:24:05Z</time>
      </trkpt>
      <trkpt lat="46.72895" lon="5.6256">
        <ele>480.8</ele>
        <time>2019-05-19T09:24:08Z</time>
      </trkpt>
      <trkpt lat="46.72906" lon="5.62561">
        <ele>480.7</ele>
        <time>2019-05-19T09:24:11Z</time>
      </trkpt>
      <trkpt lat="46.72915" lon="5.62563">
        <ele>480.7</ele>
        <time>2019-05-19T09:24:13Z</time>
      </trkpt>
      <trkpt lat="46.72925" lon="5.6256">
        <ele>480.5</ele>
        <time>2019-05-19T09:24:16Z</time>
      </trkpt>
      <trkpt lat="46.72935" lon="5.62562">
        <ele>480.3</ele>
        <time>2019-05-19T09:24:18Z</time>
      </trkpt>
      <trkpt lat="46.72945" lon="5.62562">
        <ele>480.1</ele>
        <time>2019-05-19T09:24:20Z</time>
      </trkpt>
      <trkpt lat="46.72958" lon="5.62572">
        <ele>479.9</ele>
        <time>2019-05-19T09:24:22Z</time>
      </trkpt>
      <trkpt lat="46.72966" lon="5.62579">
        <ele>479.5</ele>
        <time>2019-05-19T09:24:24Z</time>
      </trkpt>
      <trkpt lat="46.72976" lon="5.62583">
        <ele>479.3</ele>
        <time>2019-05-19T09:24:26Z</time>
      </trkpt>
      <trkpt lat="46.72986" lon="5.62584">
        <ele>478.9</ele>
        <time>2019-05-19T09:24:28Z</time>
      </trkpt>
      <trkpt lat="46.72996" lon="5.62584">
        <ele>478.5</ele>
        <time>2019-05-19T09:24:30Z</time>
      </trkpt>
      <trkpt lat="46.73007" lon="5.6258">
        <ele>477.9</ele>
        <time>2019-05-19T09:24:33Z</time>
      </trkpt>
      <trkpt lat="46.73018" lon="5.62581">
        <ele>477.5</ele>
        <time>2019-05-19T09:24:36Z</time>
      </trkpt>
      <trkpt lat="46.73028" lon="5.62581">
        <ele>477.1</ele>
        <time>2019-05-19T09:24:39Z</time>
      </trkpt>
      <trkpt lat="46.73038" lon="5.6258">
        <ele>476.9</ele>
        <time>2019-05-19T09:24:42Z</time>
      </trkpt>
      <trkpt lat="46.73051" lon="5.62587">
        <ele>476.8</ele>
        <time>2019-05-19T09:24:45Z</time>
      </trkpt>
      <trkpt lat="46.7306" lon="5.62593">
        <ele>476.8</ele>
        <time>2019-05-19T09:24:48Z</time>
      </trkpt>
      <trkpt lat="46.73069" lon="5.62596">
        <ele>476.8</ele>
        <time>2019-05-19T09:24:51Z</time>
      </trkpt>
      <trkpt lat="46.73081" lon="5.62593">
        <ele>476.8</ele>
        <time>2019-05-19T09:24:54Z</time>
      </trkpt>
      <trkpt lat="46.73091" lon="5.62586">
        <ele>477</ele>
        <time>2019-05-19T09:24:58Z</time>
      </trkpt>
      <trkpt lat="46.73101" lon="5.62579">
        <ele>477.2</ele>
        <time>2019-05-19T09:25:02Z</time>
      </trkpt>
      <trkpt lat="46.73111" lon="5.62577">
        <ele>477.5</ele>
        <time>2019-05-19T09:25:06Z</time>
      </trkpt>
      <trkpt lat="46.73121" lon="5.62572">
        <ele>477.7</ele>
        <time>2019-05-19T09:25:10Z</time>
      </trkpt>
      <trkpt lat="46.73131" lon="5.62572">
        <ele>478.3</ele>
        <time>2019-05-19T09:25:14Z</time>
      </trkpt>
      <trkpt lat="46.73141" lon="5.62571">
        <ele>478.7</ele>
        <time>2019-05-19T09:25:18Z</time>
      </trkpt>
      <trkpt lat="46.73152" lon="5.62573">
        <ele>479</ele>
        <time>2019-05-19T09:25:21Z</time>
      </trkpt>
      <trkpt lat="46.73163" lon="5.62565">
        <ele>479.3</ele>
        <time>2019-05-19T09:25:25Z</time>
      </trkpt>
      <trkpt lat="46.73172" lon="5.62553">
        <ele>479.5</ele>
        <time>2019-05-19T09:25:28Z</time>
      </trkpt>
      <trkpt lat="46.7318" lon="5.6254">
        <ele>479.6</ele>
        <time>2019-05-19T09:25:31Z</time>
      </trkpt>
      <trkpt lat="46.73189" lon="5.62526">
        <ele>479.7</ele>
        <time>2019-05-19T09:25:34Z</time>
      </trkpt>
      <trkpt lat="46.73197" lon="5.62511">
        <ele>479.6</ele>
        <time>2019-05-19T09:25:37Z</time>
      </trkpt>
      <trkpt lat="46.73204" lon="5.62496">
        <ele>479.5</ele>
        <time>2019-05-19T09:25:40Z</time>
      </trkpt>
      <trkpt lat="46.73212" lon="5.62485">
        <ele>479.4</ele>
        <time>2019-05-19T09:25:43Z</time>
      </trkpt>
      <trkpt lat="46.7322" lon="5.62474">
        <ele>479.5</ele>
        <time>2019-05-19T09:25:47Z</time>
      </trkpt>
      <trkpt lat="46.73229" lon="5.62484">
        <ele>479.6</ele>
        <time>2019-05-19T09:25:53Z</time>
      </trkpt>
      <trkpt lat="46.73239" lon="5.62488">
        <ele>479.7</ele>
        <time>2019-05-19T09:25:56Z</time>
      </trkpt>
      <trkpt lat="46.7325" lon="5.62494">
        <ele>479.7</ele>
        <time>2019-05-19T09:26:00Z</time>
      </trkpt>
      <trkpt lat="46.7326" lon="5.625">
        <ele>479.6</ele>
        <time>2019-05-19T09:26:03Z</time>
      </trkpt>
      <trkpt lat="46.73272" lon="5.62509">
        <ele>479.5</ele>
        <time>2019-05-19T09:26:06Z</time>
      </trkpt>
      <trkpt lat="46.73282" lon="5.62519">
        <ele>479.3</ele>
        <time>2019-05-19T09:26:09Z</time>
      </trkpt>
      <trkpt lat="46.73294" lon="5.62527">
        <ele>478.9</ele>
        <time>2019-05-19T09:26:12Z</time>
      </trkpt>
      <trkpt lat="46.73304" lon="5.62532">
        <ele>478.3</ele>
        <time>2019-05-19T09:26:15Z</time>
      </trkpt>
      <trkpt lat="46.73315" lon="5.62539">
        <ele>477.8</ele>
        <time>2019-05-19T09:26:18Z</time>
      </trkpt>
      <trkpt lat="46.73324" lon="5.62547">
        <ele>477.3</ele>
        <time>2019-05-19T09:26:21Z</time>
      </trkpt>
      <trkpt lat="46.73337" lon="5.62549">
        <ele>477.1</ele>
        <time>2019-05-19T09:26:23Z</time>
      </trkpt>
      <trkpt lat="46.73347" lon="5.6255">
        <ele>476.7</ele>
        <time>2019-05-19T09:26:26Z</time>
      </trkpt>
      <trkpt lat="46.73356" lon="5.62545">
        <ele>476.4</ele>
        <time>2019-05-19T09:26:30Z</time>
      </trkpt>
      <trkpt lat="46.73365" lon="5.6254">
        <ele>475.9</ele>
        <time>2019-05-19T09:26:36Z</time>
      </trkpt>
      <trkpt lat="46.73375" lon="5.62536">
        <ele>475.3</ele>
        <time>2019-05-19T09:26:42Z</time>
      </trkpt>
      <trkpt lat="46.73386" lon="5.62531">
        <ele>474.9</ele>
        <time>2019-05-19T09:26:46Z</time>
      </trkpt>
      <trkpt lat="46.73393" lon="5.62522">
        <ele>474.7</ele>
        <time>2019-05-19T09:26:50Z</time>
      </trkpt>
      <trkpt lat="46.73401" lon="5.62515">
        <ele>474.6</ele>
        <time>2019-05-19T09:26:53Z</time>
      </trkpt>
      <trkpt lat="46.73412" lon="5.62507">
        <ele>474.6</ele>
        <time>2019-05-19T09:26:57Z</time>
      </trkpt>
      <trkpt lat="46.7342" lon="5.62497">
        <ele>474.5</ele>
        <time>2019-05-19T09:27:02Z</time>
      </trkpt>
      <trkpt lat="46.73427" lon="5.6249">
        <ele>474.6</ele>
        <time>2019-05-19T09:27:17Z</time>
      </trkpt>
      <trkpt lat="46.73432" lon="5.62478">
        <ele>475.5</ele>
        <time>2019-05-19T09:27:31Z</time>
      </trkpt>
      <trkpt lat="46.73442" lon="5.62465">
        <ele>476.3</ele>
        <time>2019-05-19T09:27:42Z</time>
      </trkpt>
      <trkpt lat="46.73451" lon="5.62458">
        <ele>476.6</ele>
        <time>2019-05-19T09:27:46Z</time>
      </trkpt>
      <trkpt lat="46.73458" lon="5.62447">
        <ele>476.9</ele>
        <time>2019-05-19T09:27:51Z</time>
      </trkpt>
      <trkpt lat="46.73466" lon="5.62437">
        <ele>477.4</ele>
        <time>2019-05-19T09:27:57Z</time>
      </trkpt>
      <trkpt lat="46.73473" lon="5.62428">
        <ele>477.8</ele>
        <time>2019-05-19T09:28:02Z</time>
      </trkpt>
      <trkpt lat="46.73482" lon="5.62418">
        <ele>478.1</ele>
        <time>2019-05-19T09:28:08Z</time>
      </trkpt>
      <trkpt lat="46.73491" lon="5.6241">
        <ele>478.3</ele>
        <time>2019-05-19T09:28:13Z</time>
      </trkpt>
      <trkpt lat="46.73499" lon="5.62402">
        <ele>478.4</ele>
        <time>2019-05-19T09:28:17Z</time>
      </trkpt>
      <trkpt lat="46.73505" lon="5.62392">
        <ele>478.5</ele>
        <time>2019-05-19T09:28:21Z</time>
      </trkpt>
      <trkpt lat="46.73506" lon="5.62378">
        <ele>478.7</ele>
        <time>2019-05-19T09:28:25Z</time>
      </trkpt>
      <trkpt lat="46.73504" lon="5.62362">
        <ele>478.8</ele>
        <time>2019-05-19T09:28:29Z</time>
      </trkpt>
      <trkpt lat="46.73501" lon="5.62349">
        <ele>478.7</ele>
        <time>2019-05-19T09:28:32Z</time>
      </trkpt>
      <trkpt lat="46.735" lon="5.62333">
        <ele>478.4</ele>
        <time>2019-05-19T09:28:36Z</time>
      </trkpt>
      <trkpt lat="46.73503" lon="5.62319">
        <ele>477.6</ele>
        <time>2019-05-19T09:28:40Z</time>
      </trkpt>
      <trkpt lat="46.73501" lon="5.623">
        <ele>476.5</ele>
        <time>2019-05-19T09:28:44Z</time>
      </trkpt>
      <trkpt lat="46.735" lon="5.62283">
        <ele>475.8</ele>
        <time>2019-05-19T09:28:46Z</time>
      </trkpt>
      <trkpt lat="46.73497" lon="5.62266">
        <ele>474.7</ele>
        <time>2019-05-19T09:28:49Z</time>
      </trkpt>
      <trkpt lat="46.73494" lon="5.62252">
        <ele>473.4</ele>
        <time>2019-05-19T09:28:52Z</time>
      </trkpt>
      <trkpt lat="46.73493" lon="5.62238">
        <ele>471.8</ele>
        <time>2019-05-19T09:28:55Z</time>
      </trkpt>
      <trkpt lat="46.73488" lon="5.62226">
        <ele>469.3</ele>
        <time>2019-05-19T09:29:00Z</time>
      </trkpt>
      <trkpt lat="46.73482" lon="5.62215">
        <ele>468.1</ele>
        <time>2019-05-19T09:29:03Z</time>
      </trkpt>
      <trkpt lat="46.73477" lon="5.62198">
        <ele>466.8</ele>
        <time>2019-05-19T09:29:06Z</time>
      </trkpt>
      <trkpt lat="46.73474" lon="5.62184">
        <ele>465.4</ele>
        <time>2019-05-19T09:29:09Z</time>
      </trkpt>
      <trkpt lat="46.73468" lon="5.62173">
        <ele>463.7</ele>
        <time>2019-05-19T09:29:13Z</time>
      </trkpt>
      <trkpt lat="46.73463" lon="5.62158">
        <ele>462.7</ele>
        <time>2019-05-19T09:29:16Z</time>
      </trkpt>
      <trkpt lat="46.73461" lon="5.62142">
        <ele>461.5</ele>
        <time>2019-05-19T09:29:20Z</time>
      </trkpt>
      <trkpt lat="46.7346" lon="5.62129">
        <ele>458.8</ele>
        <time>2019-05-19T09:29:31Z</time>
      </trkpt>
      <trkpt lat="46.73465" lon="5.62117">
        <ele>458.3</ele>
        <time>2019-05-19T09:29:34Z</time>
      </trkpt>
      <trkpt lat="46.7347" lon="5.62105">
        <ele>457.9</ele>
        <time>2019-05-19T09:29:37Z</time>
      </trkpt>
      <trkpt lat="46.73468" lon="5.62091">
        <ele>455.8</ele>
        <time>2019-05-19T09:29:58Z</time>
      </trkpt>
      <trkpt lat="46.73469" lon="5.62076">
        <ele>455</ele>
        <time>2019-05-19T09:30:15Z</time>
      </trkpt>
      <trkpt lat="46.73477" lon="5.62068">
        <ele>454.9</ele>
        <time>2019-05-19T09:30:24Z</time>
      </trkpt>
      <trkpt lat="46.73485" lon="5.62063">
        <ele>454.9</ele>
        <time>2019-05-19T09:30:36Z</time>
      </trkpt>
      <trkpt lat="46.73491" lon="5.62053">
        <ele>455.2</ele>
        <time>2019-05-19T09:30:47Z</time>
      </trkpt>
      <trkpt lat="46.73497" lon="5.62042">
        <ele>456</ele>
        <time>2019-05-19T09:30:57Z</time>
      </trkpt>
      <trkpt lat="46.73506" lon="5.62041">
        <ele>457.5</ele>
        <time>2019-05-19T09:31:15Z</time>
      </trkpt>
      <trkpt lat="46.73515" lon="5.62052">
        <ele>457.8</ele>
        <time>2019-05-19T09:31:20Z</time>
      </trkpt>
      <trkpt lat="46.73523" lon="5.62059">
        <ele>458</ele>
        <time>2019-05-19T09:31:24Z</time>
      </trkpt>
      <trkpt lat="46.73533" lon="5.62063">
        <ele>458.1</ele>
        <time>2019-05-19T09:31:28Z</time>
      </trkpt>
      <trkpt lat="46.73544" lon="5.62067">
        <ele>458.2</ele>
        <time>2019-05-19T09:31:32Z</time>
      </trkpt>
      <trkpt lat="46.73556" lon="5.62073">
        <ele>458</ele>
        <time>2019-05-19T09:31:35Z</time>
      </trkpt>
      <trkpt lat="46.73564" lon="5.62081">
        <ele>457.8</ele>
        <time>2019-05-19T09:31:37Z</time>
      </trkpt>
      <trkpt lat="46.73574" lon="5.6209">
        <ele>457.6</ele>
        <time>2019-05-19T09:31:39Z</time>
      </trkpt>
      <trkpt lat="46.73584" lon="5.62098">
        <ele>457.3</ele>
        <time>2019-05-19T09:31:41Z</time>
      </trkpt>
      <trkpt lat="46.73591" lon="5.62107">
        <ele>456.9</ele>
        <time>2019-05-19T09:31:43Z</time>
      </trkpt>
      <trkpt lat="46.73595" lon="5.62123">
        <ele>456.6</ele>
        <time>2019-05-19T09:31:45Z</time>
      </trkpt>
      <trkpt lat="46.73598" lon="5.62137">
        <ele>456.2</ele>
        <time>2019-05-19T09:31:47Z</time>
      </trkpt>
      <trkpt lat="46.73604" lon="5.62148">
        <ele>455.9</ele>
        <time>2019-05-19T09:31:49Z</time>
      </trkpt>
      <trkpt lat="46.73611" lon="5.6216">
        <ele>455.4</ele>
        <time>2019-05-19T09:31:52Z</time>
      </trkpt>
      <trkpt lat="46.73616" lon="5.62173">
        <ele>455</ele>
        <time>2019-05-19T09:31:56Z</time>
      </trkpt>
      <trkpt lat="46.73625" lon="5.62179">
        <ele>454.7</ele>
        <time>2019-05-19T09:32:00Z</time>
      </trkpt>
      <trkpt lat="46.73635" lon="5.62176">
        <ele>454.3</ele>
        <time>2019-05-19T09:32:04Z</time>
      </trkpt>
      <trkpt lat="46.73646" lon="5.62173">
        <ele>453.7</ele>
        <time>2019-05-19T09:32:08Z</time>
      </trkpt>
      <trkpt lat="46.73656" lon="5.62166">
        <ele>453.2</ele>
        <time>2019-05-19T09:32:11Z</time>
      </trkpt>
      <trkpt lat="46.73668" lon="5.62159">
        <ele>452.8</ele>
        <time>2019-05-19T09:32:14Z</time>
      </trkpt>
      <trkpt lat="46.73679" lon="5.62159">
        <ele>452.2</ele>
        <time>2019-05-19T09:32:17Z</time>
      </trkpt>
      <trkpt lat="46.73687" lon="5.62166">
        <ele>451.7</ele>
        <time>2019-05-19T09:32:20Z</time>
      </trkpt>
      <trkpt lat="46.73695" lon="5.62173">
        <ele>451.3</ele>
        <time>2019-05-19T09:32:23Z</time>
      </trkpt>
      <trkpt lat="46.73705" lon="5.62174">
        <ele>451.1</ele>
        <time>2019-05-19T09:32:26Z</time>
      </trkpt>
      <trkpt lat="46.73716" lon="5.62175">
        <ele>451.1</ele>
        <time>2019-05-19T09:32:29Z</time>
      </trkpt>
      <trkpt lat="46.73725" lon="5.62177">
        <ele>451.3</ele>
        <time>2019-05-19T09:32:32Z</time>
      </trkpt>
      <trkpt lat="46.73734" lon="5.62178">
        <ele>451.6</ele>
        <time>2019-05-19T09:32:35Z</time>
      </trkpt>
      <trkpt lat="46.73744" lon="5.62179">
        <ele>452.2</ele>
        <time>2019-05-19T09:32:39Z</time>
      </trkpt>
      <trkpt lat="46.73754" lon="5.62176">
        <ele>452.8</ele>
        <time>2019-05-19T09:32:43Z</time>
      </trkpt>
      <trkpt lat="46.73762" lon="5.62169">
        <ele>453.6</ele>
        <time>2019-05-19T09:32:47Z</time>
      </trkpt>
      <trkpt lat="46.73771" lon="5.62165">
        <ele>454.5</ele>
        <time>2019-05-19T09:32:51Z</time>
      </trkpt>
      <trkpt lat="46.73781" lon="5.6216">
        <ele>455.7</ele>
        <time>2019-05-19T09:32:55Z</time>
      </trkpt>
      <trkpt lat="46.73791" lon="5.62155">
        <ele>456.7</ele>
        <time>2019-05-19T09:32:59Z</time>
      </trkpt>
      <trkpt lat="46.738" lon="5.62151">
        <ele>457.7</ele>
        <time>2019-05-19T09:33:03Z</time>
      </trkpt>
      <trkpt lat="46.73808" lon="5.62143">
        <ele>459</ele>
        <time>2019-05-19T09:33:08Z</time>
      </trkpt>
      <trkpt lat="46.73817" lon="5.62142">
        <ele>460.1</ele>
        <time>2019-05-19T09:33:13Z</time>
      </trkpt>
      <trkpt lat="46.73827" lon="5.6214">
        <ele>461.4</ele>
        <time>2019-05-19T09:33:18Z</time>
      </trkpt>
      <trkpt lat="46.73836" lon="5.62138">
        <ele>462.2</ele>
        <time>2019-05-19T09:33:23Z</time>
      </trkpt>
      <trkpt lat="46.73843" lon="5.62129">
        <ele>463.1</ele>
        <time>2019-05-19T09:33:32Z</time>
      </trkpt>
      <trkpt lat="46.73847" lon="5.62117">
        <ele>464.3</ele>
        <time>2019-05-19T09:33:48Z</time>
      </trkpt>
      <trkpt lat="46.73851" lon="5.62105">
        <ele>464.6</ele>
        <time>2019-05-19T09:33:52Z</time>
      </trkpt>
      <trkpt lat="46.73856" lon="5.62091">
        <ele>464.8</ele>
        <time>2019-05-19T09:33:56Z</time>
      </trkpt>
      <trkpt lat="46.73862" lon="5.62081">
        <ele>465</ele>
        <time>2019-05-19T09:33:59Z</time>
      </trkpt>
      <trkpt lat="46.73868" lon="5.6207">
        <ele>465.2</ele>
        <time>2019-05-19T09:34:03Z</time>
      </trkpt>
      <trkpt lat="46.73874" lon="5.62059">
        <ele>465.7</ele>
        <time>2019-05-19T09:34:08Z</time>
      </trkpt>
      <trkpt lat="46.73876" lon="5.62046">
        <ele>466.8</ele>
        <time>2019-05-19T09:34:14Z</time>
      </trkpt>
      <trkpt lat="46.7388" lon="5.62033">
        <ele>467.8</ele>
        <time>2019-05-19T09:34:19Z</time>
      </trkpt>
      <trkpt lat="46.73882" lon="5.6202">
        <ele>468.7</ele>
        <time>2019-05-19T09:34:24Z</time>
      </trkpt>
      <trkpt lat="46.7388" lon="5.62006">
        <ele>469.1</ele>
        <time>2019-05-19T09:34:27Z</time>
      </trkpt>
      <trkpt lat="46.73881" lon="5.61986">
        <ele>469.3</ele>
        <time>2019-05-19T09:34:30Z</time>
      </trkpt>
      <trkpt lat="46.73881" lon="5.61972">
        <ele>469.2</ele>
        <time>2019-05-19T09:34:32Z</time>
      </trkpt>
      <trkpt lat="46.73881" lon="5.61957">
        <ele>469.1</ele>
        <time>2019-05-19T09:34:34Z</time>
      </trkpt>
      <trkpt lat="46.7388" lon="5.61943">
        <ele>469</ele>
        <time>2019-05-19T09:34:36Z</time>
      </trkpt>
      <trkpt lat="46.73879" lon="5.61928">
        <ele>468.8</ele>
        <time>2019-05-19T09:34:40Z</time>
      </trkpt>
      <trkpt lat="46.73874" lon="5.61916">
        <ele>468.8</ele>
        <time>2019-05-19T09:34:45Z</time>
      </trkpt>
      <trkpt lat="46.73869" lon="5.61905">
        <ele>468.8</ele>
        <time>2019-05-19T09:34:50Z</time>
      </trkpt>
      <trkpt lat="46.73864" lon="5.61892">
        <ele>469</ele>
        <time>2019-05-19T09:34:56Z</time>
      </trkpt>
      <trkpt lat="46.73857" lon="5.61881">
        <ele>469.3</ele>
        <time>2019-05-19T09:35:01Z</time>
      </trkpt>
      <trkpt lat="46.7385" lon="5.61871">
        <ele>469.7</ele>
        <time>2019-05-19T09:35:06Z</time>
      </trkpt>
      <trkpt lat="46.73844" lon="5.61861">
        <ele>470</ele>
        <time>2019-05-19T09:35:11Z</time>
      </trkpt>
      <trkpt lat="46.73837" lon="5.61848">
        <ele>470.2</ele>
        <time>2019-05-19T09:35:16Z</time>
      </trkpt>
      <trkpt lat="46.7383" lon="5.61835">
        <ele>470.2</ele>
        <time>2019-05-19T09:35:20Z</time>
      </trkpt>
      <trkpt lat="46.73824" lon="5.61821">
        <ele>469.8</ele>
        <time>2019-05-19T09:35:23Z</time>
      </trkpt>
      <trkpt lat="46.73818" lon="5.61809">
        <ele>469.3</ele>
        <time>2019-05-19T09:35:26Z</time>
      </trkpt>
      <trkpt lat="46.73811" lon="5.61798">
        <ele>468.1</ele>
        <time>2019-05-19T09:35:30Z</time>
      </trkpt>
      <trkpt lat="46.73805" lon="5.61786">
        <ele>466.6</ele>
        <time>2019-05-19T09:35:35Z</time>
      </trkpt>
      <trkpt lat="46.73798" lon="5.61773">
        <ele>465</ele>
        <time>2019-05-19T09:35:39Z</time>
      </trkpt>
      <trkpt lat="46.73793" lon="5.61763">
        <ele>463.8</ele>
        <time>2019-05-19T09:35:42Z</time>
      </trkpt>
      <trkpt lat="46.73787" lon="5.61752">
        <ele>462.6</ele>
        <time>2019-05-19T09:35:45Z</time>
      </trkpt>
      <trkpt lat="46.73794" lon="5.61743">
        <ele>457.5</ele>
        <time>2019-05-19T09:36:06Z</time>
      </trkpt>
      <trkpt lat="46.73805" lon="5.61747">
        <ele>456.5</ele>
        <time>2019-05-19T09:36:10Z</time>
      </trkpt>
      <trkpt lat="46.73816" lon="5.61748">
        <ele>454.5</ele>
        <time>2019-05-19T09:36:15Z</time>
      </trkpt>
      <trkpt lat="46.73826" lon="5.61747">
        <ele>452.2</ele>
        <time>2019-05-19T09:36:20Z</time>
      </trkpt>
      <trkpt lat="46.73836" lon="5.61744">
        <ele>449.3</ele>
        <time>2019-05-19T09:36:25Z</time>
      </trkpt>
      <trkpt lat="46.73846" lon="5.61734">
        <ele>446.7</ele>
        <time>2019-05-19T09:36:29Z</time>
      </trkpt>
      <trkpt lat="46.73855" lon="5.61733">
        <ele>444.7</ele>
        <time>2019-05-19T09:36:32Z</time>
      </trkpt>
      <trkpt lat="46.73861" lon="5.61722">
        <ele>441.8</ele>
        <time>2019-05-19T09:36:36Z</time>
      </trkpt>
      <trkpt lat="46.73867" lon="5.61712">
        <ele>438.5</ele>
        <time>2019-05-19T09:36:41Z</time>
      </trkpt>
      <trkpt lat="46.73875" lon="5.61706">
        <ele>436.3</ele>
        <time>2019-05-19T09:36:45Z</time>
      </trkpt>
      <trkpt lat="46.73886" lon="5.61703">
        <ele>433</ele>
        <time>2019-05-19T09:36:51Z</time>
      </trkpt>
      <trkpt lat="46.73895" lon="5.61699">
        <ele>430.8</ele>
        <time>2019-05-19T09:36:55Z</time>
      </trkpt>
      <trkpt lat="46.73905" lon="5.61694">
        <ele>428.3</ele>
        <time>2019-05-19T09:37:00Z</time>
      </trkpt>
      <trkpt lat="46.73914" lon="5.61691">
        <ele>427</ele>
        <time>2019-05-19T09:37:03Z</time>
      </trkpt>
      <trkpt lat="46.73923" lon="5.61695">
        <ele>425.6</ele>
        <time>2019-05-19T09:37:06Z</time>
      </trkpt>
      <trkpt lat="46.73933" lon="5.61702">
        <ele>423.3</ele>
        <time>2019-05-19T09:37:11Z</time>
      </trkpt>
      <trkpt lat="46.73943" lon="5.61705">
        <ele>420.5</ele>
        <time>2019-05-19T09:37:18Z</time>
      </trkpt>
      <trkpt lat="46.73952" lon="5.61707">
        <ele>418.9</ele>
        <time>2019-05-19T09:37:22Z</time>
      </trkpt>
      <trkpt lat="46.73962" lon="5.61703">
        <ele>417.6</ele>
        <time>2019-05-19T09:37:26Z</time>
      </trkpt>
      <trkpt lat="46.73971" lon="5.61704">
        <ele>415.7</ele>
        <time>2019-05-19T09:37:31Z</time>
      </trkpt>
      <trkpt lat="46.73981" lon="5.61705">
        <ele>414.2</ele>
        <time>2019-05-19T09:37:35Z</time>
      </trkpt>
      <trkpt lat="46.73991" lon="5.61706">
        <ele>412.9</ele>
        <time>2019-05-19T09:37:39Z</time>
      </trkpt>
      <trkpt lat="46.74" lon="5.61708">
        <ele>411.8</ele>
        <time>2019-05-19T09:37:42Z</time>
      </trkpt>
      <trkpt lat="46.74011" lon="5.61714">
        <ele>410.1</ele>
        <time>2019-05-19T09:37:46Z</time>
      </trkpt>
      <trkpt lat="46.74021" lon="5.61721">
        <ele>408.4</ele>
        <time>2019-05-19T09:37:50Z</time>
      </trkpt>
      <trkpt lat="46.7403" lon="5.61726">
        <ele>406.5</ele>
        <time>2019-05-19T09:37:55Z</time>
      </trkpt>
      <trkpt lat="46.7404" lon="5.61731">
        <ele>402.4</ele>
        <time>2019-05-19T09:38:18Z</time>
      </trkpt>
      <trkpt lat="46.74051" lon="5.61736">
        <ele>402</ele>
        <time>2019-05-19T09:38:33Z</time>
      </trkpt>
      <trkpt lat="46.74061" lon="5.61738">
        <ele>401.8</ele>
        <time>2019-05-19T09:38:36Z</time>
      </trkpt>
      <trkpt lat="46.74072" lon="5.61739">
        <ele>401.4</ele>
        <time>2019-05-19T09:38:39Z</time>
      </trkpt>
      <trkpt lat="46.74088" lon="5.61744">
        <ele>401.1</ele>
        <time>2019-05-19T09:38:41Z</time>
      </trkpt>
      <trkpt lat="46.741" lon="5.61748">
        <ele>400.7</ele>
        <time>2019-05-19T09:38:43Z</time>
      </trkpt>
      <trkpt lat="46.74109" lon="5.61751">
        <ele>400.4</ele>
        <time>2019-05-19T09:38:45Z</time>
      </trkpt>
      <trkpt lat="46.7412" lon="5.61751">
        <ele>400.2</ele>
        <time>2019-05-19T09:38:47Z</time>
      </trkpt>
      <trkpt lat="46.74132" lon="5.6175">
        <ele>399.7</ele>
        <time>2019-05-19T09:38:50Z</time>
      </trkpt>
      <trkpt lat="46.74142" lon="5.61749">
        <ele>399</ele>
        <time>2019-05-19T09:38:53Z</time>
      </trkpt>
      <trkpt lat="46.74153" lon="5.61749">
        <ele>398.1</ele>
        <time>2019-05-19T09:38:56Z</time>
      </trkpt>
      <trkpt lat="46.74165" lon="5.61748">
        <ele>397.2</ele>
        <time>2019-05-19T09:38:59Z</time>
      </trkpt>
      <trkpt lat="46.74177" lon="5.61748">
        <ele>395.7</ele>
        <time>2019-05-19T09:39:03Z</time>
      </trkpt>
      <trkpt lat="46.74188" lon="5.61749">
        <ele>394.5</ele>
        <time>2019-05-19T09:39:06Z</time>
      </trkpt>
      <trkpt lat="46.74201" lon="5.6175">
        <ele>393</ele>
        <time>2019-05-19T09:39:09Z</time>
      </trkpt>
      <trkpt lat="46.74212" lon="5.61754">
        <ele>392.1</ele>
        <time>2019-05-19T09:39:11Z</time>
      </trkpt>
      <trkpt lat="46.74222" lon="5.61754">
        <ele>391.4</ele>
        <time>2019-05-19T09:39:13Z</time>
      </trkpt>
      <trkpt lat="46.74233" lon="5.61755">
        <ele>390.7</ele>
        <time>2019-05-19T09:39:15Z</time>
      </trkpt>
      <trkpt lat="46.74246" lon="5.61753">
        <ele>389.8</ele>
        <time>2019-05-19T09:39:18Z</time>
      </trkpt>
      <trkpt lat="46.74255" lon="5.61752">
        <ele>388.7</ele>
        <time>2019-05-19T09:39:23Z</time>
      </trkpt>
      <trkpt lat="46.74265" lon="5.6175">
        <ele>388</ele>
        <time>2019-05-19T09:39:27Z</time>
      </trkpt>
      <trkpt lat="46.74275" lon="5.61747">
        <ele>387.5</ele>
        <time>2019-05-19T09:39:30Z</time>
      </trkpt>
      <trkpt lat="46.74286" lon="5.61744">
        <ele>386.8</ele>
        <time>2019-05-19T09:39:33Z</time>
      </trkpt>
      <trkpt lat="46.74295" lon="5.61739">
        <ele>386.3</ele>
        <time>2019-05-19T09:39:36Z</time>
      </trkpt>
      <trkpt lat="46.74305" lon="5.61732">
        <ele>385.8</ele>
        <time>2019-05-19T09:39:40Z</time>
      </trkpt>
      <trkpt lat="46.74314" lon="5.61727">
        <ele>385.5</ele>
        <time>2019-05-19T09:39:42Z</time>
      </trkpt>
      <trkpt lat="46.74326" lon="5.61721">
        <ele>384.7</ele>
        <time>2019-05-19T09:39:45Z</time>
      </trkpt>
      <trkpt lat="46.74336" lon="5.61716">
        <ele>384.2</ele>
        <time>2019-05-19T09:39:47Z</time>
      </trkpt>
      <trkpt lat="46.74345" lon="5.61711">
        <ele>383.7</ele>
        <time>2019-05-19T09:39:49Z</time>
      </trkpt>
      <trkpt lat="46.74356" lon="5.61701">
        <ele>382.9</ele>
        <time>2019-05-19T09:39:52Z</time>
      </trkpt>
      <trkpt lat="46.74365" lon="5.61694">
        <ele>382.4</ele>
        <time>2019-05-19T09:39:54Z</time>
      </trkpt>
      <trkpt lat="46.74375" lon="5.61684">
        <ele>381.8</ele>
        <time>2019-05-19T09:39:57Z</time>
      </trkpt>
      <trkpt lat="46.74384" lon="5.61676">
        <ele>381.3</ele>
        <time>2019-05-19T09:40:00Z</time>
      </trkpt>
      <trkpt lat="46.74393" lon="5.6167">
        <ele>380.9</ele>
        <time>2019-05-19T09:40:03Z</time>
      </trkpt>
      <trkpt lat="46.74404" lon="5.61663">
        <ele>380.5</ele>
        <time>2019-05-19T09:40:06Z</time>
      </trkpt>
      <trkpt lat="46.74412" lon="5.61658">
        <ele>380.4</ele>
        <time>2019-05-19T09:40:08Z</time>
      </trkpt>
      <trkpt lat="46.74421" lon="5.61655">
        <ele>380.2</ele>
        <time>2019-05-19T09:40:10Z</time>
      </trkpt>
      <trkpt lat="46.7443" lon="5.61655">
        <ele>380.1</ele>
        <time>2019-05-19T09:40:12Z</time>
      </trkpt>
      <trkpt lat="46.74442" lon="5.61658">
        <ele>379.9</ele>
        <time>2019-05-19T09:40:14Z</time>
      </trkpt>
      <trkpt lat="46.74451" lon="5.61654">
        <ele>379.8</ele>
        <time>2019-05-19T09:40:17Z</time>
      </trkpt>
      <trkpt lat="46.7446" lon="5.61646">
        <ele>379.7</ele>
        <time>2019-05-19T09:40:21Z</time>
      </trkpt>
      <trkpt lat="46.74468" lon="5.61639">
        <ele>379.5</ele>
        <time>2019-05-19T09:40:23Z</time>
      </trkpt>
      <trkpt lat="46.74478" lon="5.61629">
        <ele>379.2</ele>
        <time>2019-05-19T09:40:26Z</time>
      </trkpt>
      <trkpt lat="46.74488" lon="5.61622">
        <ele>378.4</ele>
        <time>2019-05-19T09:40:29Z</time>
      </trkpt>
      <trkpt lat="46.745" lon="5.61615">
        <ele>377.4</ele>
        <time>2019-05-19T09:40:32Z</time>
      </trkpt>
      <trkpt lat="46.74512" lon="5.61607">
        <ele>376.6</ele>
        <time>2019-05-19T09:40:34Z</time>
      </trkpt>
      <trkpt lat="46.74524" lon="5.616">
        <ele>375.9</ele>
        <time>2019-05-19T09:40:36Z</time>
      </trkpt>
      <trkpt lat="46.74535" lon="5.61593">
        <ele>375</ele>
        <time>2019-05-19T09:40:38Z</time>
      </trkpt>
      <trkpt lat="46.74547" lon="5.61587">
        <ele>374.1</ele>
        <time>2019-05-19T09:40:40Z</time>
      </trkpt>
      <trkpt lat="46.74558" lon="5.6158">
        <ele>373.3</ele>
        <time>2019-05-19T09:40:42Z</time>
      </trkpt>
      <trkpt lat="46.74569" lon="5.61574">
        <ele>372.5</ele>
        <time>2019-05-19T09:40:44Z</time>
      </trkpt>
      <trkpt lat="46.7458" lon="5.61567">
        <ele>371.8</ele>
        <time>2019-05-19T09:40:46Z</time>
      </trkpt>
      <trkpt lat="46.74592" lon="5.61558">
        <ele>370.8</ele>
        <time>2019-05-19T09:40:49Z</time>
      </trkpt>
      <trkpt lat="46.746" lon="5.6155">
        <ele>370</ele>
        <time>2019-05-19T09:40:51Z</time>
      </trkpt>
      <trkpt lat="46.74608" lon="5.61542">
        <ele>369.2</ele>
        <time>2019-05-19T09:40:53Z</time>
      </trkpt>
      <trkpt lat="46.74615" lon="5.61534">
        <ele>368.5</ele>
        <time>2019-05-19T09:40:55Z</time>
      </trkpt>
      <trkpt lat="46.74624" lon="5.61521">
        <ele>367.3</ele>
        <time>2019-05-19T09:40:58Z</time>
      </trkpt>
      <trkpt lat="46.74629" lon="5.61506">
        <ele>366.2</ele>
        <time>2019-05-19T09:41:01Z</time>
      </trkpt>
      <trkpt lat="46.74634" lon="5.61492">
        <ele>364.9</ele>
        <time>2019-05-19T09:41:04Z</time>
      </trkpt>
      <trkpt lat="46.74642" lon="5.61482">
        <ele>363.5</ele>
        <time>2019-05-19T09:41:07Z</time>
      </trkpt>
      <trkpt lat="46.74651" lon="5.61475">
        <ele>362.6</ele>
        <time>2019-05-19T09:41:09Z</time>
      </trkpt>
      <trkpt lat="46.74659" lon="5.61468">
        <ele>361.7</ele>
        <time>2019-05-19T09:41:11Z</time>
      </trkpt>
      <trkpt lat="46.74668" lon="5.61457">
        <ele>359.9</ele>
        <time>2019-05-19T09:41:15Z</time>
      </trkpt>
      <trkpt lat="46.74676" lon="5.61447">
        <ele>358.3</ele>
        <time>2019-05-19T09:41:18Z</time>
      </trkpt>
      <trkpt lat="46.74686" lon="5.61438">
        <ele>356.9</ele>
        <time>2019-05-19T09:41:21Z</time>
      </trkpt>
      <trkpt lat="46.74693" lon="5.61425">
        <ele>354.8</ele>
        <time>2019-05-19T09:41:25Z</time>
      </trkpt>
      <trkpt lat="46.74699" lon="5.61411">
        <ele>353.4</ele>
        <time>2019-05-19T09:41:28Z</time>
      </trkpt>
      <trkpt lat="46.74706" lon="5.61394">
        <ele>351.9</ele>
        <time>2019-05-19T09:41:31Z</time>
      </trkpt>
      <trkpt lat="46.7471" lon="5.61381">
        <ele>350.4</ele>
        <time>2019-05-19T09:41:34Z</time>
      </trkpt>
      <trkpt lat="46.74712" lon="5.61367">
        <ele>348.3</ele>
        <time>2019-05-19T09:41:38Z</time>
      </trkpt>
      <trkpt lat="46.74714" lon="5.61352">
        <ele>346.1</ele>
        <time>2019-05-19T09:41:43Z</time>
      </trkpt>
      <trkpt lat="46.74719" lon="5.6134">
        <ele>344.9</ele>
        <time>2019-05-19T09:41:46Z</time>
      </trkpt>
      <trkpt lat="46.74723" lon="5.61325">
        <ele>343.7</ele>
        <time>2019-05-19T09:41:49Z</time>
      </trkpt>
      <trkpt lat="46.74732" lon="5.61331">
        <ele>341</ele>
        <time>2019-05-19T09:41:59Z</time>
      </trkpt>
      <trkpt lat="46.74735" lon="5.61344">
        <ele>340.2</ele>
        <time>2019-05-19T09:42:04Z</time>
      </trkpt>
      <trkpt lat="46.74736" lon="5.61361">
        <ele>339.7</ele>
        <time>2019-05-19T09:42:09Z</time>
      </trkpt>
      <trkpt lat="46.74737" lon="5.61375">
        <ele>339.4</ele>
        <time>2019-05-19T09:42:12Z</time>
      </trkpt>
      <trkpt lat="46.74737" lon="5.61388">
        <ele>339.1</ele>
        <time>2019-05-19T09:42:17Z</time>
      </trkpt>
      <trkpt lat="46.74747" lon="5.61381">
        <ele>334.2</ele>
        <time>2019-05-19T09:42:50Z</time>
      </trkpt>
      <trkpt lat="46.74758" lon="5.6138">
        <ele>332.3</ele>
        <time>2019-05-19T09:42:54Z</time>
      </trkpt>
      <trkpt lat="46.74767" lon="5.61377">
        <ele>330.2</ele>
        <time>2019-05-19T09:42:59Z</time>
      </trkpt>
      <trkpt lat="46.74776" lon="5.61369">
        <ele>328.1</ele>
        <time>2019-05-19T09:43:03Z</time>
      </trkpt>
      <trkpt lat="46.74785" lon="5.61359">
        <ele>325.8</ele>
        <time>2019-05-19T09:43:07Z</time>
      </trkpt>
      <trkpt lat="46.74792" lon="5.61349">
        <ele>323.6</ele>
        <time>2019-05-19T09:43:11Z</time>
      </trkpt>
      <trkpt lat="46.74802" lon="5.61344">
        <ele>316.5</ele>
        <time>2019-05-19T09:43:29Z</time>
      </trkpt>
      <trkpt lat="46.74812" lon="5.61346">
        <ele>315.2</ele>
        <time>2019-05-19T09:43:33Z</time>
      </trkpt>
      <trkpt lat="46.74817" lon="5.6136">
        <ele>313.9</ele>
        <time>2019-05-19T09:43:38Z</time>
      </trkpt>
      <trkpt lat="46.74822" lon="5.61376">
        <ele>313.1</ele>
        <time>2019-05-19T09:43:42Z</time>
      </trkpt>
      <trkpt lat="46.74829" lon="5.61384">
        <ele>308.2</ele>
        <time>2019-05-19T09:45:07Z</time>
      </trkpt>
      <trkpt lat="46.74834" lon="5.61397">
        <ele>308.2</ele>
        <time>2019-05-19T09:45:12Z</time>
      </trkpt>
      <trkpt lat="46.74839" lon="5.61413">
        <ele>308.2</ele>
        <time>2019-05-19T09:45:15Z</time>
      </trkpt>
      <trkpt lat="46.74841" lon="5.61432">
        <ele>308.1</ele>
        <time>2019-05-19T09:45:18Z</time>
      </trkpt>
      <trkpt lat="46.74844" lon="5.61445">
        <ele>308</ele>
        <time>2019-05-19T09:45:20Z</time>
      </trkpt>
      <trkpt lat="46.74848" lon="5.61458">
        <ele>307.9</ele>
        <time>2019-05-19T09:45:22Z</time>
      </trkpt>
      <trkpt lat="46.74852" lon="5.61474">
        <ele>307.6</ele>
        <time>2019-05-19T09:45:25Z</time>
      </trkpt>
      <trkpt lat="46.74855" lon="5.61488">
        <ele>307</ele>
        <time>2019-05-19T09:45:30Z</time>
      </trkpt>
      <trkpt lat="46.74857" lon="5.61503">
        <ele>306.5</ele>
        <time>2019-05-19T09:45:34Z</time>
      </trkpt>
      <trkpt lat="46.74861" lon="5.61516">
        <ele>306</ele>
        <time>2019-05-19T09:45:37Z</time>
      </trkpt>
      <trkpt lat="46.74868" lon="5.61527">
        <ele>305.5</ele>
        <time>2019-05-19T09:45:40Z</time>
      </trkpt>
      <trkpt lat="46.74874" lon="5.61538">
        <ele>304.8</ele>
        <time>2019-05-19T09:45:43Z</time>
      </trkpt>
      <trkpt lat="46.7487" lon="5.61552">
        <ele>304.2</ele>
        <time>2019-05-19T09:45:47Z</time>
      </trkpt>
      <trkpt lat="46.74863" lon="5.61565">
        <ele>303.7</ele>
        <time>2019-05-19T09:45:51Z</time>
      </trkpt>
      <trkpt lat="46.74855" lon="5.61575">
        <ele>303.3</ele>
        <time>2019-05-19T09:45:55Z</time>
      </trkpt>
      <trkpt lat="46.74847" lon="5.61585">
        <ele>303.3</ele>
        <time>2019-05-19T09:45:59Z</time>
      </trkpt>
      <trkpt lat="46.74838" lon="5.61594">
        <ele>303.6</ele>
        <time>2019-05-19T09:46:03Z</time>
      </trkpt>
      <trkpt lat="46.74829" lon="5.61601">
        <ele>304.2</ele>
        <time>2019-05-19T09:46:07Z</time>
      </trkpt>
      <trkpt lat="46.74819" lon="5.61609">
        <ele>304.9</ele>
        <time>2019-05-19T09:46:11Z</time>
      </trkpt>
      <trkpt lat="46.74811" lon="5.61616">
        <ele>305.8</ele>
        <time>2019-05-19T09:46:15Z</time>
      </trkpt>
      <trkpt lat="46.74802" lon="5.61624">
        <ele>307</ele>
        <time>2019-05-19T09:46:21Z</time>
      </trkpt>
      <trkpt lat="46.74793" lon="5.61631">
        <ele>308.2</ele>
        <time>2019-05-19T09:46:26Z</time>
      </trkpt>
      <trkpt lat="46.74785" lon="5.61638">
        <ele>309.6</ele>
        <time>2019-05-19T09:46:31Z</time>
      </trkpt>
      <trkpt lat="46.74777" lon="5.61646">
        <ele>310.7</ele>
        <time>2019-05-19T09:46:36Z</time>
      </trkpt>
      <trkpt lat="46.7477" lon="5.61654">
        <ele>312</ele>
        <time>2019-05-19T09:46:41Z</time>
      </trkpt>
      <trkpt lat="46.74761" lon="5.61663">
        <ele>313.4</ele>
        <time>2019-05-19T09:46:47Z</time>
      </trkpt>
      <trkpt lat="46.74752" lon="5.6167">
        <ele>314.8</ele>
        <time>2019-05-19T09:46:53Z</time>
      </trkpt>
      <trkpt lat="46.74742" lon="5.61675">
        <ele>316.3</ele>
        <time>2019-05-19T09:46:59Z</time>
      </trkpt>
      <trkpt lat="46.74733" lon="5.61679">
        <ele>317.9</ele>
        <time>2019-05-19T09:47:05Z</time>
      </trkpt>
      <trkpt lat="46.74723" lon="5.61682">
        <ele>319.5</ele>
        <time>2019-05-19T09:47:11Z</time>
      </trkpt>
      <trkpt lat="46.74712" lon="5.61685">
        <ele>321</ele>
        <time>2019-05-19T09:47:17Z</time>
      </trkpt>
      <trkpt lat="46.74704" lon="5.61692">
        <ele>322.1</ele>
        <time>2019-05-19T09:47:22Z</time>
      </trkpt>
      <trkpt lat="46.74697" lon="5.617">
        <ele>322.9</ele>
        <time>2019-05-19T09:47:26Z</time>
      </trkpt>
      <trkpt lat="46.74687" lon="5.61711">
        <ele>323.6</ele>
        <time>2019-05-19T09:47:30Z</time>
      </trkpt>
      <trkpt lat="46.74677" lon="5.61721">
        <ele>324</ele>
        <time>2019-05-19T09:47:33Z</time>
      </trkpt>
      <trkpt lat="46.74667" lon="5.61732">
        <ele>324.2</ele>
        <time>2019-05-19T09:47:35Z</time>
      </trkpt>
      <trkpt lat="46.74656" lon="5.61746">
        <ele>324.2</ele>
        <time>2019-05-19T09:47:37Z</time>
      </trkpt>
      <trkpt lat="46.74645" lon="5.61761">
        <ele>324</ele>
        <time>2019-05-19T09:47:39Z</time>
      </trkpt>
      <trkpt lat="46.74632" lon="5.61777">
        <ele>323.7</ele>
        <time>2019-05-19T09:47:41Z</time>
      </trkpt>
      <trkpt lat="46.7462" lon="5.61793">
        <ele>323.4</ele>
        <time>2019-05-19T09:47:43Z</time>
      </trkpt>
      <trkpt lat="46.74607" lon="5.61809">
        <ele>323</ele>
        <time>2019-05-19T09:47:45Z</time>
      </trkpt>
      <trkpt lat="46.74593" lon="5.61825">
        <ele>322.5</ele>
        <time>2019-05-19T09:47:47Z</time>
      </trkpt>
      <trkpt lat="46.74582" lon="5.61836">
        <ele>322</ele>
        <time>2019-05-19T09:47:49Z</time>
      </trkpt>
      <trkpt lat="46.74572" lon="5.61845">
        <ele>321.6</ele>
        <time>2019-05-19T09:47:51Z</time>
      </trkpt>
      <trkpt lat="46.74564" lon="5.61852">
        <ele>321.3</ele>
        <time>2019-05-19T09:47:53Z</time>
      </trkpt>
      <trkpt lat="46.74552" lon="5.6186">
        <ele>320.9</ele>
        <time>2019-05-19T09:47:56Z</time>
      </trkpt>
      <trkpt lat="46.74542" lon="5.61868">
        <ele>320.6</ele>
        <time>2019-05-19T09:47:59Z</time>
      </trkpt>
      <trkpt lat="46.74532" lon="5.61876">
        <ele>320.4</ele>
        <time>2019-05-19T09:48:02Z</time>
      </trkpt>
      <trkpt lat="46.7453" lon="5.6189">
        <ele>320.2</ele>
        <time>2019-05-19T09:48:06Z</time>
      </trkpt>
      <trkpt lat="46.74536" lon="5.61904">
        <ele>319.7</ele>
        <time>2019-05-19T09:48:09Z</time>
      </trkpt>
      <trkpt lat="46.74542" lon="5.61915">
        <ele>319.1</ele>
        <time>2019-05-19T09:48:11Z</time>
      </trkpt>
      <trkpt lat="46.74548" lon="5.61925">
        <ele>318.3</ele>
        <time>2019-05-19T09:48:13Z</time>
      </trkpt>
      <trkpt lat="46.74553" lon="5.61936">
        <ele>317.4</ele>
        <time>2019-05-19T09:48:15Z</time>
      </trkpt>
      <trkpt lat="46.7456" lon="5.61948">
        <ele>316.2</ele>
        <time>2019-05-19T09:48:17Z</time>
      </trkpt>
      <trkpt lat="46.74566" lon="5.61961">
        <ele>314.8</ele>
        <time>2019-05-19T09:48:19Z</time>
      </trkpt>
      <trkpt lat="46.74571" lon="5.61973">
        <ele>313.3</ele>
        <time>2019-05-19T09:48:21Z</time>
      </trkpt>
      <trkpt lat="46.74566" lon="5.61991">
        <ele>311.2</ele>
        <time>2019-05-19T09:48:24Z</time>
      </trkpt>
      <trkpt lat="46.74557" lon="5.61999">
        <ele>310</ele>
        <time>2019-05-19T09:48:26Z</time>
      </trkpt>
      <trkpt lat="46.74549" lon="5.62007">
        <ele>308.9</ele>
        <time>2019-05-19T09:48:28Z</time>
      </trkpt>
      <trkpt lat="46.7454" lon="5.62018">
        <ele>307.8</ele>
        <time>2019-05-19T09:48:30Z</time>
      </trkpt>
      <trkpt lat="46.74532" lon="5.62029">
        <ele>306.9</ele>
        <time>2019-05-19T09:48:32Z</time>
      </trkpt>
      <trkpt lat="46.74524" lon="5.62042">
        <ele>306</ele>
        <time>2019-05-19T09:48:34Z</time>
      </trkpt>
      <trkpt lat="46.74516" lon="5.62056">
        <ele>305.1</ele>
        <time>2019-05-19T09:48:36Z</time>
      </trkpt>
      <trkpt lat="46.74507" lon="5.62073">
        <ele>304.2</ele>
        <time>2019-05-19T09:48:38Z</time>
      </trkpt>
      <trkpt lat="46.74495" lon="5.62091">
        <ele>303.1</ele>
        <time>2019-05-19T09:48:40Z</time>
      </trkpt>
      <trkpt lat="46.74484" lon="5.6211">
        <ele>302.2</ele>
        <time>2019-05-19T09:48:42Z</time>
      </trkpt>
      <trkpt lat="46.74474" lon="5.62129">
        <ele>301.4</ele>
        <time>2019-05-19T09:48:44Z</time>
      </trkpt>
      <trkpt lat="46.74464" lon="5.62145">
        <ele>300.6</ele>
        <time>2019-05-19T09:48:46Z</time>
      </trkpt>
      <trkpt lat="46.74453" lon="5.62159">
        <ele>299.8</ele>
        <time>2019-05-19T09:48:48Z</time>
      </trkpt>
      <trkpt lat="46.74443" lon="5.62172">
        <ele>299.1</ele>
        <time>2019-05-19T09:48:50Z</time>
      </trkpt>
      <trkpt lat="46.74433" lon="5.62185">
        <ele>298.5</ele>
        <time>2019-05-19T09:48:52Z</time>
      </trkpt>
      <trkpt lat="46.74424" lon="5.62197">
        <ele>298</ele>
        <time>2019-05-19T09:48:54Z</time>
      </trkpt>
      <trkpt lat="46.74417" lon="5.62206">
        <ele>297.5</ele>
        <time>2019-05-19T09:48:56Z</time>
      </trkpt>
      <trkpt lat="46.74411" lon="5.6222">
        <ele>296.9</ele>
        <time>2019-05-19T09:48:59Z</time>
      </trkpt>
      <trkpt lat="46.74409" lon="5.62239">
        <ele>296.4</ele>
        <time>2019-05-19T09:49:02Z</time>
      </trkpt>
      <trkpt lat="46.74409" lon="5.62254">
        <ele>296.1</ele>
        <time>2019-05-19T09:49:04Z</time>
      </trkpt>
      <trkpt lat="46.74409" lon="5.62269">
        <ele>295.8</ele>
        <time>2019-05-19T09:49:06Z</time>
      </trkpt>
      <trkpt lat="46.74407" lon="5.62286">
        <ele>295.5</ele>
        <time>2019-05-19T09:49:08Z</time>
      </trkpt>
      <trkpt lat="46.74403" lon="5.62307">
        <ele>295.2</ele>
        <time>2019-05-19T09:49:10Z</time>
      </trkpt>
      <trkpt lat="46.74399" lon="5.62328">
        <ele>294.7</ele>
        <time>2019-05-19T09:49:12Z</time>
      </trkpt>
      <trkpt lat="46.74395" lon="5.62349">
        <ele>294.1</ele>
        <time>2019-05-19T09:49:14Z</time>
      </trkpt>
      <trkpt lat="46.74391" lon="5.62369">
        <ele>293.5</ele>
        <time>2019-05-19T09:49:16Z</time>
      </trkpt>
      <trkpt lat="46.74387" lon="5.62386">
        <ele>292.7</ele>
        <time>2019-05-19T09:49:18Z</time>
      </trkpt>
      <trkpt lat="46.74385" lon="5.62399">
        <ele>291.7</ele>
        <time>2019-05-19T09:49:20Z</time>
      </trkpt>
      <trkpt lat="46.74382" lon="5.62414">
        <ele>290.5</ele>
        <time>2019-05-19T09:49:23Z</time>
      </trkpt>
      <trkpt lat="46.74374" lon="5.62426">
        <ele>289.5</ele>
        <time>2019-05-19T09:49:26Z</time>
      </trkpt>
      <trkpt lat="46.74369" lon="5.62443">
        <ele>288.6</ele>
        <time>2019-05-19T09:49:29Z</time>
      </trkpt>
      <trkpt lat="46.74361" lon="5.62458">
        <ele>288</ele>
        <time>2019-05-19T09:49:32Z</time>
      </trkpt>
      <trkpt lat="46.74363" lon="5.62473">
        <ele>287.4</ele>
        <time>2019-05-19T09:49:35Z</time>
      </trkpt>
      <trkpt lat="46.74369" lon="5.62488">
        <ele>287.1</ele>
        <time>2019-05-19T09:49:38Z</time>
      </trkpt>
      <trkpt lat="46.74375" lon="5.62505">
        <ele>287</ele>
        <time>2019-05-19T09:49:41Z</time>
      </trkpt>
      <trkpt lat="46.74378" lon="5.62517">
        <ele>287</ele>
        <time>2019-05-19T09:49:43Z</time>
      </trkpt>
      <trkpt lat="46.74381" lon="5.62529">
        <ele>287</ele>
        <time>2019-05-19T09:49:45Z</time>
      </trkpt>
      <trkpt lat="46.74384" lon="5.62543">
        <ele>287</ele>
        <time>2019-05-19T09:49:47Z</time>
      </trkpt>
      <trkpt lat="46.74385" lon="5.62557">
        <ele>287</ele>
        <time>2019-05-19T09:49:49Z</time>
      </trkpt>
      <trkpt lat="46.74387" lon="5.6257">
        <ele>287</ele>
        <time>2019-05-19T09:49:51Z</time>
      </trkpt>
      <trkpt lat="46.74387" lon="5.62589">
        <ele>287.1</ele>
        <time>2019-05-19T09:49:54Z</time>
      </trkpt>
      <trkpt lat="46.74386" lon="5.62603">
        <ele>287.1</ele>
        <time>2019-05-19T09:49:56Z</time>
      </trkpt>
      <trkpt lat="46.74389" lon="5.62618">
        <ele>287.1</ele>
        <time>2019-05-19T09:49:58Z</time>
      </trkpt>
      <trkpt lat="46.74396" lon="5.6263">
        <ele>287.1</ele>
        <time>2019-05-19T09:50:00Z</time>
      </trkpt>
      <trkpt lat="46.74406" lon="5.62637">
        <ele>287.1</ele>
        <time>2019-05-19T09:50:02Z</time>
      </trkpt>
      <trkpt lat="46.74415" lon="5.62642">
        <ele>287</ele>
        <time>2019-05-19T09:50:04Z</time>
      </trkpt>
      <trkpt lat="46.74424" lon="5.62645">
        <ele>287</ele>
        <time>2019-05-19T09:50:06Z</time>
      </trkpt>
      <trkpt lat="46.74433" lon="5.62646">
        <ele>287</ele>
        <time>2019-05-19T09:50:08Z</time>
      </trkpt>
      <trkpt lat="46.74442" lon="5.62646">
        <ele>286.9</ele>
        <time>2019-05-19T09:50:10Z</time>
      </trkpt>
      <trkpt lat="46.74452" lon="5.62646">
        <ele>286.8</ele>
        <time>2019-05-19T09:50:12Z</time>
      </trkpt>
      <trkpt lat="46.74461" lon="5.62646">
        <ele>286.7</ele>
        <time>2019-05-19T09:50:14Z</time>
      </trkpt>
      <trkpt lat="46.7447" lon="5.62646">
        <ele>286.6</ele>
        <time>2019-05-19T09:50:16Z</time>
      </trkpt>
      <trkpt lat="46.74484" lon="5.62645">
        <ele>286.5</ele>
        <time>2019-05-19T09:50:19Z</time>
      </trkpt>
      <trkpt lat="46.74495" lon="5.62639">
        <ele>286.5</ele>
        <time>2019-05-19T09:50:22Z</time>
      </trkpt>
      <trkpt lat="46.74504" lon="5.62633">
        <ele>286.4</ele>
        <time>2019-05-19T09:50:25Z</time>
      </trkpt>
      <trkpt lat="46.74513" lon="5.62626">
        <ele>286.4</ele>
        <time>2019-05-19T09:50:28Z</time>
      </trkpt>
      <trkpt lat="46.74524" lon="5.62621">
        <ele>286.3</ele>
        <time>2019-05-19T09:50:31Z</time>
      </trkpt>
      <trkpt lat="46.74536" lon="5.62614">
        <ele>286.3</ele>
        <time>2019-05-19T09:50:34Z</time>
      </trkpt>
      <trkpt lat="46.74545" lon="5.6261">
        <ele>286.3</ele>
        <time>2019-05-19T09:50:36Z</time>
      </trkpt>
      <trkpt lat="46.74554" lon="5.62606">
        <ele>286.3</ele>
        <time>2019-05-19T09:50:38Z</time>
      </trkpt>
      <trkpt lat="46.74567" lon="5.626">
        <ele>286.3</ele>
        <time>2019-05-19T09:50:41Z</time>
      </trkpt>
      <trkpt lat="46.74575" lon="5.62596">
        <ele>286.3</ele>
        <time>2019-05-19T09:50:43Z</time>
      </trkpt>
      <trkpt lat="46.74584" lon="5.62592">
        <ele>286.3</ele>
        <time>2019-05-19T09:50:45Z</time>
      </trkpt>
      <trkpt lat="46.74593" lon="5.62588">
        <ele>286.3</ele>
        <time>2019-05-19T09:50:47Z</time>
      </trkpt>
      <trkpt lat="46.74603" lon="5.62584">
        <ele>286.3</ele>
        <time>2019-05-19T09:50:49Z</time>
      </trkpt>
      <trkpt lat="46.74611" lon="5.62579">
        <ele>286.4</ele>
        <time>2019-05-19T09:50:51Z</time>
      </trkpt>
      <trkpt lat="46.7462" lon="5.62574">
        <ele>286.4</ele>
        <time>2019-05-19T09:50:53Z</time>
      </trkpt>
      <trkpt lat="46.74629" lon="5.62568">
        <ele>286.4</ele>
        <time>2019-05-19T09:50:55Z</time>
      </trkpt>
      <trkpt lat="46.74638" lon="5.62561">
        <ele>286.4</ele>
        <time>2019-05-19T09:50:57Z</time>
      </trkpt>
      <trkpt lat="46.74648" lon="5.62553">
        <ele>286.4</ele>
        <time>2019-05-19T09:51:00Z</time>
      </trkpt>
      <trkpt lat="46.74658" lon="5.62552">
        <ele>286.2</ele>
        <time>2019-05-19T09:51:05Z</time>
      </trkpt>
      <trkpt lat="46.74666" lon="5.6256">
        <ele>286.1</ele>
        <time>2019-05-19T09:51:08Z</time>
      </trkpt>
      <trkpt lat="46.74674" lon="5.6257">
        <ele>285.9</ele>
        <time>2019-05-19T09:51:11Z</time>
      </trkpt>
      <trkpt lat="46.74683" lon="5.6258">
        <ele>285.7</ele>
        <time>2019-05-19T09:51:15Z</time>
      </trkpt>
      <trkpt lat="46.74694" lon="5.62576">
        <ele>285.5</ele>
        <time>2019-05-19T09:51:19Z</time>
      </trkpt>
      <trkpt lat="46.74704" lon="5.62567">
        <ele>285.4</ele>
        <time>2019-05-19T09:51:22Z</time>
      </trkpt>
      <trkpt lat="46.74714" lon="5.62558">
        <ele>285.4</ele>
        <time>2019-05-19T09:51:25Z</time>
      </trkpt>
      <trkpt lat="46.74725" lon="5.62549">
        <ele>285.1</ele>
        <time>2019-05-19T09:51:28Z</time>
      </trkpt>
      <trkpt lat="46.74736" lon="5.62542">
        <ele>284.9</ele>
        <time>2019-05-19T09:51:31Z</time>
      </trkpt>
      <trkpt lat="46.74747" lon="5.62536">
        <ele>284.8</ele>
        <time>2019-05-19T09:51:34Z</time>
      </trkpt>
      <trkpt lat="46.74756" lon="5.62528">
        <ele>284.7</ele>
        <time>2019-05-19T09:51:37Z</time>
      </trkpt>
      <trkpt lat="46.74766" lon="5.62523">
        <ele>284.7</ele>
        <time>2019-05-19T09:51:40Z</time>
      </trkpt>
      <trkpt lat="46.74776" lon="5.62515">
        <ele>284.7</ele>
        <time>2019-05-19T09:51:43Z</time>
      </trkpt>
      <trkpt lat="46.74785" lon="5.62507">
        <ele>284.6</ele>
        <time>2019-05-19T09:51:46Z</time>
      </trkpt>
      <trkpt lat="46.74792" lon="5.62498">
        <ele>284.6</ele>
        <time>2019-05-19T09:51:49Z</time>
      </trkpt>
      <trkpt lat="46.74799" lon="5.62488">
        <ele>284.6</ele>
        <time>2019-05-19T09:51:52Z</time>
      </trkpt>
      <trkpt lat="46.74806" lon="5.62476">
        <ele>284.6</ele>
        <time>2019-05-19T09:51:56Z</time>
      </trkpt>
      <trkpt lat="46.74812" lon="5.62466">
        <ele>284.2</ele>
        <time>2019-05-19T09:53:23Z</time>
      </trkpt>
      <trkpt lat="46.74819" lon="5.62456">
        <ele>284.4</ele>
        <time>2019-05-19T09:53:26Z</time>
      </trkpt>
      <trkpt lat="46.74827" lon="5.62446">
        <ele>284.7</ele>
        <time>2019-05-19T09:53:29Z</time>
      </trkpt>
      <trkpt lat="46.74835" lon="5.62434">
        <ele>284.9</ele>
        <time>2019-05-19T09:53:32Z</time>
      </trkpt>
      <trkpt lat="46.74843" lon="5.62423">
        <ele>285.1</ele>
        <time>2019-05-19T09:53:35Z</time>
      </trkpt>
      <trkpt lat="46.74852" lon="5.6241">
        <ele>285.2</ele>
        <time>2019-05-19T09:53:38Z</time>
      </trkpt>
      <trkpt lat="46.74861" lon="5.62398">
        <ele>285.4</ele>
        <time>2019-05-19T09:53:41Z</time>
      </trkpt>
      <trkpt lat="46.7487" lon="5.62387">
        <ele>285.6</ele>
        <time>2019-05-19T09:53:44Z</time>
      </trkpt>
      <trkpt lat="46.74879" lon="5.62377">
        <ele>285.7</ele>
        <time>2019-05-19T09:53:47Z</time>
      </trkpt>
      <trkpt lat="46.74886" lon="5.62367">
        <ele>285.9</ele>
        <time>2019-05-19T09:53:50Z</time>
      </trkpt>
      <trkpt lat="46.74894" lon="5.62352">
        <ele>286</ele>
        <time>2019-05-19T09:53:53Z</time>
      </trkpt>
      <trkpt lat="46.749" lon="5.6234">
        <ele>286</ele>
        <time>2019-05-19T09:53:55Z</time>
      </trkpt>
      <trkpt lat="46.74906" lon="5.6233">
        <ele>285.9</ele>
        <time>2019-05-19T09:53:57Z</time>
      </trkpt>
      <trkpt lat="46.74912" lon="5.6232">
        <ele>285.8</ele>
        <time>2019-05-19T09:53:59Z</time>
      </trkpt>
      <trkpt lat="46.74918" lon="5.62309">
        <ele>285.7</ele>
        <time>2019-05-19T09:54:01Z</time>
      </trkpt>
      <trkpt lat="46.74925" lon="5.623">
        <ele>285.6</ele>
        <time>2019-05-19T09:54:03Z</time>
      </trkpt>
      <trkpt lat="46.74934" lon="5.62288">
        <ele>285.4</ele>
        <time>2019-05-19T09:54:06Z</time>
      </trkpt>
      <trkpt lat="46.74941" lon="5.62277">
        <ele>285.3</ele>
        <time>2019-05-19T09:54:08Z</time>
      </trkpt>
      <trkpt lat="46.74949" lon="5.62265">
        <ele>285.2</ele>
        <time>2019-05-19T09:54:10Z</time>
      </trkpt>
      <trkpt lat="46.74957" lon="5.62253">
        <ele>285.1</ele>
        <time>2019-05-19T09:54:12Z</time>
      </trkpt>
      <trkpt lat="46.74966" lon="5.62242">
        <ele>285</ele>
        <time>2019-05-19T09:54:14Z</time>
      </trkpt>
      <trkpt lat="46.74975" lon="5.62232">
        <ele>284.9</ele>
        <time>2019-05-19T09:54:16Z</time>
      </trkpt>
      <trkpt lat="46.74986" lon="5.62224">
        <ele>284.6</ele>
        <time>2019-05-19T09:54:18Z</time>
      </trkpt>
      <trkpt lat="46.74996" lon="5.62215">
        <ele>284.4</ele>
        <time>2019-05-19T09:54:20Z</time>
      </trkpt>
      <trkpt lat="46.75007" lon="5.62206">
        <ele>284.2</ele>
        <time>2019-05-19T09:54:22Z</time>
      </trkpt>
      <trkpt lat="46.75017" lon="5.62196">
        <ele>284.1</ele>
        <time>2019-05-19T09:54:24Z</time>
      </trkpt>
      <trkpt lat="46.75028" lon="5.62186">
        <ele>283.9</ele>
        <time>2019-05-19T09:54:26Z</time>
      </trkpt>
      <trkpt lat="46.75039" lon="5.62177">
        <ele>283.8</ele>
        <time>2019-05-19T09:54:28Z</time>
      </trkpt>
      <trkpt lat="46.7505" lon="5.6217">
        <ele>283.7</ele>
        <time>2019-05-19T09:54:30Z</time>
      </trkpt>
      <trkpt lat="46.75061" lon="5.62169">
        <ele>283.6</ele>
        <time>2019-05-19T09:54:32Z</time>
      </trkpt>
      <trkpt lat="46.75071" lon="5.62168">
        <ele>283.5</ele>
        <time>2019-05-19T09:54:34Z</time>
      </trkpt>
      <trkpt lat="46.7508" lon="5.62165">
        <ele>283.5</ele>
        <time>2019-05-19T09:54:36Z</time>
      </trkpt>
      <trkpt lat="46.75089" lon="5.62158">
        <ele>283.4</ele>
        <time>2019-05-19T09:54:38Z</time>
      </trkpt>
      <trkpt lat="46.75096" lon="5.62147">
        <ele>283.4</ele>
        <time>2019-05-19T09:54:40Z</time>
      </trkpt>
      <trkpt lat="46.75102" lon="5.62134">
        <ele>283.4</ele>
        <time>2019-05-19T09:54:42Z</time>
      </trkpt>
      <trkpt lat="46.7511" lon="5.62119">
        <ele>283.4</ele>
        <time>2019-05-19T09:54:44Z</time>
      </trkpt>
      <trkpt lat="46.75118" lon="5.62105">
        <ele>283.4</ele>
        <time>2019-05-19T09:54:46Z</time>
      </trkpt>
      <trkpt lat="46.75127" lon="5.62091">
        <ele>283.3</ele>
        <time>2019-05-19T09:54:48Z</time>
      </trkpt>
      <trkpt lat="46.75135" lon="5.62076">
        <ele>283.2</ele>
        <time>2019-05-19T09:54:50Z</time>
      </trkpt>
      <trkpt lat="46.75143" lon="5.62061">
        <ele>283</ele>
        <time>2019-05-19T09:54:52Z</time>
      </trkpt>
      <trkpt lat="46.7515" lon="5.62046">
        <ele>282.9</ele>
        <time>2019-05-19T09:54:54Z</time>
      </trkpt>
      <trkpt lat="46.75158" lon="5.62031">
        <ele>282.8</ele>
        <time>2019-05-19T09:54:56Z</time>
      </trkpt>
      <trkpt lat="46.75166" lon="5.62017">
        <ele>282.7</ele>
        <time>2019-05-19T09:54:58Z</time>
      </trkpt>
      <trkpt lat="46.75175" lon="5.62004">
        <ele>282.6</ele>
        <time>2019-05-19T09:55:00Z</time>
      </trkpt>
      <trkpt lat="46.75183" lon="5.61991">
        <ele>282.5</ele>
        <time>2019-05-19T09:55:02Z</time>
      </trkpt>
      <trkpt lat="46.75192" lon="5.61978">
        <ele>282.4</ele>
        <time>2019-05-19T09:55:04Z</time>
      </trkpt>
      <trkpt lat="46.752" lon="5.61965">
        <ele>282.3</ele>
        <time>2019-05-19T09:55:06Z</time>
      </trkpt>
      <trkpt lat="46.75208" lon="5.61952">
        <ele>282.2</ele>
        <time>2019-05-19T09:55:08Z</time>
      </trkpt>
      <trkpt lat="46.75217" lon="5.6194">
        <ele>282.1</ele>
        <time>2019-05-19T09:55:10Z</time>
      </trkpt>
      <trkpt lat="46.75226" lon="5.61929">
        <ele>282</ele>
        <time>2019-05-19T09:55:12Z</time>
      </trkpt>
      <trkpt lat="46.75237" lon="5.6192">
        <ele>281.9</ele>
        <time>2019-05-19T09:55:14Z</time>
      </trkpt>
      <trkpt lat="46.75248" lon="5.61913">
        <ele>281.8</ele>
        <time>2019-05-19T09:55:16Z</time>
      </trkpt>
      <trkpt lat="46.75259" lon="5.61906">
        <ele>281.7</ele>
        <time>2019-05-19T09:55:18Z</time>
      </trkpt>
      <trkpt lat="46.7527" lon="5.61902">
        <ele>281.5</ele>
        <time>2019-05-19T09:55:20Z</time>
      </trkpt>
      <trkpt lat="46.75282" lon="5.61906">
        <ele>281.4</ele>
        <time>2019-05-19T09:55:22Z</time>
      </trkpt>
      <trkpt lat="46.75292" lon="5.61916">
        <ele>281.2</ele>
        <time>2019-05-19T09:55:24Z</time>
      </trkpt>
      <trkpt lat="46.75302" lon="5.61922">
        <ele>281.1</ele>
        <time>2019-05-19T09:55:26Z</time>
      </trkpt>
      <trkpt lat="46.75313" lon="5.6192">
        <ele>281</ele>
        <time>2019-05-19T09:55:28Z</time>
      </trkpt>
      <trkpt lat="46.75325" lon="5.6191">
        <ele>281</ele>
        <time>2019-05-19T09:55:30Z</time>
      </trkpt>
      <trkpt lat="46.75334" lon="5.61897">
        <ele>280.9</ele>
        <time>2019-05-19T09:55:32Z</time>
      </trkpt>
      <trkpt lat="46.75342" lon="5.61881">
        <ele>280.8</ele>
        <time>2019-05-19T09:55:34Z</time>
      </trkpt>
      <trkpt lat="46.75349" lon="5.61865">
        <ele>280.6</ele>
        <time>2019-05-19T09:55:36Z</time>
      </trkpt>
      <trkpt lat="46.75354" lon="5.61848">
        <ele>280.4</ele>
        <time>2019-05-19T09:55:38Z</time>
      </trkpt>
      <trkpt lat="46.75358" lon="5.61831">
        <ele>280.3</ele>
        <time>2019-05-19T09:55:40Z</time>
      </trkpt>
      <trkpt lat="46.75364" lon="5.61815">
        <ele>280.2</ele>
        <time>2019-05-19T09:55:42Z</time>
      </trkpt>
      <trkpt lat="46.7537" lon="5.618">
        <ele>280.1</ele>
        <time>2019-05-19T09:55:44Z</time>
      </trkpt>
      <trkpt lat="46.75378" lon="5.61786">
        <ele>280</ele>
        <time>2019-05-19T09:55:46Z</time>
      </trkpt>
      <trkpt lat="46.75386" lon="5.61773">
        <ele>279.9</ele>
        <time>2019-05-19T09:55:48Z</time>
      </trkpt>
      <trkpt lat="46.75394" lon="5.61761">
        <ele>279.8</ele>
        <time>2019-05-19T09:55:50Z</time>
      </trkpt>
      <trkpt lat="46.75404" lon="5.61754">
        <ele>279.8</ele>
        <time>2019-05-19T09:55:52Z</time>
      </trkpt>
      <trkpt lat="46.75415" lon="5.61758">
        <ele>279.7</ele>
        <time>2019-05-19T09:55:54Z</time>
      </trkpt>
      <trkpt lat="46.75426" lon="5.61767">
        <ele>279.4</ele>
        <time>2019-05-19T09:55:56Z</time>
      </trkpt>
      <trkpt lat="46.75436" lon="5.61773">
        <ele>279.2</ele>
        <time>2019-05-19T09:55:58Z</time>
      </trkpt>
      <trkpt lat="46.75446" lon="5.61779">
        <ele>279.1</ele>
        <time>2019-05-19T09:56:00Z</time>
      </trkpt>
      <trkpt lat="46.75457" lon="5.61782">
        <ele>278.9</ele>
        <time>2019-05-19T09:56:02Z</time>
      </trkpt>
      <trkpt lat="46.75469" lon="5.61782">
        <ele>278.8</ele>
        <time>2019-05-19T09:56:04Z</time>
      </trkpt>
      <trkpt lat="46.75481" lon="5.61779">
        <ele>278.7</ele>
        <time>2019-05-19T09:56:06Z</time>
      </trkpt>
      <trkpt lat="46.75492" lon="5.61777">
        <ele>278.6</ele>
        <time>2019-05-19T09:56:08Z</time>
      </trkpt>
      <trkpt lat="46.75504" lon="5.61774">
        <ele>278.6</ele>
        <time>2019-05-19T09:56:10Z</time>
      </trkpt>
      <trkpt lat="46.75513" lon="5.61766">
        <ele>278.5</ele>
        <time>2019-05-19T09:56:12Z</time>
      </trkpt>
      <trkpt lat="46.75522" lon="5.61754">
        <ele>278.5</ele>
        <time>2019-05-19T09:56:14Z</time>
      </trkpt>
      <trkpt lat="46.7553" lon="5.61739">
        <ele>278.4</ele>
        <time>2019-05-19T09:56:16Z</time>
      </trkpt>
      <trkpt lat="46.75536" lon="5.61724">
        <ele>278.4</ele>
        <time>2019-05-19T09:56:18Z</time>
      </trkpt>
      <trkpt lat="46.75542" lon="5.61711">
        <ele>278.3</ele>
        <time>2019-05-19T09:56:20Z</time>
      </trkpt>
      <trkpt lat="46.75546" lon="5.61697">
        <ele>278.3</ele>
        <time>2019-05-19T09:56:23Z</time>
      </trkpt>
      <trkpt lat="46.75553" lon="5.61684">
        <ele>276.7</ele>
        <time>2019-05-19T09:57:20Z</time>
      </trkpt>
      <trkpt lat="46.75562" lon="5.61678">
        <ele>276.7</ele>
        <time>2019-05-19T09:57:23Z</time>
      </trkpt>
      <trkpt lat="46.75572" lon="5.61671">
        <ele>276.7</ele>
        <time>2019-05-19T09:57:26Z</time>
      </trkpt>
      <trkpt lat="46.75581" lon="5.61662">
        <ele>276.7</ele>
        <time>2019-05-19T09:57:29Z</time>
      </trkpt>
      <trkpt lat="46.75592" lon="5.61654">
        <ele>276.7</ele>
        <time>2019-05-19T09:57:32Z</time>
      </trkpt>
      <trkpt lat="46.75604" lon="5.61647">
        <ele>276.6</ele>
        <time>2019-05-19T09:57:35Z</time>
      </trkpt>
      <trkpt lat="46.75613" lon="5.61642">
        <ele>276.6</ele>
        <time>2019-05-19T09:57:37Z</time>
      </trkpt>
      <trkpt lat="46.75622" lon="5.61637">
        <ele>276.5</ele>
        <time>2019-05-19T09:57:39Z</time>
      </trkpt>
      <trkpt lat="46.75631" lon="5.61633">
        <ele>276.5</ele>
        <time>2019-05-19T09:57:41Z</time>
      </trkpt>
      <trkpt lat="46.75642" lon="5.61638">
        <ele>276.4</ele>
        <time>2019-05-19T09:57:44Z</time>
      </trkpt>
      <trkpt lat="46.75647" lon="5.61655">
        <ele>276.3</ele>
        <time>2019-05-19T09:57:47Z</time>
      </trkpt>
      <trkpt lat="46.75651" lon="5.61674">
        <ele>276.3</ele>
        <time>2019-05-19T09:57:50Z</time>
      </trkpt>
      <trkpt lat="46.75655" lon="5.6169">
        <ele>276.1</ele>
        <time>2019-05-19T09:57:53Z</time>
      </trkpt>
      <trkpt lat="46.75666" lon="5.61696">
        <ele>275.8</ele>
        <time>2019-05-19T09:57:57Z</time>
      </trkpt>
      <trkpt lat="46.75677" lon="5.61688">
        <ele>275.7</ele>
        <time>2019-05-19T09:58:00Z</time>
      </trkpt>
      <trkpt lat="46.75686" lon="5.61684">
        <ele>275.7</ele>
        <time>2019-05-19T09:58:02Z</time>
      </trkpt>
      <trkpt lat="46.75696" lon="5.61681">
        <ele>275.7</ele>
        <time>2019-05-19T09:58:04Z</time>
      </trkpt>
      <trkpt lat="46.75705" lon="5.61679">
        <ele>275.7</ele>
        <time>2019-05-19T09:58:06Z</time>
      </trkpt>
      <trkpt lat="46.75715" lon="5.61677">
        <ele>275.7</ele>
        <time>2019-05-19T09:58:08Z</time>
      </trkpt>
      <trkpt lat="46.75724" lon="5.61678">
        <ele>275.7</ele>
        <time>2019-05-19T09:58:10Z</time>
      </trkpt>
      <trkpt lat="46.75734" lon="5.61677">
        <ele>275.8</ele>
        <time>2019-05-19T09:58:13Z</time>
      </trkpt>
      <trkpt lat="46.75742" lon="5.6167">
        <ele>275.8</ele>
        <time>2019-05-19T09:58:16Z</time>
      </trkpt>
      <trkpt lat="46.75752" lon="5.61657">
        <ele>275.8</ele>
        <time>2019-05-19T09:58:19Z</time>
      </trkpt>
      <trkpt lat="46.7576" lon="5.61645">
        <ele>275.8</ele>
        <time>2019-05-19T09:58:21Z</time>
      </trkpt>
      <trkpt lat="46.75766" lon="5.61631">
        <ele>275.8</ele>
        <time>2019-05-19T09:58:23Z</time>
      </trkpt>
      <trkpt lat="46.75769" lon="5.61615">
        <ele>275.9</ele>
        <time>2019-05-19T09:58:25Z</time>
      </trkpt>
      <trkpt lat="46.7577" lon="5.61599">
        <ele>275.9</ele>
        <time>2019-05-19T09:58:27Z</time>
      </trkpt>
      <trkpt lat="46.75771" lon="5.61584">
        <ele>275.9</ele>
        <time>2019-05-19T09:58:29Z</time>
      </trkpt>
      <trkpt lat="46.75773" lon="5.61571">
        <ele>275.9</ele>
        <time>2019-05-19T09:58:31Z</time>
      </trkpt>
      <trkpt lat="46.75783" lon="5.61567">
        <ele>275.7</ele>
        <time>2019-05-19T09:58:35Z</time>
      </trkpt>
      <trkpt lat="46.75794" lon="5.61571">
        <ele>275.6</ele>
        <time>2019-05-19T09:58:41Z</time>
      </trkpt>
      <trkpt lat="46.75803" lon="5.61575">
        <ele>275.5</ele>
        <time>2019-05-19T09:58:44Z</time>
      </trkpt>
      <trkpt lat="46.75815" lon="5.61574">
        <ele>275.5</ele>
        <time>2019-05-19T09:58:47Z</time>
      </trkpt>
      <trkpt lat="46.75823" lon="5.61569">
        <ele>275.4</ele>
        <time>2019-05-19T09:58:49Z</time>
      </trkpt>
      <trkpt lat="46.75832" lon="5.61565">
        <ele>275.4</ele>
        <time>2019-05-19T09:58:51Z</time>
      </trkpt>
      <trkpt lat="46.75841" lon="5.6156">
        <ele>275.4</ele>
        <time>2019-05-19T09:58:53Z</time>
      </trkpt>
      <trkpt lat="46.75851" lon="5.61555">
        <ele>275.4</ele>
        <time>2019-05-19T09:58:55Z</time>
      </trkpt>
      <trkpt lat="46.75861" lon="5.61549">
        <ele>275.3</ele>
        <time>2019-05-19T09:58:57Z</time>
      </trkpt>
      <trkpt lat="46.75871" lon="5.61543">
        <ele>275.3</ele>
        <time>2019-05-19T09:58:59Z</time>
      </trkpt>
      <trkpt lat="46.75881" lon="5.61536">
        <ele>275.3</ele>
        <time>2019-05-19T09:59:01Z</time>
      </trkpt>
      <trkpt lat="46.7589" lon="5.61529">
        <ele>275.3</ele>
        <time>2019-05-19T09:59:03Z</time>
      </trkpt>
      <trkpt lat="46.75899" lon="5.61521">
        <ele>275.3</ele>
        <time>2019-05-19T09:59:05Z</time>
      </trkpt>
      <trkpt lat="46.75908" lon="5.61514">
        <ele>275.3</ele>
        <time>2019-05-19T09:59:07Z</time>
      </trkpt>
      <trkpt lat="46.75917" lon="5.61507">
        <ele>275.2</ele>
        <time>2019-05-19T09:59:09Z</time>
      </trkpt>
      <trkpt lat="46.75927" lon="5.615">
        <ele>275.2</ele>
        <time>2019-05-19T09:59:11Z</time>
      </trkpt>
      <trkpt lat="46.75936" lon="5.61494">
        <ele>275.2</ele>
        <time>2019-05-19T09:59:13Z</time>
      </trkpt>
      <trkpt lat="46.75946" lon="5.6149">
        <ele>275.2</ele>
        <time>2019-05-19T09:59:15Z</time>
      </trkpt>
      <trkpt lat="46.75956" lon="5.61486">
        <ele>275.3</ele>
        <time>2019-05-19T09:59:17Z</time>
      </trkpt>
      <trkpt lat="46.75966" lon="5.61484">
        <ele>275.3</ele>
        <time>2019-05-19T09:59:19Z</time>
      </trkpt>
      <trkpt lat="46.75975" lon="5.61481">
        <ele>275.3</ele>
        <time>2019-05-19T09:59:21Z</time>
      </trkpt>
      <trkpt lat="46.75986" lon="5.6147">
        <ele>275.4</ele>
        <time>2019-05-19T09:59:24Z</time>
      </trkpt>
      <trkpt lat="46.75989" lon="5.61457">
        <ele>275.5</ele>
        <time>2019-05-19T09:59:26Z</time>
      </trkpt>
      <trkpt lat="46.75986" lon="5.61443">
        <ele>275.6</ele>
        <time>2019-05-19T09:59:28Z</time>
      </trkpt>
      <trkpt lat="46.75983" lon="5.61428">
        <ele>275.7</ele>
        <time>2019-05-19T09:59:30Z</time>
      </trkpt>
      <trkpt lat="46.75983" lon="5.61412">
        <ele>275.7</ele>
        <time>2019-05-19T09:59:32Z</time>
      </trkpt>
      <trkpt lat="46.75986" lon="5.61397">
        <ele>275.7</ele>
        <time>2019-05-19T09:59:34Z</time>
      </trkpt>
      <trkpt lat="46.75989" lon="5.61381">
        <ele>275.8</ele>
        <time>2019-05-19T09:59:36Z</time>
      </trkpt>
      <trkpt lat="46.75991" lon="5.61364">
        <ele>275.8</ele>
        <time>2019-05-19T09:59:38Z</time>
      </trkpt>
      <trkpt lat="46.75993" lon="5.61347">
        <ele>275.7</ele>
        <time>2019-05-19T09:59:40Z</time>
      </trkpt>
      <trkpt lat="46.75996" lon="5.6133">
        <ele>275.6</ele>
        <time>2019-05-19T09:59:42Z</time>
      </trkpt>
      <trkpt lat="46.76" lon="5.61314">
        <ele>275.6</ele>
        <time>2019-05-19T09:59:44Z</time>
      </trkpt>
      <trkpt lat="46.76006" lon="5.61298">
        <ele>275.4</ele>
        <time>2019-05-19T09:59:46Z</time>
      </trkpt>
      <trkpt lat="46.76013" lon="5.61283">
        <ele>275.3</ele>
        <time>2019-05-19T09:59:48Z</time>
      </trkpt>
      <trkpt lat="46.76021" lon="5.61269">
        <ele>275</ele>
        <time>2019-05-19T09:59:50Z</time>
      </trkpt>
      <trkpt lat="46.76032" lon="5.61258">
        <ele>274.8</ele>
        <time>2019-05-19T09:59:52Z</time>
      </trkpt>
      <trkpt lat="46.76042" lon="5.61247">
        <ele>274.7</ele>
        <time>2019-05-19T09:59:54Z</time>
      </trkpt>
      <trkpt lat="46.76052" lon="5.61237">
        <ele>274.5</ele>
        <time>2019-05-19T09:59:56Z</time>
      </trkpt>
      <trkpt lat="46.76061" lon="5.61225">
        <ele>274.4</ele>
        <time>2019-05-19T09:59:58Z</time>
      </trkpt>
      <trkpt lat="46.76068" lon="5.61211">
        <ele>274.3</ele>
        <time>2019-05-19T10:00:00Z</time>
      </trkpt>
      <trkpt lat="46.76073" lon="5.61196">
        <ele>274.1</ele>
        <time>2019-05-19T10:00:02Z</time>
      </trkpt>
      <trkpt lat="46.7608" lon="5.61182">
        <ele>274</ele>
        <time>2019-05-19T10:00:04Z</time>
      </trkpt>
      <trkpt lat="46.76088" lon="5.6117">
        <ele>274</ele>
        <time>2019-05-19T10:00:06Z</time>
      </trkpt>
      <trkpt lat="46.76095" lon="5.61157">
        <ele>273.8</ele>
        <time>2019-05-19T10:00:08Z</time>
      </trkpt>
      <trkpt lat="46.76102" lon="5.61144">
        <ele>273.7</ele>
        <time>2019-05-19T10:00:10Z</time>
      </trkpt>
      <trkpt lat="46.7611" lon="5.61132">
        <ele>273.6</ele>
        <time>2019-05-19T10:00:12Z</time>
      </trkpt>
      <trkpt lat="46.76118" lon="5.6112">
        <ele>273.5</ele>
        <time>2019-05-19T10:00:14Z</time>
      </trkpt>
      <trkpt lat="46.76127" lon="5.61109">
        <ele>273.5</ele>
        <time>2019-05-19T10:00:16Z</time>
      </trkpt>
      <trkpt lat="46.76136" lon="5.61098">
        <ele>273.4</ele>
        <time>2019-05-19T10:00:18Z</time>
      </trkpt>
      <trkpt lat="46.76145" lon="5.61087">
        <ele>273.3</ele>
        <time>2019-05-19T10:00:20Z</time>
      </trkpt>
      <trkpt lat="46.76154" lon="5.61074">
        <ele>273.3</ele>
        <time>2019-05-19T10:00:22Z</time>
      </trkpt>
      <trkpt lat="46.76162" lon="5.61062">
        <ele>273.3</ele>
        <time>2019-05-19T10:00:24Z</time>
      </trkpt>
      <trkpt lat="46.76171" lon="5.61049">
        <ele>273.2</ele>
        <time>2019-05-19T10:00:26Z</time>
      </trkpt>
      <trkpt lat="46.7618" lon="5.61037">
        <ele>273.2</ele>
        <time>2019-05-19T10:00:28Z</time>
      </trkpt>
      <trkpt lat="46.7619" lon="5.61029">
        <ele>273.1</ele>
        <time>2019-05-19T10:00:30Z</time>
      </trkpt>
      <trkpt lat="46.76201" lon="5.61026">
        <ele>273</ele>
        <time>2019-05-19T10:00:32Z</time>
      </trkpt>
      <trkpt lat="46.76212" lon="5.61023">
        <ele>272.9</ele>
        <time>2019-05-19T10:00:34Z</time>
      </trkpt>
      <trkpt lat="46.76223" lon="5.61017">
        <ele>272.8</ele>
        <time>2019-05-19T10:00:36Z</time>
      </trkpt>
      <trkpt lat="46.76233" lon="5.61008">
        <ele>272.7</ele>
        <time>2019-05-19T10:00:38Z</time>
      </trkpt>
      <trkpt lat="46.76243" lon="5.60996">
        <ele>272.4</ele>
        <time>2019-05-19T10:00:40Z</time>
      </trkpt>
      <trkpt lat="46.76251" lon="5.60982">
        <ele>272.2</ele>
        <time>2019-05-19T10:00:42Z</time>
      </trkpt>
      <trkpt lat="46.76259" lon="5.60967">
        <ele>272.1</ele>
        <time>2019-05-19T10:00:44Z</time>
      </trkpt>
      <trkpt lat="46.76267" lon="5.60953">
        <ele>271.9</ele>
        <time>2019-05-19T10:00:46Z</time>
      </trkpt>
      <trkpt lat="46.76275" lon="5.60938">
        <ele>271.8</ele>
        <time>2019-05-19T10:00:48Z</time>
      </trkpt>
      <trkpt lat="46.76282" lon="5.60923">
        <ele>271.7</ele>
        <time>2019-05-19T10:00:50Z</time>
      </trkpt>
      <trkpt lat="46.76291" lon="5.6091">
        <ele>271.6</ele>
        <time>2019-05-19T10:00:52Z</time>
      </trkpt>
      <trkpt lat="46.76299" lon="5.60896">
        <ele>271.5</ele>
        <time>2019-05-19T10:00:54Z</time>
      </trkpt>
      <trkpt lat="46.76307" lon="5.60883">
        <ele>271.4</ele>
        <time>2019-05-19T10:00:56Z</time>
      </trkpt>
      <trkpt lat="46.76316" lon="5.6087">
        <ele>271.4</ele>
        <time>2019-05-19T10:00:58Z</time>
      </trkpt>
      <trkpt lat="46.76324" lon="5.60856">
        <ele>271.3</ele>
        <time>2019-05-19T10:01:00Z</time>
      </trkpt>
      <trkpt lat="46.76333" lon="5.60842">
        <ele>271.2</ele>
        <time>2019-05-19T10:01:02Z</time>
      </trkpt>
      <trkpt lat="46.76342" lon="5.60829">
        <ele>271.2</ele>
        <time>2019-05-19T10:01:04Z</time>
      </trkpt>
      <trkpt lat="46.7635" lon="5.60817">
        <ele>271.2</ele>
        <time>2019-05-19T10:01:06Z</time>
      </trkpt>
      <trkpt lat="46.76361" lon="5.60807">
        <ele>271.1</ele>
        <time>2019-05-19T10:01:08Z</time>
      </trkpt>
      <trkpt lat="46.76371" lon="5.60797">
        <ele>271.1</ele>
        <time>2019-05-19T10:01:10Z</time>
      </trkpt>
      <trkpt lat="46.76381" lon="5.60788">
        <ele>271</ele>
        <time>2019-05-19T10:01:12Z</time>
      </trkpt>
      <trkpt lat="46.76392" lon="5.60778">
        <ele>270.9</ele>
        <time>2019-05-19T10:01:14Z</time>
      </trkpt>
      <trkpt lat="46.76402" lon="5.60769">
        <ele>270.8</ele>
        <time>2019-05-19T10:01:16Z</time>
      </trkpt>
      <trkpt lat="46.76412" lon="5.60761">
        <ele>270.7</ele>
        <time>2019-05-19T10:01:18Z</time>
      </trkpt>
      <trkpt lat="46.76422" lon="5.60752">
        <ele>270.6</ele>
        <time>2019-05-19T10:01:20Z</time>
      </trkpt>
      <trkpt lat="46.7643" lon="5.60742">
        <ele>270.5</ele>
        <time>2019-05-19T10:01:22Z</time>
      </trkpt>
      <trkpt lat="46.76439" lon="5.60731">
        <ele>270.4</ele>
        <time>2019-05-19T10:01:24Z</time>
      </trkpt>
      <trkpt lat="46.76449" lon="5.60719">
        <ele>270.3</ele>
        <time>2019-05-19T10:01:26Z</time>
      </trkpt>
      <trkpt lat="46.76458" lon="5.60708">
        <ele>270.3</ele>
        <time>2019-05-19T10:01:28Z</time>
      </trkpt>
      <trkpt lat="46.76466" lon="5.60696">
        <ele>270.2</ele>
        <time>2019-05-19T10:01:30Z</time>
      </trkpt>
      <trkpt lat="46.76474" lon="5.60683">
        <ele>270.2</ele>
        <time>2019-05-19T10:01:32Z</time>
      </trkpt>
      <trkpt lat="46.76482" lon="5.60672">
        <ele>270.1</ele>
        <time>2019-05-19T10:01:34Z</time>
      </trkpt>
      <trkpt lat="46.76489" lon="5.6066">
        <ele>270</ele>
        <time>2019-05-19T10:01:36Z</time>
      </trkpt>
      <trkpt lat="46.76497" lon="5.60647">
        <ele>269.9</ele>
        <time>2019-05-19T10:01:38Z</time>
      </trkpt>
      <trkpt lat="46.76504" lon="5.60634">
        <ele>269.7</ele>
        <time>2019-05-19T10:01:40Z</time>
      </trkpt>
      <trkpt lat="46.7651" lon="5.60622">
        <ele>269.6</ele>
        <time>2019-05-19T10:01:42Z</time>
      </trkpt>
      <trkpt lat="46.76517" lon="5.60612">
        <ele>269.5</ele>
        <time>2019-05-19T10:01:44Z</time>
      </trkpt>
      <trkpt lat="46.76526" lon="5.60598">
        <ele>269.4</ele>
        <time>2019-05-19T10:01:47Z</time>
      </trkpt>
      <trkpt lat="46.76533" lon="5.6059">
        <ele>269.3</ele>
        <time>2019-05-19T10:01:50Z</time>
      </trkpt>
      <trkpt lat="46.76541" lon="5.60602">
        <ele>269.2</ele>
        <time>2019-05-19T10:01:54Z</time>
      </trkpt>
      <trkpt lat="46.76545" lon="5.60616">
        <ele>269.1</ele>
        <time>2019-05-19T10:01:57Z</time>
      </trkpt>
      <trkpt lat="46.76553" lon="5.60627">
        <ele>269.1</ele>
        <time>2019-05-19T10:01:59Z</time>
      </trkpt>
      <trkpt lat="46.76559" lon="5.60639">
        <ele>269.2</ele>
        <time>2019-05-19T10:02:01Z</time>
      </trkpt>
      <trkpt lat="46.76564" lon="5.60652">
        <ele>269.2</ele>
        <time>2019-05-19T10:02:03Z</time>
      </trkpt>
      <trkpt lat="46.76568" lon="5.60665">
        <ele>269.3</ele>
        <time>2019-05-19T10:02:05Z</time>
      </trkpt>
      <trkpt lat="46.76572" lon="5.6068">
        <ele>269.4</ele>
        <time>2019-05-19T10:02:08Z</time>
      </trkpt>
      <trkpt lat="46.7658" lon="5.60692">
        <ele>269.8</ele>
        <time>2019-05-19T10:02:12Z</time>
      </trkpt>
      <trkpt lat="46.76589" lon="5.607">
        <ele>270.6</ele>
        <time>2019-05-19T10:02:17Z</time>
      </trkpt>
      <trkpt lat="46.76597" lon="5.60704">
        <ele>271.7</ele>
        <time>2019-05-19T10:02:22Z</time>
      </trkpt>
      <trkpt lat="46.76608" lon="5.60702">
        <ele>272.8</ele>
        <time>2019-05-19T10:02:27Z</time>
      </trkpt>
      <trkpt lat="46.76618" lon="5.60701">
        <ele>274.1</ele>
        <time>2019-05-19T10:02:32Z</time>
      </trkpt>
      <trkpt lat="46.76628" lon="5.60697">
        <ele>275.3</ele>
        <time>2019-05-19T10:02:37Z</time>
      </trkpt>
      <trkpt lat="46.76637" lon="5.60694">
        <ele>276.1</ele>
        <time>2019-05-19T10:02:41Z</time>
      </trkpt>
      <trkpt lat="46.76646" lon="5.60693">
        <ele>277.1</ele>
        <time>2019-05-19T10:02:45Z</time>
      </trkpt>
      <trkpt lat="46.76656" lon="5.60692">
        <ele>278.3</ele>
        <time>2019-05-19T10:02:50Z</time>
      </trkpt>
      <trkpt lat="46.76665" lon="5.60686">
        <ele>279.3</ele>
        <time>2019-05-19T10:02:54Z</time>
      </trkpt>
      <trkpt lat="46.76675" lon="5.60685">
        <ele>280.4</ele>
        <time>2019-05-19T10:02:59Z</time>
      </trkpt>
      <trkpt lat="46.76679" lon="5.60697">
        <ele>281.5</ele>
        <time>2019-05-19T10:03:04Z</time>
      </trkpt>
      <trkpt lat="46.76679" lon="5.60711">
        <ele>282.3</ele>
        <time>2019-05-19T10:03:08Z</time>
      </trkpt>
      <trkpt lat="46.76679" lon="5.60726">
        <ele>283.1</ele>
        <time>2019-05-19T10:03:12Z</time>
      </trkpt>
      <trkpt lat="46.76679" lon="5.60741">
        <ele>283.8</ele>
        <time>2019-05-19T10:03:16Z</time>
      </trkpt>
      <trkpt lat="46.7668" lon="5.60757">
        <ele>284.5</ele>
        <time>2019-05-19T10:03:20Z</time>
      </trkpt>
      <trkpt lat="46.7668" lon="5.60774">
        <ele>285.2</ele>
        <time>2019-05-19T10:03:24Z</time>
      </trkpt>
      <trkpt lat="46.76681" lon="5.60789">
        <ele>285.7</ele>
        <time>2019-05-19T10:03:28Z</time>
      </trkpt>
      <trkpt lat="46.76681" lon="5.60803">
        <ele>286.2</ele>
        <time>2019-05-19T10:03:31Z</time>
      </trkpt>
      <trkpt lat="46.76682" lon="5.60817">
        <ele>286.8</ele>
        <time>2019-05-19T10:03:34Z</time>
      </trkpt>
      <trkpt lat="46.76682" lon="5.60834">
        <ele>287.3</ele>
        <time>2019-05-19T10:03:38Z</time>
      </trkpt>
      <trkpt lat="46.76683" lon="5.60847">
        <ele>287.8</ele>
        <time>2019-05-19T10:03:41Z</time>
      </trkpt>
      <trkpt lat="46.76683" lon="5.60864">
        <ele>288.4</ele>
        <time>2019-05-19T10:03:45Z</time>
      </trkpt>
      <trkpt lat="46.76683" lon="5.6088">
        <ele>288.9</ele>
        <time>2019-05-19T10:03:49Z</time>
      </trkpt>
      <trkpt lat="46.76682" lon="5.60897">
        <ele>289.4</ele>
        <time>2019-05-19T10:03:53Z</time>
      </trkpt>
      <trkpt lat="46.76683" lon="5.60914">
        <ele>290</ele>
        <time>2019-05-19T10:03:57Z</time>
      </trkpt>
      <trkpt lat="46.76683" lon="5.60931">
        <ele>290.6</ele>
        <time>2019-05-19T10:04:01Z</time>
      </trkpt>
      <trkpt lat="46.76684" lon="5.60944">
        <ele>291.1</ele>
        <time>2019-05-19T10:04:04Z</time>
      </trkpt>
      <trkpt lat="46.76684" lon="5.60959">
        <ele>291.6</ele>
        <time>2019-05-19T10:04:07Z</time>
      </trkpt>
      <trkpt lat="46.76683" lon="5.60974">
        <ele>292.3</ele>
        <time>2019-05-19T10:04:11Z</time>
      </trkpt>
      <trkpt lat="46.76683" lon="5.60991">
        <ele>293</ele>
        <time>2019-05-19T10:04:15Z</time>
      </trkpt>
      <trkpt lat="46.76683" lon="5.61007">
        <ele>293.7</ele>
        <time>2019-05-19T10:04:19Z</time>
      </trkpt>
      <trkpt lat="46.76683" lon="5.61022">
        <ele>294.6</ele>
        <time>2019-05-19T10:04:23Z</time>
      </trkpt>
      <trkpt lat="46.76683" lon="5.61036">
        <ele>295.5</ele>
        <time>2019-05-19T10:04:27Z</time>
      </trkpt>
      <trkpt lat="46.76685" lon="5.6105">
        <ele>296.4</ele>
        <time>2019-05-19T10:04:31Z</time>
      </trkpt>
      <trkpt lat="46.7669" lon="5.61063">
        <ele>297.2</ele>
        <time>2019-05-19T10:04:35Z</time>
      </trkpt>
      <trkpt lat="46.76696" lon="5.61075">
        <ele>297.9</ele>
        <time>2019-05-19T10:04:39Z</time>
      </trkpt>
      <trkpt lat="46.76704" lon="5.61088">
        <ele>298.6</ele>
        <time>2019-05-19T10:04:43Z</time>
      </trkpt>
      <trkpt lat="46.76711" lon="5.611">
        <ele>299.3</ele>
        <time>2019-05-19T10:04:47Z</time>
      </trkpt>
      <trkpt lat="46.76718" lon="5.61112">
        <ele>300</ele>
        <time>2019-05-19T10:04:51Z</time>
      </trkpt>
      <trkpt lat="46.76725" lon="5.61123">
        <ele>300.7</ele>
        <time>2019-05-19T10:04:55Z</time>
      </trkpt>
      <trkpt lat="46.76732" lon="5.61133">
        <ele>301.4</ele>
        <time>2019-05-19T10:04:59Z</time>
      </trkpt>
      <trkpt lat="46.76739" lon="5.61144">
        <ele>302.3</ele>
        <time>2019-05-19T10:05:03Z</time>
      </trkpt>
      <trkpt lat="46.76746" lon="5.61155">
        <ele>303.1</ele>
        <time>2019-05-19T10:05:07Z</time>
      </trkpt>
      <trkpt lat="46.76752" lon="5.61166">
        <ele>303.9</ele>
        <time>2019-05-19T10:05:11Z</time>
      </trkpt>
      <trkpt lat="46.76758" lon="5.61177">
        <ele>304.5</ele>
        <time>2019-05-19T10:05:15Z</time>
      </trkpt>
      <trkpt lat="46.76765" lon="5.61188">
        <ele>305.3</ele>
        <time>2019-05-19T10:05:19Z</time>
      </trkpt>
      <trkpt lat="46.76771" lon="5.61199">
        <ele>306.1</ele>
        <time>2019-05-19T10:05:23Z</time>
      </trkpt>
      <trkpt lat="46.76778" lon="5.61211">
        <ele>306.9</ele>
        <time>2019-05-19T10:05:27Z</time>
      </trkpt>
      <trkpt lat="46.76785" lon="5.61223">
        <ele>307.6</ele>
        <time>2019-05-19T10:05:31Z</time>
      </trkpt>
      <trkpt lat="46.76791" lon="5.61234">
        <ele>308.2</ele>
        <time>2019-05-19T10:05:35Z</time>
      </trkpt>
      <trkpt lat="46.76798" lon="5.61246">
        <ele>308.9</ele>
        <time>2019-05-19T10:05:39Z</time>
      </trkpt>
      <trkpt lat="46.76803" lon="5.61258">
        <ele>309.6</ele>
        <time>2019-05-19T10:05:43Z</time>
      </trkpt>
      <trkpt lat="46.76808" lon="5.61271">
        <ele>310.2</ele>
        <time>2019-05-19T10:05:47Z</time>
      </trkpt>
      <trkpt lat="46.76813" lon="5.61284">
        <ele>310.8</ele>
        <time>2019-05-19T10:05:51Z</time>
      </trkpt>
      <trkpt lat="46.76819" lon="5.61297">
        <ele>311.5</ele>
        <time>2019-05-19T10:05:55Z</time>
      </trkpt>
      <trkpt lat="46.76825" lon="5.61309">
        <ele>312.1</ele>
        <time>2019-05-19T10:05:59Z</time>
      </trkpt>
      <trkpt lat="46.76832" lon="5.61321">
        <ele>313</ele>
        <time>2019-05-19T10:06:04Z</time>
      </trkpt>
      <trkpt lat="46.76837" lon="5.61333">
        <ele>313.8</ele>
        <time>2019-05-19T10:06:08Z</time>
      </trkpt>
      <trkpt lat="46.76843" lon="5.61343">
        <ele>314.7</ele>
        <time>2019-05-19T10:06:12Z</time>
      </trkpt>
      <trkpt lat="46.76849" lon="5.61355">
        <ele>315.7</ele>
        <time>2019-05-19T10:06:17Z</time>
      </trkpt>
      <trkpt lat="46.76856" lon="5.61367">
        <ele>316.7</ele>
        <time>2019-05-19T10:06:22Z</time>
      </trkpt>
      <trkpt lat="46.76861" lon="5.61378">
        <ele>317.7</ele>
        <time>2019-05-19T10:06:27Z</time>
      </trkpt>
      <trkpt lat="46.76867" lon="5.61388">
        <ele>318.7</ele>
        <time>2019-05-19T10:06:32Z</time>
      </trkpt>
      <trkpt lat="46.76875" lon="5.61397">
        <ele>319.9</ele>
        <time>2019-05-19T10:06:37Z</time>
      </trkpt>
      <trkpt lat="46.76884" lon="5.61405">
        <ele>321.3</ele>
        <time>2019-05-19T10:06:43Z</time>
      </trkpt>
      <trkpt lat="46.76892" lon="5.61412">
        <ele>322.6</ele>
        <time>2019-05-19T10:06:48Z</time>
      </trkpt>
      <trkpt lat="46.76902" lon="5.61419">
        <ele>324.3</ele>
        <time>2019-05-19T10:06:54Z</time>
      </trkpt>
      <trkpt lat="46.76911" lon="5.61426">
        <ele>326.3</ele>
        <time>2019-05-19T10:07:00Z</time>
      </trkpt>
      <trkpt lat="46.7692" lon="5.61432">
        <ele>328.1</ele>
        <time>2019-05-19T10:07:06Z</time>
      </trkpt>
      <trkpt lat="46.7693" lon="5.61436">
        <ele>329.9</ele>
        <time>2019-05-19T10:07:12Z</time>
      </trkpt>
      <trkpt lat="46.7694" lon="5.61434">
        <ele>331.3</ele>
        <time>2019-05-19T10:07:18Z</time>
      </trkpt>
      <trkpt lat="46.76949" lon="5.61438">
        <ele>332.8</ele>
        <time>2019-05-19T10:07:24Z</time>
      </trkpt>
      <trkpt lat="46.76959" lon="5.61442">
        <ele>334</ele>
        <time>2019-05-19T10:07:30Z</time>
      </trkpt>
      <trkpt lat="46.76969" lon="5.61447">
        <ele>335.3</ele>
        <time>2019-05-19T10:07:36Z</time>
      </trkpt>
      <trkpt lat="46.76977" lon="5.61452">
        <ele>336.4</ele>
        <time>2019-05-19T10:07:41Z</time>
      </trkpt>
      <trkpt lat="46.76987" lon="5.61457">
        <ele>337.5</ele>
        <time>2019-05-19T10:07:47Z</time>
      </trkpt>
      <trkpt lat="46.76996" lon="5.61461">
        <ele>338.5</ele>
        <time>2019-05-19T10:07:52Z</time>
      </trkpt>
      <trkpt lat="46.77006" lon="5.61466">
        <ele>339.7</ele>
        <time>2019-05-19T10:07:58Z</time>
      </trkpt>
      <trkpt lat="46.77016" lon="5.61472">
        <ele>340.8</ele>
        <time>2019-05-19T10:08:04Z</time>
      </trkpt>
      <trkpt lat="46.77024" lon="5.61477">
        <ele>341.8</ele>
        <time>2019-05-19T10:08:09Z</time>
      </trkpt>
      <trkpt lat="46.77033" lon="5.61482">
        <ele>342.6</ele>
        <time>2019-05-19T10:08:14Z</time>
      </trkpt>
      <trkpt lat="46.77041" lon="5.61486">
        <ele>343.5</ele>
        <time>2019-05-19T10:08:19Z</time>
      </trkpt>
      <trkpt lat="46.77051" lon="5.61492">
        <ele>344.7</ele>
        <time>2019-05-19T10:08:25Z</time>
      </trkpt>
      <trkpt lat="46.77061" lon="5.61498">
        <ele>346</ele>
        <time>2019-05-19T10:08:31Z</time>
      </trkpt>
      <trkpt lat="46.77067" lon="5.61509">
        <ele>347.5</ele>
        <time>2019-05-19T10:08:37Z</time>
      </trkpt>
      <trkpt lat="46.77069" lon="5.61524">
        <ele>348.8</ele>
        <time>2019-05-19T10:08:43Z</time>
      </trkpt>
      <trkpt lat="46.77069" lon="5.61538">
        <ele>350.1</ele>
        <time>2019-05-19T10:08:51Z</time>
      </trkpt>
      <trkpt lat="46.77067" lon="5.61553">
        <ele>350.7</ele>
        <time>2019-05-19T10:08:56Z</time>
      </trkpt>
      <trkpt lat="46.77066" lon="5.61567">
        <ele>351.2</ele>
        <time>2019-05-19T10:09:00Z</time>
      </trkpt>
      <trkpt lat="46.7706" lon="5.61579">
        <ele>351.8</ele>
        <time>2019-05-19T10:09:04Z</time>
      </trkpt>
      <trkpt lat="46.77052" lon="5.61586">
        <ele>352.4</ele>
        <time>2019-05-19T10:09:08Z</time>
      </trkpt>
      <trkpt lat="46.77041" lon="5.61584">
        <ele>353</ele>
        <time>2019-05-19T10:09:12Z</time>
      </trkpt>
      <trkpt lat="46.7703" lon="5.6158">
        <ele>353.6</ele>
        <time>2019-05-19T10:09:16Z</time>
      </trkpt>
      <trkpt lat="46.77019" lon="5.61578">
        <ele>354.2</ele>
        <time>2019-05-19T10:09:20Z</time>
      </trkpt>
      <trkpt lat="46.77009" lon="5.61578">
        <ele>354.6</ele>
        <time>2019-05-19T10:09:23Z</time>
      </trkpt>
      <trkpt lat="46.76999" lon="5.6158">
        <ele>355</ele>
        <time>2019-05-19T10:09:26Z</time>
      </trkpt>
      <trkpt lat="46.76989" lon="5.61582">
        <ele>355.5</ele>
        <time>2019-05-19T10:09:29Z</time>
      </trkpt>
      <trkpt lat="46.7698" lon="5.61585">
        <ele>355.9</ele>
        <time>2019-05-19T10:09:32Z</time>
      </trkpt>
      <trkpt lat="46.7697" lon="5.61586">
        <ele>356.4</ele>
        <time>2019-05-19T10:09:35Z</time>
      </trkpt>
      <trkpt lat="46.7696" lon="5.61588">
        <ele>356.8</ele>
        <time>2019-05-19T10:09:38Z</time>
      </trkpt>
      <trkpt lat="46.76949" lon="5.61589">
        <ele>357.2</ele>
        <time>2019-05-19T10:09:41Z</time>
      </trkpt>
      <trkpt lat="46.76939" lon="5.61591">
        <ele>357.8</ele>
        <time>2019-05-19T10:09:44Z</time>
      </trkpt>
      <trkpt lat="46.76928" lon="5.61592">
        <ele>358.4</ele>
        <time>2019-05-19T10:09:47Z</time>
      </trkpt>
      <trkpt lat="46.76919" lon="5.61594">
        <ele>358.9</ele>
        <time>2019-05-19T10:09:50Z</time>
      </trkpt>
      <trkpt lat="46.76909" lon="5.61596">
        <ele>359.5</ele>
        <time>2019-05-19T10:09:53Z</time>
      </trkpt>
      <trkpt lat="46.76901" lon="5.61602">
        <ele>360.4</ele>
        <time>2019-05-19T10:09:58Z</time>
      </trkpt>
      <trkpt lat="46.76909" lon="5.6161">
        <ele>361.4</ele>
        <time>2019-05-19T10:10:03Z</time>
      </trkpt>
      <trkpt lat="46.76918" lon="5.61616">
        <ele>362.5</ele>
        <time>2019-05-19T10:10:08Z</time>
      </trkpt>
      <trkpt lat="46.76926" lon="5.61625">
        <ele>363.6</ele>
        <time>2019-05-19T10:10:13Z</time>
      </trkpt>
      <trkpt lat="46.76934" lon="5.61633">
        <ele>364.8</ele>
        <time>2019-05-19T10:10:18Z</time>
      </trkpt>
      <trkpt lat="46.76942" lon="5.61641">
        <ele>366.2</ele>
        <time>2019-05-19T10:10:23Z</time>
      </trkpt>
      <trkpt lat="46.76951" lon="5.61648">
        <ele>367.8</ele>
        <time>2019-05-19T10:10:29Z</time>
      </trkpt>
      <trkpt lat="46.7696" lon="5.61654">
        <ele>369.6</ele>
        <time>2019-05-19T10:10:35Z</time>
      </trkpt>
      <trkpt lat="46.76969" lon="5.61659">
        <ele>371.4</ele>
        <time>2019-05-19T10:10:41Z</time>
      </trkpt>
      <trkpt lat="46.76979" lon="5.61664">
        <ele>372.9</ele>
        <time>2019-05-19T10:10:46Z</time>
      </trkpt>
      <trkpt lat="46.76989" lon="5.61668">
        <ele>374.4</ele>
        <time>2019-05-19T10:10:51Z</time>
      </trkpt>
      <trkpt lat="46.76998" lon="5.61674">
        <ele>375.8</ele>
        <time>2019-05-19T10:10:56Z</time>
      </trkpt>
      <trkpt lat="46.77007" lon="5.61679">
        <ele>377.3</ele>
        <time>2019-05-19T10:11:02Z</time>
      </trkpt>
      <trkpt lat="46.77016" lon="5.61686">
        <ele>378.6</ele>
        <time>2019-05-19T10:11:07Z</time>
      </trkpt>
      <trkpt lat="46.77022" lon="5.61695">
        <ele>380</ele>
        <time>2019-05-19T10:11:13Z</time>
      </trkpt>
      <trkpt lat="46.77023" lon="5.6171">
        <ele>381.7</ele>
        <time>2019-05-19T10:11:20Z</time>
      </trkpt>
      <trkpt lat="46.77017" lon="5.61722">
        <ele>383.2</ele>
        <time>2019-05-19T10:11:27Z</time>
      </trkpt>
      <trkpt lat="46.7701" lon="5.61732">
        <ele>384.2</ele>
        <time>2019-05-19T10:11:32Z</time>
      </trkpt>
      <trkpt lat="46.77004" lon="5.61743">
        <ele>385.3</ele>
        <time>2019-05-19T10:11:37Z</time>
      </trkpt>
      <trkpt lat="46.76998" lon="5.61755">
        <ele>386.5</ele>
        <time>2019-05-19T10:11:43Z</time>
      </trkpt>
      <trkpt lat="46.76993" lon="5.61767">
        <ele>387.6</ele>
        <time>2019-05-19T10:11:49Z</time>
      </trkpt>
      <trkpt lat="46.76989" lon="5.6178">
        <ele>388.7</ele>
        <time>2019-05-19T10:11:55Z</time>
      </trkpt>
      <trkpt lat="46.76987" lon="5.61795">
        <ele>389.7</ele>
        <time>2019-05-19T10:12:01Z</time>
      </trkpt>
      <trkpt lat="46.76986" lon="5.61808">
        <ele>390.5</ele>
        <time>2019-05-19T10:12:06Z</time>
      </trkpt>
      <trkpt lat="46.76988" lon="5.61822">
        <ele>391.4</ele>
        <time>2019-05-19T10:12:11Z</time>
      </trkpt>
      <trkpt lat="46.76986" lon="5.61835">
        <ele>392.1</ele>
        <time>2019-05-19T10:12:16Z</time>
      </trkpt>
      <trkpt lat="46.76986" lon="5.6185">
        <ele>392.8</ele>
        <time>2019-05-19T10:12:21Z</time>
      </trkpt>
      <trkpt lat="46.76986" lon="5.61866">
        <ele>393.6</ele>
        <time>2019-05-19T10:12:26Z</time>
      </trkpt>
      <trkpt lat="46.76985" lon="5.61882">
        <ele>394.3</ele>
        <time>2019-05-19T10:12:31Z</time>
      </trkpt>
      <trkpt lat="46.76984" lon="5.61897">
        <ele>394.7</ele>
        <time>2019-05-19T10:12:35Z</time>
      </trkpt>
      <trkpt lat="46.76984" lon="5.61913">
        <ele>395.1</ele>
        <time>2019-05-19T10:12:39Z</time>
      </trkpt>
      <trkpt lat="46.76978" lon="5.61923">
        <ele>395.4</ele>
        <time>2019-05-19T10:12:43Z</time>
      </trkpt>
      <trkpt lat="46.76967" lon="5.61926">
        <ele>395.6</ele>
        <time>2019-05-19T10:12:46Z</time>
      </trkpt>
      <trkpt lat="46.76955" lon="5.6193">
        <ele>395.8</ele>
        <time>2019-05-19T10:12:49Z</time>
      </trkpt>
      <trkpt lat="46.76946" lon="5.61934">
        <ele>395.9</ele>
        <time>2019-05-19T10:12:51Z</time>
      </trkpt>
      <trkpt lat="46.76933" lon="5.61938">
        <ele>396.1</ele>
        <time>2019-05-19T10:12:54Z</time>
      </trkpt>
      <trkpt lat="46.76924" lon="5.61941">
        <ele>396.2</ele>
        <time>2019-05-19T10:12:56Z</time>
      </trkpt>
      <trkpt lat="46.76916" lon="5.61944">
        <ele>396.3</ele>
        <time>2019-05-19T10:12:58Z</time>
      </trkpt>
      <trkpt lat="46.76906" lon="5.61947">
        <ele>396.4</ele>
        <time>2019-05-19T10:13:00Z</time>
      </trkpt>
      <trkpt lat="46.76898" lon="5.61952">
        <ele>396.4</ele>
        <time>2019-05-19T10:13:02Z</time>
      </trkpt>
      <trkpt lat="46.76888" lon="5.61957">
        <ele>396.4</ele>
        <time>2019-05-19T10:13:04Z</time>
      </trkpt>
      <trkpt lat="46.7688" lon="5.61965">
        <ele>396.4</ele>
        <time>2019-05-19T10:13:06Z</time>
      </trkpt>
      <trkpt lat="46.76871" lon="5.61978">
        <ele>396.3</ele>
        <time>2019-05-19T10:13:09Z</time>
      </trkpt>
      <trkpt lat="46.76863" lon="5.61988">
        <ele>396.3</ele>
        <time>2019-05-19T10:13:12Z</time>
      </trkpt>
      <trkpt lat="46.7686" lon="5.62005">
        <ele>396.3</ele>
        <time>2019-05-19T10:13:16Z</time>
      </trkpt>
      <trkpt lat="46.76864" lon="5.62018">
        <ele>396.3</ele>
        <time>2019-05-19T10:13:19Z</time>
      </trkpt>
      <trkpt lat="46.76866" lon="5.62033">
        <ele>396.4</ele>
        <time>2019-05-19T10:13:23Z</time>
      </trkpt>
      <trkpt lat="46.76867" lon="5.62047">
        <ele>396.6</ele>
        <time>2019-05-19T10:13:27Z</time>
      </trkpt>
      <trkpt lat="46.76871" lon="5.62061">
        <ele>397.1</ele>
        <time>2019-05-19T10:13:32Z</time>
      </trkpt>
      <trkpt lat="46.76874" lon="5.62076">
        <ele>398.2</ele>
        <time>2019-05-19T10:13:38Z</time>
      </trkpt>
      <trkpt lat="46.76873" lon="5.62091">
        <ele>399.8</ele>
        <time>2019-05-19T10:13:44Z</time>
      </trkpt>
      <trkpt lat="46.76871" lon="5.62106">
        <ele>401.3</ele>
        <time>2019-05-19T10:13:50Z</time>
      </trkpt>
      <trkpt lat="46.7687" lon="5.62119">
        <ele>402.9</ele>
        <time>2019-05-19T10:13:55Z</time>
      </trkpt>
      <trkpt lat="46.76867" lon="5.62133">
        <ele>404.8</ele>
        <time>2019-05-19T10:14:01Z</time>
      </trkpt>
      <trkpt lat="46.76865" lon="5.62148">
        <ele>406.5</ele>
        <time>2019-05-19T10:14:07Z</time>
      </trkpt>
      <trkpt lat="46.76862" lon="5.6216">
        <ele>407.8</ele>
        <time>2019-05-19T10:14:12Z</time>
      </trkpt>
      <trkpt lat="46.7686" lon="5.62174">
        <ele>409.1</ele>
        <time>2019-05-19T10:14:17Z</time>
      </trkpt>
      <trkpt lat="46.76856" lon="5.62188">
        <ele>410.3</ele>
        <time>2019-05-19T10:14:22Z</time>
      </trkpt>
      <trkpt lat="46.76861" lon="5.62202">
        <ele>411.6</ele>
        <time>2019-05-19T10:14:27Z</time>
      </trkpt>
      <trkpt lat="46.76867" lon="5.62213">
        <ele>412.6</ele>
        <time>2019-05-19T10:14:32Z</time>
      </trkpt>
      <trkpt lat="46.76873" lon="5.62226">
        <ele>413.7</ele>
        <time>2019-05-19T10:14:37Z</time>
      </trkpt>
      <trkpt lat="46.76878" lon="5.62238">
        <ele>414.8</ele>
        <time>2019-05-19T10:14:42Z</time>
      </trkpt>
      <trkpt lat="46.76884" lon="5.62251">
        <ele>416</ele>
        <time>2019-05-19T10:14:47Z</time>
      </trkpt>
      <trkpt lat="46.76889" lon="5.62264">
        <ele>417.2</ele>
        <time>2019-05-19T10:14:52Z</time>
      </trkpt>
      <trkpt lat="46.76894" lon="5.62277">
        <ele>418.4</ele>
        <time>2019-05-19T10:14:57Z</time>
      </trkpt>
      <trkpt lat="46.769" lon="5.62289">
        <ele>419.5</ele>
        <time>2019-05-19T10:15:02Z</time>
      </trkpt>
      <trkpt lat="46.76906" lon="5.62301">
        <ele>420.7</ele>
        <time>2019-05-19T10:15:07Z</time>
      </trkpt>
      <trkpt lat="46.76913" lon="5.62311">
        <ele>422</ele>
        <time>2019-05-19T10:15:12Z</time>
      </trkpt>
      <trkpt lat="46.7692" lon="5.62322">
        <ele>423</ele>
        <time>2019-05-19T10:15:17Z</time>
      </trkpt>
      <trkpt lat="46.7693" lon="5.6233">
        <ele>424</ele>
        <time>2019-05-19T10:15:22Z</time>
      </trkpt>
      <trkpt lat="46.76939" lon="5.62334">
        <ele>424.8</ele>
        <time>2019-05-19T10:15:26Z</time>
      </trkpt>
      <trkpt lat="46.7695" lon="5.62339">
        <ele>425.5</ele>
        <time>2019-05-19T10:15:30Z</time>
      </trkpt>
      <trkpt lat="46.76962" lon="5.62341">
        <ele>426.1</ele>
        <time>2019-05-19T10:15:34Z</time>
      </trkpt>
      <trkpt lat="46.76972" lon="5.62342">
        <ele>426.5</ele>
        <time>2019-05-19T10:15:37Z</time>
      </trkpt>
      <trkpt lat="46.76982" lon="5.62343">
        <ele>426.8</ele>
        <time>2019-05-19T10:15:40Z</time>
      </trkpt>
      <trkpt lat="46.76991" lon="5.62345">
        <ele>427.2</ele>
        <time>2019-05-19T10:15:43Z</time>
      </trkpt>
      <trkpt lat="46.77001" lon="5.62347">
        <ele>427.7</ele>
        <time>2019-05-19T10:15:46Z</time>
      </trkpt>
      <trkpt lat="46.7701" lon="5.6235">
        <ele>428.1</ele>
        <time>2019-05-19T10:15:49Z</time>
      </trkpt>
      <trkpt lat="46.7702" lon="5.62353">
        <ele>428.4</ele>
        <time>2019-05-19T10:15:52Z</time>
      </trkpt>
      <trkpt lat="46.7703" lon="5.62356">
        <ele>428.9</ele>
        <time>2019-05-19T10:15:55Z</time>
      </trkpt>
      <trkpt lat="46.7704" lon="5.6236">
        <ele>429.2</ele>
        <time>2019-05-19T10:15:58Z</time>
      </trkpt>
      <trkpt lat="46.7705" lon="5.62366">
        <ele>429.6</ele>
        <time>2019-05-19T10:16:01Z</time>
      </trkpt>
      <trkpt lat="46.77059" lon="5.62373">
        <ele>429.9</ele>
        <time>2019-05-19T10:16:04Z</time>
      </trkpt>
      <trkpt lat="46.77068" lon="5.62381">
        <ele>430.3</ele>
        <time>2019-05-19T10:16:07Z</time>
      </trkpt>
      <trkpt lat="46.77076" lon="5.62388">
        <ele>430.6</ele>
        <time>2019-05-19T10:16:10Z</time>
      </trkpt>
      <trkpt lat="46.77085" lon="5.62395">
        <ele>431</ele>
        <time>2019-05-19T10:16:13Z</time>
      </trkpt>
      <trkpt lat="46.77094" lon="5.62402">
        <ele>431.4</ele>
        <time>2019-05-19T10:16:16Z</time>
      </trkpt>
      <trkpt lat="46.77103" lon="5.62409">
        <ele>431.8</ele>
        <time>2019-05-19T10:16:19Z</time>
      </trkpt>
      <trkpt lat="46.77112" lon="5.62416">
        <ele>432.2</ele>
        <time>2019-05-19T10:16:22Z</time>
      </trkpt>
      <trkpt lat="46.77121" lon="5.62422">
        <ele>432.6</ele>
        <time>2019-05-19T10:16:25Z</time>
      </trkpt>
      <trkpt lat="46.77129" lon="5.62429">
        <ele>433</ele>
        <time>2019-05-19T10:16:28Z</time>
      </trkpt>
      <trkpt lat="46.77138" lon="5.62436">
        <ele>433.5</ele>
        <time>2019-05-19T10:16:31Z</time>
      </trkpt>
      <trkpt lat="46.77146" lon="5.62443">
        <ele>434.1</ele>
        <time>2019-05-19T10:16:34Z</time>
      </trkpt>
      <trkpt lat="46.77155" lon="5.62451">
        <ele>434.8</ele>
        <time>2019-05-19T10:16:38Z</time>
      </trkpt>
      <trkpt lat="46.77164" lon="5.62461">
        <ele>435.6</ele>
        <time>2019-05-19T10:16:42Z</time>
      </trkpt>
      <trkpt lat="46.77171" lon="5.6247">
        <ele>436.4</ele>
        <time>2019-05-19T10:16:46Z</time>
      </trkpt>
      <trkpt lat="46.7718" lon="5.6248">
        <ele>437.3</ele>
        <time>2019-05-19T10:16:51Z</time>
      </trkpt>
      <trkpt lat="46.77189" lon="5.6249">
        <ele>438.3</ele>
        <time>2019-05-19T10:16:56Z</time>
      </trkpt>
      <trkpt lat="46.77197" lon="5.625">
        <ele>439.3</ele>
        <time>2019-05-19T10:17:01Z</time>
      </trkpt>
      <trkpt lat="46.77205" lon="5.6251">
        <ele>440.2</ele>
        <time>2019-05-19T10:17:06Z</time>
      </trkpt>
      <trkpt lat="46.77213" lon="5.6252">
        <ele>441.2</ele>
        <time>2019-05-19T10:17:11Z</time>
      </trkpt>
      <trkpt lat="46.77221" lon="5.62529">
        <ele>442.1</ele>
        <time>2019-05-19T10:17:16Z</time>
      </trkpt>
      <trkpt lat="46.77229" lon="5.62537">
        <ele>443.1</ele>
        <time>2019-05-19T10:17:21Z</time>
      </trkpt>
      <trkpt lat="46.77237" lon="5.62547">
        <ele>444.2</ele>
        <time>2019-05-19T10:17:26Z</time>
      </trkpt>
      <trkpt lat="46.77244" lon="5.62557">
        <ele>445.2</ele>
        <time>2019-05-19T10:17:31Z</time>
      </trkpt>
      <trkpt lat="46.7725" lon="5.62566">
        <ele>446.4</ele>
        <time>2019-05-19T10:17:36Z</time>
      </trkpt>
      <trkpt lat="46.77259" lon="5.62576">
        <ele>447.6</ele>
        <time>2019-05-19T10:17:42Z</time>
      </trkpt>
      <trkpt lat="46.77265" lon="5.62586">
        <ele>448.6</ele>
        <time>2019-05-19T10:17:47Z</time>
      </trkpt>
      <trkpt lat="46.77273" lon="5.62596">
        <ele>449.9</ele>
        <time>2019-05-19T10:17:53Z</time>
      </trkpt>
      <trkpt lat="46.77281" lon="5.62607">
        <ele>451.2</ele>
        <time>2019-05-19T10:17:59Z</time>
      </trkpt>
      <trkpt lat="46.77287" lon="5.62618">
        <ele>452.6</ele>
        <time>2019-05-19T10:18:06Z</time>
      </trkpt>
      <trkpt lat="46.77292" lon="5.6263">
        <ele>454</ele>
        <time>2019-05-19T10:18:12Z</time>
      </trkpt>
      <trkpt lat="46.77299" lon="5.6264">
        <ele>455</ele>
        <time>2019-05-19T10:18:17Z</time>
      </trkpt>
      <trkpt lat="46.77306" lon="5.6265">
        <ele>456.3</ele>
        <time>2019-05-19T10:18:23Z</time>
      </trkpt>
      <trkpt lat="46.77312" lon="5.6266">
        <ele>457.6</ele>
        <time>2019-05-19T10:18:29Z</time>
      </trkpt>
      <trkpt lat="46.77318" lon="5.6267">
        <ele>458.8</ele>
        <time>2019-05-19T10:18:35Z</time>
      </trkpt>
      <trkpt lat="46.77325" lon="5.6268">
        <ele>460.5</ele>
        <time>2019-05-19T10:18:42Z</time>
      </trkpt>
      <trkpt lat="46.77331" lon="5.6269">
        <ele>461.9</ele>
        <time>2019-05-19T10:18:48Z</time>
      </trkpt>
      <trkpt lat="46.77336" lon="5.62701">
        <ele>463.4</ele>
        <time>2019-05-19T10:18:54Z</time>
      </trkpt>
      <trkpt lat="46.77343" lon="5.62712">
        <ele>465.1</ele>
        <time>2019-05-19T10:19:01Z</time>
      </trkpt>
      <trkpt lat="46.77351" lon="5.62722">
        <ele>466.9</ele>
        <time>2019-05-19T10:19:08Z</time>
      </trkpt>
      <trkpt lat="46.7736" lon="5.62722">
        <ele>468.7</ele>
        <time>2019-05-19T10:19:15Z</time>
      </trkpt>
      <trkpt lat="46.7737" lon="5.62726">
        <ele>470.6</ele>
        <time>2019-05-19T10:19:22Z</time>
      </trkpt>
      <trkpt lat="46.77379" lon="5.62731">
        <ele>472.2</ele>
        <time>2019-05-19T10:19:28Z</time>
      </trkpt>
      <trkpt lat="46.77388" lon="5.62736">
        <ele>473.8</ele>
        <time>2019-05-19T10:19:34Z</time>
      </trkpt>
      <trkpt lat="46.77396" lon="5.62745">
        <ele>475.6</ele>
        <time>2019-05-19T10:19:40Z</time>
      </trkpt>
      <trkpt lat="46.77404" lon="5.62755">
        <ele>477.3</ele>
        <time>2019-05-19T10:19:46Z</time>
      </trkpt>
      <trkpt lat="46.77411" lon="5.62765">
        <ele>479.2</ele>
        <time>2019-05-19T10:19:53Z</time>
      </trkpt>
      <trkpt lat="46.77419" lon="5.62774">
        <ele>481.6</ele>
        <time>2019-05-19T10:20:01Z</time>
      </trkpt>
      <trkpt lat="46.77426" lon="5.62787">
        <ele>483</ele>
        <time>2019-05-19T10:20:06Z</time>
      </trkpt>
      <trkpt lat="46.7743" lon="5.628">
        <ele>484.5</ele>
        <time>2019-05-19T10:20:12Z</time>
      </trkpt>
      <trkpt lat="46.77426" lon="5.62813">
        <ele>486.1</ele>
        <time>2019-05-19T10:20:18Z</time>
      </trkpt>
      <trkpt lat="46.7742" lon="5.62823">
        <ele>488.2</ele>
        <time>2019-05-19T10:20:25Z</time>
      </trkpt>
      <trkpt lat="46.77412" lon="5.62831">
        <ele>490.8</ele>
        <time>2019-05-19T10:20:33Z</time>
      </trkpt>
      <trkpt lat="46.77404" lon="5.6284">
        <ele>492.7</ele>
        <time>2019-05-19T10:20:39Z</time>
      </trkpt>
      <trkpt lat="46.77393" lon="5.62843">
        <ele>495.1</ele>
        <time>2019-05-19T10:20:46Z</time>
      </trkpt>
      <trkpt lat="46.77383" lon="5.62842">
        <ele>496.6</ele>
        <time>2019-05-19T10:20:51Z</time>
      </trkpt>
      <trkpt lat="46.77372" lon="5.62841">
        <ele>497.5</ele>
        <time>2019-05-19T10:20:55Z</time>
      </trkpt>
      <trkpt lat="46.77363" lon="5.6284">
        <ele>498.4</ele>
        <time>2019-05-19T10:20:59Z</time>
      </trkpt>
      <trkpt lat="46.77352" lon="5.62838">
        <ele>499.5</ele>
        <time>2019-05-19T10:21:04Z</time>
      </trkpt>
      <trkpt lat="46.77343" lon="5.62836">
        <ele>500.1</ele>
        <time>2019-05-19T10:21:07Z</time>
      </trkpt>
      <trkpt lat="46.77332" lon="5.62834">
        <ele>500.8</ele>
        <time>2019-05-19T10:21:11Z</time>
      </trkpt>
      <trkpt lat="46.77323" lon="5.62832">
        <ele>501.4</ele>
        <time>2019-05-19T10:21:14Z</time>
      </trkpt>
      <trkpt lat="46.77313" lon="5.6283">
        <ele>501.9</ele>
        <time>2019-05-19T10:21:17Z</time>
      </trkpt>
      <trkpt lat="46.77303" lon="5.62826">
        <ele>502.5</ele>
        <time>2019-05-19T10:21:21Z</time>
      </trkpt>
      <trkpt lat="46.77292" lon="5.62823">
        <ele>503.2</ele>
        <time>2019-05-19T10:21:25Z</time>
      </trkpt>
      <trkpt lat="46.77282" lon="5.62818">
        <ele>503.8</ele>
        <time>2019-05-19T10:21:29Z</time>
      </trkpt>
      <trkpt lat="46.77272" lon="5.62815">
        <ele>504.5</ele>
        <time>2019-05-19T10:21:34Z</time>
      </trkpt>
      <trkpt lat="46.77262" lon="5.62818">
        <ele>506.1</ele>
        <time>2019-05-19T10:21:56Z</time>
      </trkpt>
      <trkpt lat="46.77254" lon="5.62821">
        <ele>507.4</ele>
        <time>2019-05-19T10:28:02Z</time>
      </trkpt>
      <trkpt lat="46.77244" lon="5.6283">
        <ele>507.7</ele>
        <time>2019-05-19T10:28:14Z</time>
      </trkpt>
      <trkpt lat="46.77236" lon="5.62819">
        <ele>509.3</ele>
        <time>2019-05-19T10:28:40Z</time>
      </trkpt>
      <trkpt lat="46.77227" lon="5.62813">
        <ele>509.4</ele>
        <time>2019-05-19T10:28:44Z</time>
      </trkpt>
      <trkpt lat="46.77218" lon="5.62807">
        <ele>509.5</ele>
        <time>2019-05-19T10:28:47Z</time>
      </trkpt>
      <trkpt lat="46.77208" lon="5.628">
        <ele>509.6</ele>
        <time>2019-05-19T10:28:50Z</time>
      </trkpt>
      <trkpt lat="46.77197" lon="5.62794">
        <ele>509.7</ele>
        <time>2019-05-19T10:28:53Z</time>
      </trkpt>
      <trkpt lat="46.77186" lon="5.62787">
        <ele>509.7</ele>
        <time>2019-05-19T10:28:56Z</time>
      </trkpt>
      <trkpt lat="46.77177" lon="5.62782">
        <ele>509.7</ele>
        <time>2019-05-19T10:28:58Z</time>
      </trkpt>
      <trkpt lat="46.77168" lon="5.62776">
        <ele>509.8</ele>
        <time>2019-05-19T10:29:00Z</time>
      </trkpt>
      <trkpt lat="46.77158" lon="5.62771">
        <ele>509.8</ele>
        <time>2019-05-19T10:29:02Z</time>
      </trkpt>
      <trkpt lat="46.77149" lon="5.62765">
        <ele>509.7</ele>
        <time>2019-05-19T10:29:04Z</time>
      </trkpt>
      <trkpt lat="46.77137" lon="5.62758">
        <ele>509.5</ele>
        <time>2019-05-19T10:29:07Z</time>
      </trkpt>
      <trkpt lat="46.77128" lon="5.62753">
        <ele>509.3</ele>
        <time>2019-05-19T10:29:09Z</time>
      </trkpt>
      <trkpt lat="46.77116" lon="5.62746">
        <ele>509</ele>
        <time>2019-05-19T10:29:12Z</time>
      </trkpt>
      <trkpt lat="46.77103" lon="5.62743">
        <ele>509</ele>
        <time>2019-05-19T10:29:15Z</time>
      </trkpt>
      <trkpt lat="46.77091" lon="5.62738">
        <ele>509.1</ele>
        <time>2019-05-19T10:29:18Z</time>
      </trkpt>
      <trkpt lat="46.77079" lon="5.62733">
        <ele>509.2</ele>
        <time>2019-05-19T10:29:21Z</time>
      </trkpt>
      <trkpt lat="46.7707" lon="5.62731">
        <ele>509.3</ele>
        <time>2019-05-19T10:29:23Z</time>
      </trkpt>
      <trkpt lat="46.77061" lon="5.62727">
        <ele>509.3</ele>
        <time>2019-05-19T10:29:25Z</time>
      </trkpt>
      <trkpt lat="46.77051" lon="5.62724">
        <ele>509.3</ele>
        <time>2019-05-19T10:29:27Z</time>
      </trkpt>
      <trkpt lat="46.77043" lon="5.6272">
        <ele>509.3</ele>
        <time>2019-05-19T10:29:29Z</time>
      </trkpt>
      <trkpt lat="46.77033" lon="5.62715">
        <ele>509.1</ele>
        <time>2019-05-19T10:29:31Z</time>
      </trkpt>
      <trkpt lat="46.77023" lon="5.62711">
        <ele>508.9</ele>
        <time>2019-05-19T10:29:33Z</time>
      </trkpt>
      <trkpt lat="46.77012" lon="5.62709">
        <ele>508.7</ele>
        <time>2019-05-19T10:29:35Z</time>
      </trkpt>
      <trkpt lat="46.77002" lon="5.62707">
        <ele>508.4</ele>
        <time>2019-05-19T10:29:37Z</time>
      </trkpt>
      <trkpt lat="46.7699" lon="5.62704">
        <ele>508</ele>
        <time>2019-05-19T10:29:39Z</time>
      </trkpt>
      <trkpt lat="46.7698" lon="5.62701">
        <ele>507.4</ele>
        <time>2019-05-19T10:29:41Z</time>
      </trkpt>
      <trkpt lat="46.76971" lon="5.62694">
        <ele>506.3</ele>
        <time>2019-05-19T10:29:45Z</time>
      </trkpt>
      <trkpt lat="46.76961" lon="5.62683">
        <ele>504.2</ele>
        <time>2019-05-19T10:29:57Z</time>
      </trkpt>
      <trkpt lat="46.76953" lon="5.62673">
        <ele>503.8</ele>
        <time>2019-05-19T10:30:00Z</time>
      </trkpt>
      <trkpt lat="46.76943" lon="5.62666">
        <ele>503.4</ele>
        <time>2019-05-19T10:30:03Z</time>
      </trkpt>
      <trkpt lat="46.76932" lon="5.62662">
        <ele>503.3</ele>
        <time>2019-05-19T10:30:06Z</time>
      </trkpt>
      <trkpt lat="46.76921" lon="5.62657">
        <ele>503.3</ele>
        <time>2019-05-19T10:30:09Z</time>
      </trkpt>
      <trkpt lat="46.76911" lon="5.62652">
        <ele>503.5</ele>
        <time>2019-05-19T10:30:12Z</time>
      </trkpt>
      <trkpt lat="46.769" lon="5.62647">
        <ele>503.7</ele>
        <time>2019-05-19T10:30:15Z</time>
      </trkpt>
      <trkpt lat="46.7689" lon="5.62641">
        <ele>504</ele>
        <time>2019-05-19T10:30:18Z</time>
      </trkpt>
      <trkpt lat="46.76879" lon="5.62637">
        <ele>504.2</ele>
        <time>2019-05-19T10:30:21Z</time>
      </trkpt>
      <trkpt lat="46.76868" lon="5.62635">
        <ele>504.6</ele>
        <time>2019-05-19T10:30:24Z</time>
      </trkpt>
      <trkpt lat="46.76857" lon="5.62631">
        <ele>504.9</ele>
        <time>2019-05-19T10:30:27Z</time>
      </trkpt>
      <trkpt lat="46.76847" lon="5.62628">
        <ele>505.2</ele>
        <time>2019-05-19T10:30:30Z</time>
      </trkpt>
      <trkpt lat="46.76836" lon="5.62623">
        <ele>505.6</ele>
        <time>2019-05-19T10:30:33Z</time>
      </trkpt>
      <trkpt lat="46.76825" lon="5.62619">
        <ele>505.9</ele>
        <time>2019-05-19T10:30:36Z</time>
      </trkpt>
      <trkpt lat="46.76815" lon="5.62614">
        <ele>506.4</ele>
        <time>2019-05-19T10:30:39Z</time>
      </trkpt>
      <trkpt lat="46.76805" lon="5.62607">
        <ele>507.1</ele>
        <time>2019-05-19T10:30:43Z</time>
      </trkpt>
      <trkpt lat="46.76799" lon="5.62597">
        <ele>508.4</ele>
        <time>2019-05-19T10:30:54Z</time>
      </trkpt>
      <trkpt lat="46.76789" lon="5.626">
        <ele>508.8</ele>
        <time>2019-05-19T10:32:46Z</time>
      </trkpt>
      <trkpt lat="46.7678" lon="5.626">
        <ele>508.8</ele>
        <time>2019-05-19T10:32:50Z</time>
      </trkpt>
      <trkpt lat="46.76771" lon="5.62605">
        <ele>508.6</ele>
        <time>2019-05-19T10:32:56Z</time>
      </trkpt>
      <trkpt lat="46.76767" lon="5.62619">
        <ele>508.4</ele>
        <time>2019-05-19T10:33:00Z</time>
      </trkpt>
      <trkpt lat="46.76764" lon="5.62636">
        <ele>508.3</ele>
        <time>2019-05-19T10:33:04Z</time>
      </trkpt>
      <trkpt lat="46.76761" lon="5.62649">
        <ele>508.2</ele>
        <time>2019-05-19T10:33:07Z</time>
      </trkpt>
      <trkpt lat="46.76758" lon="5.62663">
        <ele>508.1</ele>
        <time>2019-05-19T10:33:11Z</time>
      </trkpt>
      <trkpt lat="46.76755" lon="5.62678">
        <ele>508</ele>
        <time>2019-05-19T10:33:15Z</time>
      </trkpt>
      <trkpt lat="46.76749" lon="5.62689">
        <ele>507.6</ele>
        <time>2019-05-19T10:33:20Z</time>
      </trkpt>
      <trkpt lat="46.76745" lon="5.62701">
        <ele>507.4</ele>
        <time>2019-05-19T10:33:23Z</time>
      </trkpt>
      <trkpt lat="46.76737" lon="5.62713">
        <ele>507.1</ele>
        <time>2019-05-19T10:33:26Z</time>
      </trkpt>
      <trkpt lat="46.76728" lon="5.62724">
        <ele>506.7</ele>
        <time>2019-05-19T10:33:28Z</time>
      </trkpt>
      <trkpt lat="46.76721" lon="5.62735">
        <ele>506.3</ele>
        <time>2019-05-19T10:33:30Z</time>
      </trkpt>
      <trkpt lat="46.76715" lon="5.62746">
        <ele>505.7</ele>
        <time>2019-05-19T10:33:32Z</time>
      </trkpt>
      <trkpt lat="46.76709" lon="5.62762">
        <ele>504.8</ele>
        <time>2019-05-19T10:33:35Z</time>
      </trkpt>
      <trkpt lat="46.76704" lon="5.62777">
        <ele>503.6</ele>
        <time>2019-05-19T10:33:39Z</time>
      </trkpt>
      <trkpt lat="46.76705" lon="5.62794">
        <ele>502.5</ele>
        <time>2019-05-19T10:33:43Z</time>
      </trkpt>
      <trkpt lat="46.76707" lon="5.62808">
        <ele>501.7</ele>
        <time>2019-05-19T10:33:47Z</time>
      </trkpt>
      <trkpt lat="46.76709" lon="5.62823">
        <ele>501.4</ele>
        <time>2019-05-19T10:33:51Z</time>
      </trkpt>
      <trkpt lat="46.76712" lon="5.62836">
        <ele>501.2</ele>
        <time>2019-05-19T10:33:55Z</time>
      </trkpt>
      <trkpt lat="46.76709" lon="5.62851">
        <ele>501.2</ele>
        <time>2019-05-19T10:33:59Z</time>
      </trkpt>
      <trkpt lat="46.7671" lon="5.62864">
        <ele>501.1</ele>
        <time>2019-05-19T10:34:03Z</time>
      </trkpt>
      <trkpt lat="46.76718" lon="5.62873">
        <ele>500.8</ele>
        <time>2019-05-19T10:34:07Z</time>
      </trkpt>
      <trkpt lat="46.76725" lon="5.62883">
        <ele>500.6</ele>
        <time>2019-05-19T10:34:11Z</time>
      </trkpt>
      <trkpt lat="46.76728" lon="5.62896">
        <ele>500.4</ele>
        <time>2019-05-19T10:34:19Z</time>
      </trkpt>
      <trkpt lat="46.76721" lon="5.62905">
        <ele>500</ele>
        <time>2019-05-19T10:34:23Z</time>
      </trkpt>
      <trkpt lat="46.76718" lon="5.6292">
        <ele>499.3</ele>
        <time>2019-05-19T10:34:27Z</time>
      </trkpt>
      <trkpt lat="46.76717" lon="5.62934">
        <ele>498.9</ele>
        <time>2019-05-19T10:34:29Z</time>
      </trkpt>
      <trkpt lat="46.76712" lon="5.62947">
        <ele>498.3</ele>
        <time>2019-05-19T10:34:31Z</time>
      </trkpt>
      <trkpt lat="46.76709" lon="5.6296">
        <ele>497.6</ele>
        <time>2019-05-19T10:34:34Z</time>
      </trkpt>
      <trkpt lat="46.76709" lon="5.62974">
        <ele>496.7</ele>
        <time>2019-05-19T10:34:38Z</time>
      </trkpt>
      <trkpt lat="46.76712" lon="5.62987">
        <ele>495.7</ele>
        <time>2019-05-19T10:34:44Z</time>
      </trkpt>
      <trkpt lat="46.76714" lon="5.63">
        <ele>495</ele>
        <time>2019-05-19T10:34:48Z</time>
      </trkpt>
      <trkpt lat="46.76715" lon="5.63016">
        <ele>494.4</ele>
        <time>2019-05-19T10:34:52Z</time>
      </trkpt>
      <trkpt lat="46.76715" lon="5.63031">
        <ele>492.9</ele>
        <time>2019-05-19T10:34:58Z</time>
      </trkpt>
      <trkpt lat="46.76721" lon="5.63045">
        <ele>492.3</ele>
        <time>2019-05-19T10:35:02Z</time>
      </trkpt>
      <trkpt lat="46.7673" lon="5.63053">
        <ele>492</ele>
        <time>2019-05-19T10:35:07Z</time>
      </trkpt>
      <trkpt lat="46.76739" lon="5.6306">
        <ele>491.9</ele>
        <time>2019-05-19T10:35:12Z</time>
      </trkpt>
      <trkpt lat="46.76748" lon="5.63068">
        <ele>492.2</ele>
        <time>2019-05-19T10:35:17Z</time>
      </trkpt>
      <trkpt lat="46.76754" lon="5.63077">
        <ele>492.6</ele>
        <time>2019-05-19T10:35:21Z</time>
      </trkpt>
      <trkpt lat="46.76763" lon="5.63087">
        <ele>493.2</ele>
        <time>2019-05-19T10:35:26Z</time>
      </trkpt>
      <trkpt lat="46.76772" lon="5.63096">
        <ele>494</ele>
        <time>2019-05-19T10:35:31Z</time>
      </trkpt>
      <trkpt lat="46.76781" lon="5.63104">
        <ele>494.8</ele>
        <time>2019-05-19T10:35:36Z</time>
      </trkpt>
      <trkpt lat="46.7679" lon="5.63111">
        <ele>495.5</ele>
        <time>2019-05-19T10:35:41Z</time>
      </trkpt>
      <trkpt lat="46.76796" lon="5.6312">
        <ele>496.1</ele>
        <time>2019-05-19T10:35:45Z</time>
      </trkpt>
      <trkpt lat="46.76802" lon="5.63131">
        <ele>496.5</ele>
        <time>2019-05-19T10:35:48Z</time>
      </trkpt>
      <trkpt lat="46.76809" lon="5.63143">
        <ele>496.7</ele>
        <time>2019-05-19T10:35:51Z</time>
      </trkpt>
      <trkpt lat="46.76817" lon="5.63154">
        <ele>496.8</ele>
        <time>2019-05-19T10:35:54Z</time>
      </trkpt>
      <trkpt lat="46.76822" lon="5.63166">
        <ele>496.9</ele>
        <time>2019-05-19T10:35:57Z</time>
      </trkpt>
      <trkpt lat="46.76831" lon="5.6318">
        <ele>497</ele>
        <time>2019-05-19T10:36:00Z</time>
      </trkpt>
      <trkpt lat="46.76836" lon="5.63191">
        <ele>497</ele>
        <time>2019-05-19T10:36:02Z</time>
      </trkpt>
      <trkpt lat="46.76843" lon="5.63207">
        <ele>496.8</ele>
        <time>2019-05-19T10:36:05Z</time>
      </trkpt>
      <trkpt lat="46.76851" lon="5.6322">
        <ele>496.7</ele>
        <time>2019-05-19T10:36:08Z</time>
      </trkpt>
      <trkpt lat="46.7686" lon="5.63233">
        <ele>496.2</ele>
        <time>2019-05-19T10:36:11Z</time>
      </trkpt>
      <trkpt lat="46.76865" lon="5.63245">
        <ele>495.9</ele>
        <time>2019-05-19T10:36:13Z</time>
      </trkpt>
      <trkpt lat="46.76871" lon="5.63264">
        <ele>495.2</ele>
        <time>2019-05-19T10:36:16Z</time>
      </trkpt>
      <trkpt lat="46.76875" lon="5.63276">
        <ele>494.8</ele>
        <time>2019-05-19T10:36:18Z</time>
      </trkpt>
      <trkpt lat="46.76879" lon="5.63294">
        <ele>494.4</ele>
        <time>2019-05-19T10:36:21Z</time>
      </trkpt>
      <trkpt lat="46.76883" lon="5.6331">
        <ele>493.6</ele>
        <time>2019-05-19T10:36:24Z</time>
      </trkpt>
      <trkpt lat="46.76887" lon="5.63324">
        <ele>493</ele>
        <time>2019-05-19T10:36:27Z</time>
      </trkpt>
      <trkpt lat="46.76891" lon="5.63338">
        <ele>492</ele>
        <time>2019-05-19T10:36:32Z</time>
      </trkpt>
      <trkpt lat="46.76897" lon="5.6335">
        <ele>491.5</ele>
        <time>2019-05-19T10:36:35Z</time>
      </trkpt>
      <trkpt lat="46.76899" lon="5.63365">
        <ele>491.2</ele>
        <time>2019-05-19T10:36:39Z</time>
      </trkpt>
      <trkpt lat="46.76896" lon="5.63379">
        <ele>490.9</ele>
        <time>2019-05-19T10:36:43Z</time>
      </trkpt>
      <trkpt lat="46.76897" lon="5.63394">
        <ele>490.6</ele>
        <time>2019-05-19T10:36:46Z</time>
      </trkpt>
      <trkpt lat="46.76899" lon="5.63407">
        <ele>490.2</ele>
        <time>2019-05-19T10:36:50Z</time>
      </trkpt>
      <trkpt lat="46.76905" lon="5.63418">
        <ele>490.1</ele>
        <time>2019-05-19T10:36:55Z</time>
      </trkpt>
      <trkpt lat="46.76908" lon="5.63434">
        <ele>490.1</ele>
        <time>2019-05-19T10:36:59Z</time>
      </trkpt>
      <trkpt lat="46.76909" lon="5.63448">
        <ele>490.2</ele>
        <time>2019-05-19T10:37:03Z</time>
      </trkpt>
      <trkpt lat="46.76912" lon="5.63462">
        <ele>490.3</ele>
        <time>2019-05-19T10:37:06Z</time>
      </trkpt>
      <trkpt lat="46.76913" lon="5.63476">
        <ele>490.4</ele>
        <time>2019-05-19T10:37:11Z</time>
      </trkpt>
      <trkpt lat="46.76915" lon="5.63491">
        <ele>491</ele>
        <time>2019-05-19T10:37:17Z</time>
      </trkpt>
      <trkpt lat="46.7691" lon="5.63504">
        <ele>491.8</ele>
        <time>2019-05-19T10:37:23Z</time>
      </trkpt>
      <trkpt lat="46.76909" lon="5.63517">
        <ele>492.3</ele>
        <time>2019-05-19T10:37:30Z</time>
      </trkpt>
      <trkpt lat="46.76904" lon="5.63529">
        <ele>492.7</ele>
        <time>2019-05-19T10:37:35Z</time>
      </trkpt>
      <trkpt lat="46.76896" lon="5.63539">
        <ele>492.8</ele>
        <time>2019-05-19T10:37:39Z</time>
      </trkpt>
      <trkpt lat="46.7689" lon="5.63552">
        <ele>492.7</ele>
        <time>2019-05-19T10:37:43Z</time>
      </trkpt>
      <trkpt lat="46.76882" lon="5.63562">
        <ele>492.5</ele>
        <time>2019-05-19T10:37:46Z</time>
      </trkpt>
      <trkpt lat="46.76876" lon="5.63577">
        <ele>492.3</ele>
        <time>2019-05-19T10:37:50Z</time>
      </trkpt>
      <trkpt lat="46.7687" lon="5.63589">
        <ele>492.2</ele>
        <time>2019-05-19T10:37:54Z</time>
      </trkpt>
      <trkpt lat="46.76863" lon="5.63598">
        <ele>492</ele>
        <time>2019-05-19T10:38:08Z</time>
      </trkpt>
      <trkpt lat="46.76862" lon="5.63611">
        <ele>491.9</ele>
        <time>2019-05-19T10:38:21Z</time>
      </trkpt>
      <trkpt lat="46.76868" lon="5.63623">
        <ele>491.7</ele>
        <time>2019-05-19T10:38:30Z</time>
      </trkpt>
      <trkpt lat="46.76875" lon="5.63634">
        <ele>491.7</ele>
        <time>2019-05-19T10:38:36Z</time>
      </trkpt>
      <trkpt lat="46.76882" lon="5.63645">
        <ele>491.6</ele>
        <time>2019-05-19T10:38:41Z</time>
      </trkpt>
      <trkpt lat="46.76888" lon="5.63656">
        <ele>491.2</ele>
        <time>2019-05-19T10:38:46Z</time>
      </trkpt>
      <trkpt lat="46.76896" lon="5.6367">
        <ele>491</ele>
        <time>2019-05-19T10:38:50Z</time>
      </trkpt>
      <trkpt lat="46.76903" lon="5.63686">
        <ele>490.8</ele>
        <time>2019-05-19T10:38:53Z</time>
      </trkpt>
      <trkpt lat="46.76912" lon="5.63698">
        <ele>490.7</ele>
        <time>2019-05-19T10:38:56Z</time>
      </trkpt>
      <trkpt lat="46.7692" lon="5.63706">
        <ele>490.6</ele>
        <time>2019-05-19T10:38:59Z</time>
      </trkpt>
      <trkpt lat="46.76926" lon="5.63718">
        <ele>490.5</ele>
        <time>2019-05-19T10:39:04Z</time>
      </trkpt>
      <trkpt lat="46.76933" lon="5.63729">
        <ele>490.5</ele>
        <time>2019-05-19T10:39:09Z</time>
      </trkpt>
      <trkpt lat="46.76939" lon="5.6374">
        <ele>490.5</ele>
        <time>2019-05-19T10:39:14Z</time>
      </trkpt>
      <trkpt lat="46.76945" lon="5.63751">
        <ele>490.5</ele>
        <time>2019-05-19T10:39:18Z</time>
      </trkpt>
      <trkpt lat="46.76954" lon="5.6376">
        <ele>490.5</ele>
        <time>2019-05-19T10:39:23Z</time>
      </trkpt>
      <trkpt lat="46.76963" lon="5.63769">
        <ele>490.5</ele>
        <time>2019-05-19T10:39:29Z</time>
      </trkpt>
      <trkpt lat="46.76973" lon="5.63776">
        <ele>490.7</ele>
        <time>2019-05-19T10:39:34Z</time>
      </trkpt>
      <trkpt lat="46.7698" lon="5.63784">
        <ele>491.1</ele>
        <time>2019-05-19T10:39:38Z</time>
      </trkpt>
      <trkpt lat="46.76981" lon="5.63799">
        <ele>491.7</ele>
        <time>2019-05-19T10:39:45Z</time>
      </trkpt>
      <trkpt lat="46.76985" lon="5.63812">
        <ele>491.9</ele>
        <time>2019-05-19T10:39:48Z</time>
      </trkpt>
      <trkpt lat="46.76995" lon="5.63817">
        <ele>492.5</ele>
        <time>2019-05-19T10:39:53Z</time>
      </trkpt>
      <trkpt lat="46.76997" lon="5.63831">
        <ele>493.5</ele>
        <time>2019-05-19T10:40:01Z</time>
      </trkpt>
      <trkpt lat="46.76991" lon="5.63843">
        <ele>493.9</ele>
        <time>2019-05-19T10:40:06Z</time>
      </trkpt>
      <trkpt lat="46.76984" lon="5.63856">
        <ele>494.4</ele>
        <time>2019-05-19T10:40:11Z</time>
      </trkpt>
      <trkpt lat="46.76979" lon="5.63868">
        <ele>494.9</ele>
        <time>2019-05-19T10:40:15Z</time>
      </trkpt>
      <trkpt lat="46.76971" lon="5.63882">
        <ele>495.4</ele>
        <time>2019-05-19T10:40:19Z</time>
      </trkpt>
      <trkpt lat="46.76967" lon="5.63894">
        <ele>496</ele>
        <time>2019-05-19T10:40:22Z</time>
      </trkpt>
      <trkpt lat="46.76962" lon="5.63906">
        <ele>496.9</ele>
        <time>2019-05-19T10:40:26Z</time>
      </trkpt>
      <trkpt lat="46.76957" lon="5.63917">
        <ele>497.7</ele>
        <time>2019-05-19T10:40:30Z</time>
      </trkpt>
      <trkpt lat="46.76951" lon="5.63928">
        <ele>498.6</ele>
        <time>2019-05-19T10:40:34Z</time>
      </trkpt>
      <trkpt lat="46.76946" lon="5.63942">
        <ele>499.5</ele>
        <time>2019-05-19T10:40:38Z</time>
      </trkpt>
      <trkpt lat="46.76941" lon="5.63957">
        <ele>500.4</ele>
        <time>2019-05-19T10:40:42Z</time>
      </trkpt>
      <trkpt lat="46.76937" lon="5.63972">
        <ele>501.2</ele>
        <time>2019-05-19T10:40:46Z</time>
      </trkpt>
      <trkpt lat="46.76934" lon="5.63984">
        <ele>502</ele>
        <time>2019-05-19T10:40:50Z</time>
      </trkpt>
      <trkpt lat="46.76929" lon="5.63998">
        <ele>502.6</ele>
        <time>2019-05-19T10:40:54Z</time>
      </trkpt>
      <trkpt lat="46.76924" lon="5.6401">
        <ele>503.1</ele>
        <time>2019-05-19T10:40:58Z</time>
      </trkpt>
      <trkpt lat="46.76919" lon="5.64025">
        <ele>503.5</ele>
        <time>2019-05-19T10:41:01Z</time>
      </trkpt>
      <trkpt lat="46.76915" lon="5.64038">
        <ele>503.7</ele>
        <time>2019-05-19T10:41:03Z</time>
      </trkpt>
      <trkpt lat="46.76911" lon="5.6405">
        <ele>503.8</ele>
        <time>2019-05-19T10:41:05Z</time>
      </trkpt>
      <trkpt lat="46.76908" lon="5.64063">
        <ele>504</ele>
        <time>2019-05-19T10:41:07Z</time>
      </trkpt>
      <trkpt lat="46.76906" lon="5.64076">
        <ele>504.1</ele>
        <time>2019-05-19T10:41:09Z</time>
      </trkpt>
      <trkpt lat="46.76904" lon="5.6409">
        <ele>504.1</ele>
        <time>2019-05-19T10:41:11Z</time>
      </trkpt>
      <trkpt lat="46.76901" lon="5.64104">
        <ele>504.1</ele>
        <time>2019-05-19T10:41:13Z</time>
      </trkpt>
      <trkpt lat="46.769" lon="5.64119">
        <ele>504.1</ele>
        <time>2019-05-19T10:41:15Z</time>
      </trkpt>
      <trkpt lat="46.76899" lon="5.64138">
        <ele>504.1</ele>
        <time>2019-05-19T10:41:18Z</time>
      </trkpt>
      <trkpt lat="46.76901" lon="5.64154">
        <ele>504</ele>
        <time>2019-05-19T10:41:21Z</time>
      </trkpt>
      <trkpt lat="46.76902" lon="5.6417">
        <ele>504</ele>
        <time>2019-05-19T10:41:24Z</time>
      </trkpt>
      <trkpt lat="46.76903" lon="5.64184">
        <ele>503.9</ele>
        <time>2019-05-19T10:41:27Z</time>
      </trkpt>
      <trkpt lat="46.76906" lon="5.64198">
        <ele>504</ele>
        <time>2019-05-19T10:41:30Z</time>
      </trkpt>
      <trkpt lat="46.76912" lon="5.64209">
        <ele>504.1</ele>
        <time>2019-05-19T10:41:34Z</time>
      </trkpt>
      <trkpt lat="46.76922" lon="5.64213">
        <ele>504.2</ele>
        <time>2019-05-19T10:41:39Z</time>
      </trkpt>
      <trkpt lat="46.76932" lon="5.64218">
        <ele>504.5</ele>
        <time>2019-05-19T10:41:43Z</time>
      </trkpt>
      <trkpt lat="46.7694" lon="5.64224">
        <ele>504.8</ele>
        <time>2019-05-19T10:41:47Z</time>
      </trkpt>
      <trkpt lat="46.76938" lon="5.64238">
        <ele>505.6</ele>
        <time>2019-05-19T10:41:58Z</time>
      </trkpt>
      <trkpt lat="46.76939" lon="5.64251">
        <ele>505.8</ele>
        <time>2019-05-19T10:42:02Z</time>
      </trkpt>
      <trkpt lat="46.76937" lon="5.64264">
        <ele>506.3</ele>
        <time>2019-05-19T10:42:07Z</time>
      </trkpt>
      <trkpt lat="46.76935" lon="5.64278">
        <ele>507</ele>
        <time>2019-05-19T10:42:12Z</time>
      </trkpt>
      <trkpt lat="46.76932" lon="5.64291">
        <ele>507.5</ele>
        <time>2019-05-19T10:42:16Z</time>
      </trkpt>
      <trkpt lat="46.76931" lon="5.64304">
        <ele>508.1</ele>
        <time>2019-05-19T10:42:20Z</time>
      </trkpt>
      <trkpt lat="46.7693" lon="5.6432">
        <ele>509</ele>
        <time>2019-05-19T10:42:25Z</time>
      </trkpt>
      <trkpt lat="46.76929" lon="5.64333">
        <ele>509.6</ele>
        <time>2019-05-19T10:42:30Z</time>
      </trkpt>
      <trkpt lat="46.7693" lon="5.64347">
        <ele>511.4</ele>
        <time>2019-05-19T10:42:50Z</time>
      </trkpt>
      <trkpt lat="46.76927" lon="5.6436">
        <ele>512.5</ele>
        <time>2019-05-19T10:43:05Z</time>
      </trkpt>
      <trkpt lat="46.76925" lon="5.64374">
        <ele>512.8</ele>
        <time>2019-05-19T10:43:10Z</time>
      </trkpt>
      <trkpt lat="46.76927" lon="5.64388">
        <ele>513.4</ele>
        <time>2019-05-19T10:43:15Z</time>
      </trkpt>
      <trkpt lat="46.76928" lon="5.64402">
        <ele>513.9</ele>
        <time>2019-05-19T10:43:20Z</time>
      </trkpt>
      <trkpt lat="46.76929" lon="5.64418">
        <ele>514.6</ele>
        <time>2019-05-19T10:43:25Z</time>
      </trkpt>
      <trkpt lat="46.76934" lon="5.64431">
        <ele>515.2</ele>
        <time>2019-05-19T10:43:30Z</time>
      </trkpt>
      <trkpt lat="46.76933" lon="5.64447">
        <ele>515.7</ele>
        <time>2019-05-19T10:43:35Z</time>
      </trkpt>
      <trkpt lat="46.76939" lon="5.64457">
        <ele>516</ele>
        <time>2019-05-19T10:43:39Z</time>
      </trkpt>
      <trkpt lat="46.76948" lon="5.64466">
        <ele>516.6</ele>
        <time>2019-05-19T10:43:44Z</time>
      </trkpt>
      <trkpt lat="46.76957" lon="5.64471">
        <ele>517.1</ele>
        <time>2019-05-19T10:43:48Z</time>
      </trkpt>
      <trkpt lat="46.76966" lon="5.64474">
        <ele>517.5</ele>
        <time>2019-05-19T10:43:52Z</time>
      </trkpt>
      <trkpt lat="46.76976" lon="5.64479">
        <ele>517.9</ele>
        <time>2019-05-19T10:43:56Z</time>
      </trkpt>
      <trkpt lat="46.76985" lon="5.64484">
        <ele>518.3</ele>
        <time>2019-05-19T10:44:00Z</time>
      </trkpt>
      <trkpt lat="46.76995" lon="5.64489">
        <ele>518.8</ele>
        <time>2019-05-19T10:44:04Z</time>
      </trkpt>
      <trkpt lat="46.77004" lon="5.64491">
        <ele>519.3</ele>
        <time>2019-05-19T10:44:08Z</time>
      </trkpt>
      <trkpt lat="46.77013" lon="5.64499">
        <ele>519.7</ele>
        <time>2019-05-19T10:44:13Z</time>
      </trkpt>
      <trkpt lat="46.7702" lon="5.64509">
        <ele>520.2</ele>
        <time>2019-05-19T10:44:18Z</time>
      </trkpt>
      <trkpt lat="46.77029" lon="5.64516">
        <ele>520.5</ele>
        <time>2019-05-19T10:44:22Z</time>
      </trkpt>
      <trkpt lat="46.77038" lon="5.64523">
        <ele>521</ele>
        <time>2019-05-19T10:44:26Z</time>
      </trkpt>
      <trkpt lat="46.77046" lon="5.64534">
        <ele>521.4</ele>
        <time>2019-05-19T10:44:30Z</time>
      </trkpt>
      <trkpt lat="46.77053" lon="5.64541">
        <ele>521.8</ele>
        <time>2019-05-19T10:44:34Z</time>
      </trkpt>
      <trkpt lat="46.77062" lon="5.64551">
        <ele>522.2</ele>
        <time>2019-05-19T10:44:38Z</time>
      </trkpt>
      <trkpt lat="46.7707" lon="5.64559">
        <ele>522.7</ele>
        <time>2019-05-19T10:44:42Z</time>
      </trkpt>
      <trkpt lat="46.77079" lon="5.64562">
        <ele>523.2</ele>
        <time>2019-05-19T10:44:46Z</time>
      </trkpt>
      <trkpt lat="46.77089" lon="5.64566">
        <ele>523.7</ele>
        <time>2019-05-19T10:44:50Z</time>
      </trkpt>
      <trkpt lat="46.771" lon="5.64569">
        <ele>524</ele>
        <time>2019-05-19T10:44:54Z</time>
      </trkpt>
      <trkpt lat="46.77112" lon="5.64572">
        <ele>524.3</ele>
        <time>2019-05-19T10:44:58Z</time>
      </trkpt>
      <trkpt lat="46.7712" lon="5.64576">
        <ele>524.6</ele>
        <time>2019-05-19T10:45:01Z</time>
      </trkpt>
      <trkpt lat="46.7713" lon="5.64579">
        <ele>524.9</ele>
        <time>2019-05-19T10:45:04Z</time>
      </trkpt>
      <trkpt lat="46.77139" lon="5.64582">
        <ele>525.2</ele>
        <time>2019-05-19T10:45:07Z</time>
      </trkpt>
      <trkpt lat="46.77151" lon="5.64585">
        <ele>525.4</ele>
        <time>2019-05-19T10:45:10Z</time>
      </trkpt>
      <trkpt lat="46.77161" lon="5.64591">
        <ele>525.7</ele>
        <time>2019-05-19T10:45:14Z</time>
      </trkpt>
      <trkpt lat="46.7717" lon="5.64595">
        <ele>525.9</ele>
        <time>2019-05-19T10:45:17Z</time>
      </trkpt>
      <trkpt lat="46.77181" lon="5.646">
        <ele>526.2</ele>
        <time>2019-05-19T10:45:21Z</time>
      </trkpt>
      <trkpt lat="46.77192" lon="5.64602">
        <ele>526.4</ele>
        <time>2019-05-19T10:45:24Z</time>
      </trkpt>
      <trkpt lat="46.77203" lon="5.64597">
        <ele>526.7</ele>
        <time>2019-05-19T10:45:28Z</time>
      </trkpt>
      <trkpt lat="46.77213" lon="5.64593">
        <ele>526.8</ele>
        <time>2019-05-19T10:45:31Z</time>
      </trkpt>
      <trkpt lat="46.77226" lon="5.64587">
        <ele>526.9</ele>
        <time>2019-05-19T10:45:34Z</time>
      </trkpt>
      <trkpt lat="46.77235" lon="5.64584">
        <ele>526.8</ele>
        <time>2019-05-19T10:45:36Z</time>
      </trkpt>
      <trkpt lat="46.77246" lon="5.64575">
        <ele>526.6</ele>
        <time>2019-05-19T10:45:39Z</time>
      </trkpt>
      <trkpt lat="46.77255" lon="5.6457">
        <ele>526.3</ele>
        <time>2019-05-19T10:45:42Z</time>
      </trkpt>
      <trkpt lat="46.77263" lon="5.64579">
        <ele>525.9</ele>
        <time>2019-05-19T10:45:49Z</time>
      </trkpt>
      <trkpt lat="46.77263" lon="5.64593">
        <ele>525.7</ele>
        <time>2019-05-19T10:45:53Z</time>
      </trkpt>
      <trkpt lat="46.77259" lon="5.64606">
        <ele>525.8</ele>
        <time>2019-05-19T10:45:58Z</time>
      </trkpt>
      <trkpt lat="46.77257" lon="5.64619">
        <ele>526.5</ele>
        <time>2019-05-19T10:46:04Z</time>
      </trkpt>
      <trkpt lat="46.77254" lon="5.64633">
        <ele>527.3</ele>
        <time>2019-05-19T10:46:09Z</time>
      </trkpt>
      <trkpt lat="46.77252" lon="5.64648">
        <ele>528.3</ele>
        <time>2019-05-19T10:46:14Z</time>
      </trkpt>
      <trkpt lat="46.77249" lon="5.64663">
        <ele>529.3</ele>
        <time>2019-05-19T10:46:19Z</time>
      </trkpt>
      <trkpt lat="46.77246" lon="5.64677">
        <ele>530.2</ele>
        <time>2019-05-19T10:46:24Z</time>
      </trkpt>
      <trkpt lat="46.77243" lon="5.6469">
        <ele>531.2</ele>
        <time>2019-05-19T10:46:29Z</time>
      </trkpt>
      <trkpt lat="46.77241" lon="5.64706">
        <ele>532.1</ele>
        <time>2019-05-19T10:46:34Z</time>
      </trkpt>
      <trkpt lat="46.7724" lon="5.64721">
        <ele>532.7</ele>
        <time>2019-05-19T10:46:38Z</time>
      </trkpt>
      <trkpt lat="46.77237" lon="5.64738">
        <ele>533.2</ele>
        <time>2019-05-19T10:46:42Z</time>
      </trkpt>
      <trkpt lat="46.77234" lon="5.64751">
        <ele>533.4</ele>
        <time>2019-05-19T10:46:45Z</time>
      </trkpt>
      <trkpt lat="46.77231" lon="5.64765">
        <ele>533.7</ele>
        <time>2019-05-19T10:46:49Z</time>
      </trkpt>
      <trkpt lat="46.77233" lon="5.64779">
        <ele>533.9</ele>
        <time>2019-05-19T10:46:53Z</time>
      </trkpt>
      <trkpt lat="46.77238" lon="5.64793">
        <ele>534.1</ele>
        <time>2019-05-19T10:46:57Z</time>
      </trkpt>
      <trkpt lat="46.77246" lon="5.64802">
        <ele>534.3</ele>
        <time>2019-05-19T10:47:01Z</time>
      </trkpt>
      <trkpt lat="46.77252" lon="5.64816">
        <ele>534.5</ele>
        <time>2019-05-19T10:47:05Z</time>
      </trkpt>
      <trkpt lat="46.7726" lon="5.6483">
        <ele>534.8</ele>
        <time>2019-05-19T10:47:09Z</time>
      </trkpt>
      <trkpt lat="46.77266" lon="5.6484">
        <ele>535</ele>
        <time>2019-05-19T10:47:12Z</time>
      </trkpt>
      <trkpt lat="46.77272" lon="5.64854">
        <ele>535.1</ele>
        <time>2019-05-19T10:47:15Z</time>
      </trkpt>
      <trkpt lat="46.77278" lon="5.64868">
        <ele>535.2</ele>
        <time>2019-05-19T10:47:18Z</time>
      </trkpt>
      <trkpt lat="46.77283" lon="5.64879">
        <ele>535.4</ele>
        <time>2019-05-19T10:47:23Z</time>
      </trkpt>
      <trkpt lat="46.7729" lon="5.64891">
        <ele>535.4</ele>
        <time>2019-05-19T10:47:27Z</time>
      </trkpt>
      <trkpt lat="46.77299" lon="5.64899">
        <ele>535.5</ele>
        <time>2019-05-19T10:47:31Z</time>
      </trkpt>
      <trkpt lat="46.77306" lon="5.64908">
        <ele>535.5</ele>
        <time>2019-05-19T10:47:34Z</time>
      </trkpt>
      <trkpt lat="46.77316" lon="5.64912">
        <ele>535.3</ele>
        <time>2019-05-19T10:47:37Z</time>
      </trkpt>
      <trkpt lat="46.77327" lon="5.64916">
        <ele>535</ele>
        <time>2019-05-19T10:47:40Z</time>
      </trkpt>
      <trkpt lat="46.77339" lon="5.64922">
        <ele>534.6</ele>
        <time>2019-05-19T10:47:43Z</time>
      </trkpt>
      <trkpt lat="46.77351" lon="5.64926">
        <ele>534.4</ele>
        <time>2019-05-19T10:47:46Z</time>
      </trkpt>
      <trkpt lat="46.77362" lon="5.64934">
        <ele>534.1</ele>
        <time>2019-05-19T10:47:49Z</time>
      </trkpt>
      <trkpt lat="46.77372" lon="5.64933">
        <ele>533.9</ele>
        <time>2019-05-19T10:47:52Z</time>
      </trkpt>
      <trkpt lat="46.77381" lon="5.64935">
        <ele>533.7</ele>
        <time>2019-05-19T10:47:55Z</time>
      </trkpt>
      <trkpt lat="46.77392" lon="5.6494">
        <ele>533.4</ele>
        <time>2019-05-19T10:47:59Z</time>
      </trkpt>
      <trkpt lat="46.77403" lon="5.64945">
        <ele>532.8</ele>
        <time>2019-05-19T10:48:04Z</time>
      </trkpt>
      <trkpt lat="46.77414" lon="5.64947">
        <ele>532.1</ele>
        <time>2019-05-19T10:48:07Z</time>
      </trkpt>
      <trkpt lat="46.77425" lon="5.64946">
        <ele>531</ele>
        <time>2019-05-19T10:48:10Z</time>
      </trkpt>
      <trkpt lat="46.77436" lon="5.6495">
        <ele>529.8</ele>
        <time>2019-05-19T10:48:13Z</time>
      </trkpt>
      <trkpt lat="46.77447" lon="5.64951">
        <ele>528.8</ele>
        <time>2019-05-19T10:48:15Z</time>
      </trkpt>
      <trkpt lat="46.77457" lon="5.64948">
        <ele>527.8</ele>
        <time>2019-05-19T10:48:17Z</time>
      </trkpt>
      <trkpt lat="46.77468" lon="5.64945">
        <ele>525.5</ele>
        <time>2019-05-19T10:48:21Z</time>
      </trkpt>
      <trkpt lat="46.77478" lon="5.64946">
        <ele>523.1</ele>
        <time>2019-05-19T10:48:25Z</time>
      </trkpt>
      <trkpt lat="46.77486" lon="5.64957">
        <ele>520.6</ele>
        <time>2019-05-19T10:48:30Z</time>
      </trkpt>
      <trkpt lat="46.77483" lon="5.64969">
        <ele>519.3</ele>
        <time>2019-05-19T10:48:33Z</time>
      </trkpt>
      <trkpt lat="46.7748" lon="5.64984">
        <ele>518.3</ele>
        <time>2019-05-19T10:48:36Z</time>
      </trkpt>
      <trkpt lat="46.77475" lon="5.65002">
        <ele>517.4</ele>
        <time>2019-05-19T10:48:39Z</time>
      </trkpt>
      <trkpt lat="46.77472" lon="5.65014">
        <ele>516.9</ele>
        <time>2019-05-19T10:48:41Z</time>
      </trkpt>
      <trkpt lat="46.77468" lon="5.65027">
        <ele>516.5</ele>
        <time>2019-05-19T10:48:43Z</time>
      </trkpt>
      <trkpt lat="46.77465" lon="5.65041">
        <ele>516.1</ele>
        <time>2019-05-19T10:48:45Z</time>
      </trkpt>
      <trkpt lat="46.7746" lon="5.65054">
        <ele>515.8</ele>
        <time>2019-05-19T10:48:47Z</time>
      </trkpt>
      <trkpt lat="46.77455" lon="5.65067">
        <ele>515.5</ele>
        <time>2019-05-19T10:48:49Z</time>
      </trkpt>
      <trkpt lat="46.7745" lon="5.65079">
        <ele>515.2</ele>
        <time>2019-05-19T10:48:51Z</time>
      </trkpt>
      <trkpt lat="46.77444" lon="5.65091">
        <ele>515</ele>
        <time>2019-05-19T10:48:53Z</time>
      </trkpt>
      <trkpt lat="46.77437" lon="5.65102">
        <ele>514.7</ele>
        <time>2019-05-19T10:48:55Z</time>
      </trkpt>
      <trkpt lat="46.7743" lon="5.65112">
        <ele>514.6</ele>
        <time>2019-05-19T10:48:57Z</time>
      </trkpt>
      <trkpt lat="46.77424" lon="5.65124">
        <ele>514.4</ele>
        <time>2019-05-19T10:48:59Z</time>
      </trkpt>
      <trkpt lat="46.77419" lon="5.65135">
        <ele>514.3</ele>
        <time>2019-05-19T10:49:01Z</time>
      </trkpt>
      <trkpt lat="46.77413" lon="5.65147">
        <ele>514.2</ele>
        <time>2019-05-19T10:49:03Z</time>
      </trkpt>
      <trkpt lat="46.7741" lon="5.6516">
        <ele>514.1</ele>
        <time>2019-05-19T10:49:05Z</time>
      </trkpt>
      <trkpt lat="46.77407" lon="5.65173">
        <ele>514.1</ele>
        <time>2019-05-19T10:49:07Z</time>
      </trkpt>
      <trkpt lat="46.77404" lon="5.65187">
        <ele>514.2</ele>
        <time>2019-05-19T10:49:09Z</time>
      </trkpt>
      <trkpt lat="46.77401" lon="5.65201">
        <ele>514.2</ele>
        <time>2019-05-19T10:49:11Z</time>
      </trkpt>
      <trkpt lat="46.77398" lon="5.65216">
        <ele>514.2</ele>
        <time>2019-05-19T10:49:13Z</time>
      </trkpt>
      <trkpt lat="46.77394" lon="5.65231">
        <ele>514.3</ele>
        <time>2019-05-19T10:49:15Z</time>
      </trkpt>
      <trkpt lat="46.77391" lon="5.65249">
        <ele>514.3</ele>
        <time>2019-05-19T10:49:17Z</time>
      </trkpt>
      <trkpt lat="46.77387" lon="5.65267">
        <ele>514.2</ele>
        <time>2019-05-19T10:49:19Z</time>
      </trkpt>
      <trkpt lat="46.77383" lon="5.65284">
        <ele>514.2</ele>
        <time>2019-05-19T10:49:21Z</time>
      </trkpt>
      <trkpt lat="46.77379" lon="5.65301">
        <ele>514.1</ele>
        <time>2019-05-19T10:49:23Z</time>
      </trkpt>
      <trkpt lat="46.77376" lon="5.65317">
        <ele>514</ele>
        <time>2019-05-19T10:49:25Z</time>
      </trkpt>
      <trkpt lat="46.77373" lon="5.65333">
        <ele>514</ele>
        <time>2019-05-19T10:49:27Z</time>
      </trkpt>
      <trkpt lat="46.77369" lon="5.65349">
        <ele>513.9</ele>
        <time>2019-05-19T10:49:29Z</time>
      </trkpt>
      <trkpt lat="46.77366" lon="5.65365">
        <ele>513.8</ele>
        <time>2019-05-19T10:49:31Z</time>
      </trkpt>
      <trkpt lat="46.77363" lon="5.65379">
        <ele>513.8</ele>
        <time>2019-05-19T10:49:33Z</time>
      </trkpt>
      <trkpt lat="46.7736" lon="5.65393">
        <ele>513.8</ele>
        <time>2019-05-19T10:49:35Z</time>
      </trkpt>
      <trkpt lat="46.77357" lon="5.65406">
        <ele>513.8</ele>
        <time>2019-05-19T10:49:37Z</time>
      </trkpt>
      <trkpt lat="46.77353" lon="5.65419">
        <ele>513.9</ele>
        <time>2019-05-19T10:49:39Z</time>
      </trkpt>
      <trkpt lat="46.77346" lon="5.65434">
        <ele>514.1</ele>
        <time>2019-05-19T10:49:42Z</time>
      </trkpt>
      <trkpt lat="46.77337" lon="5.65446">
        <ele>514.4</ele>
        <time>2019-05-19T10:49:45Z</time>
      </trkpt>
      <trkpt lat="46.77328" lon="5.65455">
        <ele>514.9</ele>
        <time>2019-05-19T10:49:48Z</time>
      </trkpt>
      <trkpt lat="46.77323" lon="5.65469">
        <ele>515.5</ele>
        <time>2019-05-19T10:49:52Z</time>
      </trkpt>
      <trkpt lat="46.77322" lon="5.65483">
        <ele>516.4</ele>
        <time>2019-05-19T10:49:56Z</time>
      </trkpt>
      <trkpt lat="46.77327" lon="5.65498">
        <ele>517.4</ele>
        <time>2019-05-19T10:50:00Z</time>
      </trkpt>
      <trkpt lat="46.77334" lon="5.65507">
        <ele>518.1</ele>
        <time>2019-05-19T10:50:03Z</time>
      </trkpt>
      <trkpt lat="46.77343" lon="5.65516">
        <ele>518.9</ele>
        <time>2019-05-19T10:50:06Z</time>
      </trkpt>
      <trkpt lat="46.77351" lon="5.65526">
        <ele>519.8</ele>
        <time>2019-05-19T10:50:09Z</time>
      </trkpt>
      <trkpt lat="46.7736" lon="5.65536">
        <ele>520.6</ele>
        <time>2019-05-19T10:50:12Z</time>
      </trkpt>
      <trkpt lat="46.77369" lon="5.65546">
        <ele>521.5</ele>
        <time>2019-05-19T10:50:15Z</time>
      </trkpt>
      <trkpt lat="46.77378" lon="5.65556">
        <ele>522.3</ele>
        <time>2019-05-19T10:50:18Z</time>
      </trkpt>
      <trkpt lat="46.77387" lon="5.65566">
        <ele>523.1</ele>
        <time>2019-05-19T10:50:21Z</time>
      </trkpt>
      <trkpt lat="46.77395" lon="5.65576">
        <ele>524</ele>
        <time>2019-05-19T10:50:24Z</time>
      </trkpt>
      <trkpt lat="46.77403" lon="5.65587">
        <ele>524.8</ele>
        <time>2019-05-19T10:50:27Z</time>
      </trkpt>
      <trkpt lat="46.7741" lon="5.65599">
        <ele>525.5</ele>
        <time>2019-05-19T10:50:30Z</time>
      </trkpt>
      <trkpt lat="46.77418" lon="5.65611">
        <ele>526</ele>
        <time>2019-05-19T10:50:33Z</time>
      </trkpt>
      <trkpt lat="46.77426" lon="5.65624">
        <ele>526.6</ele>
        <time>2019-05-19T10:50:36Z</time>
      </trkpt>
      <trkpt lat="46.77435" lon="5.65634">
        <ele>527</ele>
        <time>2019-05-19T10:50:39Z</time>
      </trkpt>
      <trkpt lat="46.77445" lon="5.65645">
        <ele>527.4</ele>
        <time>2019-05-19T10:50:42Z</time>
      </trkpt>
      <trkpt lat="46.77454" lon="5.65656">
        <ele>527.8</ele>
        <time>2019-05-19T10:50:45Z</time>
      </trkpt>
      <trkpt lat="46.77462" lon="5.65666">
        <ele>528.2</ele>
        <time>2019-05-19T10:50:48Z</time>
      </trkpt>
      <trkpt lat="46.77471" lon="5.65675">
        <ele>528.8</ele>
        <time>2019-05-19T10:50:53Z</time>
      </trkpt>
      <trkpt lat="46.77464" lon="5.65685">
        <ele>530.3</ele>
        <time>2019-05-19T10:51:03Z</time>
      </trkpt>
      <trkpt lat="46.77469" lon="5.65698">
        <ele>531.8</ele>
        <time>2019-05-19T10:51:11Z</time>
      </trkpt>
      <trkpt lat="46.77475" lon="5.65708">
        <ele>533.3</ele>
        <time>2019-05-19T10:51:19Z</time>
      </trkpt>
      <trkpt lat="46.77472" lon="5.65722">
        <ele>534.8</ele>
        <time>2019-05-19T10:51:26Z</time>
      </trkpt>
      <trkpt lat="46.77468" lon="5.65735">
        <ele>536</ele>
        <time>2019-05-19T10:51:31Z</time>
      </trkpt>
      <trkpt lat="46.77465" lon="5.65748">
        <ele>537.3</ele>
        <time>2019-05-19T10:51:36Z</time>
      </trkpt>
      <trkpt lat="46.77472" lon="5.65756">
        <ele>538.3</ele>
        <time>2019-05-19T10:51:40Z</time>
      </trkpt>
      <trkpt lat="46.7748" lon="5.65765">
        <ele>539.1</ele>
        <time>2019-05-19T10:51:44Z</time>
      </trkpt>
      <trkpt lat="46.7749" lon="5.65772">
        <ele>540.1</ele>
        <time>2019-05-19T10:51:49Z</time>
      </trkpt>
      <trkpt lat="46.77497" lon="5.65779">
        <ele>540.6</ele>
        <time>2019-05-19T10:51:53Z</time>
      </trkpt>
      <trkpt lat="46.77506" lon="5.65788">
        <ele>541.1</ele>
        <time>2019-05-19T10:51:57Z</time>
      </trkpt>
      <trkpt lat="46.77515" lon="5.65794">
        <ele>541.6</ele>
        <time>2019-05-19T10:52:01Z</time>
      </trkpt>
      <trkpt lat="46.77524" lon="5.65803">
        <ele>542</ele>
        <time>2019-05-19T10:52:05Z</time>
      </trkpt>
      <trkpt lat="46.77532" lon="5.65813">
        <ele>542.3</ele>
        <time>2019-05-19T10:52:11Z</time>
      </trkpt>
      <trkpt lat="46.77535" lon="5.65826">
        <ele>542.6</ele>
        <time>2019-05-19T10:52:18Z</time>
      </trkpt>
      <trkpt lat="46.77529" lon="5.65839">
        <ele>543.4</ele>
        <time>2019-05-19T10:52:23Z</time>
      </trkpt>
      <trkpt lat="46.77523" lon="5.6585">
        <ele>544.4</ele>
        <time>2019-05-19T10:52:29Z</time>
      </trkpt>
      <trkpt lat="46.77515" lon="5.65859">
        <ele>545.3</ele>
        <time>2019-05-19T10:52:35Z</time>
      </trkpt>
      <trkpt lat="46.77508" lon="5.65866">
        <ele>546.5</ele>
        <time>2019-05-19T10:52:41Z</time>
      </trkpt>
      <trkpt lat="46.775" lon="5.65874">
        <ele>547</ele>
        <time>2019-05-19T10:52:45Z</time>
      </trkpt>
      <trkpt lat="46.77491" lon="5.65882">
        <ele>547.3</ele>
        <time>2019-05-19T10:52:49Z</time>
      </trkpt>
      <trkpt lat="46.77483" lon="5.65889">
        <ele>547.5</ele>
        <time>2019-05-19T10:52:52Z</time>
      </trkpt>
      <trkpt lat="46.77475" lon="5.65904">
        <ele>547.4</ele>
        <time>2019-05-19T10:52:56Z</time>
      </trkpt>
      <trkpt lat="46.77467" lon="5.65914">
        <ele>547.2</ele>
        <time>2019-05-19T10:52:59Z</time>
      </trkpt>
      <trkpt lat="46.7746" lon="5.65923">
        <ele>546.6</ele>
        <time>2019-05-19T10:53:02Z</time>
      </trkpt>
      <trkpt lat="46.77452" lon="5.65932">
        <ele>546.1</ele>
        <time>2019-05-19T10:53:05Z</time>
      </trkpt>
      <trkpt lat="46.77443" lon="5.65939">
        <ele>545.5</ele>
        <time>2019-05-19T10:53:08Z</time>
      </trkpt>
      <trkpt lat="46.77435" lon="5.65947">
        <ele>545.1</ele>
        <time>2019-05-19T10:53:10Z</time>
      </trkpt>
      <trkpt lat="46.77427" lon="5.65956">
        <ele>544.7</ele>
        <time>2019-05-19T10:53:12Z</time>
      </trkpt>
      <trkpt lat="46.77419" lon="5.65964">
        <ele>544.1</ele>
        <time>2019-05-19T10:53:14Z</time>
      </trkpt>
      <trkpt lat="46.77409" lon="5.65975">
        <ele>543.3</ele>
        <time>2019-05-19T10:53:17Z</time>
      </trkpt>
      <trkpt lat="46.77401" lon="5.65985">
        <ele>542.6</ele>
        <time>2019-05-19T10:53:20Z</time>
      </trkpt>
      <trkpt lat="46.77397" lon="5.65997">
        <ele>541.8</ele>
        <time>2019-05-19T10:53:24Z</time>
      </trkpt>
      <trkpt lat="46.77403" lon="5.66009">
        <ele>541</ele>
        <time>2019-05-19T10:53:29Z</time>
      </trkpt>
      <trkpt lat="46.77411" lon="5.66022">
        <ele>540.4</ele>
        <time>2019-05-19T10:53:33Z</time>
      </trkpt>
      <trkpt lat="46.77418" lon="5.66032">
        <ele>540.1</ele>
        <time>2019-05-19T10:53:36Z</time>
      </trkpt>
      <trkpt lat="46.77426" lon="5.66042">
        <ele>539.9</ele>
        <time>2019-05-19T10:53:39Z</time>
      </trkpt>
      <trkpt lat="46.77435" lon="5.66054">
        <ele>539.7</ele>
        <time>2019-05-19T10:53:42Z</time>
      </trkpt>
      <trkpt lat="46.77445" lon="5.66066">
        <ele>539.6</ele>
        <time>2019-05-19T10:53:45Z</time>
      </trkpt>
      <trkpt lat="46.77453" lon="5.66076">
        <ele>539.3</ele>
        <time>2019-05-19T10:53:47Z</time>
      </trkpt>
      <trkpt lat="46.77461" lon="5.66086">
        <ele>539.1</ele>
        <time>2019-05-19T10:53:49Z</time>
      </trkpt>
      <trkpt lat="46.77468" lon="5.66095">
        <ele>538.9</ele>
        <time>2019-05-19T10:53:51Z</time>
      </trkpt>
      <trkpt lat="46.77478" lon="5.66108">
        <ele>538.8</ele>
        <time>2019-05-19T10:53:54Z</time>
      </trkpt>
      <trkpt lat="46.77484" lon="5.66118">
        <ele>538.8</ele>
        <time>2019-05-19T10:53:56Z</time>
      </trkpt>
      <trkpt lat="46.7749" lon="5.66128">
        <ele>538.8</ele>
        <time>2019-05-19T10:53:58Z</time>
      </trkpt>
      <trkpt lat="46.775" lon="5.6614">
        <ele>538.8</ele>
        <time>2019-05-19T10:54:01Z</time>
      </trkpt>
      <trkpt lat="46.7751" lon="5.66151">
        <ele>538.7</ele>
        <time>2019-05-19T10:54:04Z</time>
      </trkpt>
      <trkpt lat="46.77519" lon="5.66165">
        <ele>538.7</ele>
        <time>2019-05-19T10:54:07Z</time>
      </trkpt>
      <trkpt lat="46.77528" lon="5.66178">
        <ele>538.9</ele>
        <time>2019-05-19T10:54:10Z</time>
      </trkpt>
      <trkpt lat="46.77537" lon="5.66192">
        <ele>539</ele>
        <time>2019-05-19T10:54:13Z</time>
      </trkpt>
      <trkpt lat="46.77544" lon="5.66201">
        <ele>539.1</ele>
        <time>2019-05-19T10:54:15Z</time>
      </trkpt>
      <trkpt lat="46.77553" lon="5.66213">
        <ele>539.4</ele>
        <time>2019-05-19T10:54:18Z</time>
      </trkpt>
      <trkpt lat="46.77561" lon="5.66227">
        <ele>539.6</ele>
        <time>2019-05-19T10:54:21Z</time>
      </trkpt>
      <trkpt lat="46.77569" lon="5.66239">
        <ele>539.8</ele>
        <time>2019-05-19T10:54:24Z</time>
      </trkpt>
      <trkpt lat="46.77575" lon="5.6625">
        <ele>539.9</ele>
        <time>2019-05-19T10:54:26Z</time>
      </trkpt>
      <trkpt lat="46.77584" lon="5.66263">
        <ele>540.1</ele>
        <time>2019-05-19T10:54:29Z</time>
      </trkpt>
      <trkpt lat="46.7759" lon="5.66273">
        <ele>540.2</ele>
        <time>2019-05-19T10:54:31Z</time>
      </trkpt>
      <trkpt lat="46.776" lon="5.66285">
        <ele>540.2</ele>
        <time>2019-05-19T10:54:34Z</time>
      </trkpt>
      <trkpt lat="46.77608" lon="5.66294">
        <ele>540.3</ele>
        <time>2019-05-19T10:54:37Z</time>
      </trkpt>
      <trkpt lat="46.77614" lon="5.66304">
        <ele>540.3</ele>
        <time>2019-05-19T10:54:40Z</time>
      </trkpt>
      <trkpt lat="46.77621" lon="5.66314">
        <ele>540.4</ele>
        <time>2019-05-19T10:54:43Z</time>
      </trkpt>
      <trkpt lat="46.77629" lon="5.66325">
        <ele>540.5</ele>
        <time>2019-05-19T10:54:46Z</time>
      </trkpt>
      <trkpt lat="46.77638" lon="5.66336">
        <ele>540.7</ele>
        <time>2019-05-19T10:54:49Z</time>
      </trkpt>
      <trkpt lat="46.77647" lon="5.66347">
        <ele>540.9</ele>
        <time>2019-05-19T10:54:52Z</time>
      </trkpt>
      <trkpt lat="46.77655" lon="5.66358">
        <ele>541.1</ele>
        <time>2019-05-19T10:54:55Z</time>
      </trkpt>
      <trkpt lat="46.77664" lon="5.6637">
        <ele>541.2</ele>
        <time>2019-05-19T10:54:58Z</time>
      </trkpt>
      <trkpt lat="46.77673" lon="5.66383">
        <ele>541.2</ele>
        <time>2019-05-19T10:55:01Z</time>
      </trkpt>
      <trkpt lat="46.77681" lon="5.66393">
        <ele>541.1</ele>
        <time>2019-05-19T10:55:04Z</time>
      </trkpt>
      <trkpt lat="46.77689" lon="5.66402">
        <ele>541</ele>
        <time>2019-05-19T10:55:07Z</time>
      </trkpt>
      <trkpt lat="46.77698" lon="5.66413">
        <ele>541.1</ele>
        <time>2019-05-19T10:55:11Z</time>
      </trkpt>
      <trkpt lat="46.77705" lon="5.66425">
        <ele>541.1</ele>
        <time>2019-05-19T10:55:15Z</time>
      </trkpt>
      <trkpt lat="46.77712" lon="5.66434">
        <ele>541.2</ele>
        <time>2019-05-19T10:55:18Z</time>
      </trkpt>
      <trkpt lat="46.7772" lon="5.66446">
        <ele>541.2</ele>
        <time>2019-05-19T10:55:22Z</time>
      </trkpt>
      <trkpt lat="46.77728" lon="5.66458">
        <ele>541.2</ele>
        <time>2019-05-19T10:55:26Z</time>
      </trkpt>
      <trkpt lat="46.77736" lon="5.66467">
        <ele>541.2</ele>
        <time>2019-05-19T10:55:29Z</time>
      </trkpt>
      <trkpt lat="46.77745" lon="5.66479">
        <ele>541.2</ele>
        <time>2019-05-19T10:55:33Z</time>
      </trkpt>
      <trkpt lat="46.77751" lon="5.6649">
        <ele>541.3</ele>
        <time>2019-05-19T10:55:36Z</time>
      </trkpt>
      <trkpt lat="46.77759" lon="5.665">
        <ele>541.5</ele>
        <time>2019-05-19T10:55:40Z</time>
      </trkpt>
      <trkpt lat="46.77769" lon="5.66507">
        <ele>541.8</ele>
        <time>2019-05-19T10:55:44Z</time>
      </trkpt>
      <trkpt lat="46.77777" lon="5.66516">
        <ele>542.1</ele>
        <time>2019-05-19T10:55:47Z</time>
      </trkpt>
      <trkpt lat="46.77783" lon="5.66527">
        <ele>542.3</ele>
        <time>2019-05-19T10:55:50Z</time>
      </trkpt>
      <trkpt lat="46.77792" lon="5.66537">
        <ele>542.5</ele>
        <time>2019-05-19T10:55:53Z</time>
      </trkpt>
      <trkpt lat="46.77801" lon="5.66546">
        <ele>542.7</ele>
        <time>2019-05-19T10:55:56Z</time>
      </trkpt>
      <trkpt lat="46.77811" lon="5.66553">
        <ele>542.8</ele>
        <time>2019-05-19T10:55:59Z</time>
      </trkpt>
      <trkpt lat="46.7782" lon="5.66563">
        <ele>543</ele>
        <time>2019-05-19T10:56:02Z</time>
      </trkpt>
      <trkpt lat="46.77827" lon="5.66571">
        <ele>543.4</ele>
        <time>2019-05-19T10:56:05Z</time>
      </trkpt>
      <trkpt lat="46.77833" lon="5.66582">
        <ele>543.7</ele>
        <time>2019-05-19T10:56:08Z</time>
      </trkpt>
      <trkpt lat="46.77835" lon="5.66596">
        <ele>544</ele>
        <time>2019-05-19T10:56:11Z</time>
      </trkpt>
      <trkpt lat="46.77837" lon="5.66609">
        <ele>544.3</ele>
        <time>2019-05-19T10:56:14Z</time>
      </trkpt>
      <trkpt lat="46.77839" lon="5.66625">
        <ele>544.6</ele>
        <time>2019-05-19T10:56:17Z</time>
      </trkpt>
      <trkpt lat="46.77843" lon="5.66639">
        <ele>544.8</ele>
        <time>2019-05-19T10:56:20Z</time>
      </trkpt>
      <trkpt lat="46.77849" lon="5.66651">
        <ele>544.8</ele>
        <time>2019-05-19T10:56:23Z</time>
      </trkpt>
      <trkpt lat="46.77854" lon="5.66664">
        <ele>544.9</ele>
        <time>2019-05-19T10:56:26Z</time>
      </trkpt>
      <trkpt lat="46.7786" lon="5.66678">
        <ele>545</ele>
        <time>2019-05-19T10:56:29Z</time>
      </trkpt>
      <trkpt lat="46.77865" lon="5.66693">
        <ele>545.1</ele>
        <time>2019-05-19T10:56:32Z</time>
      </trkpt>
      <trkpt lat="46.77871" lon="5.66706">
        <ele>545.3</ele>
        <time>2019-05-19T10:56:35Z</time>
      </trkpt>
      <trkpt lat="46.77879" lon="5.66716">
        <ele>545.5</ele>
        <time>2019-05-19T10:56:38Z</time>
      </trkpt>
      <trkpt lat="46.77884" lon="5.66728">
        <ele>545.7</ele>
        <time>2019-05-19T10:56:41Z</time>
      </trkpt>
      <trkpt lat="46.77885" lon="5.66741">
        <ele>545.9</ele>
        <time>2019-05-19T10:56:44Z</time>
      </trkpt>
      <trkpt lat="46.77885" lon="5.66759">
        <ele>546</ele>
        <time>2019-05-19T10:56:47Z</time>
      </trkpt>
      <trkpt lat="46.77887" lon="5.66772">
        <ele>546</ele>
        <time>2019-05-19T10:56:49Z</time>
      </trkpt>
      <trkpt lat="46.77892" lon="5.66791">
        <ele>545.7</ele>
        <time>2019-05-19T10:56:52Z</time>
      </trkpt>
      <trkpt lat="46.779" lon="5.66803">
        <ele>545.3</ele>
        <time>2019-05-19T10:56:54Z</time>
      </trkpt>
      <trkpt lat="46.77909" lon="5.66815">
        <ele>544.8</ele>
        <time>2019-05-19T10:56:56Z</time>
      </trkpt>
      <trkpt lat="46.77919" lon="5.66825">
        <ele>544.3</ele>
        <time>2019-05-19T10:56:58Z</time>
      </trkpt>
      <trkpt lat="46.77928" lon="5.66833">
        <ele>544</ele>
        <time>2019-05-19T10:57:00Z</time>
      </trkpt>
      <trkpt lat="46.77937" lon="5.66843">
        <ele>543.6</ele>
        <time>2019-05-19T10:57:02Z</time>
      </trkpt>
      <trkpt lat="46.77947" lon="5.66852">
        <ele>543.1</ele>
        <time>2019-05-19T10:57:04Z</time>
      </trkpt>
      <trkpt lat="46.77955" lon="5.66863">
        <ele>542.7</ele>
        <time>2019-05-19T10:57:06Z</time>
      </trkpt>
      <trkpt lat="46.77959" lon="5.66878">
        <ele>542.1</ele>
        <time>2019-05-19T10:57:08Z</time>
      </trkpt>
      <trkpt lat="46.77961" lon="5.66893">
        <ele>541.5</ele>
        <time>2019-05-19T10:57:10Z</time>
      </trkpt>
      <trkpt lat="46.77961" lon="5.6691">
        <ele>540.9</ele>
        <time>2019-05-19T10:57:12Z</time>
      </trkpt>
      <trkpt lat="46.77961" lon="5.66924">
        <ele>540.3</ele>
        <time>2019-05-19T10:57:14Z</time>
      </trkpt>
      <trkpt lat="46.77961" lon="5.66938">
        <ele>539.9</ele>
        <time>2019-05-19T10:57:16Z</time>
      </trkpt>
      <trkpt lat="46.77959" lon="5.66952">
        <ele>539.4</ele>
        <time>2019-05-19T10:57:18Z</time>
      </trkpt>
      <trkpt lat="46.77958" lon="5.6697">
        <ele>538.9</ele>
        <time>2019-05-19T10:57:21Z</time>
      </trkpt>
      <trkpt lat="46.77956" lon="5.66987">
        <ele>538.5</ele>
        <time>2019-05-19T10:57:24Z</time>
      </trkpt>
      <trkpt lat="46.77955" lon="5.67003">
        <ele>538.3</ele>
        <time>2019-05-19T10:57:27Z</time>
      </trkpt>
      <trkpt lat="46.77955" lon="5.67023">
        <ele>538.1</ele>
        <time>2019-05-19T10:57:30Z</time>
      </trkpt>
      <trkpt lat="46.77955" lon="5.67038">
        <ele>537.9</ele>
        <time>2019-05-19T10:57:32Z</time>
      </trkpt>
      <trkpt lat="46.77955" lon="5.67052">
        <ele>537.8</ele>
        <time>2019-05-19T10:57:34Z</time>
      </trkpt>
      <trkpt lat="46.77954" lon="5.67071">
        <ele>537.8</ele>
        <time>2019-05-19T10:57:37Z</time>
      </trkpt>
      <trkpt lat="46.77954" lon="5.67088">
        <ele>537.8</ele>
        <time>2019-05-19T10:57:40Z</time>
      </trkpt>
      <trkpt lat="46.77954" lon="5.67107">
        <ele>537.9</ele>
        <time>2019-05-19T10:57:43Z</time>
      </trkpt>
      <trkpt lat="46.77954" lon="5.67125">
        <ele>538.1</ele>
        <time>2019-05-19T10:57:46Z</time>
      </trkpt>
      <trkpt lat="46.77954" lon="5.67145">
        <ele>538.3</ele>
        <time>2019-05-19T10:57:49Z</time>
      </trkpt>
      <trkpt lat="46.77955" lon="5.67163">
        <ele>538.6</ele>
        <time>2019-05-19T10:57:52Z</time>
      </trkpt>
      <trkpt lat="46.77954" lon="5.67181">
        <ele>538.8</ele>
        <time>2019-05-19T10:57:55Z</time>
      </trkpt>
      <trkpt lat="46.77954" lon="5.67198">
        <ele>539.2</ele>
        <time>2019-05-19T10:57:58Z</time>
      </trkpt>
      <trkpt lat="46.77954" lon="5.67213">
        <ele>539.4</ele>
        <time>2019-05-19T10:58:01Z</time>
      </trkpt>
      <trkpt lat="46.77953" lon="5.67228">
        <ele>539.8</ele>
        <time>2019-05-19T10:58:04Z</time>
      </trkpt>
      <trkpt lat="46.77955" lon="5.67241">
        <ele>540.1</ele>
        <time>2019-05-19T10:58:07Z</time>
      </trkpt>
      <trkpt lat="46.77956" lon="5.67255">
        <ele>540.6</ele>
        <time>2019-05-19T10:58:10Z</time>
      </trkpt>
      <trkpt lat="46.77954" lon="5.67268">
        <ele>541.1</ele>
        <time>2019-05-19T10:58:13Z</time>
      </trkpt>
      <trkpt lat="46.77952" lon="5.67283">
        <ele>541.7</ele>
        <time>2019-05-19T10:58:17Z</time>
      </trkpt>
      <trkpt lat="46.7796" lon="5.67294">
        <ele>542.6</ele>
        <time>2019-05-19T10:58:22Z</time>
      </trkpt>
      <trkpt lat="46.7797" lon="5.67297">
        <ele>543.1</ele>
        <time>2019-05-19T10:58:25Z</time>
      </trkpt>
      <trkpt lat="46.7798" lon="5.67303">
        <ele>543.4</ele>
        <time>2019-05-19T10:58:28Z</time>
      </trkpt>
      <trkpt lat="46.77992" lon="5.67308">
        <ele>543.7</ele>
        <time>2019-05-19T10:58:31Z</time>
      </trkpt>
      <trkpt lat="46.78002" lon="5.67314">
        <ele>544</ele>
        <time>2019-05-19T10:58:34Z</time>
      </trkpt>
      <trkpt lat="46.78012" lon="5.67321">
        <ele>544.3</ele>
        <time>2019-05-19T10:58:37Z</time>
      </trkpt>
      <trkpt lat="46.78021" lon="5.67326">
        <ele>544.7</ele>
        <time>2019-05-19T10:58:40Z</time>
      </trkpt>
      <trkpt lat="46.7803" lon="5.6733">
        <ele>545</ele>
        <time>2019-05-19T10:58:43Z</time>
      </trkpt>
      <trkpt lat="46.78039" lon="5.67331">
        <ele>545.2</ele>
        <time>2019-05-19T10:58:46Z</time>
      </trkpt>
      <trkpt lat="46.78049" lon="5.67335">
        <ele>545.7</ele>
        <time>2019-05-19T10:58:50Z</time>
      </trkpt>
      <trkpt lat="46.78056" lon="5.67345">
        <ele>546.3</ele>
        <time>2019-05-19T10:58:56Z</time>
      </trkpt>
      <trkpt lat="46.78064" lon="5.67353">
        <ele>546.7</ele>
        <time>2019-05-19T10:59:02Z</time>
      </trkpt>
      <trkpt lat="46.78073" lon="5.67361">
        <ele>547</ele>
        <time>2019-05-19T10:59:08Z</time>
      </trkpt>
      <trkpt lat="46.78082" lon="5.67367">
        <ele>547.3</ele>
        <time>2019-05-19T10:59:12Z</time>
      </trkpt>
      <trkpt lat="46.78092" lon="5.67373">
        <ele>547.5</ele>
        <time>2019-05-19T10:59:16Z</time>
      </trkpt>
      <trkpt lat="46.78104" lon="5.67379">
        <ele>547.7</ele>
        <time>2019-05-19T10:59:20Z</time>
      </trkpt>
      <trkpt lat="46.78115" lon="5.67384">
        <ele>547.8</ele>
        <time>2019-05-19T10:59:23Z</time>
      </trkpt>
      <trkpt lat="46.78128" lon="5.67388">
        <ele>547.9</ele>
        <time>2019-05-19T10:59:26Z</time>
      </trkpt>
      <trkpt lat="46.7814" lon="5.67397">
        <ele>547.8</ele>
        <time>2019-05-19T10:59:29Z</time>
      </trkpt>
      <trkpt lat="46.78148" lon="5.67404">
        <ele>547.6</ele>
        <time>2019-05-19T10:59:33Z</time>
      </trkpt>
      <trkpt lat="46.78156" lon="5.67416">
        <ele>547.2</ele>
        <time>2019-05-19T10:59:37Z</time>
      </trkpt>
      <trkpt lat="46.78164" lon="5.67426">
        <ele>546.9</ele>
        <time>2019-05-19T10:59:40Z</time>
      </trkpt>
      <trkpt lat="46.78173" lon="5.67437">
        <ele>546.5</ele>
        <time>2019-05-19T10:59:44Z</time>
      </trkpt>
      <trkpt lat="46.7818" lon="5.67447">
        <ele>546.3</ele>
        <time>2019-05-19T10:59:48Z</time>
      </trkpt>
      <trkpt lat="46.78187" lon="5.67459">
        <ele>546</ele>
        <time>2019-05-19T10:59:52Z</time>
      </trkpt>
      <trkpt lat="46.78195" lon="5.67469">
        <ele>545.9</ele>
        <time>2019-05-19T10:59:55Z</time>
      </trkpt>
      <trkpt lat="46.78205" lon="5.67482">
        <ele>545.8</ele>
        <time>2019-05-19T10:59:58Z</time>
      </trkpt>
      <trkpt lat="46.78214" lon="5.67496">
        <ele>545.7</ele>
        <time>2019-05-19T11:00:01Z</time>
      </trkpt>
      <trkpt lat="46.78224" lon="5.67509">
        <ele>545.6</ele>
        <time>2019-05-19T11:00:04Z</time>
      </trkpt>
      <trkpt lat="46.78235" lon="5.6752">
        <ele>545.5</ele>
        <time>2019-05-19T11:00:07Z</time>
      </trkpt>
      <trkpt lat="46.78245" lon="5.67533">
        <ele>545.4</ele>
        <time>2019-05-19T11:00:10Z</time>
      </trkpt>
      <trkpt lat="46.78251" lon="5.67543">
        <ele>545.1</ele>
        <time>2019-05-19T11:00:12Z</time>
      </trkpt>
      <trkpt lat="46.78261" lon="5.67557">
        <ele>545</ele>
        <time>2019-05-19T11:00:15Z</time>
      </trkpt>
      <trkpt lat="46.78268" lon="5.67567">
        <ele>544.9</ele>
        <time>2019-05-19T11:00:17Z</time>
      </trkpt>
      <trkpt lat="46.78276" lon="5.67578">
        <ele>544.8</ele>
        <time>2019-05-19T11:00:19Z</time>
      </trkpt>
      <trkpt lat="46.78284" lon="5.6759">
        <ele>544.5</ele>
        <time>2019-05-19T11:00:21Z</time>
      </trkpt>
      <trkpt lat="46.78291" lon="5.676">
        <ele>544.4</ele>
        <time>2019-05-19T11:00:23Z</time>
      </trkpt>
      <trkpt lat="46.78298" lon="5.6761">
        <ele>544.2</ele>
        <time>2019-05-19T11:00:25Z</time>
      </trkpt>
      <trkpt lat="46.78306" lon="5.6762">
        <ele>544</ele>
        <time>2019-05-19T11:00:27Z</time>
      </trkpt>
      <trkpt lat="46.78317" lon="5.6763">
        <ele>543.8</ele>
        <time>2019-05-19T11:00:30Z</time>
      </trkpt>
      <trkpt lat="46.78327" lon="5.67638">
        <ele>543.5</ele>
        <time>2019-05-19T11:00:33Z</time>
      </trkpt>
      <trkpt lat="46.78332" lon="5.67651">
        <ele>543.3</ele>
        <time>2019-05-19T11:00:36Z</time>
      </trkpt>
      <trkpt lat="46.7833" lon="5.67668">
        <ele>543.1</ele>
        <time>2019-05-19T11:00:39Z</time>
      </trkpt>
      <trkpt lat="46.78329" lon="5.67682">
        <ele>543</ele>
        <time>2019-05-19T11:00:41Z</time>
      </trkpt>
      <trkpt lat="46.78328" lon="5.67695">
        <ele>542.9</ele>
        <time>2019-05-19T11:00:43Z</time>
      </trkpt>
      <trkpt lat="46.78325" lon="5.67708">
        <ele>542.8</ele>
        <time>2019-05-19T11:00:45Z</time>
      </trkpt>
      <trkpt lat="46.78318" lon="5.67718">
        <ele>542.8</ele>
        <time>2019-05-19T11:00:47Z</time>
      </trkpt>
      <trkpt lat="46.7831" lon="5.67727">
        <ele>542.7</ele>
        <time>2019-05-19T11:00:49Z</time>
      </trkpt>
      <trkpt lat="46.783" lon="5.67734">
        <ele>542.7</ele>
        <time>2019-05-19T11:00:52Z</time>
      </trkpt>
      <trkpt lat="46.78289" lon="5.67742">
        <ele>542.8</ele>
        <time>2019-05-19T11:00:55Z</time>
      </trkpt>
      <trkpt lat="46.7828" lon="5.67753">
        <ele>542.9</ele>
        <time>2019-05-19T11:00:58Z</time>
      </trkpt>
      <trkpt lat="46.78271" lon="5.67762">
        <ele>543.2</ele>
        <time>2019-05-19T11:01:01Z</time>
      </trkpt>
      <trkpt lat="46.78262" lon="5.67772">
        <ele>543.4</ele>
        <time>2019-05-19T11:01:04Z</time>
      </trkpt>
      <trkpt lat="46.78253" lon="5.67783">
        <ele>543.7</ele>
        <time>2019-05-19T11:01:07Z</time>
      </trkpt>
      <trkpt lat="46.78244" lon="5.67795">
        <ele>543.8</ele>
        <time>2019-05-19T11:01:10Z</time>
      </trkpt>
      <trkpt lat="46.78236" lon="5.67809">
        <ele>543.7</ele>
        <time>2019-05-19T11:01:13Z</time>
      </trkpt>
      <trkpt lat="46.78235" lon="5.67825">
        <ele>543.5</ele>
        <time>2019-05-19T11:01:16Z</time>
      </trkpt>
      <trkpt lat="46.78243" lon="5.67837">
        <ele>543.3</ele>
        <time>2019-05-19T11:01:19Z</time>
      </trkpt>
      <trkpt lat="46.78253" lon="5.67849">
        <ele>543.1</ele>
        <time>2019-05-19T11:01:22Z</time>
      </trkpt>
      <trkpt lat="46.7826" lon="5.67859">
        <ele>543</ele>
        <time>2019-05-19T11:01:24Z</time>
      </trkpt>
      <trkpt lat="46.78266" lon="5.67869">
        <ele>542.9</ele>
        <time>2019-05-19T11:01:26Z</time>
      </trkpt>
      <trkpt lat="46.78272" lon="5.6788">
        <ele>542.8</ele>
        <time>2019-05-19T11:01:28Z</time>
      </trkpt>
      <trkpt lat="46.78278" lon="5.67892">
        <ele>542.7</ele>
        <time>2019-05-19T11:01:30Z</time>
      </trkpt>
      <trkpt lat="46.78286" lon="5.67903">
        <ele>542.7</ele>
        <time>2019-05-19T11:01:32Z</time>
      </trkpt>
      <trkpt lat="46.78292" lon="5.67916">
        <ele>542.6</ele>
        <time>2019-05-19T11:01:34Z</time>
      </trkpt>
      <trkpt lat="46.78297" lon="5.67929">
        <ele>542.6</ele>
        <time>2019-05-19T11:01:36Z</time>
      </trkpt>
      <trkpt lat="46.78306" lon="5.67938">
        <ele>542.4</ele>
        <time>2019-05-19T11:01:38Z</time>
      </trkpt>
      <trkpt lat="46.7832" lon="5.67936">
        <ele>542.2</ele>
        <time>2019-05-19T11:01:40Z</time>
      </trkpt>
      <trkpt lat="46.7833" lon="5.67926">
        <ele>542</ele>
        <time>2019-05-19T11:01:42Z</time>
      </trkpt>
      <trkpt lat="46.7834" lon="5.67917">
        <ele>541.8</ele>
        <time>2019-05-19T11:01:44Z</time>
      </trkpt>
      <trkpt lat="46.78349" lon="5.67909">
        <ele>541.7</ele>
        <time>2019-05-19T11:01:46Z</time>
      </trkpt>
      <trkpt lat="46.78359" lon="5.67904">
        <ele>541.6</ele>
        <time>2019-05-19T11:01:48Z</time>
      </trkpt>
      <trkpt lat="46.78371" lon="5.67906">
        <ele>541.4</ele>
        <time>2019-05-19T11:01:51Z</time>
      </trkpt>
      <trkpt lat="46.78378" lon="5.6792">
        <ele>541.4</ele>
        <time>2019-05-19T11:01:54Z</time>
      </trkpt>
      <trkpt lat="46.78378" lon="5.67939">
        <ele>541.5</ele>
        <time>2019-05-19T11:01:57Z</time>
      </trkpt>
      <trkpt lat="46.78378" lon="5.67958">
        <ele>541.6</ele>
        <time>2019-05-19T11:02:00Z</time>
      </trkpt>
      <trkpt lat="46.78378" lon="5.67971">
        <ele>541.7</ele>
        <time>2019-05-19T11:02:02Z</time>
      </trkpt>
      <trkpt lat="46.78378" lon="5.67985">
        <ele>541.8</ele>
        <time>2019-05-19T11:02:04Z</time>
      </trkpt>
      <trkpt lat="46.7838" lon="5.68004">
        <ele>542</ele>
        <time>2019-05-19T11:02:07Z</time>
      </trkpt>
      <trkpt lat="46.78382" lon="5.68022">
        <ele>542.2</ele>
        <time>2019-05-19T11:02:10Z</time>
      </trkpt>
      <trkpt lat="46.78386" lon="5.6804">
        <ele>542.4</ele>
        <time>2019-05-19T11:02:13Z</time>
      </trkpt>
      <trkpt lat="46.78388" lon="5.68057">
        <ele>542.6</ele>
        <time>2019-05-19T11:02:16Z</time>
      </trkpt>
      <trkpt lat="46.78391" lon="5.68075">
        <ele>542.7</ele>
        <time>2019-05-19T11:02:19Z</time>
      </trkpt>
      <trkpt lat="46.78393" lon="5.68088">
        <ele>542.8</ele>
        <time>2019-05-19T11:02:21Z</time>
      </trkpt>
      <trkpt lat="46.78397" lon="5.68102">
        <ele>542.8</ele>
        <time>2019-05-19T11:02:23Z</time>
      </trkpt>
      <trkpt lat="46.78401" lon="5.68116">
        <ele>542.9</ele>
        <time>2019-05-19T11:02:25Z</time>
      </trkpt>
      <trkpt lat="46.78408" lon="5.68131">
        <ele>542.9</ele>
        <time>2019-05-19T11:02:27Z</time>
      </trkpt>
      <trkpt lat="46.78415" lon="5.68144">
        <ele>543</ele>
        <time>2019-05-19T11:02:29Z</time>
      </trkpt>
      <trkpt lat="46.78421" lon="5.68157">
        <ele>543</ele>
        <time>2019-05-19T11:02:31Z</time>
      </trkpt>
      <trkpt lat="46.78427" lon="5.68169">
        <ele>543</ele>
        <time>2019-05-19T11:02:33Z</time>
      </trkpt>
      <trkpt lat="46.78434" lon="5.68179">
        <ele>543</ele>
        <time>2019-05-19T11:02:35Z</time>
      </trkpt>
      <trkpt lat="46.78441" lon="5.68188">
        <ele>543</ele>
        <time>2019-05-19T11:02:37Z</time>
      </trkpt>
      <trkpt lat="46.7845" lon="5.68199">
        <ele>543.1</ele>
        <time>2019-05-19T11:02:40Z</time>
      </trkpt>
      <trkpt lat="46.78453" lon="5.68212">
        <ele>543.1</ele>
        <time>2019-05-19T11:02:43Z</time>
      </trkpt>
      <trkpt lat="46.78463" lon="5.68216">
        <ele>543.1</ele>
        <time>2019-05-19T11:02:49Z</time>
      </trkpt>
      <trkpt lat="46.78471" lon="5.68208">
        <ele>543.5</ele>
        <time>2019-05-19T11:02:56Z</time>
      </trkpt>
      <trkpt lat="46.78481" lon="5.68202">
        <ele>544</ele>
        <time>2019-05-19T11:03:02Z</time>
      </trkpt>
      <trkpt lat="46.78491" lon="5.68196">
        <ele>544.8</ele>
        <time>2019-05-19T11:03:07Z</time>
      </trkpt>
      <trkpt lat="46.78502" lon="5.68193">
        <ele>545.5</ele>
        <time>2019-05-19T11:03:12Z</time>
      </trkpt>
      <trkpt lat="46.78512" lon="5.68187">
        <ele>545.9</ele>
        <time>2019-05-19T11:03:15Z</time>
      </trkpt>
      <trkpt lat="46.7852" lon="5.68184">
        <ele>546.4</ele>
        <time>2019-05-19T11:03:19Z</time>
      </trkpt>
      <trkpt lat="46.7853" lon="5.68178">
        <ele>546.8</ele>
        <time>2019-05-19T11:03:24Z</time>
      </trkpt>
      <trkpt lat="46.78541" lon="5.68173">
        <ele>547.7</ele>
        <time>2019-05-19T11:03:30Z</time>
      </trkpt>
      <trkpt lat="46.7855" lon="5.68173">
        <ele>548.3</ele>
        <time>2019-05-19T11:03:34Z</time>
      </trkpt>
      <trkpt lat="46.7856" lon="5.68174">
        <ele>549</ele>
        <time>2019-05-19T11:03:39Z</time>
      </trkpt>
      <trkpt lat="46.78569" lon="5.68163">
        <ele>549.8</ele>
        <time>2019-05-19T11:03:46Z</time>
      </trkpt>
      <trkpt lat="46.78575" lon="5.68151">
        <ele>550.4</ele>
        <time>2019-05-19T11:03:51Z</time>
      </trkpt>
      <trkpt lat="46.78585" lon="5.68145">
        <ele>551</ele>
        <time>2019-05-19T11:03:56Z</time>
      </trkpt>
      <trkpt lat="46.78594" lon="5.68144">
        <ele>551.5</ele>
        <time>2019-05-19T11:04:03Z</time>
      </trkpt>
      <trkpt lat="46.78601" lon="5.68135">
        <ele>552.1</ele>
        <time>2019-05-19T11:04:10Z</time>
      </trkpt>
      <trkpt lat="46.7861" lon="5.68125">
        <ele>552.4</ele>
        <time>2019-05-19T11:04:15Z</time>
      </trkpt>
      <trkpt lat="46.78619" lon="5.68116">
        <ele>552.6</ele>
        <time>2019-05-19T11:04:18Z</time>
      </trkpt>
      <trkpt lat="46.78628" lon="5.6811">
        <ele>552.9</ele>
        <time>2019-05-19T11:04:31Z</time>
      </trkpt>
      <trkpt lat="46.78634" lon="5.681">
        <ele>553.4</ele>
        <time>2019-05-19T11:05:17Z</time>
      </trkpt>
      <trkpt lat="46.78638" lon="5.68086">
        <ele>553.4</ele>
        <time>2019-05-19T11:05:21Z</time>
      </trkpt>
      <trkpt lat="46.78643" lon="5.68073">
        <ele>553.4</ele>
        <time>2019-05-19T11:05:25Z</time>
      </trkpt>
      <trkpt lat="46.78643" lon="5.68057">
        <ele>553.5</ele>
        <time>2019-05-19T11:05:29Z</time>
      </trkpt>
      <trkpt lat="46.78642" lon="5.68042">
        <ele>553.7</ele>
        <time>2019-05-19T11:05:33Z</time>
      </trkpt>
      <trkpt lat="46.78642" lon="5.68028">
        <ele>553.9</ele>
        <time>2019-05-19T11:05:37Z</time>
      </trkpt>
      <trkpt lat="46.7864" lon="5.68012">
        <ele>554.2</ele>
        <time>2019-05-19T11:05:41Z</time>
      </trkpt>
      <trkpt lat="46.78637" lon="5.67999">
        <ele>554.3</ele>
        <time>2019-05-19T11:05:44Z</time>
      </trkpt>
      <trkpt lat="46.78636" lon="5.67985">
        <ele>554.4</ele>
        <time>2019-05-19T11:05:47Z</time>
      </trkpt>
      <trkpt lat="46.7864" lon="5.67974">
        <ele>554.7</ele>
        <time>2019-05-19T11:05:54Z</time>
      </trkpt>
      <trkpt lat="46.78631" lon="5.67966">
        <ele>555</ele>
        <time>2019-05-19T11:06:11Z</time>
      </trkpt>
      <trkpt lat="46.78629" lon="5.67953">
        <ele>555.1</ele>
        <time>2019-05-19T11:06:18Z</time>
      </trkpt>
      <trkpt lat="46.78633" lon="5.67939">
        <ele>555.2</ele>
        <time>2019-05-19T11:06:22Z</time>
      </trkpt>
      <trkpt lat="46.78637" lon="5.67926">
        <ele>555</ele>
        <time>2019-05-19T11:06:26Z</time>
      </trkpt>
      <trkpt lat="46.7864" lon="5.67911">
        <ele>555</ele>
        <time>2019-05-19T11:06:32Z</time>
      </trkpt>
      <trkpt lat="46.78648" lon="5.679">
        <ele>555.1</ele>
        <time>2019-05-19T11:06:36Z</time>
      </trkpt>
      <trkpt lat="46.78656" lon="5.67894">
        <ele>555.2</ele>
        <time>2019-05-19T11:06:41Z</time>
      </trkpt>
      <trkpt lat="46.78662" lon="5.67883">
        <ele>555.6</ele>
        <time>2019-05-19T11:06:49Z</time>
      </trkpt>
      <trkpt lat="46.78669" lon="5.6787">
        <ele>556.1</ele>
        <time>2019-05-19T11:06:56Z</time>
      </trkpt>
      <trkpt lat="46.78678" lon="5.67856">
        <ele>556.2</ele>
        <time>2019-05-19T11:06:58Z</time>
      </trkpt>
      <trkpt lat="46.78683" lon="5.67841">
        <ele>556.3</ele>
        <time>2019-05-19T11:07:01Z</time>
      </trkpt>
      <trkpt lat="46.78685" lon="5.67825">
        <ele>556.4</ele>
        <time>2019-05-19T11:07:05Z</time>
      </trkpt>
      <trkpt lat="46.78687" lon="5.67812">
        <ele>556.5</ele>
        <time>2019-05-19T11:07:08Z</time>
      </trkpt>
      <trkpt lat="46.78687" lon="5.67798">
        <ele>556.3</ele>
        <time>2019-05-19T11:07:12Z</time>
      </trkpt>
      <trkpt lat="46.78687" lon="5.67785">
        <ele>555.9</ele>
        <time>2019-05-19T11:07:18Z</time>
      </trkpt>
      <trkpt lat="46.78688" lon="5.67772">
        <ele>555.3</ele>
        <time>2019-05-19T11:07:23Z</time>
      </trkpt>
      <trkpt lat="46.78687" lon="5.6775">
        <ele>554.6</ele>
        <time>2019-05-19T11:07:28Z</time>
      </trkpt>
      <trkpt lat="46.78694" lon="5.67733">
        <ele>554.2</ele>
        <time>2019-05-19T11:07:31Z</time>
      </trkpt>
      <trkpt lat="46.78703" lon="5.67721">
        <ele>553.9</ele>
        <time>2019-05-19T11:07:34Z</time>
      </trkpt>
      <trkpt lat="46.78712" lon="5.67716">
        <ele>553.8</ele>
        <time>2019-05-19T11:07:36Z</time>
      </trkpt>
      <trkpt lat="46.78722" lon="5.67714">
        <ele>553.6</ele>
        <time>2019-05-19T11:07:39Z</time>
      </trkpt>
      <trkpt lat="46.78731" lon="5.67719">
        <ele>553.6</ele>
        <time>2019-05-19T11:07:42Z</time>
      </trkpt>
      <trkpt lat="46.78741" lon="5.67721">
        <ele>553.7</ele>
        <time>2019-05-19T11:07:45Z</time>
      </trkpt>
      <trkpt lat="46.7875" lon="5.67723">
        <ele>553.9</ele>
        <time>2019-05-19T11:07:48Z</time>
      </trkpt>
      <trkpt lat="46.78762" lon="5.67726">
        <ele>554.2</ele>
        <time>2019-05-19T11:07:52Z</time>
      </trkpt>
      <trkpt lat="46.78773" lon="5.67728">
        <ele>554.4</ele>
        <time>2019-05-19T11:07:55Z</time>
      </trkpt>
      <trkpt lat="46.78786" lon="5.67731">
        <ele>554.6</ele>
        <time>2019-05-19T11:07:58Z</time>
      </trkpt>
      <trkpt lat="46.78797" lon="5.67731">
        <ele>554.7</ele>
        <time>2019-05-19T11:08:00Z</time>
      </trkpt>
      <trkpt lat="46.78808" lon="5.67731">
        <ele>554.8</ele>
        <time>2019-05-19T11:08:02Z</time>
      </trkpt>
      <trkpt lat="46.78818" lon="5.6773">
        <ele>554.8</ele>
        <time>2019-05-19T11:08:04Z</time>
      </trkpt>
      <trkpt lat="46.78828" lon="5.6773">
        <ele>554.9</ele>
        <time>2019-05-19T11:08:06Z</time>
      </trkpt>
      <trkpt lat="46.78838" lon="5.67729">
        <ele>554.9</ele>
        <time>2019-05-19T11:08:08Z</time>
      </trkpt>
      <trkpt lat="46.78847" lon="5.67726">
        <ele>555</ele>
        <time>2019-05-19T11:08:10Z</time>
      </trkpt>
      <trkpt lat="46.78858" lon="5.67721">
        <ele>555</ele>
        <time>2019-05-19T11:08:13Z</time>
      </trkpt>
      <trkpt lat="46.78866" lon="5.67714">
        <ele>555</ele>
        <time>2019-05-19T11:08:15Z</time>
      </trkpt>
      <trkpt lat="46.78874" lon="5.67705">
        <ele>555.1</ele>
        <time>2019-05-19T11:08:17Z</time>
      </trkpt>
      <trkpt lat="46.78884" lon="5.67696">
        <ele>555.3</ele>
        <time>2019-05-19T11:08:20Z</time>
      </trkpt>
      <trkpt lat="46.78892" lon="5.67688">
        <ele>555.4</ele>
        <time>2019-05-19T11:08:22Z</time>
      </trkpt>
      <trkpt lat="46.78904" lon="5.67679">
        <ele>555.5</ele>
        <time>2019-05-19T11:08:25Z</time>
      </trkpt>
      <trkpt lat="46.78917" lon="5.67676">
        <ele>555.6</ele>
        <time>2019-05-19T11:08:28Z</time>
      </trkpt>
      <trkpt lat="46.78927" lon="5.67676">
        <ele>555.7</ele>
        <time>2019-05-19T11:08:30Z</time>
      </trkpt>
      <trkpt lat="46.78936" lon="5.67678">
        <ele>555.8</ele>
        <time>2019-05-19T11:08:32Z</time>
      </trkpt>
      <trkpt lat="46.78948" lon="5.67686">
        <ele>556</ele>
        <time>2019-05-19T11:08:35Z</time>
      </trkpt>
      <trkpt lat="46.78958" lon="5.67696">
        <ele>556.3</ele>
        <time>2019-05-19T11:08:38Z</time>
      </trkpt>
      <trkpt lat="46.78968" lon="5.67708">
        <ele>556.7</ele>
        <time>2019-05-19T11:08:41Z</time>
      </trkpt>
      <trkpt lat="46.78979" lon="5.67718">
        <ele>557.1</ele>
        <time>2019-05-19T11:08:44Z</time>
      </trkpt>
      <trkpt lat="46.7899" lon="5.67725">
        <ele>557.7</ele>
        <time>2019-05-19T11:08:47Z</time>
      </trkpt>
      <trkpt lat="46.79002" lon="5.67731">
        <ele>558.4</ele>
        <time>2019-05-19T11:08:50Z</time>
      </trkpt>
      <trkpt lat="46.79013" lon="5.67736">
        <ele>559</ele>
        <time>2019-05-19T11:08:53Z</time>
      </trkpt>
      <trkpt lat="46.79024" lon="5.67739">
        <ele>559.6</ele>
        <time>2019-05-19T11:08:56Z</time>
      </trkpt>
      <trkpt lat="46.79036" lon="5.67741">
        <ele>560.3</ele>
        <time>2019-05-19T11:08:59Z</time>
      </trkpt>
      <trkpt lat="46.79048" lon="5.67744">
        <ele>561</ele>
        <time>2019-05-19T11:09:02Z</time>
      </trkpt>
      <trkpt lat="46.79059" lon="5.67748">
        <ele>561.8</ele>
        <time>2019-05-19T11:09:05Z</time>
      </trkpt>
      <trkpt lat="46.79072" lon="5.67752">
        <ele>562.6</ele>
        <time>2019-05-19T11:09:08Z</time>
      </trkpt>
      <trkpt lat="46.79083" lon="5.67757">
        <ele>563.5</ele>
        <time>2019-05-19T11:09:11Z</time>
      </trkpt>
      <trkpt lat="46.79092" lon="5.67764">
        <ele>564.3</ele>
        <time>2019-05-19T11:09:14Z</time>
      </trkpt>
      <trkpt lat="46.79102" lon="5.67771">
        <ele>565</ele>
        <time>2019-05-19T11:09:17Z</time>
      </trkpt>
      <trkpt lat="46.79112" lon="5.67779">
        <ele>565.5</ele>
        <time>2019-05-19T11:09:20Z</time>
      </trkpt>
      <trkpt lat="46.79123" lon="5.67786">
        <ele>566</ele>
        <time>2019-05-19T11:09:23Z</time>
      </trkpt>
      <trkpt lat="46.79135" lon="5.67795">
        <ele>566.4</ele>
        <time>2019-05-19T11:09:26Z</time>
      </trkpt>
      <trkpt lat="46.79143" lon="5.67801">
        <ele>566.6</ele>
        <time>2019-05-19T11:09:28Z</time>
      </trkpt>
      <trkpt lat="46.79151" lon="5.67807">
        <ele>566.7</ele>
        <time>2019-05-19T11:09:30Z</time>
      </trkpt>
      <trkpt lat="46.7916" lon="5.67813">
        <ele>566.9</ele>
        <time>2019-05-19T11:09:32Z</time>
      </trkpt>
      <trkpt lat="46.7917" lon="5.67816">
        <ele>567.1</ele>
        <time>2019-05-19T11:09:34Z</time>
      </trkpt>
      <trkpt lat="46.79179" lon="5.67819">
        <ele>567.2</ele>
        <time>2019-05-19T11:09:36Z</time>
      </trkpt>
      <trkpt lat="46.79189" lon="5.67822">
        <ele>567.3</ele>
        <time>2019-05-19T11:09:38Z</time>
      </trkpt>
      <trkpt lat="46.79198" lon="5.67824">
        <ele>567.4</ele>
        <time>2019-05-19T11:09:40Z</time>
      </trkpt>
      <trkpt lat="46.79207" lon="5.67828">
        <ele>567.5</ele>
        <time>2019-05-19T11:09:42Z</time>
      </trkpt>
      <trkpt lat="46.79215" lon="5.67834">
        <ele>567.5</ele>
        <time>2019-05-19T11:09:44Z</time>
      </trkpt>
      <trkpt lat="46.79223" lon="5.67841">
        <ele>567.6</ele>
        <time>2019-05-19T11:09:46Z</time>
      </trkpt>
      <trkpt lat="46.79231" lon="5.67849">
        <ele>567.6</ele>
        <time>2019-05-19T11:09:48Z</time>
      </trkpt>
      <trkpt lat="46.79239" lon="5.67857">
        <ele>567.6</ele>
        <time>2019-05-19T11:09:50Z</time>
      </trkpt>
      <trkpt lat="46.79246" lon="5.67865">
        <ele>567.7</ele>
        <time>2019-05-19T11:09:52Z</time>
      </trkpt>
      <trkpt lat="46.79254" lon="5.67874">
        <ele>567.7</ele>
        <time>2019-05-19T11:09:54Z</time>
      </trkpt>
      <trkpt lat="46.79262" lon="5.67882">
        <ele>567.7</ele>
        <time>2019-05-19T11:09:56Z</time>
      </trkpt>
      <trkpt lat="46.79269" lon="5.6789">
        <ele>567.8</ele>
        <time>2019-05-19T11:09:58Z</time>
      </trkpt>
      <trkpt lat="46.79278" lon="5.67901">
        <ele>567.8</ele>
        <time>2019-05-19T11:10:01Z</time>
      </trkpt>
      <trkpt lat="46.79287" lon="5.67908">
        <ele>567.9</ele>
        <time>2019-05-19T11:10:03Z</time>
      </trkpt>
      <trkpt lat="46.79299" lon="5.67916">
        <ele>568.3</ele>
        <time>2019-05-19T11:10:06Z</time>
      </trkpt>
      <trkpt lat="46.79308" lon="5.67922">
        <ele>568.7</ele>
        <time>2019-05-19T11:10:08Z</time>
      </trkpt>
      <trkpt lat="46.79317" lon="5.67928">
        <ele>569</ele>
        <time>2019-05-19T11:10:10Z</time>
      </trkpt>
      <trkpt lat="46.79326" lon="5.67935">
        <ele>569.5</ele>
        <time>2019-05-19T11:10:12Z</time>
      </trkpt>
      <trkpt lat="46.79335" lon="5.6794">
        <ele>569.9</ele>
        <time>2019-05-19T11:10:14Z</time>
      </trkpt>
      <trkpt lat="46.79343" lon="5.67946">
        <ele>570.3</ele>
        <time>2019-05-19T11:10:16Z</time>
      </trkpt>
      <trkpt lat="46.79352" lon="5.67952">
        <ele>570.7</ele>
        <time>2019-05-19T11:10:18Z</time>
      </trkpt>
      <trkpt lat="46.7936" lon="5.67958">
        <ele>571.1</ele>
        <time>2019-05-19T11:10:20Z</time>
      </trkpt>
      <trkpt lat="46.79369" lon="5.67964">
        <ele>571.5</ele>
        <time>2019-05-19T11:10:22Z</time>
      </trkpt>
      <trkpt lat="46.79378" lon="5.6797">
        <ele>571.9</ele>
        <time>2019-05-19T11:10:24Z</time>
      </trkpt>
      <trkpt lat="46.79386" lon="5.67978">
        <ele>572.2</ele>
        <time>2019-05-19T11:10:26Z</time>
      </trkpt>
      <trkpt lat="46.79394" lon="5.67987">
        <ele>572.5</ele>
        <time>2019-05-19T11:10:28Z</time>
      </trkpt>
      <trkpt lat="46.79402" lon="5.67996">
        <ele>572.8</ele>
        <time>2019-05-19T11:10:30Z</time>
      </trkpt>
      <trkpt lat="46.79409" lon="5.68006">
        <ele>573.1</ele>
        <time>2019-05-19T11:10:32Z</time>
      </trkpt>
      <trkpt lat="46.79417" lon="5.68016">
        <ele>573.3</ele>
        <time>2019-05-19T11:10:34Z</time>
      </trkpt>
      <trkpt lat="46.79425" lon="5.68026">
        <ele>573.5</ele>
        <time>2019-05-19T11:10:36Z</time>
      </trkpt>
      <trkpt lat="46.79433" lon="5.68037">
        <ele>573.6</ele>
        <time>2019-05-19T11:10:38Z</time>
      </trkpt>
      <trkpt lat="46.79441" lon="5.68046">
        <ele>573.8</ele>
        <time>2019-05-19T11:10:40Z</time>
      </trkpt>
      <trkpt lat="46.79449" lon="5.68055">
        <ele>574</ele>
        <time>2019-05-19T11:10:42Z</time>
      </trkpt>
      <trkpt lat="46.79457" lon="5.68064">
        <ele>574.3</ele>
        <time>2019-05-19T11:10:44Z</time>
      </trkpt>
      <trkpt lat="46.79465" lon="5.68071">
        <ele>574.5</ele>
        <time>2019-05-19T11:10:46Z</time>
      </trkpt>
      <trkpt lat="46.79473" lon="5.68079">
        <ele>574.8</ele>
        <time>2019-05-19T11:10:48Z</time>
      </trkpt>
      <trkpt lat="46.79482" lon="5.68084">
        <ele>575.2</ele>
        <time>2019-05-19T11:10:50Z</time>
      </trkpt>
      <trkpt lat="46.79492" lon="5.68089">
        <ele>575.6</ele>
        <time>2019-05-19T11:10:52Z</time>
      </trkpt>
      <trkpt lat="46.79501" lon="5.68092">
        <ele>576</ele>
        <time>2019-05-19T11:10:54Z</time>
      </trkpt>
      <trkpt lat="46.79511" lon="5.68095">
        <ele>576.4</ele>
        <time>2019-05-19T11:10:56Z</time>
      </trkpt>
      <trkpt lat="46.7952" lon="5.68098">
        <ele>576.9</ele>
        <time>2019-05-19T11:10:58Z</time>
      </trkpt>
      <trkpt lat="46.7953" lon="5.68101">
        <ele>577.4</ele>
        <time>2019-05-19T11:11:00Z</time>
      </trkpt>
      <trkpt lat="46.79539" lon="5.68105">
        <ele>577.9</ele>
        <time>2019-05-19T11:11:02Z</time>
      </trkpt>
      <trkpt lat="46.79548" lon="5.68108">
        <ele>578.3</ele>
        <time>2019-05-19T11:11:04Z</time>
      </trkpt>
      <trkpt lat="46.79557" lon="5.68112">
        <ele>578.7</ele>
        <time>2019-05-19T11:11:06Z</time>
      </trkpt>
      <trkpt lat="46.79566" lon="5.68116">
        <ele>579</ele>
        <time>2019-05-19T11:11:08Z</time>
      </trkpt>
      <trkpt lat="46.79574" lon="5.6812">
        <ele>579.4</ele>
        <time>2019-05-19T11:11:10Z</time>
      </trkpt>
      <trkpt lat="46.79582" lon="5.68126">
        <ele>579.8</ele>
        <time>2019-05-19T11:11:12Z</time>
      </trkpt>
      <trkpt lat="46.79591" lon="5.68133">
        <ele>580.1</ele>
        <time>2019-05-19T11:11:14Z</time>
      </trkpt>
      <trkpt lat="46.79599" lon="5.68139">
        <ele>580.5</ele>
        <time>2019-05-19T11:11:16Z</time>
      </trkpt>
      <trkpt lat="46.79608" lon="5.68145">
        <ele>580.8</ele>
        <time>2019-05-19T11:11:18Z</time>
      </trkpt>
      <trkpt lat="46.79616" lon="5.68152">
        <ele>581.2</ele>
        <time>2019-05-19T11:11:20Z</time>
      </trkpt>
      <trkpt lat="46.79624" lon="5.68158">
        <ele>581.5</ele>
        <time>2019-05-19T11:11:22Z</time>
      </trkpt>
      <trkpt lat="46.79635" lon="5.68168">
        <ele>582.2</ele>
        <time>2019-05-19T11:11:25Z</time>
      </trkpt>
      <trkpt lat="46.79647" lon="5.68177">
        <ele>582.8</ele>
        <time>2019-05-19T11:11:28Z</time>
      </trkpt>
      <trkpt lat="46.79658" lon="5.68186">
        <ele>583.4</ele>
        <time>2019-05-19T11:11:31Z</time>
      </trkpt>
      <trkpt lat="46.79666" lon="5.68193">
        <ele>583.7</ele>
        <time>2019-05-19T11:11:33Z</time>
      </trkpt>
      <trkpt lat="46.79674" lon="5.682">
        <ele>584.1</ele>
        <time>2019-05-19T11:11:35Z</time>
      </trkpt>
      <trkpt lat="46.79681" lon="5.68208">
        <ele>584.4</ele>
        <time>2019-05-19T11:11:37Z</time>
      </trkpt>
      <trkpt lat="46.79692" lon="5.6822">
        <ele>584.9</ele>
        <time>2019-05-19T11:11:40Z</time>
      </trkpt>
      <trkpt lat="46.797" lon="5.68228">
        <ele>585.2</ele>
        <time>2019-05-19T11:11:42Z</time>
      </trkpt>
      <trkpt lat="46.79708" lon="5.68236">
        <ele>585.4</ele>
        <time>2019-05-19T11:11:44Z</time>
      </trkpt>
      <trkpt lat="46.79717" lon="5.68244">
        <ele>585.6</ele>
        <time>2019-05-19T11:11:46Z</time>
      </trkpt>
      <trkpt lat="46.79727" lon="5.68246">
        <ele>585.8</ele>
        <time>2019-05-19T11:11:48Z</time>
      </trkpt>
      <trkpt lat="46.79737" lon="5.68244">
        <ele>586</ele>
        <time>2019-05-19T11:11:50Z</time>
      </trkpt>
      <trkpt lat="46.79746" lon="5.68238">
        <ele>586.1</ele>
        <time>2019-05-19T11:11:52Z</time>
      </trkpt>
      <trkpt lat="46.79754" lon="5.68229">
        <ele>586.3</ele>
        <time>2019-05-19T11:11:54Z</time>
      </trkpt>
      <trkpt lat="46.79762" lon="5.68221">
        <ele>586.4</ele>
        <time>2019-05-19T11:11:56Z</time>
      </trkpt>
      <trkpt lat="46.7977" lon="5.68212">
        <ele>586.6</ele>
        <time>2019-05-19T11:11:58Z</time>
      </trkpt>
      <trkpt lat="46.79778" lon="5.68205">
        <ele>586.7</ele>
        <time>2019-05-19T11:12:00Z</time>
      </trkpt>
      <trkpt lat="46.79786" lon="5.68197">
        <ele>586.8</ele>
        <time>2019-05-19T11:12:02Z</time>
      </trkpt>
      <trkpt lat="46.79794" lon="5.68191">
        <ele>586.9</ele>
        <time>2019-05-19T11:12:04Z</time>
      </trkpt>
      <trkpt lat="46.79802" lon="5.68178">
        <ele>587.1</ele>
        <time>2019-05-19T11:12:07Z</time>
      </trkpt>
      <trkpt lat="46.79807" lon="5.68164">
        <ele>587.3</ele>
        <time>2019-05-19T11:12:10Z</time>
      </trkpt>
      <trkpt lat="46.79817" lon="5.68161">
        <ele>587.6</ele>
        <time>2019-05-19T11:12:15Z</time>
      </trkpt>
      <trkpt lat="46.79826" lon="5.68164">
        <ele>588.4</ele>
        <time>2019-05-19T11:12:32Z</time>
      </trkpt>
      <trkpt lat="46.79836" lon="5.68169">
        <ele>588.5</ele>
        <time>2019-05-19T11:12:35Z</time>
      </trkpt>
      <trkpt lat="46.79848" lon="5.68177">
        <ele>588.6</ele>
        <time>2019-05-19T11:12:38Z</time>
      </trkpt>
      <trkpt lat="46.79858" lon="5.68183">
        <ele>588.6</ele>
        <time>2019-05-19T11:12:40Z</time>
      </trkpt>
      <trkpt lat="46.79869" lon="5.68189">
        <ele>588.5</ele>
        <time>2019-05-19T11:12:42Z</time>
      </trkpt>
      <trkpt lat="46.7988" lon="5.68196">
        <ele>588.4</ele>
        <time>2019-05-19T11:12:44Z</time>
      </trkpt>
      <trkpt lat="46.79891" lon="5.68205">
        <ele>588.3</ele>
        <time>2019-05-19T11:12:46Z</time>
      </trkpt>
      <trkpt lat="46.79903" lon="5.68214">
        <ele>588</ele>
        <time>2019-05-19T11:12:48Z</time>
      </trkpt>
      <trkpt lat="46.79914" lon="5.68223">
        <ele>587.7</ele>
        <time>2019-05-19T11:12:50Z</time>
      </trkpt>
      <trkpt lat="46.79925" lon="5.68233">
        <ele>587.4</ele>
        <time>2019-05-19T11:12:52Z</time>
      </trkpt>
      <trkpt lat="46.79936" lon="5.68242">
        <ele>587.1</ele>
        <time>2019-05-19T11:12:54Z</time>
      </trkpt>
      <trkpt lat="46.79947" lon="5.6825">
        <ele>586.8</ele>
        <time>2019-05-19T11:12:56Z</time>
      </trkpt>
      <trkpt lat="46.79955" lon="5.68257">
        <ele>586.6</ele>
        <time>2019-05-19T11:12:58Z</time>
      </trkpt>
      <trkpt lat="46.79963" lon="5.68264">
        <ele>586.4</ele>
        <time>2019-05-19T11:13:00Z</time>
      </trkpt>
      <trkpt lat="46.79972" lon="5.68271">
        <ele>586.1</ele>
        <time>2019-05-19T11:13:02Z</time>
      </trkpt>
      <trkpt lat="46.79982" lon="5.68278">
        <ele>585.9</ele>
        <time>2019-05-19T11:13:04Z</time>
      </trkpt>
      <trkpt lat="46.79992" lon="5.68286">
        <ele>585.6</ele>
        <time>2019-05-19T11:13:06Z</time>
      </trkpt>
      <trkpt lat="46.80002" lon="5.68293">
        <ele>585.2</ele>
        <time>2019-05-19T11:13:08Z</time>
      </trkpt>
      <trkpt lat="46.80015" lon="5.68302">
        <ele>584.8</ele>
        <time>2019-05-19T11:13:10Z</time>
      </trkpt>
      <trkpt lat="46.80028" lon="5.68314">
        <ele>584.2</ele>
        <time>2019-05-19T11:13:12Z</time>
      </trkpt>
      <trkpt lat="46.8004" lon="5.6833">
        <ele>583.6</ele>
        <time>2019-05-19T11:13:14Z</time>
      </trkpt>
      <trkpt lat="46.8005" lon="5.6835">
        <ele>582.9</ele>
        <time>2019-05-19T11:13:16Z</time>
      </trkpt>
      <trkpt lat="46.80055" lon="5.68362">
        <ele>582.5</ele>
        <time>2019-05-19T11:13:17Z</time>
      </trkpt>
      <trkpt lat="46.8006" lon="5.68374">
        <ele>582.2</ele>
        <time>2019-05-19T11:13:18Z</time>
      </trkpt>
      <trkpt lat="46.80065" lon="5.68386">
        <ele>581.8</ele>
        <time>2019-05-19T11:13:19Z</time>
      </trkpt>
      <trkpt lat="46.80072" lon="5.68396">
        <ele>581.4</ele>
        <time>2019-05-19T11:13:20Z</time>
      </trkpt>
      <trkpt lat="46.80079" lon="5.68404">
        <ele>581</ele>
        <time>2019-05-19T11:13:21Z</time>
      </trkpt>
      <trkpt lat="46.80096" lon="5.68413">
        <ele>580.3</ele>
        <time>2019-05-19T11:13:23Z</time>
      </trkpt>
      <trkpt lat="46.80112" lon="5.68419">
        <ele>579.6</ele>
        <time>2019-05-19T11:13:25Z</time>
      </trkpt>
      <trkpt lat="46.80127" lon="5.68426">
        <ele>579.1</ele>
        <time>2019-05-19T11:13:27Z</time>
      </trkpt>
      <trkpt lat="46.80141" lon="5.68433">
        <ele>578.3</ele>
        <time>2019-05-19T11:13:29Z</time>
      </trkpt>
      <trkpt lat="46.80157" lon="5.68442">
        <ele>577.5</ele>
        <time>2019-05-19T11:13:31Z</time>
      </trkpt>
      <trkpt lat="46.80173" lon="5.68449">
        <ele>576.7</ele>
        <time>2019-05-19T11:13:33Z</time>
      </trkpt>
      <trkpt lat="46.80188" lon="5.68456">
        <ele>576</ele>
        <time>2019-05-19T11:13:35Z</time>
      </trkpt>
      <trkpt lat="46.80202" lon="5.6846">
        <ele>575.4</ele>
        <time>2019-05-19T11:13:37Z</time>
      </trkpt>
      <trkpt lat="46.80214" lon="5.68462">
        <ele>574.9</ele>
        <time>2019-05-19T11:13:39Z</time>
      </trkpt>
      <trkpt lat="46.80224" lon="5.68462">
        <ele>574.4</ele>
        <time>2019-05-19T11:13:41Z</time>
      </trkpt>
      <trkpt lat="46.80235" lon="5.6846">
        <ele>574</ele>
        <time>2019-05-19T11:13:43Z</time>
      </trkpt>
      <trkpt lat="46.80246" lon="5.68456">
        <ele>573.6</ele>
        <time>2019-05-19T11:13:45Z</time>
      </trkpt>
      <trkpt lat="46.80254" lon="5.68454">
        <ele>573.3</ele>
        <time>2019-05-19T11:13:47Z</time>
      </trkpt>
      <trkpt lat="46.80265" lon="5.68452">
        <ele>572.9</ele>
        <time>2019-05-19T11:13:50Z</time>
      </trkpt>
      <trkpt lat="46.80275" lon="5.68452">
        <ele>572.6</ele>
        <time>2019-05-19T11:13:53Z</time>
      </trkpt>
      <trkpt lat="46.80285" lon="5.68451">
        <ele>572.4</ele>
        <time>2019-05-19T11:13:55Z</time>
      </trkpt>
      <trkpt lat="46.80296" lon="5.68449">
        <ele>572.3</ele>
        <time>2019-05-19T11:13:57Z</time>
      </trkpt>
      <trkpt lat="46.80308" lon="5.68446">
        <ele>572.1</ele>
        <time>2019-05-19T11:13:59Z</time>
      </trkpt>
      <trkpt lat="46.80321" lon="5.68442">
        <ele>571.8</ele>
        <time>2019-05-19T11:14:01Z</time>
      </trkpt>
      <trkpt lat="46.80332" lon="5.68438">
        <ele>571.5</ele>
        <time>2019-05-19T11:14:03Z</time>
      </trkpt>
      <trkpt lat="46.80342" lon="5.68433">
        <ele>571.1</ele>
        <time>2019-05-19T11:14:05Z</time>
      </trkpt>
      <trkpt lat="46.80351" lon="5.68428">
        <ele>570.7</ele>
        <time>2019-05-19T11:14:07Z</time>
      </trkpt>
      <trkpt lat="46.8036" lon="5.68423">
        <ele>570.3</ele>
        <time>2019-05-19T11:14:09Z</time>
      </trkpt>
      <trkpt lat="46.80369" lon="5.68416">
        <ele>569.9</ele>
        <time>2019-05-19T11:14:11Z</time>
      </trkpt>
      <trkpt lat="46.80378" lon="5.68408">
        <ele>569.4</ele>
        <time>2019-05-19T11:14:13Z</time>
      </trkpt>
      <trkpt lat="46.80388" lon="5.684">
        <ele>569</ele>
        <time>2019-05-19T11:14:15Z</time>
      </trkpt>
      <trkpt lat="46.80397" lon="5.68392">
        <ele>568.6</ele>
        <time>2019-05-19T11:14:17Z</time>
      </trkpt>
      <trkpt lat="46.80409" lon="5.68385">
        <ele>568.2</ele>
        <time>2019-05-19T11:14:19Z</time>
      </trkpt>
      <trkpt lat="46.80422" lon="5.68382">
        <ele>567.7</ele>
        <time>2019-05-19T11:14:21Z</time>
      </trkpt>
      <trkpt lat="46.80435" lon="5.68382">
        <ele>567.2</ele>
        <time>2019-05-19T11:14:23Z</time>
      </trkpt>
      <trkpt lat="46.80449" lon="5.68385">
        <ele>566.6</ele>
        <time>2019-05-19T11:14:25Z</time>
      </trkpt>
      <trkpt lat="46.80463" lon="5.68389">
        <ele>566</ele>
        <time>2019-05-19T11:14:27Z</time>
      </trkpt>
      <trkpt lat="46.80477" lon="5.68393">
        <ele>565.3</ele>
        <time>2019-05-19T11:14:29Z</time>
      </trkpt>
      <trkpt lat="46.80491" lon="5.68396">
        <ele>564.7</ele>
        <time>2019-05-19T11:14:31Z</time>
      </trkpt>
      <trkpt lat="46.805" lon="5.68399">
        <ele>564</ele>
        <time>2019-05-19T11:14:33Z</time>
      </trkpt>
      <trkpt lat="46.80505" lon="5.68411">
        <ele>562.8</ele>
        <time>2019-05-19T11:14:37Z</time>
      </trkpt>
      <trkpt lat="46.80496" lon="5.68417">
        <ele>561.6</ele>
        <time>2019-05-19T11:14:43Z</time>
      </trkpt>
      <trkpt lat="46.80491" lon="5.68414">
        <ele>557.7</ele>
        <time>2019-05-19T11:16:20Z</time>
      </trkpt>
    </trkseg>
  </trk>
</gpx>